<?xml version="1.0" encoding="UTF-8" standalone="no" ?>
<gpx xmlns="http://www.topografix.com/GPX/1/1" xmlns:xsi="http://www.w3.org/2001/XMLSchema-instance" xsi:schemaLocation="http://www.topografix.com/GPX/1/1 http://www.topografix.com/GPX/1/1/gpx.xsd" version="1.1" creator="VisuGPX - https://www.visugpx.com">
  <metadata>
    <name>Porkerol</name>
    <desc><![CDATA[Porquerolle 4 sept \'15]]></desc>
  </metadata>
  <trk>
    <name><![CDATA[TR-20150904-165049]]></name>
    <trkseg>
      <trkpt lat="43.11627" lon="6.20628">
        <ele>50</ele>
        <time>2015-09-04T14:50:50.000Z</time>
      </trkpt>
      <trkpt lat="43.11627" lon="6.20629">
        <ele>50</ele>
        <time>2015-09-04T14:50:51.000Z</time>
      </trkpt>
      <trkpt lat="43.11627" lon="6.20628">
        <ele>51</ele>
        <time>2015-09-04T14:50:52.000Z</time>
      </trkpt>
      <trkpt lat="43.11627" lon="6.20628">
        <ele>51</ele>
        <time>2015-09-04T14:50:53.000Z</time>
      </trkpt>
      <trkpt lat="43.11626" lon="6.20626">
        <ele>52</ele>
        <time>2015-09-04T14:50:54.000Z</time>
      </trkpt>
      <trkpt lat="43.11626" lon="6.20626">
        <ele>52</ele>
        <time>2015-09-04T14:50:55.000Z</time>
      </trkpt>
      <trkpt lat="43.11626" lon="6.20626">
        <ele>52</ele>
        <time>2015-09-04T14:50:56.000Z</time>
      </trkpt>
      <trkpt lat="43.11626" lon="6.20626">
        <ele>52</ele>
        <time>2015-09-04T14:50:57.000Z</time>
      </trkpt>
      <trkpt lat="43.11626" lon="6.20625">
        <ele>51</ele>
        <time>2015-09-04T14:50:58.000Z</time>
      </trkpt>
      <trkpt lat="43.11626" lon="6.20624">
        <ele>51</ele>
        <time>2015-09-04T14:50:59.000Z</time>
      </trkpt>
      <trkpt lat="43.11627" lon="6.20624">
        <ele>51</ele>
        <time>2015-09-04T14:51:00.000Z</time>
      </trkpt>
      <trkpt lat="43.11626" lon="6.20623">
        <ele>51</ele>
        <time>2015-09-04T14:51:01.000Z</time>
      </trkpt>
      <trkpt lat="43.11626" lon="6.20623">
        <ele>51</ele>
        <time>2015-09-04T14:51:02.000Z</time>
      </trkpt>
      <trkpt lat="43.11626" lon="6.20623">
        <ele>51</ele>
        <time>2015-09-04T14:51:03.000Z</time>
      </trkpt>
      <trkpt lat="43.11625" lon="6.20623">
        <ele>52</ele>
        <time>2015-09-04T14:51:04.000Z</time>
      </trkpt>
      <trkpt lat="43.11625" lon="6.20623">
        <ele>52</ele>
        <time>2015-09-04T14:51:05.000Z</time>
      </trkpt>
      <trkpt lat="43.11625" lon="6.20623">
        <ele>52</ele>
        <time>2015-09-04T14:51:06.000Z</time>
      </trkpt>
      <trkpt lat="43.11625" lon="6.20623">
        <ele>52</ele>
        <time>2015-09-04T14:51:07.000Z</time>
      </trkpt>
      <trkpt lat="43.11625" lon="6.20623">
        <ele>52</ele>
        <time>2015-09-04T14:51:08.000Z</time>
      </trkpt>
      <trkpt lat="43.11625" lon="6.20623">
        <ele>53</ele>
        <time>2015-09-04T14:51:09.000Z</time>
      </trkpt>
      <trkpt lat="43.11625" lon="6.20623">
        <ele>53</ele>
        <time>2015-09-04T14:51:10.000Z</time>
      </trkpt>
      <trkpt lat="43.11625" lon="6.20624">
        <ele>53</ele>
        <time>2015-09-04T14:51:11.000Z</time>
      </trkpt>
      <trkpt lat="43.11625" lon="6.20624">
        <ele>53</ele>
        <time>2015-09-04T14:51:12.000Z</time>
      </trkpt>
      <trkpt lat="43.11626" lon="6.20625">
        <ele>53</ele>
        <time>2015-09-04T14:51:13.000Z</time>
      </trkpt>
      <trkpt lat="43.11626" lon="6.20626">
        <ele>53</ele>
        <time>2015-09-04T14:51:14.000Z</time>
      </trkpt>
      <trkpt lat="43.11627" lon="6.20626">
        <ele>53</ele>
        <time>2015-09-04T14:51:15.000Z</time>
      </trkpt>
      <trkpt lat="43.11627" lon="6.20626">
        <ele>52</ele>
        <time>2015-09-04T14:51:16.000Z</time>
      </trkpt>
      <trkpt lat="43.11628" lon="6.20626">
        <ele>52</ele>
        <time>2015-09-04T14:51:17.000Z</time>
      </trkpt>
      <trkpt lat="43.11627" lon="6.20625">
        <ele>50</ele>
        <time>2015-09-04T14:51:18.000Z</time>
      </trkpt>
      <trkpt lat="43.11627" lon="6.20625">
        <ele>50</ele>
        <time>2015-09-04T14:51:19.000Z</time>
      </trkpt>
      <trkpt lat="43.11627" lon="6.20625">
        <ele>50</ele>
        <time>2015-09-04T14:51:20.000Z</time>
      </trkpt>
      <trkpt lat="43.11627" lon="6.20625">
        <ele>50</ele>
        <time>2015-09-04T14:51:21.000Z</time>
      </trkpt>
      <trkpt lat="43.11627" lon="6.20626">
        <ele>50</ele>
        <time>2015-09-04T14:51:22.000Z</time>
      </trkpt>
      <trkpt lat="43.11627" lon="6.20626">
        <ele>50</ele>
        <time>2015-09-04T14:51:23.000Z</time>
      </trkpt>
      <trkpt lat="43.11627" lon="6.20626">
        <ele>50</ele>
        <time>2015-09-04T14:51:24.000Z</time>
      </trkpt>
      <trkpt lat="43.11627" lon="6.20626">
        <ele>50</ele>
        <time>2015-09-04T14:51:25.000Z</time>
      </trkpt>
      <trkpt lat="43.11627" lon="6.20626">
        <ele>50</ele>
        <time>2015-09-04T14:51:26.000Z</time>
      </trkpt>
      <trkpt lat="43.11627" lon="6.20625">
        <ele>50</ele>
        <time>2015-09-04T14:51:27.000Z</time>
      </trkpt>
      <trkpt lat="43.11627" lon="6.20626">
        <ele>50</ele>
        <time>2015-09-04T14:51:28.000Z</time>
      </trkpt>
      <trkpt lat="43.11627" lon="6.20626">
        <ele>50</ele>
        <time>2015-09-04T14:51:29.000Z</time>
      </trkpt>
      <trkpt lat="43.11627" lon="6.20626">
        <ele>50</ele>
        <time>2015-09-04T14:51:30.000Z</time>
      </trkpt>
      <trkpt lat="43.11627" lon="6.20626">
        <ele>50</ele>
        <time>2015-09-04T14:51:31.000Z</time>
      </trkpt>
      <trkpt lat="43.11627" lon="6.20626">
        <ele>50</ele>
        <time>2015-09-04T14:51:32.000Z</time>
      </trkpt>
      <trkpt lat="43.11627" lon="6.20626">
        <ele>50</ele>
        <time>2015-09-04T14:51:33.000Z</time>
      </trkpt>
      <trkpt lat="43.11627" lon="6.20626">
        <ele>50</ele>
        <time>2015-09-04T14:51:34.000Z</time>
      </trkpt>
      <trkpt lat="43.11627" lon="6.20626">
        <ele>50</ele>
        <time>2015-09-04T14:51:35.000Z</time>
      </trkpt>
      <trkpt lat="43.11627" lon="6.20626">
        <ele>50</ele>
        <time>2015-09-04T14:51:36.000Z</time>
      </trkpt>
      <trkpt lat="43.11627" lon="6.20626">
        <ele>51</ele>
        <time>2015-09-04T14:51:37.000Z</time>
      </trkpt>
      <trkpt lat="43.11628" lon="6.20626">
        <ele>52</ele>
        <time>2015-09-04T14:51:38.000Z</time>
      </trkpt>
      <trkpt lat="43.11628" lon="6.20627">
        <ele>53</ele>
        <time>2015-09-04T14:51:39.000Z</time>
      </trkpt>
      <trkpt lat="43.11629" lon="6.20627">
        <ele>54</ele>
        <time>2015-09-04T14:51:40.000Z</time>
      </trkpt>
      <trkpt lat="43.11629" lon="6.20628">
        <ele>53</ele>
        <time>2015-09-04T14:51:41.000Z</time>
      </trkpt>
      <trkpt lat="43.11628" lon="6.20628">
        <ele>53</ele>
        <time>2015-09-04T14:51:42.000Z</time>
      </trkpt>
      <trkpt lat="43.11627" lon="6.20628">
        <ele>53</ele>
        <time>2015-09-04T14:51:43.000Z</time>
      </trkpt>
      <trkpt lat="43.11626" lon="6.20628">
        <ele>52</ele>
        <time>2015-09-04T14:51:44.000Z</time>
      </trkpt>
      <trkpt lat="43.11627" lon="6.20627">
        <ele>52</ele>
        <time>2015-09-04T14:51:45.000Z</time>
      </trkpt>
      <trkpt lat="43.11627" lon="6.20627">
        <ele>53</ele>
        <time>2015-09-04T14:51:46.000Z</time>
      </trkpt>
      <trkpt lat="43.11627" lon="6.20627">
        <ele>53</ele>
        <time>2015-09-04T14:51:47.000Z</time>
      </trkpt>
      <trkpt lat="43.11626" lon="6.20628">
        <ele>53</ele>
        <time>2015-09-04T14:51:48.000Z</time>
      </trkpt>
      <trkpt lat="43.11626" lon="6.20628">
        <ele>53</ele>
        <time>2015-09-04T14:51:49.000Z</time>
      </trkpt>
      <trkpt lat="43.11626" lon="6.20627">
        <ele>53</ele>
        <time>2015-09-04T14:51:50.000Z</time>
      </trkpt>
      <trkpt lat="43.11626" lon="6.20627">
        <ele>54</ele>
        <time>2015-09-04T14:51:51.000Z</time>
      </trkpt>
      <trkpt lat="43.11626" lon="6.20627">
        <ele>54</ele>
        <time>2015-09-04T14:51:52.000Z</time>
      </trkpt>
      <trkpt lat="43.11626" lon="6.20627">
        <ele>54</ele>
        <time>2015-09-04T14:51:53.000Z</time>
      </trkpt>
      <trkpt lat="43.11626" lon="6.20627">
        <ele>54</ele>
        <time>2015-09-04T14:51:54.000Z</time>
      </trkpt>
      <trkpt lat="43.11626" lon="6.20627">
        <ele>54</ele>
        <time>2015-09-04T14:51:55.000Z</time>
      </trkpt>
      <trkpt lat="43.11626" lon="6.20627">
        <ele>54</ele>
        <time>2015-09-04T14:51:56.000Z</time>
      </trkpt>
      <trkpt lat="43.11626" lon="6.20627">
        <ele>54</ele>
        <time>2015-09-04T14:51:57.000Z</time>
      </trkpt>
      <trkpt lat="43.11626" lon="6.20627">
        <ele>54</ele>
        <time>2015-09-04T14:51:58.000Z</time>
      </trkpt>
      <trkpt lat="43.11626" lon="6.20626">
        <ele>53</ele>
        <time>2015-09-04T14:51:59.000Z</time>
      </trkpt>
      <trkpt lat="43.11626" lon="6.20626">
        <ele>53</ele>
        <time>2015-09-04T14:52:00.000Z</time>
      </trkpt>
      <trkpt lat="43.11626" lon="6.20626">
        <ele>53</ele>
        <time>2015-09-04T14:52:01.000Z</time>
      </trkpt>
      <trkpt lat="43.11626" lon="6.20626">
        <ele>53</ele>
        <time>2015-09-04T14:52:02.000Z</time>
      </trkpt>
      <trkpt lat="43.11626" lon="6.20626">
        <ele>53</ele>
        <time>2015-09-04T14:52:03.000Z</time>
      </trkpt>
      <trkpt lat="43.11626" lon="6.20626">
        <ele>53</ele>
        <time>2015-09-04T14:52:04.000Z</time>
      </trkpt>
      <trkpt lat="43.11626" lon="6.20626">
        <ele>53</ele>
        <time>2015-09-04T14:52:05.000Z</time>
      </trkpt>
      <trkpt lat="43.11626" lon="6.20626">
        <ele>53</ele>
        <time>2015-09-04T14:52:06.000Z</time>
      </trkpt>
      <trkpt lat="43.11626" lon="6.20626">
        <ele>53</ele>
        <time>2015-09-04T14:52:07.000Z</time>
      </trkpt>
      <trkpt lat="43.11626" lon="6.20626">
        <ele>53</ele>
        <time>2015-09-04T14:52:08.000Z</time>
      </trkpt>
      <trkpt lat="43.11626" lon="6.20626">
        <ele>53</ele>
        <time>2015-09-04T14:52:09.000Z</time>
      </trkpt>
      <trkpt lat="43.11626" lon="6.20626">
        <ele>54</ele>
        <time>2015-09-04T14:52:10.000Z</time>
      </trkpt>
      <trkpt lat="43.11626" lon="6.20626">
        <ele>53</ele>
        <time>2015-09-04T14:52:11.000Z</time>
      </trkpt>
      <trkpt lat="43.11626" lon="6.20626">
        <ele>53</ele>
        <time>2015-09-04T14:52:12.000Z</time>
      </trkpt>
      <trkpt lat="43.11626" lon="6.20626">
        <ele>53</ele>
        <time>2015-09-04T14:52:13.000Z</time>
      </trkpt>
      <trkpt lat="43.11626" lon="6.20626">
        <ele>53</ele>
        <time>2015-09-04T14:52:14.000Z</time>
      </trkpt>
      <trkpt lat="43.11626" lon="6.20626">
        <ele>53</ele>
        <time>2015-09-04T14:52:15.000Z</time>
      </trkpt>
      <trkpt lat="43.11626" lon="6.20626">
        <ele>53</ele>
        <time>2015-09-04T14:52:16.000Z</time>
      </trkpt>
      <trkpt lat="43.11626" lon="6.20626">
        <ele>53</ele>
        <time>2015-09-04T14:52:17.000Z</time>
      </trkpt>
      <trkpt lat="43.11625" lon="6.20626">
        <ele>54</ele>
        <time>2015-09-04T14:52:18.000Z</time>
      </trkpt>
      <trkpt lat="43.11626" lon="6.20626">
        <ele>53</ele>
        <time>2015-09-04T14:52:19.000Z</time>
      </trkpt>
      <trkpt lat="43.11626" lon="6.20626">
        <ele>54</ele>
        <time>2015-09-04T14:52:20.000Z</time>
      </trkpt>
      <trkpt lat="43.11625" lon="6.20626">
        <ele>54</ele>
        <time>2015-09-04T14:52:21.000Z</time>
      </trkpt>
      <trkpt lat="43.11625" lon="6.20626">
        <ele>54</ele>
        <time>2015-09-04T14:52:22.000Z</time>
      </trkpt>
      <trkpt lat="43.11625" lon="6.20626">
        <ele>54</ele>
        <time>2015-09-04T14:52:23.000Z</time>
      </trkpt>
      <trkpt lat="43.11625" lon="6.20625">
        <ele>54</ele>
        <time>2015-09-04T14:52:24.000Z</time>
      </trkpt>
      <trkpt lat="43.11625" lon="6.20625">
        <ele>54</ele>
        <time>2015-09-04T14:52:25.000Z</time>
      </trkpt>
      <trkpt lat="43.11625" lon="6.20625">
        <ele>54</ele>
        <time>2015-09-04T14:52:26.000Z</time>
      </trkpt>
      <trkpt lat="43.11625" lon="6.20624">
        <ele>54</ele>
        <time>2015-09-04T14:52:27.000Z</time>
      </trkpt>
      <trkpt lat="43.11625" lon="6.20623">
        <ele>55</ele>
        <time>2015-09-04T14:52:28.000Z</time>
      </trkpt>
      <trkpt lat="43.11625" lon="6.20622">
        <ele>54</ele>
        <time>2015-09-04T14:52:29.000Z</time>
      </trkpt>
      <trkpt lat="43.11625" lon="6.20619">
        <ele>55</ele>
        <time>2015-09-04T14:52:30.000Z</time>
      </trkpt>
      <trkpt lat="43.11625" lon="6.20617">
        <ele>56</ele>
        <time>2015-09-04T14:52:31.000Z</time>
      </trkpt>
      <trkpt lat="43.11625" lon="6.20615">
        <ele>55</ele>
        <time>2015-09-04T14:52:32.000Z</time>
      </trkpt>
      <trkpt lat="43.11625" lon="6.20613">
        <ele>54</ele>
        <time>2015-09-04T14:52:33.000Z</time>
      </trkpt>
      <trkpt lat="43.11626" lon="6.20611">
        <ele>54</ele>
        <time>2015-09-04T14:52:34.000Z</time>
      </trkpt>
      <trkpt lat="43.11626" lon="6.20609">
        <ele>54</ele>
        <time>2015-09-04T14:52:35.000Z</time>
      </trkpt>
      <trkpt lat="43.11626" lon="6.20607">
        <ele>53</ele>
        <time>2015-09-04T14:52:36.000Z</time>
      </trkpt>
      <trkpt lat="43.11627" lon="6.20606">
        <ele>53</ele>
        <time>2015-09-04T14:52:37.000Z</time>
      </trkpt>
      <trkpt lat="43.11628" lon="6.20605">
        <ele>53</ele>
        <time>2015-09-04T14:52:38.000Z</time>
      </trkpt>
      <trkpt lat="43.11628" lon="6.20604">
        <ele>53</ele>
        <time>2015-09-04T14:52:39.000Z</time>
      </trkpt>
      <trkpt lat="43.11629" lon="6.20603">
        <ele>54</ele>
        <time>2015-09-04T14:52:40.000Z</time>
      </trkpt>
      <trkpt lat="43.1163" lon="6.20602">
        <ele>54</ele>
        <time>2015-09-04T14:52:41.000Z</time>
      </trkpt>
      <trkpt lat="43.1163" lon="6.20601">
        <ele>53</ele>
        <time>2015-09-04T14:52:42.000Z</time>
      </trkpt>
      <trkpt lat="43.1163" lon="6.206">
        <ele>52</ele>
        <time>2015-09-04T14:52:43.000Z</time>
      </trkpt>
      <trkpt lat="43.11631" lon="6.20599">
        <ele>52</ele>
        <time>2015-09-04T14:52:44.000Z</time>
      </trkpt>
      <trkpt lat="43.11631" lon="6.20598">
        <ele>51</ele>
        <time>2015-09-04T14:52:45.000Z</time>
      </trkpt>
      <trkpt lat="43.11632" lon="6.20597">
        <ele>51</ele>
        <time>2015-09-04T14:52:46.000Z</time>
      </trkpt>
      <trkpt lat="43.11633" lon="6.20596">
        <ele>52</ele>
        <time>2015-09-04T14:52:47.000Z</time>
      </trkpt>
      <trkpt lat="43.11633" lon="6.20596">
        <ele>51</ele>
        <time>2015-09-04T14:52:48.000Z</time>
      </trkpt>
      <trkpt lat="43.11633" lon="6.20596">
        <ele>52</ele>
        <time>2015-09-04T14:52:49.000Z</time>
      </trkpt>
      <trkpt lat="43.11633" lon="6.20596">
        <ele>52</ele>
        <time>2015-09-04T14:52:50.000Z</time>
      </trkpt>
      <trkpt lat="43.11633" lon="6.20596">
        <ele>52</ele>
        <time>2015-09-04T14:52:51.000Z</time>
      </trkpt>
      <trkpt lat="43.11633" lon="6.20596">
        <ele>53</ele>
        <time>2015-09-04T14:52:52.000Z</time>
      </trkpt>
      <trkpt lat="43.11633" lon="6.20596">
        <ele>53</ele>
        <time>2015-09-04T14:52:53.000Z</time>
      </trkpt>
      <trkpt lat="43.11633" lon="6.20596">
        <ele>53</ele>
        <time>2015-09-04T14:52:54.000Z</time>
      </trkpt>
      <trkpt lat="43.11633" lon="6.20597">
        <ele>53</ele>
        <time>2015-09-04T14:52:55.000Z</time>
      </trkpt>
      <trkpt lat="43.11633" lon="6.20597">
        <ele>53</ele>
        <time>2015-09-04T14:52:56.000Z</time>
      </trkpt>
      <trkpt lat="43.11633" lon="6.20597">
        <ele>53</ele>
        <time>2015-09-04T14:52:57.000Z</time>
      </trkpt>
      <trkpt lat="43.11633" lon="6.20596">
        <ele>55</ele>
        <time>2015-09-04T14:52:58.000Z</time>
      </trkpt>
      <trkpt lat="43.11633" lon="6.20596">
        <ele>54</ele>
        <time>2015-09-04T14:52:59.000Z</time>
      </trkpt>
      <trkpt lat="43.11633" lon="6.20596">
        <ele>54</ele>
        <time>2015-09-04T14:53:00.000Z</time>
      </trkpt>
      <trkpt lat="43.11633" lon="6.20596">
        <ele>54</ele>
        <time>2015-09-04T14:53:01.000Z</time>
      </trkpt>
      <trkpt lat="43.11633" lon="6.20596">
        <ele>54</ele>
        <time>2015-09-04T14:53:02.000Z</time>
      </trkpt>
      <trkpt lat="43.11633" lon="6.20596">
        <ele>55</ele>
        <time>2015-09-04T14:53:03.000Z</time>
      </trkpt>
      <trkpt lat="43.11633" lon="6.20596">
        <ele>55</ele>
        <time>2015-09-04T14:53:04.000Z</time>
      </trkpt>
      <trkpt lat="43.11633" lon="6.20596">
        <ele>54</ele>
        <time>2015-09-04T14:53:05.000Z</time>
      </trkpt>
      <trkpt lat="43.11633" lon="6.20596">
        <ele>54</ele>
        <time>2015-09-04T14:53:06.000Z</time>
      </trkpt>
      <trkpt lat="43.11633" lon="6.20596">
        <ele>54</ele>
        <time>2015-09-04T14:53:07.000Z</time>
      </trkpt>
      <trkpt lat="43.11633" lon="6.20596">
        <ele>54</ele>
        <time>2015-09-04T14:53:08.000Z</time>
      </trkpt>
      <trkpt lat="43.11633" lon="6.20596">
        <ele>54</ele>
        <time>2015-09-04T14:53:09.000Z</time>
      </trkpt>
      <trkpt lat="43.11633" lon="6.20596">
        <ele>54</ele>
        <time>2015-09-04T14:53:10.000Z</time>
      </trkpt>
      <trkpt lat="43.11633" lon="6.20596">
        <ele>54</ele>
        <time>2015-09-04T14:53:11.000Z</time>
      </trkpt>
      <trkpt lat="43.11633" lon="6.20596">
        <ele>54</ele>
        <time>2015-09-04T14:53:12.000Z</time>
      </trkpt>
      <trkpt lat="43.11633" lon="6.20596">
        <ele>54</ele>
        <time>2015-09-04T14:53:13.000Z</time>
      </trkpt>
      <trkpt lat="43.11633" lon="6.20596">
        <ele>54</ele>
        <time>2015-09-04T14:53:14.000Z</time>
      </trkpt>
      <trkpt lat="43.11633" lon="6.20596">
        <ele>54</ele>
        <time>2015-09-04T14:53:15.000Z</time>
      </trkpt>
      <trkpt lat="43.11633" lon="6.20596">
        <ele>54</ele>
        <time>2015-09-04T14:53:16.000Z</time>
      </trkpt>
      <trkpt lat="43.11633" lon="6.20596">
        <ele>54</ele>
        <time>2015-09-04T14:53:17.000Z</time>
      </trkpt>
      <trkpt lat="43.11633" lon="6.20596">
        <ele>54</ele>
        <time>2015-09-04T14:53:18.000Z</time>
      </trkpt>
      <trkpt lat="43.11633" lon="6.20596">
        <ele>54</ele>
        <time>2015-09-04T14:53:19.000Z</time>
      </trkpt>
      <trkpt lat="43.11633" lon="6.20596">
        <ele>54</ele>
        <time>2015-09-04T14:53:20.000Z</time>
      </trkpt>
      <trkpt lat="43.11633" lon="6.20596">
        <ele>53</ele>
        <time>2015-09-04T14:53:21.000Z</time>
      </trkpt>
      <trkpt lat="43.11633" lon="6.20596">
        <ele>54</ele>
        <time>2015-09-04T14:53:22.000Z</time>
      </trkpt>
      <trkpt lat="43.11633" lon="6.20596">
        <ele>54</ele>
        <time>2015-09-04T14:53:23.000Z</time>
      </trkpt>
      <trkpt lat="43.11633" lon="6.20596">
        <ele>54</ele>
        <time>2015-09-04T14:53:24.000Z</time>
      </trkpt>
      <trkpt lat="43.11633" lon="6.20596">
        <ele>55</ele>
        <time>2015-09-04T14:53:25.000Z</time>
      </trkpt>
      <trkpt lat="43.11633" lon="6.20596">
        <ele>55</ele>
        <time>2015-09-04T14:53:26.000Z</time>
      </trkpt>
      <trkpt lat="43.11633" lon="6.20596">
        <ele>55</ele>
        <time>2015-09-04T14:53:27.000Z</time>
      </trkpt>
      <trkpt lat="43.11633" lon="6.20596">
        <ele>55</ele>
        <time>2015-09-04T14:53:28.000Z</time>
      </trkpt>
      <trkpt lat="43.11633" lon="6.20596">
        <ele>55</ele>
        <time>2015-09-04T14:53:29.000Z</time>
      </trkpt>
      <trkpt lat="43.11633" lon="6.20595">
        <ele>54</ele>
        <time>2015-09-04T14:53:30.000Z</time>
      </trkpt>
      <trkpt lat="43.11633" lon="6.20595">
        <ele>54</ele>
        <time>2015-09-04T14:53:31.000Z</time>
      </trkpt>
      <trkpt lat="43.11633" lon="6.20595">
        <ele>54</ele>
        <time>2015-09-04T14:53:32.000Z</time>
      </trkpt>
      <trkpt lat="43.11633" lon="6.20595">
        <ele>54</ele>
        <time>2015-09-04T14:53:33.000Z</time>
      </trkpt>
      <trkpt lat="43.11633" lon="6.20595">
        <ele>55</ele>
        <time>2015-09-04T14:53:34.000Z</time>
      </trkpt>
      <trkpt lat="43.11633" lon="6.20595">
        <ele>54</ele>
        <time>2015-09-04T14:53:35.000Z</time>
      </trkpt>
      <trkpt lat="43.11634" lon="6.20594">
        <ele>54</ele>
        <time>2015-09-04T14:53:36.000Z</time>
      </trkpt>
      <trkpt lat="43.11634" lon="6.20594">
        <ele>54</ele>
        <time>2015-09-04T14:53:37.000Z</time>
      </trkpt>
      <trkpt lat="43.11634" lon="6.20594">
        <ele>55</ele>
        <time>2015-09-04T14:53:38.000Z</time>
      </trkpt>
      <trkpt lat="43.11634" lon="6.20594">
        <ele>55</ele>
        <time>2015-09-04T14:53:39.000Z</time>
      </trkpt>
      <trkpt lat="43.11634" lon="6.20593">
        <ele>54</ele>
        <time>2015-09-04T14:53:40.000Z</time>
      </trkpt>
      <trkpt lat="43.11634" lon="6.20592">
        <ele>55</ele>
        <time>2015-09-04T14:53:41.000Z</time>
      </trkpt>
      <trkpt lat="43.11633" lon="6.20591">
        <ele>53</ele>
        <time>2015-09-04T14:53:42.000Z</time>
      </trkpt>
      <trkpt lat="43.11632" lon="6.2059">
        <ele>53</ele>
        <time>2015-09-04T14:53:43.000Z</time>
      </trkpt>
      <trkpt lat="43.11632" lon="6.2059">
        <ele>53</ele>
        <time>2015-09-04T14:53:44.000Z</time>
      </trkpt>
      <trkpt lat="43.11632" lon="6.20589">
        <ele>53</ele>
        <time>2015-09-04T14:53:45.000Z</time>
      </trkpt>
      <trkpt lat="43.11631" lon="6.20588">
        <ele>54</ele>
        <time>2015-09-04T14:53:46.000Z</time>
      </trkpt>
      <trkpt lat="43.11631" lon="6.20587">
        <ele>54</ele>
        <time>2015-09-04T14:53:47.000Z</time>
      </trkpt>
      <trkpt lat="43.11631" lon="6.20586">
        <ele>54</ele>
        <time>2015-09-04T14:53:48.000Z</time>
      </trkpt>
      <trkpt lat="43.11631" lon="6.20584">
        <ele>54</ele>
        <time>2015-09-04T14:53:49.000Z</time>
      </trkpt>
      <trkpt lat="43.11631" lon="6.20583">
        <ele>54</ele>
        <time>2015-09-04T14:53:50.000Z</time>
      </trkpt>
      <trkpt lat="43.11631" lon="6.20582">
        <ele>55</ele>
        <time>2015-09-04T14:53:51.000Z</time>
      </trkpt>
      <trkpt lat="43.11631" lon="6.2058">
        <ele>55</ele>
        <time>2015-09-04T14:53:52.000Z</time>
      </trkpt>
      <trkpt lat="43.1163" lon="6.20579">
        <ele>55</ele>
        <time>2015-09-04T14:53:53.000Z</time>
      </trkpt>
      <trkpt lat="43.1163" lon="6.20578">
        <ele>56</ele>
        <time>2015-09-04T14:53:54.000Z</time>
      </trkpt>
      <trkpt lat="43.1163" lon="6.20578">
        <ele>56</ele>
        <time>2015-09-04T14:53:55.000Z</time>
      </trkpt>
      <trkpt lat="43.1163" lon="6.20577">
        <ele>56</ele>
        <time>2015-09-04T14:53:56.000Z</time>
      </trkpt>
      <trkpt lat="43.1163" lon="6.20577">
        <ele>57</ele>
        <time>2015-09-04T14:53:57.000Z</time>
      </trkpt>
      <trkpt lat="43.1163" lon="6.20576">
        <ele>56</ele>
        <time>2015-09-04T14:53:58.000Z</time>
      </trkpt>
      <trkpt lat="43.11631" lon="6.20575">
        <ele>57</ele>
        <time>2015-09-04T14:53:59.000Z</time>
      </trkpt>
      <trkpt lat="43.11631" lon="6.20573">
        <ele>56</ele>
        <time>2015-09-04T14:54:00.000Z</time>
      </trkpt>
      <trkpt lat="43.11632" lon="6.20569">
        <ele>55</ele>
        <time>2015-09-04T14:54:01.000Z</time>
      </trkpt>
      <trkpt lat="43.11632" lon="6.20565">
        <ele>56</ele>
        <time>2015-09-04T14:54:02.000Z</time>
      </trkpt>
      <trkpt lat="43.11632" lon="6.20562">
        <ele>56</ele>
        <time>2015-09-04T14:54:03.000Z</time>
      </trkpt>
      <trkpt lat="43.11632" lon="6.20558">
        <ele>55</ele>
        <time>2015-09-04T14:54:04.000Z</time>
      </trkpt>
      <trkpt lat="43.11631" lon="6.20555">
        <ele>55</ele>
        <time>2015-09-04T14:54:05.000Z</time>
      </trkpt>
      <trkpt lat="43.11629" lon="6.20553">
        <ele>56</ele>
        <time>2015-09-04T14:54:06.000Z</time>
      </trkpt>
      <trkpt lat="43.11628" lon="6.20553">
        <ele>55</ele>
        <time>2015-09-04T14:54:07.000Z</time>
      </trkpt>
      <trkpt lat="43.11626" lon="6.20553">
        <ele>55</ele>
        <time>2015-09-04T14:54:08.000Z</time>
      </trkpt>
      <trkpt lat="43.11625" lon="6.20554">
        <ele>54</ele>
        <time>2015-09-04T14:54:09.000Z</time>
      </trkpt>
      <trkpt lat="43.11624" lon="6.20555">
        <ele>55</ele>
        <time>2015-09-04T14:54:10.000Z</time>
      </trkpt>
      <trkpt lat="43.11623" lon="6.20556">
        <ele>54</ele>
        <time>2015-09-04T14:54:11.000Z</time>
      </trkpt>
      <trkpt lat="43.11622" lon="6.20557">
        <ele>53</ele>
        <time>2015-09-04T14:54:12.000Z</time>
      </trkpt>
      <trkpt lat="43.11621" lon="6.20558">
        <ele>54</ele>
        <time>2015-09-04T14:54:13.000Z</time>
      </trkpt>
      <trkpt lat="43.11621" lon="6.2056">
        <ele>54</ele>
        <time>2015-09-04T14:54:14.000Z</time>
      </trkpt>
      <trkpt lat="43.1162" lon="6.20561">
        <ele>54</ele>
        <time>2015-09-04T14:54:15.000Z</time>
      </trkpt>
      <trkpt lat="43.11619" lon="6.20563">
        <ele>55</ele>
        <time>2015-09-04T14:54:16.000Z</time>
      </trkpt>
      <trkpt lat="43.11619" lon="6.20564">
        <ele>55</ele>
        <time>2015-09-04T14:54:17.000Z</time>
      </trkpt>
      <trkpt lat="43.11619" lon="6.20565">
        <ele>55</ele>
        <time>2015-09-04T14:54:18.000Z</time>
      </trkpt>
      <trkpt lat="43.1162" lon="6.20565">
        <ele>55</ele>
        <time>2015-09-04T14:54:19.000Z</time>
      </trkpt>
      <trkpt lat="43.1162" lon="6.20565">
        <ele>55</ele>
        <time>2015-09-04T14:54:20.000Z</time>
      </trkpt>
      <trkpt lat="43.1162" lon="6.20565">
        <ele>55</ele>
        <time>2015-09-04T14:54:21.000Z</time>
      </trkpt>
      <trkpt lat="43.1162" lon="6.20565">
        <ele>55</ele>
        <time>2015-09-04T14:54:22.000Z</time>
      </trkpt>
      <trkpt lat="43.1162" lon="6.20565">
        <ele>55</ele>
        <time>2015-09-04T14:54:23.000Z</time>
      </trkpt>
      <trkpt lat="43.11619" lon="6.20564">
        <ele>55</ele>
        <time>2015-09-04T14:54:24.000Z</time>
      </trkpt>
      <trkpt lat="43.11619" lon="6.20563">
        <ele>55</ele>
        <time>2015-09-04T14:54:25.000Z</time>
      </trkpt>
      <trkpt lat="43.11618" lon="6.20562">
        <ele>55</ele>
        <time>2015-09-04T14:54:26.000Z</time>
      </trkpt>
      <trkpt lat="43.11618" lon="6.2056">
        <ele>56</ele>
        <time>2015-09-04T14:54:27.000Z</time>
      </trkpt>
      <trkpt lat="43.11617" lon="6.20558">
        <ele>57</ele>
        <time>2015-09-04T14:54:28.000Z</time>
      </trkpt>
      <trkpt lat="43.11616" lon="6.20557">
        <ele>57</ele>
        <time>2015-09-04T14:54:29.000Z</time>
      </trkpt>
      <trkpt lat="43.11615" lon="6.20555">
        <ele>58</ele>
        <time>2015-09-04T14:54:30.000Z</time>
      </trkpt>
      <trkpt lat="43.11615" lon="6.20554">
        <ele>57</ele>
        <time>2015-09-04T14:54:31.000Z</time>
      </trkpt>
      <trkpt lat="43.11615" lon="6.20552">
        <ele>57</ele>
        <time>2015-09-04T14:54:32.000Z</time>
      </trkpt>
      <trkpt lat="43.11615" lon="6.20551">
        <ele>57</ele>
        <time>2015-09-04T14:54:33.000Z</time>
      </trkpt>
      <trkpt lat="43.11615" lon="6.2055">
        <ele>56</ele>
        <time>2015-09-04T14:54:34.000Z</time>
      </trkpt>
      <trkpt lat="43.11616" lon="6.20551">
        <ele>56</ele>
        <time>2015-09-04T14:54:35.000Z</time>
      </trkpt>
      <trkpt lat="43.11616" lon="6.20552">
        <ele>56</ele>
        <time>2015-09-04T14:54:36.000Z</time>
      </trkpt>
      <trkpt lat="43.11616" lon="6.20552">
        <ele>56</ele>
        <time>2015-09-04T14:54:37.000Z</time>
      </trkpt>
      <trkpt lat="43.11615" lon="6.20553">
        <ele>57</ele>
        <time>2015-09-04T14:54:38.000Z</time>
      </trkpt>
      <trkpt lat="43.11614" lon="6.20553">
        <ele>57</ele>
        <time>2015-09-04T14:54:39.000Z</time>
      </trkpt>
      <trkpt lat="43.11613" lon="6.20554">
        <ele>57</ele>
        <time>2015-09-04T14:54:40.000Z</time>
      </trkpt>
      <trkpt lat="43.11612" lon="6.20555">
        <ele>57</ele>
        <time>2015-09-04T14:54:41.000Z</time>
      </trkpt>
      <trkpt lat="43.11611" lon="6.20555">
        <ele>56</ele>
        <time>2015-09-04T14:54:42.000Z</time>
      </trkpt>
      <trkpt lat="43.1161" lon="6.20556">
        <ele>56</ele>
        <time>2015-09-04T14:54:43.000Z</time>
      </trkpt>
      <trkpt lat="43.1161" lon="6.20557">
        <ele>56</ele>
        <time>2015-09-04T14:54:44.000Z</time>
      </trkpt>
      <trkpt lat="43.11609" lon="6.20558">
        <ele>56</ele>
        <time>2015-09-04T14:54:45.000Z</time>
      </trkpt>
      <trkpt lat="43.11609" lon="6.20559">
        <ele>56</ele>
        <time>2015-09-04T14:54:46.000Z</time>
      </trkpt>
      <trkpt lat="43.1161" lon="6.2056">
        <ele>55</ele>
        <time>2015-09-04T14:54:47.000Z</time>
      </trkpt>
      <trkpt lat="43.1161" lon="6.20561">
        <ele>55</ele>
        <time>2015-09-04T14:54:48.000Z</time>
      </trkpt>
      <trkpt lat="43.11611" lon="6.20562">
        <ele>56</ele>
        <time>2015-09-04T14:54:49.000Z</time>
      </trkpt>
      <trkpt lat="43.11611" lon="6.20563">
        <ele>55</ele>
        <time>2015-09-04T14:54:50.000Z</time>
      </trkpt>
      <trkpt lat="43.11611" lon="6.20564">
        <ele>55</ele>
        <time>2015-09-04T14:54:51.000Z</time>
      </trkpt>
      <trkpt lat="43.11611" lon="6.20565">
        <ele>55</ele>
        <time>2015-09-04T14:54:52.000Z</time>
      </trkpt>
      <trkpt lat="43.11611" lon="6.20567">
        <ele>55</ele>
        <time>2015-09-04T14:54:53.000Z</time>
      </trkpt>
      <trkpt lat="43.11612" lon="6.20567">
        <ele>55</ele>
        <time>2015-09-04T14:54:54.000Z</time>
      </trkpt>
      <trkpt lat="43.11612" lon="6.20568">
        <ele>55</ele>
        <time>2015-09-04T14:54:55.000Z</time>
      </trkpt>
      <trkpt lat="43.11612" lon="6.20569">
        <ele>55</ele>
        <time>2015-09-04T14:54:56.000Z</time>
      </trkpt>
      <trkpt lat="43.11612" lon="6.2057">
        <ele>55</ele>
        <time>2015-09-04T14:54:57.000Z</time>
      </trkpt>
      <trkpt lat="43.11613" lon="6.20571">
        <ele>55</ele>
        <time>2015-09-04T14:54:58.000Z</time>
      </trkpt>
      <trkpt lat="43.11614" lon="6.20572">
        <ele>54</ele>
        <time>2015-09-04T14:54:59.000Z</time>
      </trkpt>
      <trkpt lat="43.11614" lon="6.20573">
        <ele>54</ele>
        <time>2015-09-04T14:55:00.000Z</time>
      </trkpt>
      <trkpt lat="43.11614" lon="6.20573">
        <ele>54</ele>
        <time>2015-09-04T14:55:01.000Z</time>
      </trkpt>
      <trkpt lat="43.11614" lon="6.20573">
        <ele>54</ele>
        <time>2015-09-04T14:55:02.000Z</time>
      </trkpt>
      <trkpt lat="43.11614" lon="6.20573">
        <ele>54</ele>
        <time>2015-09-04T14:55:03.000Z</time>
      </trkpt>
      <trkpt lat="43.11614" lon="6.20573">
        <ele>54</ele>
        <time>2015-09-04T14:55:04.000Z</time>
      </trkpt>
      <trkpt lat="43.11614" lon="6.20572">
        <ele>54</ele>
        <time>2015-09-04T14:55:05.000Z</time>
      </trkpt>
      <trkpt lat="43.11614" lon="6.20572">
        <ele>54</ele>
        <time>2015-09-04T14:55:06.000Z</time>
      </trkpt>
      <trkpt lat="43.11614" lon="6.20572">
        <ele>54</ele>
        <time>2015-09-04T14:55:07.000Z</time>
      </trkpt>
      <trkpt lat="43.11614" lon="6.20572">
        <ele>54</ele>
        <time>2015-09-04T14:55:08.000Z</time>
      </trkpt>
      <trkpt lat="43.11615" lon="6.20573">
        <ele>54</ele>
        <time>2015-09-04T14:55:09.000Z</time>
      </trkpt>
      <trkpt lat="43.11615" lon="6.20574">
        <ele>54</ele>
        <time>2015-09-04T14:55:10.000Z</time>
      </trkpt>
      <trkpt lat="43.11616" lon="6.20575">
        <ele>54</ele>
        <time>2015-09-04T14:55:11.000Z</time>
      </trkpt>
      <trkpt lat="43.11616" lon="6.20576">
        <ele>54</ele>
        <time>2015-09-04T14:55:12.000Z</time>
      </trkpt>
      <trkpt lat="43.11616" lon="6.20577">
        <ele>54</ele>
        <time>2015-09-04T14:55:13.000Z</time>
      </trkpt>
      <trkpt lat="43.11616" lon="6.20578">
        <ele>54</ele>
        <time>2015-09-04T14:55:14.000Z</time>
      </trkpt>
      <trkpt lat="43.11617" lon="6.20578">
        <ele>54</ele>
        <time>2015-09-04T14:55:15.000Z</time>
      </trkpt>
      <trkpt lat="43.11617" lon="6.20578">
        <ele>54</ele>
        <time>2015-09-04T14:55:16.000Z</time>
      </trkpt>
      <trkpt lat="43.11617" lon="6.20578">
        <ele>54</ele>
        <time>2015-09-04T14:55:17.000Z</time>
      </trkpt>
      <trkpt lat="43.11617" lon="6.20578">
        <ele>54</ele>
        <time>2015-09-04T14:55:18.000Z</time>
      </trkpt>
      <trkpt lat="43.11618" lon="6.20576">
        <ele>55</ele>
        <time>2015-09-04T14:55:19.000Z</time>
      </trkpt>
      <trkpt lat="43.11618" lon="6.20575">
        <ele>55</ele>
        <time>2015-09-04T14:55:20.000Z</time>
      </trkpt>
      <trkpt lat="43.11619" lon="6.20572">
        <ele>55</ele>
        <time>2015-09-04T14:55:21.000Z</time>
      </trkpt>
      <trkpt lat="43.11619" lon="6.20569">
        <ele>55</ele>
        <time>2015-09-04T14:55:22.000Z</time>
      </trkpt>
      <trkpt lat="43.1162" lon="6.20566">
        <ele>55</ele>
        <time>2015-09-04T14:55:23.000Z</time>
      </trkpt>
      <trkpt lat="43.1162" lon="6.20563">
        <ele>55</ele>
        <time>2015-09-04T14:55:24.000Z</time>
      </trkpt>
      <trkpt lat="43.1162" lon="6.2056">
        <ele>55</ele>
        <time>2015-09-04T14:55:25.000Z</time>
      </trkpt>
      <trkpt lat="43.1162" lon="6.20559">
        <ele>56</ele>
        <time>2015-09-04T14:55:26.000Z</time>
      </trkpt>
      <trkpt lat="43.1162" lon="6.20558">
        <ele>56</ele>
        <time>2015-09-04T14:55:27.000Z</time>
      </trkpt>
      <trkpt lat="43.1162" lon="6.20558">
        <ele>56</ele>
        <time>2015-09-04T14:55:28.000Z</time>
      </trkpt>
      <trkpt lat="43.11619" lon="6.20559">
        <ele>56</ele>
        <time>2015-09-04T14:55:29.000Z</time>
      </trkpt>
      <trkpt lat="43.11619" lon="6.20559">
        <ele>57</ele>
        <time>2015-09-04T14:55:30.000Z</time>
      </trkpt>
      <trkpt lat="43.11619" lon="6.20559">
        <ele>57</ele>
        <time>2015-09-04T14:55:31.000Z</time>
      </trkpt>
      <trkpt lat="43.11619" lon="6.20559">
        <ele>56</ele>
        <time>2015-09-04T14:55:32.000Z</time>
      </trkpt>
      <trkpt lat="43.1162" lon="6.20559">
        <ele>56</ele>
        <time>2015-09-04T14:55:33.000Z</time>
      </trkpt>
      <trkpt lat="43.11621" lon="6.2056">
        <ele>56</ele>
        <time>2015-09-04T14:55:34.000Z</time>
      </trkpt>
      <trkpt lat="43.11621" lon="6.20562">
        <ele>56</ele>
        <time>2015-09-04T14:55:35.000Z</time>
      </trkpt>
      <trkpt lat="43.11621" lon="6.20564">
        <ele>56</ele>
        <time>2015-09-04T14:55:36.000Z</time>
      </trkpt>
      <trkpt lat="43.11622" lon="6.20566">
        <ele>56</ele>
        <time>2015-09-04T14:55:37.000Z</time>
      </trkpt>
      <trkpt lat="43.11622" lon="6.20569">
        <ele>55</ele>
        <time>2015-09-04T14:55:38.000Z</time>
      </trkpt>
      <trkpt lat="43.11622" lon="6.20572">
        <ele>55</ele>
        <time>2015-09-04T14:55:39.000Z</time>
      </trkpt>
      <trkpt lat="43.11621" lon="6.20577">
        <ele>55</ele>
        <time>2015-09-04T14:55:40.000Z</time>
      </trkpt>
      <trkpt lat="43.11621" lon="6.20582">
        <ele>55</ele>
        <time>2015-09-04T14:55:41.000Z</time>
      </trkpt>
      <trkpt lat="43.11621" lon="6.20587">
        <ele>55</ele>
        <time>2015-09-04T14:55:42.000Z</time>
      </trkpt>
      <trkpt lat="43.11621" lon="6.20592">
        <ele>56</ele>
        <time>2015-09-04T14:55:43.000Z</time>
      </trkpt>
      <trkpt lat="43.11622" lon="6.20597">
        <ele>56</ele>
        <time>2015-09-04T14:55:44.000Z</time>
      </trkpt>
      <trkpt lat="43.11622" lon="6.20602">
        <ele>56</ele>
        <time>2015-09-04T14:55:45.000Z</time>
      </trkpt>
      <trkpt lat="43.11623" lon="6.20607">
        <ele>56</ele>
        <time>2015-09-04T14:55:46.000Z</time>
      </trkpt>
      <trkpt lat="43.11623" lon="6.20612">
        <ele>56</ele>
        <time>2015-09-04T14:55:47.000Z</time>
      </trkpt>
      <trkpt lat="43.11624" lon="6.20616">
        <ele>56</ele>
        <time>2015-09-04T14:55:48.000Z</time>
      </trkpt>
      <trkpt lat="43.11625" lon="6.20621">
        <ele>56</ele>
        <time>2015-09-04T14:55:49.000Z</time>
      </trkpt>
      <trkpt lat="43.11626" lon="6.20625">
        <ele>56</ele>
        <time>2015-09-04T14:55:50.000Z</time>
      </trkpt>
      <trkpt lat="43.11627" lon="6.20629">
        <ele>56</ele>
        <time>2015-09-04T14:55:51.000Z</time>
      </trkpt>
      <trkpt lat="43.11628" lon="6.20632">
        <ele>55</ele>
        <time>2015-09-04T14:55:52.000Z</time>
      </trkpt>
      <trkpt lat="43.11629" lon="6.20634">
        <ele>56</ele>
        <time>2015-09-04T14:55:53.000Z</time>
      </trkpt>
      <trkpt lat="43.11629" lon="6.20633">
        <ele>56</ele>
        <time>2015-09-04T14:55:54.000Z</time>
      </trkpt>
      <trkpt lat="43.11629" lon="6.20631">
        <ele>56</ele>
        <time>2015-09-04T14:55:55.000Z</time>
      </trkpt>
      <trkpt lat="43.11629" lon="6.2063">
        <ele>55</ele>
        <time>2015-09-04T14:55:56.000Z</time>
      </trkpt>
      <trkpt lat="43.11628" lon="6.20629">
        <ele>56</ele>
        <time>2015-09-04T14:55:57.000Z</time>
      </trkpt>
      <trkpt lat="43.11628" lon="6.20629">
        <ele>55</ele>
        <time>2015-09-04T14:55:58.000Z</time>
      </trkpt>
      <trkpt lat="43.11627" lon="6.20629">
        <ele>56</ele>
        <time>2015-09-04T14:55:59.000Z</time>
      </trkpt>
      <trkpt lat="43.11626" lon="6.2063">
        <ele>56</ele>
        <time>2015-09-04T14:56:00.000Z</time>
      </trkpt>
      <trkpt lat="43.11625" lon="6.2063">
        <ele>56</ele>
        <time>2015-09-04T14:56:01.000Z</time>
      </trkpt>
      <trkpt lat="43.11624" lon="6.2063">
        <ele>57</ele>
        <time>2015-09-04T14:56:02.000Z</time>
      </trkpt>
      <trkpt lat="43.11624" lon="6.2063">
        <ele>57</ele>
        <time>2015-09-04T14:56:03.000Z</time>
      </trkpt>
      <trkpt lat="43.11625" lon="6.2063">
        <ele>56</ele>
        <time>2015-09-04T14:56:04.000Z</time>
      </trkpt>
      <trkpt lat="43.11625" lon="6.20629">
        <ele>57</ele>
        <time>2015-09-04T14:56:05.000Z</time>
      </trkpt>
      <trkpt lat="43.11625" lon="6.20629">
        <ele>58</ele>
        <time>2015-09-04T14:56:06.000Z</time>
      </trkpt>
      <trkpt lat="43.11626" lon="6.20629">
        <ele>58</ele>
        <time>2015-09-04T14:56:07.000Z</time>
      </trkpt>
      <trkpt lat="43.11626" lon="6.20629">
        <ele>58</ele>
        <time>2015-09-04T14:56:08.000Z</time>
      </trkpt>
      <trkpt lat="43.11627" lon="6.20629">
        <ele>58</ele>
        <time>2015-09-04T14:56:09.000Z</time>
      </trkpt>
      <trkpt lat="43.11627" lon="6.20631">
        <ele>57</ele>
        <time>2015-09-04T14:56:10.000Z</time>
      </trkpt>
      <trkpt lat="43.11628" lon="6.20635">
        <ele>58</ele>
        <time>2015-09-04T14:56:11.000Z</time>
      </trkpt>
      <trkpt lat="43.11628" lon="6.2064">
        <ele>57</ele>
        <time>2015-09-04T14:56:12.000Z</time>
      </trkpt>
      <trkpt lat="43.11628" lon="6.20645">
        <ele>57</ele>
        <time>2015-09-04T14:56:13.000Z</time>
      </trkpt>
      <trkpt lat="43.11629" lon="6.2065">
        <ele>57</ele>
        <time>2015-09-04T14:56:14.000Z</time>
      </trkpt>
      <trkpt lat="43.11629" lon="6.20654">
        <ele>57</ele>
        <time>2015-09-04T14:56:15.000Z</time>
      </trkpt>
      <trkpt lat="43.1163" lon="6.20659">
        <ele>57</ele>
        <time>2015-09-04T14:56:16.000Z</time>
      </trkpt>
      <trkpt lat="43.11631" lon="6.20663">
        <ele>57</ele>
        <time>2015-09-04T14:56:17.000Z</time>
      </trkpt>
      <trkpt lat="43.11632" lon="6.20666">
        <ele>56</ele>
        <time>2015-09-04T14:56:18.000Z</time>
      </trkpt>
      <trkpt lat="43.11633" lon="6.20667">
        <ele>56</ele>
        <time>2015-09-04T14:56:19.000Z</time>
      </trkpt>
      <trkpt lat="43.11635" lon="6.20665">
        <ele>56</ele>
        <time>2015-09-04T14:56:20.000Z</time>
      </trkpt>
      <trkpt lat="43.11637" lon="6.20662">
        <ele>56</ele>
        <time>2015-09-04T14:56:21.000Z</time>
      </trkpt>
      <trkpt lat="43.11638" lon="6.20658">
        <ele>56</ele>
        <time>2015-09-04T14:56:22.000Z</time>
      </trkpt>
      <trkpt lat="43.11639" lon="6.20654">
        <ele>55</ele>
        <time>2015-09-04T14:56:23.000Z</time>
      </trkpt>
      <trkpt lat="43.1164" lon="6.20652">
        <ele>55</ele>
        <time>2015-09-04T14:56:24.000Z</time>
      </trkpt>
      <trkpt lat="43.1164" lon="6.20649">
        <ele>55</ele>
        <time>2015-09-04T14:56:25.000Z</time>
      </trkpt>
      <trkpt lat="43.11639" lon="6.20648">
        <ele>54</ele>
        <time>2015-09-04T14:56:26.000Z</time>
      </trkpt>
      <trkpt lat="43.11638" lon="6.20647">
        <ele>54</ele>
        <time>2015-09-04T14:56:27.000Z</time>
      </trkpt>
      <trkpt lat="43.11638" lon="6.20647">
        <ele>55</ele>
        <time>2015-09-04T14:56:28.000Z</time>
      </trkpt>
      <trkpt lat="43.11638" lon="6.20646">
        <ele>54</ele>
        <time>2015-09-04T14:56:29.000Z</time>
      </trkpt>
      <trkpt lat="43.11639" lon="6.20643">
        <ele>55</ele>
        <time>2015-09-04T14:56:30.000Z</time>
      </trkpt>
      <trkpt lat="43.11639" lon="6.2064">
        <ele>55</ele>
        <time>2015-09-04T14:56:31.000Z</time>
      </trkpt>
      <trkpt lat="43.1164" lon="6.20638">
        <ele>55</ele>
        <time>2015-09-04T14:56:32.000Z</time>
      </trkpt>
      <trkpt lat="43.1164" lon="6.20636">
        <ele>55</ele>
        <time>2015-09-04T14:56:33.000Z</time>
      </trkpt>
      <trkpt lat="43.1164" lon="6.20634">
        <ele>56</ele>
        <time>2015-09-04T14:56:34.000Z</time>
      </trkpt>
      <trkpt lat="43.1164" lon="6.20632">
        <ele>56</ele>
        <time>2015-09-04T14:56:35.000Z</time>
      </trkpt>
      <trkpt lat="43.1164" lon="6.20631">
        <ele>57</ele>
        <time>2015-09-04T14:56:36.000Z</time>
      </trkpt>
      <trkpt lat="43.1164" lon="6.20629">
        <ele>57</ele>
        <time>2015-09-04T14:56:37.000Z</time>
      </trkpt>
      <trkpt lat="43.11639" lon="6.20628">
        <ele>57</ele>
        <time>2015-09-04T14:56:38.000Z</time>
      </trkpt>
      <trkpt lat="43.11638" lon="6.20627">
        <ele>57</ele>
        <time>2015-09-04T14:56:39.000Z</time>
      </trkpt>
      <trkpt lat="43.11638" lon="6.20625">
        <ele>57</ele>
        <time>2015-09-04T14:56:40.000Z</time>
      </trkpt>
      <trkpt lat="43.11638" lon="6.20623">
        <ele>57</ele>
        <time>2015-09-04T14:56:41.000Z</time>
      </trkpt>
      <trkpt lat="43.11638" lon="6.20622">
        <ele>57</ele>
        <time>2015-09-04T14:56:42.000Z</time>
      </trkpt>
      <trkpt lat="43.11638" lon="6.20622">
        <ele>56</ele>
        <time>2015-09-04T14:56:43.000Z</time>
      </trkpt>
      <trkpt lat="43.11637" lon="6.20623">
        <ele>56</ele>
        <time>2015-09-04T14:56:44.000Z</time>
      </trkpt>
      <trkpt lat="43.11637" lon="6.20623">
        <ele>56</ele>
        <time>2015-09-04T14:56:45.000Z</time>
      </trkpt>
      <trkpt lat="43.11637" lon="6.20623">
        <ele>57</ele>
        <time>2015-09-04T14:56:46.000Z</time>
      </trkpt>
      <trkpt lat="43.11637" lon="6.20623">
        <ele>57</ele>
        <time>2015-09-04T14:56:47.000Z</time>
      </trkpt>
      <trkpt lat="43.11636" lon="6.20623">
        <ele>55</ele>
        <time>2015-09-04T14:56:48.000Z</time>
      </trkpt>
      <trkpt lat="43.11635" lon="6.20621">
        <ele>56</ele>
        <time>2015-09-04T14:56:49.000Z</time>
      </trkpt>
      <trkpt lat="43.11634" lon="6.2062">
        <ele>55</ele>
        <time>2015-09-04T14:56:50.000Z</time>
      </trkpt>
      <trkpt lat="43.11633" lon="6.20619">
        <ele>55</ele>
        <time>2015-09-04T14:56:51.000Z</time>
      </trkpt>
      <trkpt lat="43.11633" lon="6.20618">
        <ele>55</ele>
        <time>2015-09-04T14:56:52.000Z</time>
      </trkpt>
      <trkpt lat="43.11632" lon="6.20618">
        <ele>55</ele>
        <time>2015-09-04T14:56:53.000Z</time>
      </trkpt>
      <trkpt lat="43.11632" lon="6.20618">
        <ele>54</ele>
        <time>2015-09-04T14:56:54.000Z</time>
      </trkpt>
      <trkpt lat="43.11631" lon="6.20618">
        <ele>54</ele>
        <time>2015-09-04T14:56:55.000Z</time>
      </trkpt>
      <trkpt lat="43.1163" lon="6.20618">
        <ele>55</ele>
        <time>2015-09-04T14:56:56.000Z</time>
      </trkpt>
      <trkpt lat="43.1163" lon="6.20619">
        <ele>56</ele>
        <time>2015-09-04T14:56:57.000Z</time>
      </trkpt>
      <trkpt lat="43.11629" lon="6.2062">
        <ele>55</ele>
        <time>2015-09-04T14:56:58.000Z</time>
      </trkpt>
      <trkpt lat="43.11628" lon="6.20621">
        <ele>55</ele>
        <time>2015-09-04T14:56:59.000Z</time>
      </trkpt>
      <trkpt lat="43.11627" lon="6.20623">
        <ele>55</ele>
        <time>2015-09-04T14:57:00.000Z</time>
      </trkpt>
      <trkpt lat="43.11625" lon="6.20624">
        <ele>55</ele>
        <time>2015-09-04T14:57:01.000Z</time>
      </trkpt>
      <trkpt lat="43.11623" lon="6.20625">
        <ele>55</ele>
        <time>2015-09-04T14:57:02.000Z</time>
      </trkpt>
      <trkpt lat="43.11622" lon="6.20626">
        <ele>55</ele>
        <time>2015-09-04T14:57:03.000Z</time>
      </trkpt>
      <trkpt lat="43.11621" lon="6.20625">
        <ele>55</ele>
        <time>2015-09-04T14:57:04.000Z</time>
      </trkpt>
      <trkpt lat="43.1162" lon="6.20625">
        <ele>55</ele>
        <time>2015-09-04T14:57:05.000Z</time>
      </trkpt>
      <trkpt lat="43.1162" lon="6.20624">
        <ele>54</ele>
        <time>2015-09-04T14:57:06.000Z</time>
      </trkpt>
      <trkpt lat="43.1162" lon="6.20623">
        <ele>54</ele>
        <time>2015-09-04T14:57:07.000Z</time>
      </trkpt>
      <trkpt lat="43.1162" lon="6.20622">
        <ele>54</ele>
        <time>2015-09-04T14:57:08.000Z</time>
      </trkpt>
      <trkpt lat="43.1162" lon="6.20622">
        <ele>54</ele>
        <time>2015-09-04T14:57:09.000Z</time>
      </trkpt>
      <trkpt lat="43.11621" lon="6.20621">
        <ele>54</ele>
        <time>2015-09-04T14:57:10.000Z</time>
      </trkpt>
      <trkpt lat="43.11621" lon="6.20621">
        <ele>54</ele>
        <time>2015-09-04T14:57:11.000Z</time>
      </trkpt>
      <trkpt lat="43.11621" lon="6.20621">
        <ele>53</ele>
        <time>2015-09-04T14:57:12.000Z</time>
      </trkpt>
      <trkpt lat="43.11621" lon="6.20621">
        <ele>54</ele>
        <time>2015-09-04T14:57:13.000Z</time>
      </trkpt>
      <trkpt lat="43.11621" lon="6.20621">
        <ele>53</ele>
        <time>2015-09-04T14:57:14.000Z</time>
      </trkpt>
      <trkpt lat="43.11621" lon="6.20621">
        <ele>53</ele>
        <time>2015-09-04T14:57:15.000Z</time>
      </trkpt>
      <trkpt lat="43.11621" lon="6.20621">
        <ele>53</ele>
        <time>2015-09-04T14:57:16.000Z</time>
      </trkpt>
      <trkpt lat="43.11621" lon="6.20621">
        <ele>53</ele>
        <time>2015-09-04T14:57:17.000Z</time>
      </trkpt>
      <trkpt lat="43.11621" lon="6.20621">
        <ele>52</ele>
        <time>2015-09-04T14:57:18.000Z</time>
      </trkpt>
      <trkpt lat="43.11621" lon="6.20621">
        <ele>53</ele>
        <time>2015-09-04T14:57:19.000Z</time>
      </trkpt>
      <trkpt lat="43.11621" lon="6.20621">
        <ele>53</ele>
        <time>2015-09-04T14:57:20.000Z</time>
      </trkpt>
      <trkpt lat="43.11621" lon="6.20621">
        <ele>52</ele>
        <time>2015-09-04T14:57:21.000Z</time>
      </trkpt>
      <trkpt lat="43.11621" lon="6.20622">
        <ele>53</ele>
        <time>2015-09-04T14:57:22.000Z</time>
      </trkpt>
      <trkpt lat="43.11621" lon="6.20623">
        <ele>53</ele>
        <time>2015-09-04T14:57:23.000Z</time>
      </trkpt>
      <trkpt lat="43.11622" lon="6.20624">
        <ele>54</ele>
        <time>2015-09-04T14:57:24.000Z</time>
      </trkpt>
      <trkpt lat="43.11622" lon="6.20625">
        <ele>54</ele>
        <time>2015-09-04T14:57:25.000Z</time>
      </trkpt>
      <trkpt lat="43.11623" lon="6.20626">
        <ele>54</ele>
        <time>2015-09-04T14:57:26.000Z</time>
      </trkpt>
      <trkpt lat="43.11623" lon="6.20628">
        <ele>53</ele>
        <time>2015-09-04T14:57:27.000Z</time>
      </trkpt>
      <trkpt lat="43.11623" lon="6.20628">
        <ele>53</ele>
        <time>2015-09-04T14:57:28.000Z</time>
      </trkpt>
      <trkpt lat="43.11622" lon="6.20628">
        <ele>52</ele>
        <time>2015-09-04T14:57:29.000Z</time>
      </trkpt>
      <trkpt lat="43.11622" lon="6.20628">
        <ele>51</ele>
        <time>2015-09-04T14:57:30.000Z</time>
      </trkpt>
      <trkpt lat="43.11621" lon="6.20627">
        <ele>51</ele>
        <time>2015-09-04T14:57:31.000Z</time>
      </trkpt>
      <trkpt lat="43.11621" lon="6.20627">
        <ele>51</ele>
        <time>2015-09-04T14:57:32.000Z</time>
      </trkpt>
      <trkpt lat="43.11621" lon="6.20627">
        <ele>50</ele>
        <time>2015-09-04T14:57:33.000Z</time>
      </trkpt>
      <trkpt lat="43.11621" lon="6.20627">
        <ele>51</ele>
        <time>2015-09-04T14:57:34.000Z</time>
      </trkpt>
      <trkpt lat="43.11621" lon="6.20626">
        <ele>50</ele>
        <time>2015-09-04T14:57:35.000Z</time>
      </trkpt>
      <trkpt lat="43.11621" lon="6.20625">
        <ele>49</ele>
        <time>2015-09-04T14:57:36.000Z</time>
      </trkpt>
      <trkpt lat="43.11621" lon="6.20624">
        <ele>48</ele>
        <time>2015-09-04T14:57:37.000Z</time>
      </trkpt>
      <trkpt lat="43.11621" lon="6.20623">
        <ele>48</ele>
        <time>2015-09-04T14:57:38.000Z</time>
      </trkpt>
      <trkpt lat="43.11621" lon="6.20623">
        <ele>48</ele>
        <time>2015-09-04T14:57:39.000Z</time>
      </trkpt>
      <trkpt lat="43.11621" lon="6.20623">
        <ele>48</ele>
        <time>2015-09-04T14:57:40.000Z</time>
      </trkpt>
      <trkpt lat="43.11621" lon="6.20623">
        <ele>48</ele>
        <time>2015-09-04T14:57:41.000Z</time>
      </trkpt>
      <trkpt lat="43.11621" lon="6.20623">
        <ele>47</ele>
        <time>2015-09-04T14:57:42.000Z</time>
      </trkpt>
      <trkpt lat="43.11621" lon="6.20623">
        <ele>47</ele>
        <time>2015-09-04T14:57:43.000Z</time>
      </trkpt>
      <trkpt lat="43.11621" lon="6.20622">
        <ele>48</ele>
        <time>2015-09-04T14:57:44.000Z</time>
      </trkpt>
      <trkpt lat="43.11621" lon="6.20621">
        <ele>49</ele>
        <time>2015-09-04T14:57:45.000Z</time>
      </trkpt>
      <trkpt lat="43.1162" lon="6.20622">
        <ele>48</ele>
        <time>2015-09-04T14:57:46.000Z</time>
      </trkpt>
      <trkpt lat="43.11619" lon="6.20623">
        <ele>48</ele>
        <time>2015-09-04T14:57:47.000Z</time>
      </trkpt>
      <trkpt lat="43.11618" lon="6.20625">
        <ele>48</ele>
        <time>2015-09-04T14:57:48.000Z</time>
      </trkpt>
      <trkpt lat="43.11617" lon="6.20626">
        <ele>48</ele>
        <time>2015-09-04T14:57:49.000Z</time>
      </trkpt>
      <trkpt lat="43.11616" lon="6.20627">
        <ele>48</ele>
        <time>2015-09-04T14:57:50.000Z</time>
      </trkpt>
      <trkpt lat="43.11615" lon="6.20628">
        <ele>49</ele>
        <time>2015-09-04T14:57:51.000Z</time>
      </trkpt>
      <trkpt lat="43.11614" lon="6.20628">
        <ele>48</ele>
        <time>2015-09-04T14:57:52.000Z</time>
      </trkpt>
      <trkpt lat="43.11613" lon="6.20629">
        <ele>48</ele>
        <time>2015-09-04T14:57:53.000Z</time>
      </trkpt>
      <trkpt lat="43.11612" lon="6.2063">
        <ele>48</ele>
        <time>2015-09-04T14:57:54.000Z</time>
      </trkpt>
      <trkpt lat="43.11612" lon="6.20631">
        <ele>48</ele>
        <time>2015-09-04T14:57:55.000Z</time>
      </trkpt>
      <trkpt lat="43.11611" lon="6.20632">
        <ele>49</ele>
        <time>2015-09-04T14:57:56.000Z</time>
      </trkpt>
      <trkpt lat="43.11611" lon="6.20633">
        <ele>48</ele>
        <time>2015-09-04T14:57:57.000Z</time>
      </trkpt>
      <trkpt lat="43.1161" lon="6.20633">
        <ele>48</ele>
        <time>2015-09-04T14:57:58.000Z</time>
      </trkpt>
      <trkpt lat="43.1161" lon="6.20634">
        <ele>48</ele>
        <time>2015-09-04T14:57:59.000Z</time>
      </trkpt>
      <trkpt lat="43.11609" lon="6.20634">
        <ele>47</ele>
        <time>2015-09-04T14:58:00.000Z</time>
      </trkpt>
      <trkpt lat="43.11608" lon="6.20634">
        <ele>47</ele>
        <time>2015-09-04T14:58:01.000Z</time>
      </trkpt>
      <trkpt lat="43.11608" lon="6.20634">
        <ele>47</ele>
        <time>2015-09-04T14:58:02.000Z</time>
      </trkpt>
      <trkpt lat="43.11607" lon="6.20635">
        <ele>48</ele>
        <time>2015-09-04T14:58:03.000Z</time>
      </trkpt>
      <trkpt lat="43.11607" lon="6.20636">
        <ele>48</ele>
        <time>2015-09-04T14:58:04.000Z</time>
      </trkpt>
      <trkpt lat="43.11606" lon="6.20636">
        <ele>48</ele>
        <time>2015-09-04T14:58:05.000Z</time>
      </trkpt>
      <trkpt lat="43.11606" lon="6.20637">
        <ele>48</ele>
        <time>2015-09-04T14:58:06.000Z</time>
      </trkpt>
      <trkpt lat="43.11605" lon="6.20637">
        <ele>47</ele>
        <time>2015-09-04T14:58:07.000Z</time>
      </trkpt>
      <trkpt lat="43.11604" lon="6.20637">
        <ele>47</ele>
        <time>2015-09-04T14:58:08.000Z</time>
      </trkpt>
      <trkpt lat="43.11603" lon="6.20637">
        <ele>47</ele>
        <time>2015-09-04T14:58:09.000Z</time>
      </trkpt>
      <trkpt lat="43.11602" lon="6.20637">
        <ele>46</ele>
        <time>2015-09-04T14:58:10.000Z</time>
      </trkpt>
      <trkpt lat="43.11602" lon="6.20637">
        <ele>43</ele>
        <time>2015-09-04T14:58:11.000Z</time>
      </trkpt>
      <trkpt lat="43.11602" lon="6.20637">
        <ele>44</ele>
        <time>2015-09-04T14:58:12.000Z</time>
      </trkpt>
      <trkpt lat="43.11602" lon="6.20638">
        <ele>44</ele>
        <time>2015-09-04T14:58:13.000Z</time>
      </trkpt>
      <trkpt lat="43.11602" lon="6.20638">
        <ele>44</ele>
        <time>2015-09-04T14:58:14.000Z</time>
      </trkpt>
      <trkpt lat="43.11603" lon="6.20638">
        <ele>44</ele>
        <time>2015-09-04T14:58:15.000Z</time>
      </trkpt>
      <trkpt lat="43.11604" lon="6.20637">
        <ele>44</ele>
        <time>2015-09-04T14:58:16.000Z</time>
      </trkpt>
      <trkpt lat="43.11604" lon="6.20636">
        <ele>44</ele>
        <time>2015-09-04T14:58:17.000Z</time>
      </trkpt>
      <trkpt lat="43.11604" lon="6.20636">
        <ele>45</ele>
        <time>2015-09-04T14:58:18.000Z</time>
      </trkpt>
      <trkpt lat="43.11604" lon="6.20636">
        <ele>45</ele>
        <time>2015-09-04T14:58:19.000Z</time>
      </trkpt>
      <trkpt lat="43.11604" lon="6.20637">
        <ele>45</ele>
        <time>2015-09-04T14:58:20.000Z</time>
      </trkpt>
      <trkpt lat="43.11604" lon="6.20637">
        <ele>45</ele>
        <time>2015-09-04T14:58:21.000Z</time>
      </trkpt>
      <trkpt lat="43.11603" lon="6.20638">
        <ele>44</ele>
        <time>2015-09-04T14:58:22.000Z</time>
      </trkpt>
      <trkpt lat="43.11603" lon="6.20642">
        <ele>46</ele>
        <time>2015-09-04T14:58:23.000Z</time>
      </trkpt>
      <trkpt lat="43.11601" lon="6.20647">
        <ele>46</ele>
        <time>2015-09-04T14:58:24.000Z</time>
      </trkpt>
      <trkpt lat="43.116" lon="6.20652">
        <ele>48</ele>
        <time>2015-09-04T14:58:25.000Z</time>
      </trkpt>
      <trkpt lat="43.11598" lon="6.20657">
        <ele>48</ele>
        <time>2015-09-04T14:58:26.000Z</time>
      </trkpt>
      <trkpt lat="43.11596" lon="6.20661">
        <ele>47</ele>
        <time>2015-09-04T14:58:27.000Z</time>
      </trkpt>
      <trkpt lat="43.11595" lon="6.20676">
        <ele>48</ele>
        <time>2015-09-04T14:58:28.000Z</time>
      </trkpt>
      <trkpt lat="43.11594" lon="6.20681">
        <ele>49</ele>
        <time>2015-09-04T14:58:29.000Z</time>
      </trkpt>
      <trkpt lat="43.11594" lon="6.20685">
        <ele>50</ele>
        <time>2015-09-04T14:58:30.000Z</time>
      </trkpt>
      <trkpt lat="43.11592" lon="6.20689">
        <ele>47</ele>
        <time>2015-09-04T14:58:31.000Z</time>
      </trkpt>
      <trkpt lat="43.11591" lon="6.20693">
        <ele>46</ele>
        <time>2015-09-04T14:58:32.000Z</time>
      </trkpt>
      <trkpt lat="43.11588" lon="6.20698">
        <ele>45</ele>
        <time>2015-09-04T14:58:33.000Z</time>
      </trkpt>
      <trkpt lat="43.11586" lon="6.20702">
        <ele>45</ele>
        <time>2015-09-04T14:58:34.000Z</time>
      </trkpt>
      <trkpt lat="43.11585" lon="6.20706">
        <ele>45</ele>
        <time>2015-09-04T14:58:35.000Z</time>
      </trkpt>
      <trkpt lat="43.11584" lon="6.20709">
        <ele>46</ele>
        <time>2015-09-04T14:58:36.000Z</time>
      </trkpt>
      <trkpt lat="43.11583" lon="6.20713">
        <ele>47</ele>
        <time>2015-09-04T14:58:37.000Z</time>
      </trkpt>
      <trkpt lat="43.11581" lon="6.20718">
        <ele>46</ele>
        <time>2015-09-04T14:58:38.000Z</time>
      </trkpt>
      <trkpt lat="43.11579" lon="6.20723">
        <ele>46</ele>
        <time>2015-09-04T14:58:39.000Z</time>
      </trkpt>
      <trkpt lat="43.11578" lon="6.20727">
        <ele>47</ele>
        <time>2015-09-04T14:58:40.000Z</time>
      </trkpt>
      <trkpt lat="43.11577" lon="6.20732">
        <ele>47</ele>
        <time>2015-09-04T14:58:41.000Z</time>
      </trkpt>
      <trkpt lat="43.11576" lon="6.20737">
        <ele>46</ele>
        <time>2015-09-04T14:58:42.000Z</time>
      </trkpt>
      <trkpt lat="43.11574" lon="6.20741">
        <ele>47</ele>
        <time>2015-09-04T14:58:43.000Z</time>
      </trkpt>
      <trkpt lat="43.11572" lon="6.20746">
        <ele>45</ele>
        <time>2015-09-04T14:58:44.000Z</time>
      </trkpt>
      <trkpt lat="43.1157" lon="6.2075">
        <ele>44</ele>
        <time>2015-09-04T14:58:45.000Z</time>
      </trkpt>
      <trkpt lat="43.11567" lon="6.20755">
        <ele>44</ele>
        <time>2015-09-04T14:58:46.000Z</time>
      </trkpt>
      <trkpt lat="43.11561" lon="6.20762">
        <ele>43</ele>
        <time>2015-09-04T14:58:47.000Z</time>
      </trkpt>
      <trkpt lat="43.1156" lon="6.20766">
        <ele>44</ele>
        <time>2015-09-04T14:58:48.000Z</time>
      </trkpt>
      <trkpt lat="43.11558" lon="6.20772">
        <ele>44</ele>
        <time>2015-09-04T14:58:49.000Z</time>
      </trkpt>
      <trkpt lat="43.11557" lon="6.20776">
        <ele>44</ele>
        <time>2015-09-04T14:58:50.000Z</time>
      </trkpt>
      <trkpt lat="43.11553" lon="6.20781">
        <ele>44</ele>
        <time>2015-09-04T14:58:51.000Z</time>
      </trkpt>
      <trkpt lat="43.1155" lon="6.20787">
        <ele>44</ele>
        <time>2015-09-04T14:58:52.000Z</time>
      </trkpt>
      <trkpt lat="43.11548" lon="6.20791">
        <ele>44</ele>
        <time>2015-09-04T14:58:53.000Z</time>
      </trkpt>
      <trkpt lat="43.11545" lon="6.20795">
        <ele>43</ele>
        <time>2015-09-04T14:58:54.000Z</time>
      </trkpt>
      <trkpt lat="43.11544" lon="6.20801">
        <ele>45</ele>
        <time>2015-09-04T14:58:55.000Z</time>
      </trkpt>
      <trkpt lat="43.11541" lon="6.20806">
        <ele>45</ele>
        <time>2015-09-04T14:58:56.000Z</time>
      </trkpt>
      <trkpt lat="43.11538" lon="6.2081">
        <ele>45</ele>
        <time>2015-09-04T14:58:57.000Z</time>
      </trkpt>
      <trkpt lat="43.11536" lon="6.20815">
        <ele>45</ele>
        <time>2015-09-04T14:58:58.000Z</time>
      </trkpt>
      <trkpt lat="43.11532" lon="6.20823">
        <ele>45</ele>
        <time>2015-09-04T14:58:59.000Z</time>
      </trkpt>
      <trkpt lat="43.11529" lon="6.20829">
        <ele>45</ele>
        <time>2015-09-04T14:59:00.000Z</time>
      </trkpt>
      <trkpt lat="43.11525" lon="6.20834">
        <ele>45</ele>
        <time>2015-09-04T14:59:01.000Z</time>
      </trkpt>
      <trkpt lat="43.11521" lon="6.2084">
        <ele>45</ele>
        <time>2015-09-04T14:59:02.000Z</time>
      </trkpt>
      <trkpt lat="43.11517" lon="6.20845">
        <ele>45</ele>
        <time>2015-09-04T14:59:03.000Z</time>
      </trkpt>
      <trkpt lat="43.11514" lon="6.20851">
        <ele>45</ele>
        <time>2015-09-04T14:59:04.000Z</time>
      </trkpt>
      <trkpt lat="43.11512" lon="6.20854">
        <ele>46</ele>
        <time>2015-09-04T14:59:05.000Z</time>
      </trkpt>
      <trkpt lat="43.11509" lon="6.20859">
        <ele>47</ele>
        <time>2015-09-04T14:59:06.000Z</time>
      </trkpt>
      <trkpt lat="43.11507" lon="6.20861">
        <ele>48</ele>
        <time>2015-09-04T14:59:07.000Z</time>
      </trkpt>
      <trkpt lat="43.11505" lon="6.20867">
        <ele>48</ele>
        <time>2015-09-04T14:59:08.000Z</time>
      </trkpt>
      <trkpt lat="43.11503" lon="6.20872">
        <ele>48</ele>
        <time>2015-09-04T14:59:09.000Z</time>
      </trkpt>
      <trkpt lat="43.115" lon="6.20874">
        <ele>48</ele>
        <time>2015-09-04T14:59:10.000Z</time>
      </trkpt>
      <trkpt lat="43.11498" lon="6.20878">
        <ele>47</ele>
        <time>2015-09-04T14:59:11.000Z</time>
      </trkpt>
      <trkpt lat="43.11496" lon="6.20882">
        <ele>47</ele>
        <time>2015-09-04T14:59:12.000Z</time>
      </trkpt>
      <trkpt lat="43.11494" lon="6.20888">
        <ele>47</ele>
        <time>2015-09-04T14:59:13.000Z</time>
      </trkpt>
      <trkpt lat="43.11491" lon="6.20892">
        <ele>47</ele>
        <time>2015-09-04T14:59:14.000Z</time>
      </trkpt>
      <trkpt lat="43.11488" lon="6.20896">
        <ele>47</ele>
        <time>2015-09-04T14:59:15.000Z</time>
      </trkpt>
      <trkpt lat="43.11486" lon="6.209">
        <ele>47</ele>
        <time>2015-09-04T14:59:16.000Z</time>
      </trkpt>
      <trkpt lat="43.11485" lon="6.20904">
        <ele>48</ele>
        <time>2015-09-04T14:59:17.000Z</time>
      </trkpt>
      <trkpt lat="43.11485" lon="6.20909">
        <ele>49</ele>
        <time>2015-09-04T14:59:18.000Z</time>
      </trkpt>
      <trkpt lat="43.11481" lon="6.20915">
        <ele>48</ele>
        <time>2015-09-04T14:59:19.000Z</time>
      </trkpt>
      <trkpt lat="43.11477" lon="6.20921">
        <ele>48</ele>
        <time>2015-09-04T14:59:20.000Z</time>
      </trkpt>
      <trkpt lat="43.11473" lon="6.20925">
        <ele>47</ele>
        <time>2015-09-04T14:59:21.000Z</time>
      </trkpt>
      <trkpt lat="43.11469" lon="6.2093">
        <ele>47</ele>
        <time>2015-09-04T14:59:22.000Z</time>
      </trkpt>
      <trkpt lat="43.11466" lon="6.20933">
        <ele>47</ele>
        <time>2015-09-04T14:59:23.000Z</time>
      </trkpt>
      <trkpt lat="43.11462" lon="6.20937">
        <ele>46</ele>
        <time>2015-09-04T14:59:24.000Z</time>
      </trkpt>
      <trkpt lat="43.11458" lon="6.20941">
        <ele>45</ele>
        <time>2015-09-04T14:59:25.000Z</time>
      </trkpt>
      <trkpt lat="43.11454" lon="6.20947">
        <ele>44</ele>
        <time>2015-09-04T14:59:26.000Z</time>
      </trkpt>
      <trkpt lat="43.1145" lon="6.20951">
        <ele>43</ele>
        <time>2015-09-04T14:59:27.000Z</time>
      </trkpt>
      <trkpt lat="43.11447" lon="6.20955">
        <ele>43</ele>
        <time>2015-09-04T14:59:28.000Z</time>
      </trkpt>
      <trkpt lat="43.11444" lon="6.2096">
        <ele>43</ele>
        <time>2015-09-04T14:59:29.000Z</time>
      </trkpt>
      <trkpt lat="43.11443" lon="6.20962">
        <ele>43</ele>
        <time>2015-09-04T14:59:30.000Z</time>
      </trkpt>
      <trkpt lat="43.11442" lon="6.2097">
        <ele>43</ele>
        <time>2015-09-04T14:59:31.000Z</time>
      </trkpt>
      <trkpt lat="43.11438" lon="6.20975">
        <ele>43</ele>
        <time>2015-09-04T14:59:32.000Z</time>
      </trkpt>
      <trkpt lat="43.11434" lon="6.2098">
        <ele>42</ele>
        <time>2015-09-04T14:59:33.000Z</time>
      </trkpt>
      <trkpt lat="43.11431" lon="6.20985">
        <ele>44</ele>
        <time>2015-09-04T14:59:34.000Z</time>
      </trkpt>
      <trkpt lat="43.11428" lon="6.20988">
        <ele>44</ele>
        <time>2015-09-04T14:59:35.000Z</time>
      </trkpt>
      <trkpt lat="43.11425" lon="6.2099">
        <ele>44</ele>
        <time>2015-09-04T14:59:36.000Z</time>
      </trkpt>
      <trkpt lat="43.11424" lon="6.20993">
        <ele>44</ele>
        <time>2015-09-04T14:59:37.000Z</time>
      </trkpt>
      <trkpt lat="43.11423" lon="6.21">
        <ele>44</ele>
        <time>2015-09-04T14:59:38.000Z</time>
      </trkpt>
      <trkpt lat="43.11423" lon="6.21004">
        <ele>43</ele>
        <time>2015-09-04T14:59:39.000Z</time>
      </trkpt>
      <trkpt lat="43.11422" lon="6.2101">
        <ele>43</ele>
        <time>2015-09-04T14:59:40.000Z</time>
      </trkpt>
      <trkpt lat="43.11418" lon="6.21016">
        <ele>44</ele>
        <time>2015-09-04T14:59:41.000Z</time>
      </trkpt>
      <trkpt lat="43.11415" lon="6.21021">
        <ele>45</ele>
        <time>2015-09-04T14:59:42.000Z</time>
      </trkpt>
      <trkpt lat="43.11414" lon="6.21026">
        <ele>46</ele>
        <time>2015-09-04T14:59:43.000Z</time>
      </trkpt>
      <trkpt lat="43.11414" lon="6.21031">
        <ele>46</ele>
        <time>2015-09-04T14:59:44.000Z</time>
      </trkpt>
      <trkpt lat="43.11413" lon="6.21038">
        <ele>47</ele>
        <time>2015-09-04T14:59:45.000Z</time>
      </trkpt>
      <trkpt lat="43.11411" lon="6.21044">
        <ele>48</ele>
        <time>2015-09-04T14:59:46.000Z</time>
      </trkpt>
      <trkpt lat="43.1141" lon="6.21048">
        <ele>48</ele>
        <time>2015-09-04T14:59:47.000Z</time>
      </trkpt>
      <trkpt lat="43.11407" lon="6.21055">
        <ele>47</ele>
        <time>2015-09-04T14:59:48.000Z</time>
      </trkpt>
      <trkpt lat="43.11404" lon="6.2106">
        <ele>47</ele>
        <time>2015-09-04T14:59:49.000Z</time>
      </trkpt>
      <trkpt lat="43.114" lon="6.21066">
        <ele>49</ele>
        <time>2015-09-04T14:59:50.000Z</time>
      </trkpt>
      <trkpt lat="43.11396" lon="6.21072">
        <ele>49</ele>
        <time>2015-09-04T14:59:51.000Z</time>
      </trkpt>
      <trkpt lat="43.1139" lon="6.21078">
        <ele>49</ele>
        <time>2015-09-04T14:59:52.000Z</time>
      </trkpt>
      <trkpt lat="43.11386" lon="6.21086">
        <ele>49</ele>
        <time>2015-09-04T14:59:53.000Z</time>
      </trkpt>
      <trkpt lat="43.11381" lon="6.21092">
        <ele>48</ele>
        <time>2015-09-04T14:59:54.000Z</time>
      </trkpt>
      <trkpt lat="43.11375" lon="6.21096">
        <ele>48</ele>
        <time>2015-09-04T14:59:55.000Z</time>
      </trkpt>
      <trkpt lat="43.11368" lon="6.211">
        <ele>48</ele>
        <time>2015-09-04T14:59:56.000Z</time>
      </trkpt>
      <trkpt lat="43.11363" lon="6.21105">
        <ele>47</ele>
        <time>2015-09-04T14:59:57.000Z</time>
      </trkpt>
      <trkpt lat="43.11357" lon="6.21109">
        <ele>48</ele>
        <time>2015-09-04T14:59:58.000Z</time>
      </trkpt>
      <trkpt lat="43.11351" lon="6.21114">
        <ele>48</ele>
        <time>2015-09-04T14:59:59.000Z</time>
      </trkpt>
      <trkpt lat="43.11345" lon="6.21118">
        <ele>47</ele>
        <time>2015-09-04T15:00:00.000Z</time>
      </trkpt>
      <trkpt lat="43.1134" lon="6.21122">
        <ele>45</ele>
        <time>2015-09-04T15:00:01.000Z</time>
      </trkpt>
      <trkpt lat="43.11334" lon="6.21127">
        <ele>46</ele>
        <time>2015-09-04T15:00:02.000Z</time>
      </trkpt>
      <trkpt lat="43.11328" lon="6.21131">
        <ele>46</ele>
        <time>2015-09-04T15:00:03.000Z</time>
      </trkpt>
      <trkpt lat="43.11322" lon="6.21135">
        <ele>46</ele>
        <time>2015-09-04T15:00:04.000Z</time>
      </trkpt>
      <trkpt lat="43.11318" lon="6.21138">
        <ele>46</ele>
        <time>2015-09-04T15:00:05.000Z</time>
      </trkpt>
      <trkpt lat="43.11313" lon="6.21143">
        <ele>47</ele>
        <time>2015-09-04T15:00:06.000Z</time>
      </trkpt>
      <trkpt lat="43.11308" lon="6.21149">
        <ele>47</ele>
        <time>2015-09-04T15:00:07.000Z</time>
      </trkpt>
      <trkpt lat="43.11303" lon="6.21155">
        <ele>48</ele>
        <time>2015-09-04T15:00:08.000Z</time>
      </trkpt>
      <trkpt lat="43.11296" lon="6.21161">
        <ele>47</ele>
        <time>2015-09-04T15:00:09.000Z</time>
      </trkpt>
      <trkpt lat="43.11293" lon="6.21166">
        <ele>47</ele>
        <time>2015-09-04T15:00:10.000Z</time>
      </trkpt>
      <trkpt lat="43.11289" lon="6.2117">
        <ele>46</ele>
        <time>2015-09-04T15:00:11.000Z</time>
      </trkpt>
      <trkpt lat="43.11285" lon="6.21175">
        <ele>48</ele>
        <time>2015-09-04T15:00:12.000Z</time>
      </trkpt>
      <trkpt lat="43.11281" lon="6.21183">
        <ele>48</ele>
        <time>2015-09-04T15:00:13.000Z</time>
      </trkpt>
      <trkpt lat="43.11276" lon="6.21191">
        <ele>48</ele>
        <time>2015-09-04T15:00:14.000Z</time>
      </trkpt>
      <trkpt lat="43.11271" lon="6.21197">
        <ele>47</ele>
        <time>2015-09-04T15:00:15.000Z</time>
      </trkpt>
      <trkpt lat="43.11265" lon="6.21201">
        <ele>45</ele>
        <time>2015-09-04T15:00:16.000Z</time>
      </trkpt>
      <trkpt lat="43.1126" lon="6.21205">
        <ele>45</ele>
        <time>2015-09-04T15:00:17.000Z</time>
      </trkpt>
      <trkpt lat="43.11253" lon="6.21209">
        <ele>44</ele>
        <time>2015-09-04T15:00:18.000Z</time>
      </trkpt>
      <trkpt lat="43.11247" lon="6.21214">
        <ele>45</ele>
        <time>2015-09-04T15:00:19.000Z</time>
      </trkpt>
      <trkpt lat="43.11242" lon="6.2122">
        <ele>46</ele>
        <time>2015-09-04T15:00:20.000Z</time>
      </trkpt>
      <trkpt lat="43.11237" lon="6.21225">
        <ele>46</ele>
        <time>2015-09-04T15:00:21.000Z</time>
      </trkpt>
      <trkpt lat="43.1123" lon="6.2123">
        <ele>46</ele>
        <time>2015-09-04T15:00:22.000Z</time>
      </trkpt>
      <trkpt lat="43.11225" lon="6.21234">
        <ele>46</ele>
        <time>2015-09-04T15:00:23.000Z</time>
      </trkpt>
      <trkpt lat="43.1122" lon="6.21239">
        <ele>46</ele>
        <time>2015-09-04T15:00:24.000Z</time>
      </trkpt>
      <trkpt lat="43.11215" lon="6.21244">
        <ele>45</ele>
        <time>2015-09-04T15:00:25.000Z</time>
      </trkpt>
      <trkpt lat="43.1121" lon="6.2125">
        <ele>45</ele>
        <time>2015-09-04T15:00:26.000Z</time>
      </trkpt>
      <trkpt lat="43.11204" lon="6.21256">
        <ele>44</ele>
        <time>2015-09-04T15:00:27.000Z</time>
      </trkpt>
      <trkpt lat="43.112" lon="6.21261">
        <ele>44</ele>
        <time>2015-09-04T15:00:28.000Z</time>
      </trkpt>
      <trkpt lat="43.11195" lon="6.21268">
        <ele>45</ele>
        <time>2015-09-04T15:00:29.000Z</time>
      </trkpt>
      <trkpt lat="43.1119" lon="6.21275">
        <ele>46</ele>
        <time>2015-09-04T15:00:30.000Z</time>
      </trkpt>
      <trkpt lat="43.11184" lon="6.21281">
        <ele>45</ele>
        <time>2015-09-04T15:00:31.000Z</time>
      </trkpt>
      <trkpt lat="43.11177" lon="6.21285">
        <ele>45</ele>
        <time>2015-09-04T15:00:32.000Z</time>
      </trkpt>
      <trkpt lat="43.11171" lon="6.2129">
        <ele>45</ele>
        <time>2015-09-04T15:00:33.000Z</time>
      </trkpt>
      <trkpt lat="43.11165" lon="6.21295">
        <ele>44</ele>
        <time>2015-09-04T15:00:34.000Z</time>
      </trkpt>
      <trkpt lat="43.11159" lon="6.21299">
        <ele>43</ele>
        <time>2015-09-04T15:00:35.000Z</time>
      </trkpt>
      <trkpt lat="43.11154" lon="6.21304">
        <ele>43</ele>
        <time>2015-09-04T15:00:36.000Z</time>
      </trkpt>
      <trkpt lat="43.11148" lon="6.21309">
        <ele>43</ele>
        <time>2015-09-04T15:00:37.000Z</time>
      </trkpt>
      <trkpt lat="43.11143" lon="6.21314">
        <ele>43</ele>
        <time>2015-09-04T15:00:38.000Z</time>
      </trkpt>
      <trkpt lat="43.11137" lon="6.21319">
        <ele>42</ele>
        <time>2015-09-04T15:00:39.000Z</time>
      </trkpt>
      <trkpt lat="43.11132" lon="6.21324">
        <ele>43</ele>
        <time>2015-09-04T15:00:40.000Z</time>
      </trkpt>
      <trkpt lat="43.11125" lon="6.21328">
        <ele>44</ele>
        <time>2015-09-04T15:00:41.000Z</time>
      </trkpt>
      <trkpt lat="43.11121" lon="6.21335">
        <ele>45</ele>
        <time>2015-09-04T15:00:42.000Z</time>
      </trkpt>
      <trkpt lat="43.11114" lon="6.2134">
        <ele>44</ele>
        <time>2015-09-04T15:00:43.000Z</time>
      </trkpt>
      <trkpt lat="43.11108" lon="6.21342">
        <ele>44</ele>
        <time>2015-09-04T15:00:44.000Z</time>
      </trkpt>
      <trkpt lat="43.11102" lon="6.21347">
        <ele>44</ele>
        <time>2015-09-04T15:00:45.000Z</time>
      </trkpt>
      <trkpt lat="43.11097" lon="6.21351">
        <ele>45</ele>
        <time>2015-09-04T15:00:46.000Z</time>
      </trkpt>
      <trkpt lat="43.11091" lon="6.21355">
        <ele>46</ele>
        <time>2015-09-04T15:00:47.000Z</time>
      </trkpt>
      <trkpt lat="43.11086" lon="6.2136">
        <ele>47</ele>
        <time>2015-09-04T15:00:48.000Z</time>
      </trkpt>
      <trkpt lat="43.1108" lon="6.21366">
        <ele>46</ele>
        <time>2015-09-04T15:00:49.000Z</time>
      </trkpt>
      <trkpt lat="43.11075" lon="6.21371">
        <ele>47</ele>
        <time>2015-09-04T15:00:50.000Z</time>
      </trkpt>
      <trkpt lat="43.11069" lon="6.21378">
        <ele>46</ele>
        <time>2015-09-04T15:00:51.000Z</time>
      </trkpt>
      <trkpt lat="43.11062" lon="6.21384">
        <ele>47</ele>
        <time>2015-09-04T15:00:52.000Z</time>
      </trkpt>
      <trkpt lat="43.11056" lon="6.21387">
        <ele>47</ele>
        <time>2015-09-04T15:00:53.000Z</time>
      </trkpt>
      <trkpt lat="43.11049" lon="6.21391">
        <ele>47</ele>
        <time>2015-09-04T15:00:54.000Z</time>
      </trkpt>
      <trkpt lat="43.11045" lon="6.21395">
        <ele>48</ele>
        <time>2015-09-04T15:00:55.000Z</time>
      </trkpt>
      <trkpt lat="43.1104" lon="6.214">
        <ele>48</ele>
        <time>2015-09-04T15:00:56.000Z</time>
      </trkpt>
      <trkpt lat="43.11033" lon="6.214">
        <ele>51</ele>
        <time>2015-09-04T15:00:57.000Z</time>
      </trkpt>
      <trkpt lat="43.11028" lon="6.21403">
        <ele>51</ele>
        <time>2015-09-04T15:00:58.000Z</time>
      </trkpt>
      <trkpt lat="43.11021" lon="6.21408">
        <ele>51</ele>
        <time>2015-09-04T15:00:59.000Z</time>
      </trkpt>
      <trkpt lat="43.11017" lon="6.21416">
        <ele>52</ele>
        <time>2015-09-04T15:01:00.000Z</time>
      </trkpt>
      <trkpt lat="43.11012" lon="6.21417">
        <ele>52</ele>
        <time>2015-09-04T15:01:01.000Z</time>
      </trkpt>
      <trkpt lat="43.11007" lon="6.21418">
        <ele>51</ele>
        <time>2015-09-04T15:01:02.000Z</time>
      </trkpt>
      <trkpt lat="43.11001" lon="6.21421">
        <ele>48</ele>
        <time>2015-09-04T15:01:03.000Z</time>
      </trkpt>
      <trkpt lat="43.10995" lon="6.21427">
        <ele>49</ele>
        <time>2015-09-04T15:01:04.000Z</time>
      </trkpt>
      <trkpt lat="43.10991" lon="6.21433">
        <ele>50</ele>
        <time>2015-09-04T15:01:05.000Z</time>
      </trkpt>
      <trkpt lat="43.10985" lon="6.21439">
        <ele>49</ele>
        <time>2015-09-04T15:01:06.000Z</time>
      </trkpt>
      <trkpt lat="43.10979" lon="6.21443">
        <ele>51</ele>
        <time>2015-09-04T15:01:07.000Z</time>
      </trkpt>
      <trkpt lat="43.10971" lon="6.21448">
        <ele>52</ele>
        <time>2015-09-04T15:01:08.000Z</time>
      </trkpt>
      <trkpt lat="43.10966" lon="6.21453">
        <ele>53</ele>
        <time>2015-09-04T15:01:09.000Z</time>
      </trkpt>
      <trkpt lat="43.10957" lon="6.21457">
        <ele>55</ele>
        <time>2015-09-04T15:01:10.000Z</time>
      </trkpt>
      <trkpt lat="43.10953" lon="6.21462">
        <ele>55</ele>
        <time>2015-09-04T15:01:11.000Z</time>
      </trkpt>
      <trkpt lat="43.10949" lon="6.21465">
        <ele>54</ele>
        <time>2015-09-04T15:01:12.000Z</time>
      </trkpt>
      <trkpt lat="43.10943" lon="6.2147">
        <ele>54</ele>
        <time>2015-09-04T15:01:13.000Z</time>
      </trkpt>
      <trkpt lat="43.10936" lon="6.21476">
        <ele>56</ele>
        <time>2015-09-04T15:01:14.000Z</time>
      </trkpt>
      <trkpt lat="43.10929" lon="6.21478">
        <ele>57</ele>
        <time>2015-09-04T15:01:15.000Z</time>
      </trkpt>
      <trkpt lat="43.10923" lon="6.21482">
        <ele>56</ele>
        <time>2015-09-04T15:01:16.000Z</time>
      </trkpt>
      <trkpt lat="43.10916" lon="6.21488">
        <ele>57</ele>
        <time>2015-09-04T15:01:17.000Z</time>
      </trkpt>
      <trkpt lat="43.10912" lon="6.21491">
        <ele>58</ele>
        <time>2015-09-04T15:01:18.000Z</time>
      </trkpt>
      <trkpt lat="43.10906" lon="6.21495">
        <ele>59</ele>
        <time>2015-09-04T15:01:19.000Z</time>
      </trkpt>
      <trkpt lat="43.10902" lon="6.21497">
        <ele>59</ele>
        <time>2015-09-04T15:01:20.000Z</time>
      </trkpt>
      <trkpt lat="43.10892" lon="6.21497">
        <ele>58</ele>
        <time>2015-09-04T15:01:21.000Z</time>
      </trkpt>
      <trkpt lat="43.10887" lon="6.21499">
        <ele>59</ele>
        <time>2015-09-04T15:01:22.000Z</time>
      </trkpt>
      <trkpt lat="43.10878" lon="6.21502">
        <ele>59</ele>
        <time>2015-09-04T15:01:23.000Z</time>
      </trkpt>
      <trkpt lat="43.10871" lon="6.21507">
        <ele>58</ele>
        <time>2015-09-04T15:01:24.000Z</time>
      </trkpt>
      <trkpt lat="43.10862" lon="6.21511">
        <ele>58</ele>
        <time>2015-09-04T15:01:25.000Z</time>
      </trkpt>
      <trkpt lat="43.10856" lon="6.21519">
        <ele>57</ele>
        <time>2015-09-04T15:01:26.000Z</time>
      </trkpt>
      <trkpt lat="43.10852" lon="6.21527">
        <ele>57</ele>
        <time>2015-09-04T15:01:27.000Z</time>
      </trkpt>
      <trkpt lat="43.10843" lon="6.21531">
        <ele>56</ele>
        <time>2015-09-04T15:01:28.000Z</time>
      </trkpt>
      <trkpt lat="43.10835" lon="6.21534">
        <ele>56</ele>
        <time>2015-09-04T15:01:29.000Z</time>
      </trkpt>
      <trkpt lat="43.10827" lon="6.21537">
        <ele>57</ele>
        <time>2015-09-04T15:01:30.000Z</time>
      </trkpt>
      <trkpt lat="43.10819" lon="6.21541">
        <ele>55</ele>
        <time>2015-09-04T15:01:31.000Z</time>
      </trkpt>
      <trkpt lat="43.10814" lon="6.21536">
        <ele>55</ele>
        <time>2015-09-04T15:01:32.000Z</time>
      </trkpt>
      <trkpt lat="43.10813" lon="6.21546">
        <ele>55</ele>
        <time>2015-09-04T15:01:33.000Z</time>
      </trkpt>
      <trkpt lat="43.10805" lon="6.21554">
        <ele>54</ele>
        <time>2015-09-04T15:01:34.000Z</time>
      </trkpt>
      <trkpt lat="43.108" lon="6.21555">
        <ele>55</ele>
        <time>2015-09-04T15:01:35.000Z</time>
      </trkpt>
      <trkpt lat="43.10791" lon="6.21558">
        <ele>55</ele>
        <time>2015-09-04T15:01:36.000Z</time>
      </trkpt>
      <trkpt lat="43.1078" lon="6.21559">
        <ele>55</ele>
        <time>2015-09-04T15:01:37.000Z</time>
      </trkpt>
      <trkpt lat="43.10775" lon="6.21568">
        <ele>55</ele>
        <time>2015-09-04T15:01:38.000Z</time>
      </trkpt>
      <trkpt lat="43.10769" lon="6.2157">
        <ele>56</ele>
        <time>2015-09-04T15:01:39.000Z</time>
      </trkpt>
      <trkpt lat="43.10763" lon="6.21575">
        <ele>58</ele>
        <time>2015-09-04T15:01:40.000Z</time>
      </trkpt>
      <trkpt lat="43.10756" lon="6.21573">
        <ele>57</ele>
        <time>2015-09-04T15:01:41.000Z</time>
      </trkpt>
      <trkpt lat="43.1075" lon="6.21583">
        <ele>58</ele>
        <time>2015-09-04T15:01:42.000Z</time>
      </trkpt>
      <trkpt lat="43.10743" lon="6.21593">
        <ele>57</ele>
        <time>2015-09-04T15:01:43.000Z</time>
      </trkpt>
      <trkpt lat="43.10731" lon="6.21594">
        <ele>57</ele>
        <time>2015-09-04T15:01:44.000Z</time>
      </trkpt>
      <trkpt lat="43.10724" lon="6.21591">
        <ele>58</ele>
        <time>2015-09-04T15:01:45.000Z</time>
      </trkpt>
      <trkpt lat="43.10719" lon="6.21592">
        <ele>58</ele>
        <time>2015-09-04T15:01:46.000Z</time>
      </trkpt>
      <trkpt lat="43.10711" lon="6.21599">
        <ele>57</ele>
        <time>2015-09-04T15:01:47.000Z</time>
      </trkpt>
      <trkpt lat="43.10706" lon="6.216">
        <ele>57</ele>
        <time>2015-09-04T15:01:48.000Z</time>
      </trkpt>
      <trkpt lat="43.10699" lon="6.21603">
        <ele>59</ele>
        <time>2015-09-04T15:01:49.000Z</time>
      </trkpt>
      <trkpt lat="43.10689" lon="6.21605">
        <ele>61</ele>
        <time>2015-09-04T15:01:50.000Z</time>
      </trkpt>
      <trkpt lat="43.10681" lon="6.21608">
        <ele>61</ele>
        <time>2015-09-04T15:01:51.000Z</time>
      </trkpt>
      <trkpt lat="43.10672" lon="6.21606">
        <ele>59</ele>
        <time>2015-09-04T15:01:52.000Z</time>
      </trkpt>
      <trkpt lat="43.10665" lon="6.2161">
        <ele>60</ele>
        <time>2015-09-04T15:01:53.000Z</time>
      </trkpt>
      <trkpt lat="43.10659" lon="6.21615">
        <ele>61</ele>
        <time>2015-09-04T15:01:54.000Z</time>
      </trkpt>
      <trkpt lat="43.10653" lon="6.21618">
        <ele>62</ele>
        <time>2015-09-04T15:01:55.000Z</time>
      </trkpt>
      <trkpt lat="43.10646" lon="6.21619">
        <ele>62</ele>
        <time>2015-09-04T15:01:56.000Z</time>
      </trkpt>
      <trkpt lat="43.10638" lon="6.21622">
        <ele>62</ele>
        <time>2015-09-04T15:01:57.000Z</time>
      </trkpt>
      <trkpt lat="43.10626" lon="6.21622">
        <ele>61</ele>
        <time>2015-09-04T15:01:58.000Z</time>
      </trkpt>
      <trkpt lat="43.10619" lon="6.21627">
        <ele>61</ele>
        <time>2015-09-04T15:01:59.000Z</time>
      </trkpt>
      <trkpt lat="43.1061" lon="6.21628">
        <ele>62</ele>
        <time>2015-09-04T15:02:00.000Z</time>
      </trkpt>
      <trkpt lat="43.10605" lon="6.2163">
        <ele>61</ele>
        <time>2015-09-04T15:02:01.000Z</time>
      </trkpt>
      <trkpt lat="43.10595" lon="6.21632">
        <ele>61</ele>
        <time>2015-09-04T15:02:02.000Z</time>
      </trkpt>
      <trkpt lat="43.10589" lon="6.21635">
        <ele>61</ele>
        <time>2015-09-04T15:02:03.000Z</time>
      </trkpt>
      <trkpt lat="43.10584" lon="6.21637">
        <ele>60</ele>
        <time>2015-09-04T15:02:04.000Z</time>
      </trkpt>
      <trkpt lat="43.10578" lon="6.21636">
        <ele>60</ele>
        <time>2015-09-04T15:02:05.000Z</time>
      </trkpt>
      <trkpt lat="43.10571" lon="6.2164">
        <ele>59</ele>
        <time>2015-09-04T15:02:06.000Z</time>
      </trkpt>
      <trkpt lat="43.10565" lon="6.21644">
        <ele>58</ele>
        <time>2015-09-04T15:02:07.000Z</time>
      </trkpt>
      <trkpt lat="43.10558" lon="6.21648">
        <ele>57</ele>
        <time>2015-09-04T15:02:08.000Z</time>
      </trkpt>
      <trkpt lat="43.10553" lon="6.21655">
        <ele>56</ele>
        <time>2015-09-04T15:02:09.000Z</time>
      </trkpt>
      <trkpt lat="43.10545" lon="6.21654">
        <ele>58</ele>
        <time>2015-09-04T15:02:10.000Z</time>
      </trkpt>
      <trkpt lat="43.10539" lon="6.21658">
        <ele>57</ele>
        <time>2015-09-04T15:02:11.000Z</time>
      </trkpt>
      <trkpt lat="43.10532" lon="6.21662">
        <ele>56</ele>
        <time>2015-09-04T15:02:12.000Z</time>
      </trkpt>
      <trkpt lat="43.10525" lon="6.21665">
        <ele>56</ele>
        <time>2015-09-04T15:02:13.000Z</time>
      </trkpt>
      <trkpt lat="43.10518" lon="6.21671">
        <ele>56</ele>
        <time>2015-09-04T15:02:14.000Z</time>
      </trkpt>
      <trkpt lat="43.10514" lon="6.21671">
        <ele>56</ele>
        <time>2015-09-04T15:02:15.000Z</time>
      </trkpt>
      <trkpt lat="43.10505" lon="6.2167">
        <ele>56</ele>
        <time>2015-09-04T15:02:16.000Z</time>
      </trkpt>
      <trkpt lat="43.10498" lon="6.21671">
        <ele>57</ele>
        <time>2015-09-04T15:02:17.000Z</time>
      </trkpt>
      <trkpt lat="43.1049" lon="6.21669">
        <ele>56</ele>
        <time>2015-09-04T15:02:18.000Z</time>
      </trkpt>
      <trkpt lat="43.10483" lon="6.21673">
        <ele>55</ele>
        <time>2015-09-04T15:02:19.000Z</time>
      </trkpt>
      <trkpt lat="43.10476" lon="6.21679">
        <ele>54</ele>
        <time>2015-09-04T15:02:20.000Z</time>
      </trkpt>
      <trkpt lat="43.10468" lon="6.21683">
        <ele>54</ele>
        <time>2015-09-04T15:02:21.000Z</time>
      </trkpt>
      <trkpt lat="43.10462" lon="6.21688">
        <ele>55</ele>
        <time>2015-09-04T15:02:22.000Z</time>
      </trkpt>
      <trkpt lat="43.10455" lon="6.2169">
        <ele>55</ele>
        <time>2015-09-04T15:02:23.000Z</time>
      </trkpt>
      <trkpt lat="43.10448" lon="6.21694">
        <ele>55</ele>
        <time>2015-09-04T15:02:24.000Z</time>
      </trkpt>
      <trkpt lat="43.1044" lon="6.21698">
        <ele>55</ele>
        <time>2015-09-04T15:02:25.000Z</time>
      </trkpt>
      <trkpt lat="43.10433" lon="6.21702">
        <ele>55</ele>
        <time>2015-09-04T15:02:26.000Z</time>
      </trkpt>
      <trkpt lat="43.10425" lon="6.21705">
        <ele>56</ele>
        <time>2015-09-04T15:02:27.000Z</time>
      </trkpt>
      <trkpt lat="43.10419" lon="6.21709">
        <ele>57</ele>
        <time>2015-09-04T15:02:28.000Z</time>
      </trkpt>
      <trkpt lat="43.10414" lon="6.21713">
        <ele>57</ele>
        <time>2015-09-04T15:02:29.000Z</time>
      </trkpt>
      <trkpt lat="43.10408" lon="6.2171">
        <ele>58</ele>
        <time>2015-09-04T15:02:30.000Z</time>
      </trkpt>
      <trkpt lat="43.10399" lon="6.21707">
        <ele>58</ele>
        <time>2015-09-04T15:02:31.000Z</time>
      </trkpt>
      <trkpt lat="43.10393" lon="6.21719">
        <ele>58</ele>
        <time>2015-09-04T15:02:32.000Z</time>
      </trkpt>
      <trkpt lat="43.10384" lon="6.21721">
        <ele>57</ele>
        <time>2015-09-04T15:02:33.000Z</time>
      </trkpt>
      <trkpt lat="43.10378" lon="6.21725">
        <ele>58</ele>
        <time>2015-09-04T15:02:34.000Z</time>
      </trkpt>
      <trkpt lat="43.10374" lon="6.21729">
        <ele>60</ele>
        <time>2015-09-04T15:02:35.000Z</time>
      </trkpt>
      <trkpt lat="43.10366" lon="6.21729">
        <ele>59</ele>
        <time>2015-09-04T15:02:36.000Z</time>
      </trkpt>
      <trkpt lat="43.10359" lon="6.21736">
        <ele>59</ele>
        <time>2015-09-04T15:02:37.000Z</time>
      </trkpt>
      <trkpt lat="43.10354" lon="6.21739">
        <ele>60</ele>
        <time>2015-09-04T15:02:38.000Z</time>
      </trkpt>
      <trkpt lat="43.10348" lon="6.21738">
        <ele>62</ele>
        <time>2015-09-04T15:02:39.000Z</time>
      </trkpt>
      <trkpt lat="43.10337" lon="6.21744">
        <ele>63</ele>
        <time>2015-09-04T15:02:40.000Z</time>
      </trkpt>
      <trkpt lat="43.10329" lon="6.21747">
        <ele>62</ele>
        <time>2015-09-04T15:02:41.000Z</time>
      </trkpt>
      <trkpt lat="43.10317" lon="6.2175">
        <ele>61</ele>
        <time>2015-09-04T15:02:42.000Z</time>
      </trkpt>
      <trkpt lat="43.10308" lon="6.21753">
        <ele>61</ele>
        <time>2015-09-04T15:02:43.000Z</time>
      </trkpt>
      <trkpt lat="43.10296" lon="6.21757">
        <ele>61</ele>
        <time>2015-09-04T15:02:44.000Z</time>
      </trkpt>
      <trkpt lat="43.10287" lon="6.21758">
        <ele>60</ele>
        <time>2015-09-04T15:02:45.000Z</time>
      </trkpt>
      <trkpt lat="43.10282" lon="6.21758">
        <ele>61</ele>
        <time>2015-09-04T15:02:46.000Z</time>
      </trkpt>
      <trkpt lat="43.10278" lon="6.21756">
        <ele>61</ele>
        <time>2015-09-04T15:02:47.000Z</time>
      </trkpt>
      <trkpt lat="43.10268" lon="6.21761">
        <ele>61</ele>
        <time>2015-09-04T15:02:48.000Z</time>
      </trkpt>
      <trkpt lat="43.10261" lon="6.21765">
        <ele>62</ele>
        <time>2015-09-04T15:02:49.000Z</time>
      </trkpt>
      <trkpt lat="43.10252" lon="6.21769">
        <ele>61</ele>
        <time>2015-09-04T15:02:50.000Z</time>
      </trkpt>
      <trkpt lat="43.10244" lon="6.2177">
        <ele>61</ele>
        <time>2015-09-04T15:02:51.000Z</time>
      </trkpt>
      <trkpt lat="43.10236" lon="6.21771">
        <ele>60</ele>
        <time>2015-09-04T15:02:52.000Z</time>
      </trkpt>
      <trkpt lat="43.10228" lon="6.21771">
        <ele>60</ele>
        <time>2015-09-04T15:02:53.000Z</time>
      </trkpt>
      <trkpt lat="43.10224" lon="6.21768">
        <ele>59</ele>
        <time>2015-09-04T15:02:54.000Z</time>
      </trkpt>
      <trkpt lat="43.10216" lon="6.21768">
        <ele>59</ele>
        <time>2015-09-04T15:02:55.000Z</time>
      </trkpt>
      <trkpt lat="43.10211" lon="6.21767">
        <ele>60</ele>
        <time>2015-09-04T15:02:56.000Z</time>
      </trkpt>
      <trkpt lat="43.102" lon="6.2177">
        <ele>58</ele>
        <time>2015-09-04T15:02:57.000Z</time>
      </trkpt>
      <trkpt lat="43.10193" lon="6.21772">
        <ele>58</ele>
        <time>2015-09-04T15:02:58.000Z</time>
      </trkpt>
      <trkpt lat="43.10186" lon="6.2177">
        <ele>59</ele>
        <time>2015-09-04T15:02:59.000Z</time>
      </trkpt>
      <trkpt lat="43.10181" lon="6.21766">
        <ele>60</ele>
        <time>2015-09-04T15:03:00.000Z</time>
      </trkpt>
      <trkpt lat="43.10173" lon="6.21767">
        <ele>60</ele>
        <time>2015-09-04T15:03:01.000Z</time>
      </trkpt>
      <trkpt lat="43.10163" lon="6.21769">
        <ele>60</ele>
        <time>2015-09-04T15:03:02.000Z</time>
      </trkpt>
      <trkpt lat="43.10156" lon="6.21769">
        <ele>58</ele>
        <time>2015-09-04T15:03:03.000Z</time>
      </trkpt>
      <trkpt lat="43.1015" lon="6.21772">
        <ele>58</ele>
        <time>2015-09-04T15:03:04.000Z</time>
      </trkpt>
      <trkpt lat="43.10142" lon="6.21772">
        <ele>58</ele>
        <time>2015-09-04T15:03:05.000Z</time>
      </trkpt>
      <trkpt lat="43.10132" lon="6.21769">
        <ele>57</ele>
        <time>2015-09-04T15:03:06.000Z</time>
      </trkpt>
      <trkpt lat="43.10124" lon="6.21767">
        <ele>58</ele>
        <time>2015-09-04T15:03:07.000Z</time>
      </trkpt>
      <trkpt lat="43.10115" lon="6.21773">
        <ele>57</ele>
        <time>2015-09-04T15:03:08.000Z</time>
      </trkpt>
      <trkpt lat="43.10104" lon="6.21776">
        <ele>59</ele>
        <time>2015-09-04T15:03:09.000Z</time>
      </trkpt>
      <trkpt lat="43.10095" lon="6.21779">
        <ele>59</ele>
        <time>2015-09-04T15:03:10.000Z</time>
      </trkpt>
      <trkpt lat="43.10091" lon="6.21775">
        <ele>58</ele>
        <time>2015-09-04T15:03:11.000Z</time>
      </trkpt>
      <trkpt lat="43.10083" lon="6.21778">
        <ele>59</ele>
        <time>2015-09-04T15:03:12.000Z</time>
      </trkpt>
      <trkpt lat="43.10078" lon="6.21779">
        <ele>59</ele>
        <time>2015-09-04T15:03:13.000Z</time>
      </trkpt>
      <trkpt lat="43.10071" lon="6.21778">
        <ele>60</ele>
        <time>2015-09-04T15:03:14.000Z</time>
      </trkpt>
      <trkpt lat="43.10061" lon="6.2178">
        <ele>59</ele>
        <time>2015-09-04T15:03:15.000Z</time>
      </trkpt>
      <trkpt lat="43.10052" lon="6.21782">
        <ele>59</ele>
        <time>2015-09-04T15:03:16.000Z</time>
      </trkpt>
      <trkpt lat="43.10044" lon="6.21785">
        <ele>58</ele>
        <time>2015-09-04T15:03:17.000Z</time>
      </trkpt>
      <trkpt lat="43.10038" lon="6.21786">
        <ele>59</ele>
        <time>2015-09-04T15:03:18.000Z</time>
      </trkpt>
      <trkpt lat="43.10029" lon="6.21784">
        <ele>59</ele>
        <time>2015-09-04T15:03:19.000Z</time>
      </trkpt>
      <trkpt lat="43.10021" lon="6.21781">
        <ele>57</ele>
        <time>2015-09-04T15:03:20.000Z</time>
      </trkpt>
      <trkpt lat="43.10012" lon="6.21779">
        <ele>57</ele>
        <time>2015-09-04T15:03:21.000Z</time>
      </trkpt>
      <trkpt lat="43.10007" lon="6.2178">
        <ele>57</ele>
        <time>2015-09-04T15:03:22.000Z</time>
      </trkpt>
      <trkpt lat="43.1" lon="6.21782">
        <ele>57</ele>
        <time>2015-09-04T15:03:23.000Z</time>
      </trkpt>
      <trkpt lat="43.09989" lon="6.21789">
        <ele>57</ele>
        <time>2015-09-04T15:03:24.000Z</time>
      </trkpt>
      <trkpt lat="43.09983" lon="6.2179">
        <ele>57</ele>
        <time>2015-09-04T15:03:25.000Z</time>
      </trkpt>
      <trkpt lat="43.09975" lon="6.21791">
        <ele>56</ele>
        <time>2015-09-04T15:03:26.000Z</time>
      </trkpt>
      <trkpt lat="43.09967" lon="6.21791">
        <ele>56</ele>
        <time>2015-09-04T15:03:27.000Z</time>
      </trkpt>
      <trkpt lat="43.09966" lon="6.21788">
        <ele>56</ele>
        <time>2015-09-04T15:03:28.000Z</time>
      </trkpt>
      <trkpt lat="43.09955" lon="6.21792">
        <ele>56</ele>
        <time>2015-09-04T15:03:29.000Z</time>
      </trkpt>
      <trkpt lat="43.09949" lon="6.2179">
        <ele>57</ele>
        <time>2015-09-04T15:03:30.000Z</time>
      </trkpt>
      <trkpt lat="43.09941" lon="6.21791">
        <ele>56</ele>
        <time>2015-09-04T15:03:31.000Z</time>
      </trkpt>
      <trkpt lat="43.0993" lon="6.21793">
        <ele>56</ele>
        <time>2015-09-04T15:03:32.000Z</time>
      </trkpt>
      <trkpt lat="43.09918" lon="6.21792">
        <ele>55</ele>
        <time>2015-09-04T15:03:33.000Z</time>
      </trkpt>
      <trkpt lat="43.0991" lon="6.21794">
        <ele>54</ele>
        <time>2015-09-04T15:03:34.000Z</time>
      </trkpt>
      <trkpt lat="43.099" lon="6.21796">
        <ele>56</ele>
        <time>2015-09-04T15:03:35.000Z</time>
      </trkpt>
      <trkpt lat="43.09893" lon="6.21795">
        <ele>55</ele>
        <time>2015-09-04T15:03:36.000Z</time>
      </trkpt>
      <trkpt lat="43.09886" lon="6.21795">
        <ele>55</ele>
        <time>2015-09-04T15:03:37.000Z</time>
      </trkpt>
      <trkpt lat="43.09878" lon="6.21798">
        <ele>55</ele>
        <time>2015-09-04T15:03:38.000Z</time>
      </trkpt>
      <trkpt lat="43.09877" lon="6.21797">
        <ele>55</ele>
        <time>2015-09-04T15:03:39.000Z</time>
      </trkpt>
      <trkpt lat="43.09865" lon="6.21798">
        <ele>55</ele>
        <time>2015-09-04T15:03:40.000Z</time>
      </trkpt>
      <trkpt lat="43.0986" lon="6.21795">
        <ele>54</ele>
        <time>2015-09-04T15:03:41.000Z</time>
      </trkpt>
      <trkpt lat="43.09856" lon="6.21793">
        <ele>55</ele>
        <time>2015-09-04T15:03:42.000Z</time>
      </trkpt>
      <trkpt lat="43.09846" lon="6.21798">
        <ele>58</ele>
        <time>2015-09-04T15:03:43.000Z</time>
      </trkpt>
      <trkpt lat="43.09842" lon="6.21802">
        <ele>59</ele>
        <time>2015-09-04T15:03:44.000Z</time>
      </trkpt>
      <trkpt lat="43.09833" lon="6.21805">
        <ele>60</ele>
        <time>2015-09-04T15:03:45.000Z</time>
      </trkpt>
      <trkpt lat="43.09828" lon="6.21803">
        <ele>60</ele>
        <time>2015-09-04T15:03:46.000Z</time>
      </trkpt>
      <trkpt lat="43.09822" lon="6.21798">
        <ele>59</ele>
        <time>2015-09-04T15:03:47.000Z</time>
      </trkpt>
      <trkpt lat="43.09815" lon="6.21797">
        <ele>61</ele>
        <time>2015-09-04T15:03:48.000Z</time>
      </trkpt>
      <trkpt lat="43.09804" lon="6.21798">
        <ele>61</ele>
        <time>2015-09-04T15:03:49.000Z</time>
      </trkpt>
      <trkpt lat="43.09795" lon="6.218">
        <ele>60</ele>
        <time>2015-09-04T15:03:50.000Z</time>
      </trkpt>
      <trkpt lat="43.09786" lon="6.21797">
        <ele>61</ele>
        <time>2015-09-04T15:03:51.000Z</time>
      </trkpt>
      <trkpt lat="43.09774" lon="6.21799">
        <ele>62</ele>
        <time>2015-09-04T15:03:52.000Z</time>
      </trkpt>
      <trkpt lat="43.09766" lon="6.21793">
        <ele>61</ele>
        <time>2015-09-04T15:03:53.000Z</time>
      </trkpt>
      <trkpt lat="43.09756" lon="6.21792">
        <ele>60</ele>
        <time>2015-09-04T15:03:54.000Z</time>
      </trkpt>
      <trkpt lat="43.09747" lon="6.21789">
        <ele>57</ele>
        <time>2015-09-04T15:03:55.000Z</time>
      </trkpt>
      <trkpt lat="43.09741" lon="6.2179">
        <ele>58</ele>
        <time>2015-09-04T15:03:56.000Z</time>
      </trkpt>
      <trkpt lat="43.09732" lon="6.21789">
        <ele>58</ele>
        <time>2015-09-04T15:03:57.000Z</time>
      </trkpt>
      <trkpt lat="43.09727" lon="6.21792">
        <ele>59</ele>
        <time>2015-09-04T15:03:58.000Z</time>
      </trkpt>
      <trkpt lat="43.09716" lon="6.21794">
        <ele>58</ele>
        <time>2015-09-04T15:03:59.000Z</time>
      </trkpt>
      <trkpt lat="43.09711" lon="6.21792">
        <ele>58</ele>
        <time>2015-09-04T15:04:00.000Z</time>
      </trkpt>
      <trkpt lat="43.09702" lon="6.21793">
        <ele>58</ele>
        <time>2015-09-04T15:04:01.000Z</time>
      </trkpt>
      <trkpt lat="43.09694" lon="6.21795">
        <ele>59</ele>
        <time>2015-09-04T15:04:02.000Z</time>
      </trkpt>
      <trkpt lat="43.09689" lon="6.21797">
        <ele>59</ele>
        <time>2015-09-04T15:04:03.000Z</time>
      </trkpt>
      <trkpt lat="43.09677" lon="6.21797">
        <ele>59</ele>
        <time>2015-09-04T15:04:04.000Z</time>
      </trkpt>
      <trkpt lat="43.09671" lon="6.21799">
        <ele>60</ele>
        <time>2015-09-04T15:04:05.000Z</time>
      </trkpt>
      <trkpt lat="43.09663" lon="6.21799">
        <ele>59</ele>
        <time>2015-09-04T15:04:06.000Z</time>
      </trkpt>
      <trkpt lat="43.09653" lon="6.21797">
        <ele>59</ele>
        <time>2015-09-04T15:04:07.000Z</time>
      </trkpt>
      <trkpt lat="43.09646" lon="6.21795">
        <ele>59</ele>
        <time>2015-09-04T15:04:08.000Z</time>
      </trkpt>
      <trkpt lat="43.0964" lon="6.21797">
        <ele>58</ele>
        <time>2015-09-04T15:04:09.000Z</time>
      </trkpt>
      <trkpt lat="43.09633" lon="6.21795">
        <ele>58</ele>
        <time>2015-09-04T15:04:10.000Z</time>
      </trkpt>
      <trkpt lat="43.09623" lon="6.21798">
        <ele>59</ele>
        <time>2015-09-04T15:04:11.000Z</time>
      </trkpt>
      <trkpt lat="43.09615" lon="6.21799">
        <ele>59</ele>
        <time>2015-09-04T15:04:12.000Z</time>
      </trkpt>
      <trkpt lat="43.09604" lon="6.21796">
        <ele>59</ele>
        <time>2015-09-04T15:04:13.000Z</time>
      </trkpt>
      <trkpt lat="43.096" lon="6.21796">
        <ele>59</ele>
        <time>2015-09-04T15:04:14.000Z</time>
      </trkpt>
      <trkpt lat="43.09591" lon="6.21795">
        <ele>60</ele>
        <time>2015-09-04T15:04:15.000Z</time>
      </trkpt>
      <trkpt lat="43.09584" lon="6.21793">
        <ele>58</ele>
        <time>2015-09-04T15:04:16.000Z</time>
      </trkpt>
      <trkpt lat="43.09578" lon="6.21793">
        <ele>58</ele>
        <time>2015-09-04T15:04:17.000Z</time>
      </trkpt>
      <trkpt lat="43.09572" lon="6.21793">
        <ele>57</ele>
        <time>2015-09-04T15:04:18.000Z</time>
      </trkpt>
      <trkpt lat="43.09565" lon="6.21793">
        <ele>57</ele>
        <time>2015-09-04T15:04:19.000Z</time>
      </trkpt>
      <trkpt lat="43.09559" lon="6.21794">
        <ele>58</ele>
        <time>2015-09-04T15:04:20.000Z</time>
      </trkpt>
      <trkpt lat="43.09553" lon="6.21798">
        <ele>58</ele>
        <time>2015-09-04T15:04:21.000Z</time>
      </trkpt>
      <trkpt lat="43.09543" lon="6.21796">
        <ele>58</ele>
        <time>2015-09-04T15:04:22.000Z</time>
      </trkpt>
      <trkpt lat="43.09538" lon="6.21797">
        <ele>56</ele>
        <time>2015-09-04T15:04:23.000Z</time>
      </trkpt>
      <trkpt lat="43.09529" lon="6.21796">
        <ele>55</ele>
        <time>2015-09-04T15:04:24.000Z</time>
      </trkpt>
      <trkpt lat="43.09523" lon="6.218">
        <ele>56</ele>
        <time>2015-09-04T15:04:25.000Z</time>
      </trkpt>
      <trkpt lat="43.09516" lon="6.218">
        <ele>56</ele>
        <time>2015-09-04T15:04:26.000Z</time>
      </trkpt>
      <trkpt lat="43.0951" lon="6.21801">
        <ele>56</ele>
        <time>2015-09-04T15:04:27.000Z</time>
      </trkpt>
      <trkpt lat="43.09504" lon="6.21803">
        <ele>56</ele>
        <time>2015-09-04T15:04:28.000Z</time>
      </trkpt>
      <trkpt lat="43.09495" lon="6.21802">
        <ele>55</ele>
        <time>2015-09-04T15:04:29.000Z</time>
      </trkpt>
      <trkpt lat="43.0949" lon="6.21803">
        <ele>59</ele>
        <time>2015-09-04T15:04:30.000Z</time>
      </trkpt>
      <trkpt lat="43.09483" lon="6.21803">
        <ele>58</ele>
        <time>2015-09-04T15:04:31.000Z</time>
      </trkpt>
      <trkpt lat="43.09478" lon="6.21806">
        <ele>58</ele>
        <time>2015-09-04T15:04:32.000Z</time>
      </trkpt>
      <trkpt lat="43.09475" lon="6.21806">
        <ele>58</ele>
        <time>2015-09-04T15:04:33.000Z</time>
      </trkpt>
      <trkpt lat="43.09477" lon="6.21804">
        <ele>56</ele>
        <time>2015-09-04T15:04:34.000Z</time>
      </trkpt>
      <trkpt lat="43.09476" lon="6.21804">
        <ele>56</ele>
        <time>2015-09-04T15:04:35.000Z</time>
      </trkpt>
      <trkpt lat="43.09475" lon="6.21803">
        <ele>55</ele>
        <time>2015-09-04T15:04:36.000Z</time>
      </trkpt>
      <trkpt lat="43.09474" lon="6.21803">
        <ele>55</ele>
        <time>2015-09-04T15:04:38.000Z</time>
      </trkpt>
      <trkpt lat="43.09475" lon="6.21808">
        <ele>55</ele>
        <time>2015-09-04T15:04:39.000Z</time>
      </trkpt>
      <trkpt lat="43.09475" lon="6.2181">
        <ele>55</ele>
        <time>2015-09-04T15:04:41.000Z</time>
      </trkpt>
      <trkpt lat="43.09475" lon="6.2181">
        <ele>54</ele>
        <time>2015-09-04T15:04:42.000Z</time>
      </trkpt>
      <trkpt lat="43.09478" lon="6.21811">
        <ele>56</ele>
        <time>2015-09-04T15:04:43.000Z</time>
      </trkpt>
      <trkpt lat="43.0948" lon="6.21812">
        <ele>56</ele>
        <time>2015-09-04T15:04:44.000Z</time>
      </trkpt>
      <trkpt lat="43.09481" lon="6.21812">
        <ele>55</ele>
        <time>2015-09-04T15:04:45.000Z</time>
      </trkpt>
      <trkpt lat="43.09483" lon="6.21814">
        <ele>53</ele>
        <time>2015-09-04T15:04:46.000Z</time>
      </trkpt>
      <trkpt lat="43.09485" lon="6.21817">
        <ele>51</ele>
        <time>2015-09-04T15:04:47.000Z</time>
      </trkpt>
      <trkpt lat="43.09488" lon="6.2182">
        <ele>52</ele>
        <time>2015-09-04T15:04:48.000Z</time>
      </trkpt>
      <trkpt lat="43.09492" lon="6.21823">
        <ele>51</ele>
        <time>2015-09-04T15:04:49.000Z</time>
      </trkpt>
      <trkpt lat="43.09497" lon="6.21822">
        <ele>53</ele>
        <time>2015-09-04T15:04:50.000Z</time>
      </trkpt>
      <trkpt lat="43.09501" lon="6.21823">
        <ele>53</ele>
        <time>2015-09-04T15:04:51.000Z</time>
      </trkpt>
      <trkpt lat="43.09504" lon="6.21825">
        <ele>53</ele>
        <time>2015-09-04T15:04:52.000Z</time>
      </trkpt>
      <trkpt lat="43.09507" lon="6.21823">
        <ele>51</ele>
        <time>2015-09-04T15:04:53.000Z</time>
      </trkpt>
      <trkpt lat="43.09508" lon="6.21826">
        <ele>50</ele>
        <time>2015-09-04T15:04:54.000Z</time>
      </trkpt>
      <trkpt lat="43.09509" lon="6.21828">
        <ele>49</ele>
        <time>2015-09-04T15:04:55.000Z</time>
      </trkpt>
      <trkpt lat="43.09512" lon="6.21833">
        <ele>49</ele>
        <time>2015-09-04T15:04:56.000Z</time>
      </trkpt>
      <trkpt lat="43.09513" lon="6.21837">
        <ele>51</ele>
        <time>2015-09-04T15:04:57.000Z</time>
      </trkpt>
      <trkpt lat="43.0952" lon="6.21842">
        <ele>51</ele>
        <time>2015-09-04T15:04:58.000Z</time>
      </trkpt>
      <trkpt lat="43.09526" lon="6.21844">
        <ele>51</ele>
        <time>2015-09-04T15:04:59.000Z</time>
      </trkpt>
      <trkpt lat="43.09535" lon="6.21845">
        <ele>54</ele>
        <time>2015-09-04T15:05:00.000Z</time>
      </trkpt>
      <trkpt lat="43.09542" lon="6.21845">
        <ele>54</ele>
        <time>2015-09-04T15:05:01.000Z</time>
      </trkpt>
      <trkpt lat="43.09547" lon="6.21848">
        <ele>53</ele>
        <time>2015-09-04T15:05:02.000Z</time>
      </trkpt>
      <trkpt lat="43.09554" lon="6.21851">
        <ele>52</ele>
        <time>2015-09-04T15:05:03.000Z</time>
      </trkpt>
      <trkpt lat="43.0956" lon="6.21852">
        <ele>52</ele>
        <time>2015-09-04T15:05:04.000Z</time>
      </trkpt>
      <trkpt lat="43.09568" lon="6.21853">
        <ele>53</ele>
        <time>2015-09-04T15:05:05.000Z</time>
      </trkpt>
      <trkpt lat="43.09574" lon="6.21852">
        <ele>53</ele>
        <time>2015-09-04T15:05:06.000Z</time>
      </trkpt>
      <trkpt lat="43.0958" lon="6.21852">
        <ele>53</ele>
        <time>2015-09-04T15:05:07.000Z</time>
      </trkpt>
      <trkpt lat="43.09586" lon="6.21852">
        <ele>52</ele>
        <time>2015-09-04T15:05:08.000Z</time>
      </trkpt>
      <trkpt lat="43.09594" lon="6.2185">
        <ele>51</ele>
        <time>2015-09-04T15:05:09.000Z</time>
      </trkpt>
      <trkpt lat="43.09601" lon="6.21848">
        <ele>53</ele>
        <time>2015-09-04T15:05:10.000Z</time>
      </trkpt>
      <trkpt lat="43.09608" lon="6.21847">
        <ele>52</ele>
        <time>2015-09-04T15:05:11.000Z</time>
      </trkpt>
      <trkpt lat="43.09613" lon="6.21847">
        <ele>53</ele>
        <time>2015-09-04T15:05:12.000Z</time>
      </trkpt>
      <trkpt lat="43.09619" lon="6.21848">
        <ele>53</ele>
        <time>2015-09-04T15:05:13.000Z</time>
      </trkpt>
      <trkpt lat="43.09626" lon="6.21848">
        <ele>52</ele>
        <time>2015-09-04T15:05:14.000Z</time>
      </trkpt>
      <trkpt lat="43.09635" lon="6.21849">
        <ele>52</ele>
        <time>2015-09-04T15:05:15.000Z</time>
      </trkpt>
      <trkpt lat="43.09642" lon="6.21849">
        <ele>53</ele>
        <time>2015-09-04T15:05:16.000Z</time>
      </trkpt>
      <trkpt lat="43.09649" lon="6.2185">
        <ele>54</ele>
        <time>2015-09-04T15:05:17.000Z</time>
      </trkpt>
      <trkpt lat="43.09656" lon="6.21851">
        <ele>56</ele>
        <time>2015-09-04T15:05:18.000Z</time>
      </trkpt>
      <trkpt lat="43.09663" lon="6.21851">
        <ele>54</ele>
        <time>2015-09-04T15:05:19.000Z</time>
      </trkpt>
      <trkpt lat="43.09669" lon="6.21849">
        <ele>55</ele>
        <time>2015-09-04T15:05:20.000Z</time>
      </trkpt>
      <trkpt lat="43.09676" lon="6.21849">
        <ele>55</ele>
        <time>2015-09-04T15:05:21.000Z</time>
      </trkpt>
      <trkpt lat="43.09685" lon="6.21848">
        <ele>55</ele>
        <time>2015-09-04T15:05:22.000Z</time>
      </trkpt>
      <trkpt lat="43.09692" lon="6.21847">
        <ele>55</ele>
        <time>2015-09-04T15:05:23.000Z</time>
      </trkpt>
      <trkpt lat="43.09699" lon="6.21845">
        <ele>55</ele>
        <time>2015-09-04T15:05:24.000Z</time>
      </trkpt>
      <trkpt lat="43.09707" lon="6.21842">
        <ele>57</ele>
        <time>2015-09-04T15:05:25.000Z</time>
      </trkpt>
      <trkpt lat="43.09714" lon="6.21839">
        <ele>56</ele>
        <time>2015-09-04T15:05:26.000Z</time>
      </trkpt>
      <trkpt lat="43.09721" lon="6.21836">
        <ele>56</ele>
        <time>2015-09-04T15:05:27.000Z</time>
      </trkpt>
      <trkpt lat="43.09726" lon="6.21836">
        <ele>55</ele>
        <time>2015-09-04T15:05:28.000Z</time>
      </trkpt>
      <trkpt lat="43.09733" lon="6.21833">
        <ele>54</ele>
        <time>2015-09-04T15:05:29.000Z</time>
      </trkpt>
      <trkpt lat="43.09739" lon="6.2183">
        <ele>53</ele>
        <time>2015-09-04T15:05:30.000Z</time>
      </trkpt>
      <trkpt lat="43.09746" lon="6.2183">
        <ele>55</ele>
        <time>2015-09-04T15:05:31.000Z</time>
      </trkpt>
      <trkpt lat="43.09752" lon="6.21827">
        <ele>53</ele>
        <time>2015-09-04T15:05:32.000Z</time>
      </trkpt>
      <trkpt lat="43.0976" lon="6.21827">
        <ele>55</ele>
        <time>2015-09-04T15:05:33.000Z</time>
      </trkpt>
      <trkpt lat="43.09766" lon="6.21826">
        <ele>53</ele>
        <time>2015-09-04T15:05:34.000Z</time>
      </trkpt>
      <trkpt lat="43.09773" lon="6.21824">
        <ele>55</ele>
        <time>2015-09-04T15:05:35.000Z</time>
      </trkpt>
      <trkpt lat="43.0978" lon="6.21823">
        <ele>54</ele>
        <time>2015-09-04T15:05:36.000Z</time>
      </trkpt>
      <trkpt lat="43.09788" lon="6.21821">
        <ele>53</ele>
        <time>2015-09-04T15:05:37.000Z</time>
      </trkpt>
      <trkpt lat="43.09796" lon="6.21819">
        <ele>55</ele>
        <time>2015-09-04T15:05:38.000Z</time>
      </trkpt>
      <trkpt lat="43.09803" lon="6.21818">
        <ele>55</ele>
        <time>2015-09-04T15:05:39.000Z</time>
      </trkpt>
      <trkpt lat="43.09811" lon="6.21817">
        <ele>57</ele>
        <time>2015-09-04T15:05:40.000Z</time>
      </trkpt>
      <trkpt lat="43.09816" lon="6.21812">
        <ele>55</ele>
        <time>2015-09-04T15:05:41.000Z</time>
      </trkpt>
      <trkpt lat="43.09821" lon="6.2181">
        <ele>55</ele>
        <time>2015-09-04T15:05:42.000Z</time>
      </trkpt>
      <trkpt lat="43.09829" lon="6.21809">
        <ele>54</ele>
        <time>2015-09-04T15:05:43.000Z</time>
      </trkpt>
      <trkpt lat="43.09836" lon="6.21807">
        <ele>55</ele>
        <time>2015-09-04T15:05:44.000Z</time>
      </trkpt>
      <trkpt lat="43.09844" lon="6.21807">
        <ele>56</ele>
        <time>2015-09-04T15:05:45.000Z</time>
      </trkpt>
      <trkpt lat="43.09851" lon="6.21805">
        <ele>57</ele>
        <time>2015-09-04T15:05:46.000Z</time>
      </trkpt>
      <trkpt lat="43.09858" lon="6.21804">
        <ele>56</ele>
        <time>2015-09-04T15:05:47.000Z</time>
      </trkpt>
      <trkpt lat="43.09865" lon="6.21802">
        <ele>56</ele>
        <time>2015-09-04T15:05:48.000Z</time>
      </trkpt>
      <trkpt lat="43.09873" lon="6.21799">
        <ele>57</ele>
        <time>2015-09-04T15:05:49.000Z</time>
      </trkpt>
      <trkpt lat="43.09881" lon="6.21796">
        <ele>58</ele>
        <time>2015-09-04T15:05:50.000Z</time>
      </trkpt>
      <trkpt lat="43.09888" lon="6.21792">
        <ele>58</ele>
        <time>2015-09-04T15:05:51.000Z</time>
      </trkpt>
      <trkpt lat="43.09894" lon="6.21788">
        <ele>57</ele>
        <time>2015-09-04T15:05:52.000Z</time>
      </trkpt>
      <trkpt lat="43.09901" lon="6.21785">
        <ele>57</ele>
        <time>2015-09-04T15:05:53.000Z</time>
      </trkpt>
      <trkpt lat="43.09907" lon="6.21781">
        <ele>56</ele>
        <time>2015-09-04T15:05:54.000Z</time>
      </trkpt>
      <trkpt lat="43.09912" lon="6.21779">
        <ele>55</ele>
        <time>2015-09-04T15:05:55.000Z</time>
      </trkpt>
      <trkpt lat="43.09919" lon="6.21775">
        <ele>55</ele>
        <time>2015-09-04T15:05:56.000Z</time>
      </trkpt>
      <trkpt lat="43.09925" lon="6.21773">
        <ele>55</ele>
        <time>2015-09-04T15:05:57.000Z</time>
      </trkpt>
      <trkpt lat="43.09931" lon="6.2177">
        <ele>55</ele>
        <time>2015-09-04T15:05:58.000Z</time>
      </trkpt>
      <trkpt lat="43.09937" lon="6.21768">
        <ele>54</ele>
        <time>2015-09-04T15:05:59.000Z</time>
      </trkpt>
      <trkpt lat="43.09944" lon="6.21765">
        <ele>56</ele>
        <time>2015-09-04T15:06:00.000Z</time>
      </trkpt>
      <trkpt lat="43.09949" lon="6.21761">
        <ele>55</ele>
        <time>2015-09-04T15:06:01.000Z</time>
      </trkpt>
      <trkpt lat="43.09955" lon="6.21758">
        <ele>56</ele>
        <time>2015-09-04T15:06:02.000Z</time>
      </trkpt>
      <trkpt lat="43.0996" lon="6.21755">
        <ele>56</ele>
        <time>2015-09-04T15:06:03.000Z</time>
      </trkpt>
      <trkpt lat="43.09965" lon="6.21753">
        <ele>56</ele>
        <time>2015-09-04T15:06:04.000Z</time>
      </trkpt>
      <trkpt lat="43.09972" lon="6.21751">
        <ele>57</ele>
        <time>2015-09-04T15:06:05.000Z</time>
      </trkpt>
      <trkpt lat="43.09976" lon="6.21751">
        <ele>56</ele>
        <time>2015-09-04T15:06:06.000Z</time>
      </trkpt>
      <trkpt lat="43.09983" lon="6.2175">
        <ele>56</ele>
        <time>2015-09-04T15:06:07.000Z</time>
      </trkpt>
      <trkpt lat="43.09988" lon="6.21747">
        <ele>56</ele>
        <time>2015-09-04T15:06:08.000Z</time>
      </trkpt>
      <trkpt lat="43.09993" lon="6.21744">
        <ele>56</ele>
        <time>2015-09-04T15:06:09.000Z</time>
      </trkpt>
      <trkpt lat="43.09998" lon="6.21743">
        <ele>57</ele>
        <time>2015-09-04T15:06:10.000Z</time>
      </trkpt>
      <trkpt lat="43.10005" lon="6.21743">
        <ele>57</ele>
        <time>2015-09-04T15:06:11.000Z</time>
      </trkpt>
      <trkpt lat="43.10012" lon="6.2174">
        <ele>57</ele>
        <time>2015-09-04T15:06:12.000Z</time>
      </trkpt>
      <trkpt lat="43.10018" lon="6.21735">
        <ele>57</ele>
        <time>2015-09-04T15:06:13.000Z</time>
      </trkpt>
      <trkpt lat="43.10024" lon="6.21731">
        <ele>57</ele>
        <time>2015-09-04T15:06:14.000Z</time>
      </trkpt>
      <trkpt lat="43.10028" lon="6.21727">
        <ele>56</ele>
        <time>2015-09-04T15:06:15.000Z</time>
      </trkpt>
      <trkpt lat="43.10032" lon="6.21724">
        <ele>56</ele>
        <time>2015-09-04T15:06:16.000Z</time>
      </trkpt>
      <trkpt lat="43.10035" lon="6.21721">
        <ele>55</ele>
        <time>2015-09-04T15:06:17.000Z</time>
      </trkpt>
      <trkpt lat="43.1004" lon="6.21719">
        <ele>55</ele>
        <time>2015-09-04T15:06:18.000Z</time>
      </trkpt>
      <trkpt lat="43.10047" lon="6.21719">
        <ele>54</ele>
        <time>2015-09-04T15:06:19.000Z</time>
      </trkpt>
      <trkpt lat="43.10051" lon="6.21718">
        <ele>55</ele>
        <time>2015-09-04T15:06:20.000Z</time>
      </trkpt>
      <trkpt lat="43.10057" lon="6.21717">
        <ele>55</ele>
        <time>2015-09-04T15:06:21.000Z</time>
      </trkpt>
      <trkpt lat="43.10062" lon="6.21716">
        <ele>54</ele>
        <time>2015-09-04T15:06:22.000Z</time>
      </trkpt>
      <trkpt lat="43.10068" lon="6.21716">
        <ele>54</ele>
        <time>2015-09-04T15:06:23.000Z</time>
      </trkpt>
      <trkpt lat="43.10072" lon="6.21715">
        <ele>54</ele>
        <time>2015-09-04T15:06:24.000Z</time>
      </trkpt>
      <trkpt lat="43.10077" lon="6.21714">
        <ele>53</ele>
        <time>2015-09-04T15:06:25.000Z</time>
      </trkpt>
      <trkpt lat="43.1008" lon="6.21713">
        <ele>53</ele>
        <time>2015-09-04T15:06:26.000Z</time>
      </trkpt>
      <trkpt lat="43.10084" lon="6.21711">
        <ele>53</ele>
        <time>2015-09-04T15:06:27.000Z</time>
      </trkpt>
      <trkpt lat="43.10089" lon="6.21712">
        <ele>53</ele>
        <time>2015-09-04T15:06:28.000Z</time>
      </trkpt>
      <trkpt lat="43.10094" lon="6.21712">
        <ele>52</ele>
        <time>2015-09-04T15:06:29.000Z</time>
      </trkpt>
      <trkpt lat="43.10097" lon="6.21712">
        <ele>54</ele>
        <time>2015-09-04T15:06:30.000Z</time>
      </trkpt>
      <trkpt lat="43.10098" lon="6.21712">
        <ele>53</ele>
        <time>2015-09-04T15:06:31.000Z</time>
      </trkpt>
      <trkpt lat="43.101" lon="6.21712">
        <ele>53</ele>
        <time>2015-09-04T15:06:32.000Z</time>
      </trkpt>
      <trkpt lat="43.10104" lon="6.21716">
        <ele>52</ele>
        <time>2015-09-04T15:06:33.000Z</time>
      </trkpt>
      <trkpt lat="43.10109" lon="6.21715">
        <ele>52</ele>
        <time>2015-09-04T15:06:34.000Z</time>
      </trkpt>
      <trkpt lat="43.10112" lon="6.21717">
        <ele>53</ele>
        <time>2015-09-04T15:06:35.000Z</time>
      </trkpt>
      <trkpt lat="43.10119" lon="6.21719">
        <ele>53</ele>
        <time>2015-09-04T15:06:36.000Z</time>
      </trkpt>
      <trkpt lat="43.10124" lon="6.2172">
        <ele>54</ele>
        <time>2015-09-04T15:06:37.000Z</time>
      </trkpt>
      <trkpt lat="43.10129" lon="6.2172">
        <ele>54</ele>
        <time>2015-09-04T15:06:38.000Z</time>
      </trkpt>
      <trkpt lat="43.10133" lon="6.21718">
        <ele>53</ele>
        <time>2015-09-04T15:06:39.000Z</time>
      </trkpt>
      <trkpt lat="43.10138" lon="6.21717">
        <ele>53</ele>
        <time>2015-09-04T15:06:40.000Z</time>
      </trkpt>
      <trkpt lat="43.10142" lon="6.21716">
        <ele>53</ele>
        <time>2015-09-04T15:06:41.000Z</time>
      </trkpt>
      <trkpt lat="43.1015" lon="6.21713">
        <ele>53</ele>
        <time>2015-09-04T15:06:42.000Z</time>
      </trkpt>
      <trkpt lat="43.10156" lon="6.2171">
        <ele>53</ele>
        <time>2015-09-04T15:06:43.000Z</time>
      </trkpt>
      <trkpt lat="43.1016" lon="6.21708">
        <ele>52</ele>
        <time>2015-09-04T15:06:44.000Z</time>
      </trkpt>
      <trkpt lat="43.10167" lon="6.21705">
        <ele>54</ele>
        <time>2015-09-04T15:06:45.000Z</time>
      </trkpt>
      <trkpt lat="43.10172" lon="6.21703">
        <ele>54</ele>
        <time>2015-09-04T15:06:46.000Z</time>
      </trkpt>
      <trkpt lat="43.10179" lon="6.21702">
        <ele>53</ele>
        <time>2015-09-04T15:06:47.000Z</time>
      </trkpt>
      <trkpt lat="43.10185" lon="6.217">
        <ele>53</ele>
        <time>2015-09-04T15:06:48.000Z</time>
      </trkpt>
      <trkpt lat="43.10189" lon="6.21696">
        <ele>52</ele>
        <time>2015-09-04T15:06:49.000Z</time>
      </trkpt>
      <trkpt lat="43.10195" lon="6.21694">
        <ele>54</ele>
        <time>2015-09-04T15:06:50.000Z</time>
      </trkpt>
      <trkpt lat="43.10198" lon="6.21691">
        <ele>52</ele>
        <time>2015-09-04T15:06:51.000Z</time>
      </trkpt>
      <trkpt lat="43.10201" lon="6.21688">
        <ele>51</ele>
        <time>2015-09-04T15:06:52.000Z</time>
      </trkpt>
      <trkpt lat="43.10206" lon="6.21688">
        <ele>51</ele>
        <time>2015-09-04T15:06:53.000Z</time>
      </trkpt>
      <trkpt lat="43.10209" lon="6.21685">
        <ele>52</ele>
        <time>2015-09-04T15:06:54.000Z</time>
      </trkpt>
      <trkpt lat="43.10212" lon="6.21684">
        <ele>52</ele>
        <time>2015-09-04T15:06:55.000Z</time>
      </trkpt>
      <trkpt lat="43.10215" lon="6.21689">
        <ele>50</ele>
        <time>2015-09-04T15:07:00.000Z</time>
      </trkpt>
      <trkpt lat="43.10215" lon="6.21692">
        <ele>50</ele>
        <time>2015-09-04T15:07:01.000Z</time>
      </trkpt>
      <trkpt lat="43.10217" lon="6.21698">
        <ele>51</ele>
        <time>2015-09-04T15:07:02.000Z</time>
      </trkpt>
      <trkpt lat="43.10213" lon="6.21699">
        <ele>50</ele>
        <time>2015-09-04T15:07:03.000Z</time>
      </trkpt>
      <trkpt lat="43.1021" lon="6.21701">
        <ele>50</ele>
        <time>2015-09-04T15:07:04.000Z</time>
      </trkpt>
      <trkpt lat="43.10208" lon="6.21702">
        <ele>51</ele>
        <time>2015-09-04T15:07:05.000Z</time>
      </trkpt>
      <trkpt lat="43.10206" lon="6.21704">
        <ele>51</ele>
        <time>2015-09-04T15:07:06.000Z</time>
      </trkpt>
      <trkpt lat="43.10204" lon="6.21706">
        <ele>52</ele>
        <time>2015-09-04T15:07:07.000Z</time>
      </trkpt>
      <trkpt lat="43.10202" lon="6.21708">
        <ele>51</ele>
        <time>2015-09-04T15:07:08.000Z</time>
      </trkpt>
      <trkpt lat="43.10198" lon="6.21711">
        <ele>51</ele>
        <time>2015-09-04T15:07:09.000Z</time>
      </trkpt>
      <trkpt lat="43.10193" lon="6.21713">
        <ele>51</ele>
        <time>2015-09-04T15:07:10.000Z</time>
      </trkpt>
      <trkpt lat="43.10188" lon="6.21716">
        <ele>52</ele>
        <time>2015-09-04T15:07:11.000Z</time>
      </trkpt>
      <trkpt lat="43.10177" lon="6.21718">
        <ele>51</ele>
        <time>2015-09-04T15:07:12.000Z</time>
      </trkpt>
      <trkpt lat="43.10173" lon="6.21721">
        <ele>52</ele>
        <time>2015-09-04T15:07:13.000Z</time>
      </trkpt>
      <trkpt lat="43.10169" lon="6.21725">
        <ele>51</ele>
        <time>2015-09-04T15:07:14.000Z</time>
      </trkpt>
      <trkpt lat="43.10166" lon="6.21726">
        <ele>53</ele>
        <time>2015-09-04T15:07:15.000Z</time>
      </trkpt>
      <trkpt lat="43.1016" lon="6.21732">
        <ele>52</ele>
        <time>2015-09-04T15:07:16.000Z</time>
      </trkpt>
      <trkpt lat="43.10154" lon="6.21736">
        <ele>52</ele>
        <time>2015-09-04T15:07:17.000Z</time>
      </trkpt>
      <trkpt lat="43.10148" lon="6.21739">
        <ele>52</ele>
        <time>2015-09-04T15:07:18.000Z</time>
      </trkpt>
      <trkpt lat="43.10143" lon="6.2174">
        <ele>52</ele>
        <time>2015-09-04T15:07:19.000Z</time>
      </trkpt>
      <trkpt lat="43.10137" lon="6.21742">
        <ele>51</ele>
        <time>2015-09-04T15:07:20.000Z</time>
      </trkpt>
      <trkpt lat="43.10132" lon="6.21743">
        <ele>51</ele>
        <time>2015-09-04T15:07:21.000Z</time>
      </trkpt>
      <trkpt lat="43.10126" lon="6.21746">
        <ele>51</ele>
        <time>2015-09-04T15:07:22.000Z</time>
      </trkpt>
      <trkpt lat="43.10121" lon="6.21744">
        <ele>50</ele>
        <time>2015-09-04T15:07:23.000Z</time>
      </trkpt>
      <trkpt lat="43.10116" lon="6.21744">
        <ele>50</ele>
        <time>2015-09-04T15:07:24.000Z</time>
      </trkpt>
      <trkpt lat="43.10109" lon="6.21753">
        <ele>51</ele>
        <time>2015-09-04T15:07:25.000Z</time>
      </trkpt>
      <trkpt lat="43.10102" lon="6.21754">
        <ele>52</ele>
        <time>2015-09-04T15:07:26.000Z</time>
      </trkpt>
      <trkpt lat="43.10095" lon="6.21759">
        <ele>51</ele>
        <time>2015-09-04T15:07:27.000Z</time>
      </trkpt>
      <trkpt lat="43.10089" lon="6.2176">
        <ele>53</ele>
        <time>2015-09-04T15:07:28.000Z</time>
      </trkpt>
      <trkpt lat="43.10083" lon="6.21762">
        <ele>53</ele>
        <time>2015-09-04T15:07:29.000Z</time>
      </trkpt>
      <trkpt lat="43.10074" lon="6.21763">
        <ele>53</ele>
        <time>2015-09-04T15:07:30.000Z</time>
      </trkpt>
      <trkpt lat="43.10067" lon="6.21766">
        <ele>53</ele>
        <time>2015-09-04T15:07:31.000Z</time>
      </trkpt>
      <trkpt lat="43.1006" lon="6.21767">
        <ele>52</ele>
        <time>2015-09-04T15:07:32.000Z</time>
      </trkpt>
      <trkpt lat="43.10055" lon="6.21769">
        <ele>53</ele>
        <time>2015-09-04T15:07:33.000Z</time>
      </trkpt>
      <trkpt lat="43.10048" lon="6.21775">
        <ele>53</ele>
        <time>2015-09-04T15:07:34.000Z</time>
      </trkpt>
      <trkpt lat="43.10039" lon="6.21777">
        <ele>52</ele>
        <time>2015-09-04T15:07:35.000Z</time>
      </trkpt>
      <trkpt lat="43.10033" lon="6.2178">
        <ele>52</ele>
        <time>2015-09-04T15:07:36.000Z</time>
      </trkpt>
      <trkpt lat="43.10025" lon="6.21778">
        <ele>51</ele>
        <time>2015-09-04T15:07:37.000Z</time>
      </trkpt>
      <trkpt lat="43.10018" lon="6.21782">
        <ele>51</ele>
        <time>2015-09-04T15:07:38.000Z</time>
      </trkpt>
      <trkpt lat="43.10016" lon="6.21789">
        <ele>51</ele>
        <time>2015-09-04T15:07:39.000Z</time>
      </trkpt>
      <trkpt lat="43.10009" lon="6.21786">
        <ele>52</ele>
        <time>2015-09-04T15:07:40.000Z</time>
      </trkpt>
      <trkpt lat="43.10001" lon="6.21784">
        <ele>53</ele>
        <time>2015-09-04T15:07:41.000Z</time>
      </trkpt>
      <trkpt lat="43.09992" lon="6.21785">
        <ele>53</ele>
        <time>2015-09-04T15:07:42.000Z</time>
      </trkpt>
      <trkpt lat="43.09989" lon="6.21789">
        <ele>53</ele>
        <time>2015-09-04T15:07:43.000Z</time>
      </trkpt>
      <trkpt lat="43.09983" lon="6.21793">
        <ele>52</ele>
        <time>2015-09-04T15:07:44.000Z</time>
      </trkpt>
      <trkpt lat="43.09978" lon="6.21794">
        <ele>53</ele>
        <time>2015-09-04T15:07:45.000Z</time>
      </trkpt>
      <trkpt lat="43.09968" lon="6.21791">
        <ele>54</ele>
        <time>2015-09-04T15:07:46.000Z</time>
      </trkpt>
      <trkpt lat="43.09961" lon="6.2179">
        <ele>55</ele>
        <time>2015-09-04T15:07:47.000Z</time>
      </trkpt>
      <trkpt lat="43.09954" lon="6.21794">
        <ele>55</ele>
        <time>2015-09-04T15:07:48.000Z</time>
      </trkpt>
      <trkpt lat="43.09948" lon="6.21793">
        <ele>54</ele>
        <time>2015-09-04T15:07:49.000Z</time>
      </trkpt>
      <trkpt lat="43.0994" lon="6.21789">
        <ele>54</ele>
        <time>2015-09-04T15:07:50.000Z</time>
      </trkpt>
      <trkpt lat="43.09933" lon="6.21788">
        <ele>55</ele>
        <time>2015-09-04T15:07:51.000Z</time>
      </trkpt>
      <trkpt lat="43.09925" lon="6.21787">
        <ele>55</ele>
        <time>2015-09-04T15:07:52.000Z</time>
      </trkpt>
      <trkpt lat="43.09919" lon="6.21788">
        <ele>56</ele>
        <time>2015-09-04T15:07:53.000Z</time>
      </trkpt>
      <trkpt lat="43.09912" lon="6.21791">
        <ele>56</ele>
        <time>2015-09-04T15:07:54.000Z</time>
      </trkpt>
      <trkpt lat="43.09902" lon="6.21794">
        <ele>58</ele>
        <time>2015-09-04T15:07:55.000Z</time>
      </trkpt>
      <trkpt lat="43.09896" lon="6.21796">
        <ele>58</ele>
        <time>2015-09-04T15:07:56.000Z</time>
      </trkpt>
      <trkpt lat="43.09891" lon="6.218">
        <ele>58</ele>
        <time>2015-09-04T15:07:57.000Z</time>
      </trkpt>
      <trkpt lat="43.09883" lon="6.21802">
        <ele>58</ele>
        <time>2015-09-04T15:07:58.000Z</time>
      </trkpt>
      <trkpt lat="43.09874" lon="6.21804">
        <ele>58</ele>
        <time>2015-09-04T15:07:59.000Z</time>
      </trkpt>
      <trkpt lat="43.09868" lon="6.21809">
        <ele>57</ele>
        <time>2015-09-04T15:08:00.000Z</time>
      </trkpt>
      <trkpt lat="43.09858" lon="6.21807">
        <ele>57</ele>
        <time>2015-09-04T15:08:01.000Z</time>
      </trkpt>
      <trkpt lat="43.09852" lon="6.21812">
        <ele>56</ele>
        <time>2015-09-04T15:08:02.000Z</time>
      </trkpt>
      <trkpt lat="43.09843" lon="6.21815">
        <ele>56</ele>
        <time>2015-09-04T15:08:03.000Z</time>
      </trkpt>
      <trkpt lat="43.09834" lon="6.21816">
        <ele>55</ele>
        <time>2015-09-04T15:08:04.000Z</time>
      </trkpt>
      <trkpt lat="43.0983" lon="6.2181">
        <ele>58</ele>
        <time>2015-09-04T15:08:05.000Z</time>
      </trkpt>
      <trkpt lat="43.0982" lon="6.21807">
        <ele>58</ele>
        <time>2015-09-04T15:08:06.000Z</time>
      </trkpt>
      <trkpt lat="43.09817" lon="6.21812">
        <ele>58</ele>
        <time>2015-09-04T15:08:07.000Z</time>
      </trkpt>
      <trkpt lat="43.09808" lon="6.21824">
        <ele>58</ele>
        <time>2015-09-04T15:08:08.000Z</time>
      </trkpt>
      <trkpt lat="43.09805" lon="6.21823">
        <ele>58</ele>
        <time>2015-09-04T15:08:09.000Z</time>
      </trkpt>
      <trkpt lat="43.09797" lon="6.21825">
        <ele>59</ele>
        <time>2015-09-04T15:08:10.000Z</time>
      </trkpt>
      <trkpt lat="43.09788" lon="6.21831">
        <ele>59</ele>
        <time>2015-09-04T15:08:11.000Z</time>
      </trkpt>
      <trkpt lat="43.09784" lon="6.21829">
        <ele>61</ele>
        <time>2015-09-04T15:08:12.000Z</time>
      </trkpt>
      <trkpt lat="43.09773" lon="6.21832">
        <ele>60</ele>
        <time>2015-09-04T15:08:13.000Z</time>
      </trkpt>
      <trkpt lat="43.09765" lon="6.21834">
        <ele>59</ele>
        <time>2015-09-04T15:08:14.000Z</time>
      </trkpt>
      <trkpt lat="43.09759" lon="6.21833">
        <ele>60</ele>
        <time>2015-09-04T15:08:15.000Z</time>
      </trkpt>
      <trkpt lat="43.09752" lon="6.21834">
        <ele>60</ele>
        <time>2015-09-04T15:08:16.000Z</time>
      </trkpt>
      <trkpt lat="43.09748" lon="6.21838">
        <ele>59</ele>
        <time>2015-09-04T15:08:17.000Z</time>
      </trkpt>
      <trkpt lat="43.09739" lon="6.2184">
        <ele>61</ele>
        <time>2015-09-04T15:08:18.000Z</time>
      </trkpt>
      <trkpt lat="43.09731" lon="6.21842">
        <ele>60</ele>
        <time>2015-09-04T15:08:19.000Z</time>
      </trkpt>
      <trkpt lat="43.09727" lon="6.21844">
        <ele>62</ele>
        <time>2015-09-04T15:08:20.000Z</time>
      </trkpt>
      <trkpt lat="43.09717" lon="6.21845">
        <ele>61</ele>
        <time>2015-09-04T15:08:21.000Z</time>
      </trkpt>
      <trkpt lat="43.09709" lon="6.21846">
        <ele>61</ele>
        <time>2015-09-04T15:08:22.000Z</time>
      </trkpt>
      <trkpt lat="43.097" lon="6.21848">
        <ele>60</ele>
        <time>2015-09-04T15:08:23.000Z</time>
      </trkpt>
      <trkpt lat="43.09693" lon="6.21846">
        <ele>61</ele>
        <time>2015-09-04T15:08:24.000Z</time>
      </trkpt>
      <trkpt lat="43.09685" lon="6.2185">
        <ele>60</ele>
        <time>2015-09-04T15:08:25.000Z</time>
      </trkpt>
      <trkpt lat="43.09677" lon="6.21853">
        <ele>60</ele>
        <time>2015-09-04T15:08:26.000Z</time>
      </trkpt>
      <trkpt lat="43.0967" lon="6.21853">
        <ele>61</ele>
        <time>2015-09-04T15:08:27.000Z</time>
      </trkpt>
      <trkpt lat="43.09663" lon="6.21854">
        <ele>61</ele>
        <time>2015-09-04T15:08:28.000Z</time>
      </trkpt>
      <trkpt lat="43.09656" lon="6.21857">
        <ele>61</ele>
        <time>2015-09-04T15:08:29.000Z</time>
      </trkpt>
      <trkpt lat="43.0965" lon="6.21856">
        <ele>61</ele>
        <time>2015-09-04T15:08:30.000Z</time>
      </trkpt>
      <trkpt lat="43.09638" lon="6.21856">
        <ele>59</ele>
        <time>2015-09-04T15:08:31.000Z</time>
      </trkpt>
      <trkpt lat="43.09633" lon="6.21859">
        <ele>57</ele>
        <time>2015-09-04T15:08:32.000Z</time>
      </trkpt>
      <trkpt lat="43.09625" lon="6.21864">
        <ele>57</ele>
        <time>2015-09-04T15:08:33.000Z</time>
      </trkpt>
      <trkpt lat="43.09619" lon="6.21861">
        <ele>58</ele>
        <time>2015-09-04T15:08:34.000Z</time>
      </trkpt>
      <trkpt lat="43.09613" lon="6.21862">
        <ele>57</ele>
        <time>2015-09-04T15:08:35.000Z</time>
      </trkpt>
      <trkpt lat="43.09609" lon="6.21863">
        <ele>58</ele>
        <time>2015-09-04T15:08:36.000Z</time>
      </trkpt>
      <trkpt lat="43.09601" lon="6.21865">
        <ele>57</ele>
        <time>2015-09-04T15:08:37.000Z</time>
      </trkpt>
      <trkpt lat="43.09592" lon="6.21863">
        <ele>56</ele>
        <time>2015-09-04T15:08:38.000Z</time>
      </trkpt>
      <trkpt lat="43.09584" lon="6.21865">
        <ele>56</ele>
        <time>2015-09-04T15:08:39.000Z</time>
      </trkpt>
      <trkpt lat="43.09577" lon="6.21865">
        <ele>57</ele>
        <time>2015-09-04T15:08:40.000Z</time>
      </trkpt>
      <trkpt lat="43.09571" lon="6.21867">
        <ele>55</ele>
        <time>2015-09-04T15:08:41.000Z</time>
      </trkpt>
      <trkpt lat="43.09563" lon="6.21872">
        <ele>57</ele>
        <time>2015-09-04T15:08:42.000Z</time>
      </trkpt>
      <trkpt lat="43.09555" lon="6.21872">
        <ele>58</ele>
        <time>2015-09-04T15:08:43.000Z</time>
      </trkpt>
      <trkpt lat="43.09546" lon="6.21872">
        <ele>58</ele>
        <time>2015-09-04T15:08:44.000Z</time>
      </trkpt>
      <trkpt lat="43.09539" lon="6.21875">
        <ele>57</ele>
        <time>2015-09-04T15:08:45.000Z</time>
      </trkpt>
      <trkpt lat="43.09529" lon="6.21876">
        <ele>58</ele>
        <time>2015-09-04T15:08:46.000Z</time>
      </trkpt>
      <trkpt lat="43.09525" lon="6.21881">
        <ele>59</ele>
        <time>2015-09-04T15:08:47.000Z</time>
      </trkpt>
      <trkpt lat="43.09516" lon="6.2188">
        <ele>59</ele>
        <time>2015-09-04T15:08:48.000Z</time>
      </trkpt>
      <trkpt lat="43.09507" lon="6.21877">
        <ele>59</ele>
        <time>2015-09-04T15:08:49.000Z</time>
      </trkpt>
      <trkpt lat="43.09499" lon="6.21875">
        <ele>57</ele>
        <time>2015-09-04T15:08:50.000Z</time>
      </trkpt>
      <trkpt lat="43.09494" lon="6.21878">
        <ele>58</ele>
        <time>2015-09-04T15:08:51.000Z</time>
      </trkpt>
      <trkpt lat="43.09487" lon="6.21874">
        <ele>57</ele>
        <time>2015-09-04T15:08:52.000Z</time>
      </trkpt>
      <trkpt lat="43.09479" lon="6.21873">
        <ele>57</ele>
        <time>2015-09-04T15:08:53.000Z</time>
      </trkpt>
      <trkpt lat="43.09473" lon="6.21876">
        <ele>57</ele>
        <time>2015-09-04T15:08:54.000Z</time>
      </trkpt>
      <trkpt lat="43.09472" lon="6.21873">
        <ele>56</ele>
        <time>2015-09-04T15:08:55.000Z</time>
      </trkpt>
      <trkpt lat="43.09463" lon="6.21873">
        <ele>56</ele>
        <time>2015-09-04T15:08:56.000Z</time>
      </trkpt>
      <trkpt lat="43.09457" lon="6.21879">
        <ele>56</ele>
        <time>2015-09-04T15:08:57.000Z</time>
      </trkpt>
      <trkpt lat="43.09452" lon="6.21879">
        <ele>56</ele>
        <time>2015-09-04T15:08:58.000Z</time>
      </trkpt>
      <trkpt lat="43.09444" lon="6.21879">
        <ele>56</ele>
        <time>2015-09-04T15:08:59.000Z</time>
      </trkpt>
      <trkpt lat="43.0944" lon="6.2188">
        <ele>56</ele>
        <time>2015-09-04T15:09:00.000Z</time>
      </trkpt>
      <trkpt lat="43.09434" lon="6.21881">
        <ele>56</ele>
        <time>2015-09-04T15:09:01.000Z</time>
      </trkpt>
      <trkpt lat="43.09429" lon="6.21883">
        <ele>56</ele>
        <time>2015-09-04T15:09:02.000Z</time>
      </trkpt>
      <trkpt lat="43.0942" lon="6.21882">
        <ele>57</ele>
        <time>2015-09-04T15:09:03.000Z</time>
      </trkpt>
      <trkpt lat="43.09413" lon="6.21885">
        <ele>55</ele>
        <time>2015-09-04T15:09:04.000Z</time>
      </trkpt>
      <trkpt lat="43.09406" lon="6.21886">
        <ele>57</ele>
        <time>2015-09-04T15:09:05.000Z</time>
      </trkpt>
      <trkpt lat="43.09399" lon="6.21884">
        <ele>57</ele>
        <time>2015-09-04T15:09:06.000Z</time>
      </trkpt>
      <trkpt lat="43.09393" lon="6.21888">
        <ele>58</ele>
        <time>2015-09-04T15:09:07.000Z</time>
      </trkpt>
      <trkpt lat="43.09387" lon="6.21896">
        <ele>57</ele>
        <time>2015-09-04T15:09:08.000Z</time>
      </trkpt>
      <trkpt lat="43.09382" lon="6.21894">
        <ele>57</ele>
        <time>2015-09-04T15:09:09.000Z</time>
      </trkpt>
      <trkpt lat="43.09375" lon="6.21895">
        <ele>57</ele>
        <time>2015-09-04T15:09:10.000Z</time>
      </trkpt>
      <trkpt lat="43.09367" lon="6.21896">
        <ele>56</ele>
        <time>2015-09-04T15:09:11.000Z</time>
      </trkpt>
      <trkpt lat="43.09359" lon="6.21897">
        <ele>55</ele>
        <time>2015-09-04T15:09:12.000Z</time>
      </trkpt>
      <trkpt lat="43.09352" lon="6.21901">
        <ele>55</ele>
        <time>2015-09-04T15:09:13.000Z</time>
      </trkpt>
      <trkpt lat="43.09344" lon="6.219">
        <ele>55</ele>
        <time>2015-09-04T15:09:14.000Z</time>
      </trkpt>
      <trkpt lat="43.09335" lon="6.219">
        <ele>54</ele>
        <time>2015-09-04T15:09:15.000Z</time>
      </trkpt>
      <trkpt lat="43.09326" lon="6.21903">
        <ele>53</ele>
        <time>2015-09-04T15:09:16.000Z</time>
      </trkpt>
      <trkpt lat="43.09318" lon="6.21905">
        <ele>54</ele>
        <time>2015-09-04T15:09:17.000Z</time>
      </trkpt>
      <trkpt lat="43.09312" lon="6.21902">
        <ele>54</ele>
        <time>2015-09-04T15:09:18.000Z</time>
      </trkpt>
      <trkpt lat="43.09303" lon="6.21903">
        <ele>54</ele>
        <time>2015-09-04T15:09:19.000Z</time>
      </trkpt>
      <trkpt lat="43.09295" lon="6.21906">
        <ele>53</ele>
        <time>2015-09-04T15:09:20.000Z</time>
      </trkpt>
      <trkpt lat="43.09284" lon="6.21906">
        <ele>53</ele>
        <time>2015-09-04T15:09:21.000Z</time>
      </trkpt>
      <trkpt lat="43.09278" lon="6.21911">
        <ele>53</ele>
        <time>2015-09-04T15:09:22.000Z</time>
      </trkpt>
      <trkpt lat="43.09273" lon="6.21913">
        <ele>52</ele>
        <time>2015-09-04T15:09:23.000Z</time>
      </trkpt>
      <trkpt lat="43.09266" lon="6.21914">
        <ele>53</ele>
        <time>2015-09-04T15:09:24.000Z</time>
      </trkpt>
      <trkpt lat="43.0926" lon="6.21912">
        <ele>51</ele>
        <time>2015-09-04T15:09:25.000Z</time>
      </trkpt>
      <trkpt lat="43.09255" lon="6.21911">
        <ele>54</ele>
        <time>2015-09-04T15:09:26.000Z</time>
      </trkpt>
      <trkpt lat="43.09246" lon="6.21912">
        <ele>54</ele>
        <time>2015-09-04T15:09:27.000Z</time>
      </trkpt>
      <trkpt lat="43.09237" lon="6.21913">
        <ele>53</ele>
        <time>2015-09-04T15:09:28.000Z</time>
      </trkpt>
      <trkpt lat="43.09228" lon="6.21911">
        <ele>53</ele>
        <time>2015-09-04T15:09:29.000Z</time>
      </trkpt>
      <trkpt lat="43.0922" lon="6.21914">
        <ele>53</ele>
        <time>2015-09-04T15:09:30.000Z</time>
      </trkpt>
      <trkpt lat="43.09207" lon="6.21914">
        <ele>54</ele>
        <time>2015-09-04T15:09:31.000Z</time>
      </trkpt>
      <trkpt lat="43.092" lon="6.21917">
        <ele>53</ele>
        <time>2015-09-04T15:09:32.000Z</time>
      </trkpt>
      <trkpt lat="43.09196" lon="6.21917">
        <ele>54</ele>
        <time>2015-09-04T15:09:33.000Z</time>
      </trkpt>
      <trkpt lat="43.09189" lon="6.21916">
        <ele>54</ele>
        <time>2015-09-04T15:09:34.000Z</time>
      </trkpt>
      <trkpt lat="43.09181" lon="6.21912">
        <ele>52</ele>
        <time>2015-09-04T15:09:35.000Z</time>
      </trkpt>
      <trkpt lat="43.09174" lon="6.21912">
        <ele>52</ele>
        <time>2015-09-04T15:09:36.000Z</time>
      </trkpt>
      <trkpt lat="43.09167" lon="6.21913">
        <ele>52</ele>
        <time>2015-09-04T15:09:37.000Z</time>
      </trkpt>
      <trkpt lat="43.0916" lon="6.21913">
        <ele>51</ele>
        <time>2015-09-04T15:09:38.000Z</time>
      </trkpt>
      <trkpt lat="43.09157" lon="6.21915">
        <ele>51</ele>
        <time>2015-09-04T15:09:39.000Z</time>
      </trkpt>
      <trkpt lat="43.09149" lon="6.21918">
        <ele>51</ele>
        <time>2015-09-04T15:09:40.000Z</time>
      </trkpt>
      <trkpt lat="43.09143" lon="6.21918">
        <ele>51</ele>
        <time>2015-09-04T15:09:41.000Z</time>
      </trkpt>
      <trkpt lat="43.09136" lon="6.21914">
        <ele>51</ele>
        <time>2015-09-04T15:09:42.000Z</time>
      </trkpt>
      <trkpt lat="43.0913" lon="6.21914">
        <ele>51</ele>
        <time>2015-09-04T15:09:43.000Z</time>
      </trkpt>
      <trkpt lat="43.09127" lon="6.21914">
        <ele>50</ele>
        <time>2015-09-04T15:09:44.000Z</time>
      </trkpt>
      <trkpt lat="43.09122" lon="6.2191">
        <ele>50</ele>
        <time>2015-09-04T15:09:45.000Z</time>
      </trkpt>
      <trkpt lat="43.0911" lon="6.21909">
        <ele>50</ele>
        <time>2015-09-04T15:09:46.000Z</time>
      </trkpt>
      <trkpt lat="43.09108" lon="6.21907">
        <ele>48</ele>
        <time>2015-09-04T15:09:47.000Z</time>
      </trkpt>
      <trkpt lat="43.09099" lon="6.21912">
        <ele>50</ele>
        <time>2015-09-04T15:09:48.000Z</time>
      </trkpt>
      <trkpt lat="43.09086" lon="6.21911">
        <ele>50</ele>
        <time>2015-09-04T15:09:49.000Z</time>
      </trkpt>
      <trkpt lat="43.09075" lon="6.21917">
        <ele>49</ele>
        <time>2015-09-04T15:09:50.000Z</time>
      </trkpt>
      <trkpt lat="43.09067" lon="6.21917">
        <ele>49</ele>
        <time>2015-09-04T15:09:51.000Z</time>
      </trkpt>
      <trkpt lat="43.09061" lon="6.21916">
        <ele>50</ele>
        <time>2015-09-04T15:09:52.000Z</time>
      </trkpt>
      <trkpt lat="43.09051" lon="6.21915">
        <ele>50</ele>
        <time>2015-09-04T15:09:53.000Z</time>
      </trkpt>
      <trkpt lat="43.09044" lon="6.21917">
        <ele>51</ele>
        <time>2015-09-04T15:09:54.000Z</time>
      </trkpt>
      <trkpt lat="43.09038" lon="6.21918">
        <ele>51</ele>
        <time>2015-09-04T15:09:55.000Z</time>
      </trkpt>
      <trkpt lat="43.09032" lon="6.21917">
        <ele>51</ele>
        <time>2015-09-04T15:09:56.000Z</time>
      </trkpt>
      <trkpt lat="43.09027" lon="6.21921">
        <ele>51</ele>
        <time>2015-09-04T15:09:57.000Z</time>
      </trkpt>
      <trkpt lat="43.09015" lon="6.21926">
        <ele>52</ele>
        <time>2015-09-04T15:09:58.000Z</time>
      </trkpt>
      <trkpt lat="43.09005" lon="6.21925">
        <ele>52</ele>
        <time>2015-09-04T15:09:59.000Z</time>
      </trkpt>
      <trkpt lat="43.08996" lon="6.21924">
        <ele>52</ele>
        <time>2015-09-04T15:10:00.000Z</time>
      </trkpt>
      <trkpt lat="43.08987" lon="6.21925">
        <ele>52</ele>
        <time>2015-09-04T15:10:01.000Z</time>
      </trkpt>
      <trkpt lat="43.08986" lon="6.21921">
        <ele>50</ele>
        <time>2015-09-04T15:10:02.000Z</time>
      </trkpt>
      <trkpt lat="43.08979" lon="6.21927">
        <ele>51</ele>
        <time>2015-09-04T15:10:03.000Z</time>
      </trkpt>
      <trkpt lat="43.08969" lon="6.21926">
        <ele>52</ele>
        <time>2015-09-04T15:10:04.000Z</time>
      </trkpt>
      <trkpt lat="43.08958" lon="6.21919">
        <ele>52</ele>
        <time>2015-09-04T15:10:05.000Z</time>
      </trkpt>
      <trkpt lat="43.08951" lon="6.2192">
        <ele>52</ele>
        <time>2015-09-04T15:10:06.000Z</time>
      </trkpt>
      <trkpt lat="43.08945" lon="6.2192">
        <ele>51</ele>
        <time>2015-09-04T15:10:07.000Z</time>
      </trkpt>
      <trkpt lat="43.08935" lon="6.21921">
        <ele>55</ele>
        <time>2015-09-04T15:10:08.000Z</time>
      </trkpt>
      <trkpt lat="43.08925" lon="6.21925">
        <ele>54</ele>
        <time>2015-09-04T15:10:09.000Z</time>
      </trkpt>
      <trkpt lat="43.08916" lon="6.2193">
        <ele>55</ele>
        <time>2015-09-04T15:10:10.000Z</time>
      </trkpt>
      <trkpt lat="43.08907" lon="6.21934">
        <ele>56</ele>
        <time>2015-09-04T15:10:11.000Z</time>
      </trkpt>
      <trkpt lat="43.089" lon="6.21927">
        <ele>55</ele>
        <time>2015-09-04T15:10:12.000Z</time>
      </trkpt>
      <trkpt lat="43.0889" lon="6.21929">
        <ele>56</ele>
        <time>2015-09-04T15:10:13.000Z</time>
      </trkpt>
      <trkpt lat="43.08883" lon="6.21927">
        <ele>56</ele>
        <time>2015-09-04T15:10:14.000Z</time>
      </trkpt>
      <trkpt lat="43.08873" lon="6.21932">
        <ele>54</ele>
        <time>2015-09-04T15:10:15.000Z</time>
      </trkpt>
      <trkpt lat="43.08867" lon="6.21932">
        <ele>54</ele>
        <time>2015-09-04T15:10:16.000Z</time>
      </trkpt>
      <trkpt lat="43.0886" lon="6.21931">
        <ele>56</ele>
        <time>2015-09-04T15:10:17.000Z</time>
      </trkpt>
      <trkpt lat="43.0885" lon="6.21928">
        <ele>55</ele>
        <time>2015-09-04T15:10:18.000Z</time>
      </trkpt>
      <trkpt lat="43.08843" lon="6.2193">
        <ele>56</ele>
        <time>2015-09-04T15:10:19.000Z</time>
      </trkpt>
      <trkpt lat="43.08834" lon="6.2193">
        <ele>58</ele>
        <time>2015-09-04T15:10:20.000Z</time>
      </trkpt>
      <trkpt lat="43.08827" lon="6.21935">
        <ele>57</ele>
        <time>2015-09-04T15:10:21.000Z</time>
      </trkpt>
      <trkpt lat="43.08821" lon="6.21936">
        <ele>56</ele>
        <time>2015-09-04T15:10:22.000Z</time>
      </trkpt>
      <trkpt lat="43.0881" lon="6.21933">
        <ele>55</ele>
        <time>2015-09-04T15:10:23.000Z</time>
      </trkpt>
      <trkpt lat="43.08799" lon="6.21926">
        <ele>55</ele>
        <time>2015-09-04T15:10:24.000Z</time>
      </trkpt>
      <trkpt lat="43.08788" lon="6.21926">
        <ele>54</ele>
        <time>2015-09-04T15:10:25.000Z</time>
      </trkpt>
      <trkpt lat="43.08783" lon="6.21927">
        <ele>54</ele>
        <time>2015-09-04T15:10:26.000Z</time>
      </trkpt>
      <trkpt lat="43.0877" lon="6.21916">
        <ele>53</ele>
        <time>2015-09-04T15:10:27.000Z</time>
      </trkpt>
      <trkpt lat="43.0877" lon="6.2192">
        <ele>53</ele>
        <time>2015-09-04T15:10:28.000Z</time>
      </trkpt>
      <trkpt lat="43.08762" lon="6.21919">
        <ele>53</ele>
        <time>2015-09-04T15:10:29.000Z</time>
      </trkpt>
      <trkpt lat="43.08757" lon="6.21919">
        <ele>52</ele>
        <time>2015-09-04T15:10:30.000Z</time>
      </trkpt>
      <trkpt lat="43.08751" lon="6.21924">
        <ele>52</ele>
        <time>2015-09-04T15:10:31.000Z</time>
      </trkpt>
      <trkpt lat="43.08742" lon="6.21926">
        <ele>52</ele>
        <time>2015-09-04T15:10:32.000Z</time>
      </trkpt>
      <trkpt lat="43.08733" lon="6.21926">
        <ele>53</ele>
        <time>2015-09-04T15:10:33.000Z</time>
      </trkpt>
      <trkpt lat="43.0873" lon="6.21924">
        <ele>54</ele>
        <time>2015-09-04T15:10:34.000Z</time>
      </trkpt>
      <trkpt lat="43.08725" lon="6.21923">
        <ele>54</ele>
        <time>2015-09-04T15:10:35.000Z</time>
      </trkpt>
      <trkpt lat="43.08717" lon="6.21926">
        <ele>54</ele>
        <time>2015-09-04T15:10:36.000Z</time>
      </trkpt>
      <trkpt lat="43.08707" lon="6.21919">
        <ele>56</ele>
        <time>2015-09-04T15:10:37.000Z</time>
      </trkpt>
      <trkpt lat="43.08706" lon="6.21917">
        <ele>57</ele>
        <time>2015-09-04T15:10:38.000Z</time>
      </trkpt>
      <trkpt lat="43.08697" lon="6.21916">
        <ele>57</ele>
        <time>2015-09-04T15:10:39.000Z</time>
      </trkpt>
      <trkpt lat="43.08683" lon="6.21925">
        <ele>56</ele>
        <time>2015-09-04T15:10:40.000Z</time>
      </trkpt>
      <trkpt lat="43.08675" lon="6.2192">
        <ele>56</ele>
        <time>2015-09-04T15:10:41.000Z</time>
      </trkpt>
      <trkpt lat="43.08669" lon="6.21921">
        <ele>57</ele>
        <time>2015-09-04T15:10:42.000Z</time>
      </trkpt>
      <trkpt lat="43.08661" lon="6.21917">
        <ele>54</ele>
        <time>2015-09-04T15:10:43.000Z</time>
      </trkpt>
      <trkpt lat="43.08652" lon="6.21916">
        <ele>54</ele>
        <time>2015-09-04T15:10:44.000Z</time>
      </trkpt>
      <trkpt lat="43.08641" lon="6.21918">
        <ele>54</ele>
        <time>2015-09-04T15:10:45.000Z</time>
      </trkpt>
      <trkpt lat="43.08634" lon="6.21918">
        <ele>54</ele>
        <time>2015-09-04T15:10:46.000Z</time>
      </trkpt>
      <trkpt lat="43.08627" lon="6.2192">
        <ele>54</ele>
        <time>2015-09-04T15:10:47.000Z</time>
      </trkpt>
      <trkpt lat="43.08621" lon="6.21916">
        <ele>54</ele>
        <time>2015-09-04T15:10:48.000Z</time>
      </trkpt>
      <trkpt lat="43.08615" lon="6.2192">
        <ele>53</ele>
        <time>2015-09-04T15:10:49.000Z</time>
      </trkpt>
      <trkpt lat="43.08603" lon="6.21921">
        <ele>54</ele>
        <time>2015-09-04T15:10:50.000Z</time>
      </trkpt>
      <trkpt lat="43.08599" lon="6.21911">
        <ele>56</ele>
        <time>2015-09-04T15:10:51.000Z</time>
      </trkpt>
      <trkpt lat="43.08597" lon="6.21912">
        <ele>56</ele>
        <time>2015-09-04T15:10:52.000Z</time>
      </trkpt>
      <trkpt lat="43.08588" lon="6.21909">
        <ele>54</ele>
        <time>2015-09-04T15:10:53.000Z</time>
      </trkpt>
      <trkpt lat="43.08576" lon="6.21908">
        <ele>55</ele>
        <time>2015-09-04T15:10:54.000Z</time>
      </trkpt>
      <trkpt lat="43.08567" lon="6.21901">
        <ele>55</ele>
        <time>2015-09-04T15:10:55.000Z</time>
      </trkpt>
      <trkpt lat="43.08564" lon="6.21894">
        <ele>54</ele>
        <time>2015-09-04T15:10:56.000Z</time>
      </trkpt>
      <trkpt lat="43.08561" lon="6.21902">
        <ele>55</ele>
        <time>2015-09-04T15:10:57.000Z</time>
      </trkpt>
      <trkpt lat="43.08556" lon="6.21903">
        <ele>55</ele>
        <time>2015-09-04T15:10:58.000Z</time>
      </trkpt>
      <trkpt lat="43.08549" lon="6.21901">
        <ele>53</ele>
        <time>2015-09-04T15:10:59.000Z</time>
      </trkpt>
      <trkpt lat="43.08543" lon="6.21898">
        <ele>53</ele>
        <time>2015-09-04T15:11:00.000Z</time>
      </trkpt>
      <trkpt lat="43.08538" lon="6.21899">
        <ele>53</ele>
        <time>2015-09-04T15:11:01.000Z</time>
      </trkpt>
      <trkpt lat="43.08533" lon="6.21901">
        <ele>52</ele>
        <time>2015-09-04T15:11:02.000Z</time>
      </trkpt>
      <trkpt lat="43.08531" lon="6.21902">
        <ele>53</ele>
        <time>2015-09-04T15:11:03.000Z</time>
      </trkpt>
      <trkpt lat="43.08524" lon="6.21903">
        <ele>55</ele>
        <time>2015-09-04T15:11:04.000Z</time>
      </trkpt>
      <trkpt lat="43.08514" lon="6.219">
        <ele>55</ele>
        <time>2015-09-04T15:11:05.000Z</time>
      </trkpt>
      <trkpt lat="43.08506" lon="6.21899">
        <ele>54</ele>
        <time>2015-09-04T15:11:06.000Z</time>
      </trkpt>
      <trkpt lat="43.085" lon="6.21896">
        <ele>56</ele>
        <time>2015-09-04T15:11:07.000Z</time>
      </trkpt>
      <trkpt lat="43.08496" lon="6.21895">
        <ele>56</ele>
        <time>2015-09-04T15:11:08.000Z</time>
      </trkpt>
      <trkpt lat="43.08486" lon="6.21899">
        <ele>56</ele>
        <time>2015-09-04T15:11:09.000Z</time>
      </trkpt>
      <trkpt lat="43.08485" lon="6.21896">
        <ele>56</ele>
        <time>2015-09-04T15:11:10.000Z</time>
      </trkpt>
      <trkpt lat="43.08471" lon="6.21894">
        <ele>55</ele>
        <time>2015-09-04T15:11:11.000Z</time>
      </trkpt>
      <trkpt lat="43.08461" lon="6.21896">
        <ele>55</ele>
        <time>2015-09-04T15:11:12.000Z</time>
      </trkpt>
      <trkpt lat="43.08451" lon="6.21897">
        <ele>55</ele>
        <time>2015-09-04T15:11:13.000Z</time>
      </trkpt>
      <trkpt lat="43.08441" lon="6.21898">
        <ele>55</ele>
        <time>2015-09-04T15:11:14.000Z</time>
      </trkpt>
      <trkpt lat="43.08433" lon="6.21903">
        <ele>54</ele>
        <time>2015-09-04T15:11:15.000Z</time>
      </trkpt>
      <trkpt lat="43.08424" lon="6.21901">
        <ele>53</ele>
        <time>2015-09-04T15:11:16.000Z</time>
      </trkpt>
      <trkpt lat="43.08414" lon="6.21899">
        <ele>55</ele>
        <time>2015-09-04T15:11:17.000Z</time>
      </trkpt>
      <trkpt lat="43.08408" lon="6.219">
        <ele>54</ele>
        <time>2015-09-04T15:11:18.000Z</time>
      </trkpt>
      <trkpt lat="43.08401" lon="6.21897">
        <ele>53</ele>
        <time>2015-09-04T15:11:19.000Z</time>
      </trkpt>
      <trkpt lat="43.08392" lon="6.21896">
        <ele>56</ele>
        <time>2015-09-04T15:11:20.000Z</time>
      </trkpt>
      <trkpt lat="43.08386" lon="6.21895">
        <ele>55</ele>
        <time>2015-09-04T15:11:21.000Z</time>
      </trkpt>
      <trkpt lat="43.08377" lon="6.2189">
        <ele>54</ele>
        <time>2015-09-04T15:11:22.000Z</time>
      </trkpt>
      <trkpt lat="43.08371" lon="6.21889">
        <ele>54</ele>
        <time>2015-09-04T15:11:23.000Z</time>
      </trkpt>
      <trkpt lat="43.08366" lon="6.21885">
        <ele>54</ele>
        <time>2015-09-04T15:11:24.000Z</time>
      </trkpt>
      <trkpt lat="43.08359" lon="6.21882">
        <ele>54</ele>
        <time>2015-09-04T15:11:25.000Z</time>
      </trkpt>
      <trkpt lat="43.08352" lon="6.21881">
        <ele>55</ele>
        <time>2015-09-04T15:11:26.000Z</time>
      </trkpt>
      <trkpt lat="43.08347" lon="6.21881">
        <ele>55</ele>
        <time>2015-09-04T15:11:27.000Z</time>
      </trkpt>
      <trkpt lat="43.0834" lon="6.21881">
        <ele>54</ele>
        <time>2015-09-04T15:11:28.000Z</time>
      </trkpt>
      <trkpt lat="43.08333" lon="6.2188">
        <ele>59</ele>
        <time>2015-09-04T15:11:29.000Z</time>
      </trkpt>
      <trkpt lat="43.08326" lon="6.21881">
        <ele>58</ele>
        <time>2015-09-04T15:11:30.000Z</time>
      </trkpt>
      <trkpt lat="43.08321" lon="6.21885">
        <ele>59</ele>
        <time>2015-09-04T15:11:31.000Z</time>
      </trkpt>
      <trkpt lat="43.08314" lon="6.21881">
        <ele>58</ele>
        <time>2015-09-04T15:11:32.000Z</time>
      </trkpt>
      <trkpt lat="43.08304" lon="6.2188">
        <ele>58</ele>
        <time>2015-09-04T15:11:33.000Z</time>
      </trkpt>
      <trkpt lat="43.08292" lon="6.21879">
        <ele>57</ele>
        <time>2015-09-04T15:11:34.000Z</time>
      </trkpt>
      <trkpt lat="43.08287" lon="6.21877">
        <ele>55</ele>
        <time>2015-09-04T15:11:35.000Z</time>
      </trkpt>
      <trkpt lat="43.08278" lon="6.21877">
        <ele>53</ele>
        <time>2015-09-04T15:11:36.000Z</time>
      </trkpt>
      <trkpt lat="43.08273" lon="6.21875">
        <ele>51</ele>
        <time>2015-09-04T15:11:37.000Z</time>
      </trkpt>
      <trkpt lat="43.08266" lon="6.21875">
        <ele>52</ele>
        <time>2015-09-04T15:11:38.000Z</time>
      </trkpt>
      <trkpt lat="43.08259" lon="6.21875">
        <ele>56</ele>
        <time>2015-09-04T15:11:39.000Z</time>
      </trkpt>
      <trkpt lat="43.08252" lon="6.21874">
        <ele>55</ele>
        <time>2015-09-04T15:11:40.000Z</time>
      </trkpt>
      <trkpt lat="43.08244" lon="6.21874">
        <ele>55</ele>
        <time>2015-09-04T15:11:41.000Z</time>
      </trkpt>
      <trkpt lat="43.08239" lon="6.21873">
        <ele>54</ele>
        <time>2015-09-04T15:11:42.000Z</time>
      </trkpt>
      <trkpt lat="43.08237" lon="6.21872">
        <ele>52</ele>
        <time>2015-09-04T15:11:43.000Z</time>
      </trkpt>
      <trkpt lat="43.08228" lon="6.21869">
        <ele>53</ele>
        <time>2015-09-04T15:11:44.000Z</time>
      </trkpt>
      <trkpt lat="43.0822" lon="6.21865">
        <ele>53</ele>
        <time>2015-09-04T15:11:45.000Z</time>
      </trkpt>
      <trkpt lat="43.08211" lon="6.21864">
        <ele>52</ele>
        <time>2015-09-04T15:11:46.000Z</time>
      </trkpt>
      <trkpt lat="43.08205" lon="6.21865">
        <ele>52</ele>
        <time>2015-09-04T15:11:47.000Z</time>
      </trkpt>
      <trkpt lat="43.08198" lon="6.21866">
        <ele>52</ele>
        <time>2015-09-04T15:11:48.000Z</time>
      </trkpt>
      <trkpt lat="43.0819" lon="6.21866">
        <ele>56</ele>
        <time>2015-09-04T15:11:49.000Z</time>
      </trkpt>
      <trkpt lat="43.0818" lon="6.21864">
        <ele>56</ele>
        <time>2015-09-04T15:11:50.000Z</time>
      </trkpt>
      <trkpt lat="43.0817" lon="6.21868">
        <ele>55</ele>
        <time>2015-09-04T15:11:51.000Z</time>
      </trkpt>
      <trkpt lat="43.08158" lon="6.21869">
        <ele>54</ele>
        <time>2015-09-04T15:11:52.000Z</time>
      </trkpt>
      <trkpt lat="43.08151" lon="6.21869">
        <ele>53</ele>
        <time>2015-09-04T15:11:53.000Z</time>
      </trkpt>
      <trkpt lat="43.08149" lon="6.21872">
        <ele>54</ele>
        <time>2015-09-04T15:11:54.000Z</time>
      </trkpt>
      <trkpt lat="43.08144" lon="6.21866">
        <ele>51</ele>
        <time>2015-09-04T15:11:55.000Z</time>
      </trkpt>
      <trkpt lat="43.08137" lon="6.21866">
        <ele>52</ele>
        <time>2015-09-04T15:11:56.000Z</time>
      </trkpt>
      <trkpt lat="43.08129" lon="6.21867">
        <ele>53</ele>
        <time>2015-09-04T15:11:57.000Z</time>
      </trkpt>
      <trkpt lat="43.0812" lon="6.21867">
        <ele>53</ele>
        <time>2015-09-04T15:11:58.000Z</time>
      </trkpt>
      <trkpt lat="43.08113" lon="6.21866">
        <ele>52</ele>
        <time>2015-09-04T15:11:59.000Z</time>
      </trkpt>
      <trkpt lat="43.08106" lon="6.21871">
        <ele>52</ele>
        <time>2015-09-04T15:12:00.000Z</time>
      </trkpt>
      <trkpt lat="43.08099" lon="6.2187">
        <ele>52</ele>
        <time>2015-09-04T15:12:01.000Z</time>
      </trkpt>
      <trkpt lat="43.0809" lon="6.21868">
        <ele>51</ele>
        <time>2015-09-04T15:12:02.000Z</time>
      </trkpt>
      <trkpt lat="43.08084" lon="6.21869">
        <ele>51</ele>
        <time>2015-09-04T15:12:03.000Z</time>
      </trkpt>
      <trkpt lat="43.08076" lon="6.21871">
        <ele>53</ele>
        <time>2015-09-04T15:12:04.000Z</time>
      </trkpt>
      <trkpt lat="43.08066" lon="6.21871">
        <ele>53</ele>
        <time>2015-09-04T15:12:05.000Z</time>
      </trkpt>
      <trkpt lat="43.08062" lon="6.21867">
        <ele>55</ele>
        <time>2015-09-04T15:12:06.000Z</time>
      </trkpt>
      <trkpt lat="43.08055" lon="6.21866">
        <ele>54</ele>
        <time>2015-09-04T15:12:07.000Z</time>
      </trkpt>
      <trkpt lat="43.08047" lon="6.2186">
        <ele>52</ele>
        <time>2015-09-04T15:12:08.000Z</time>
      </trkpt>
      <trkpt lat="43.0804" lon="6.2186">
        <ele>54</ele>
        <time>2015-09-04T15:12:09.000Z</time>
      </trkpt>
      <trkpt lat="43.08033" lon="6.21859">
        <ele>54</ele>
        <time>2015-09-04T15:12:10.000Z</time>
      </trkpt>
      <trkpt lat="43.08027" lon="6.21858">
        <ele>54</ele>
        <time>2015-09-04T15:12:11.000Z</time>
      </trkpt>
      <trkpt lat="43.08021" lon="6.21859">
        <ele>55</ele>
        <time>2015-09-04T15:12:12.000Z</time>
      </trkpt>
      <trkpt lat="43.08015" lon="6.2186">
        <ele>56</ele>
        <time>2015-09-04T15:12:13.000Z</time>
      </trkpt>
      <trkpt lat="43.08005" lon="6.21857">
        <ele>55</ele>
        <time>2015-09-04T15:12:14.000Z</time>
      </trkpt>
      <trkpt lat="43.07993" lon="6.21848">
        <ele>54</ele>
        <time>2015-09-04T15:12:15.000Z</time>
      </trkpt>
      <trkpt lat="43.0799" lon="6.21854">
        <ele>54</ele>
        <time>2015-09-04T15:12:16.000Z</time>
      </trkpt>
      <trkpt lat="43.07984" lon="6.21851">
        <ele>54</ele>
        <time>2015-09-04T15:12:17.000Z</time>
      </trkpt>
      <trkpt lat="43.07974" lon="6.21856">
        <ele>55</ele>
        <time>2015-09-04T15:12:18.000Z</time>
      </trkpt>
      <trkpt lat="43.07969" lon="6.21856">
        <ele>55</ele>
        <time>2015-09-04T15:12:19.000Z</time>
      </trkpt>
      <trkpt lat="43.07959" lon="6.21859">
        <ele>56</ele>
        <time>2015-09-04T15:12:20.000Z</time>
      </trkpt>
      <trkpt lat="43.07954" lon="6.21859">
        <ele>56</ele>
        <time>2015-09-04T15:12:21.000Z</time>
      </trkpt>
      <trkpt lat="43.07949" lon="6.21857">
        <ele>56</ele>
        <time>2015-09-04T15:12:22.000Z</time>
      </trkpt>
      <trkpt lat="43.07943" lon="6.21857">
        <ele>56</ele>
        <time>2015-09-04T15:12:23.000Z</time>
      </trkpt>
      <trkpt lat="43.07935" lon="6.21854">
        <ele>57</ele>
        <time>2015-09-04T15:12:24.000Z</time>
      </trkpt>
      <trkpt lat="43.07926" lon="6.21853">
        <ele>58</ele>
        <time>2015-09-04T15:12:25.000Z</time>
      </trkpt>
      <trkpt lat="43.0792" lon="6.21851">
        <ele>59</ele>
        <time>2015-09-04T15:12:26.000Z</time>
      </trkpt>
      <trkpt lat="43.07912" lon="6.21851">
        <ele>58</ele>
        <time>2015-09-04T15:12:27.000Z</time>
      </trkpt>
      <trkpt lat="43.07906" lon="6.21848">
        <ele>60</ele>
        <time>2015-09-04T15:12:28.000Z</time>
      </trkpt>
      <trkpt lat="43.079" lon="6.21849">
        <ele>60</ele>
        <time>2015-09-04T15:12:29.000Z</time>
      </trkpt>
      <trkpt lat="43.07893" lon="6.2185">
        <ele>60</ele>
        <time>2015-09-04T15:12:30.000Z</time>
      </trkpt>
      <trkpt lat="43.07884" lon="6.21848">
        <ele>60</ele>
        <time>2015-09-04T15:12:31.000Z</time>
      </trkpt>
      <trkpt lat="43.07879" lon="6.21843">
        <ele>60</ele>
        <time>2015-09-04T15:12:32.000Z</time>
      </trkpt>
      <trkpt lat="43.07871" lon="6.21844">
        <ele>60</ele>
        <time>2015-09-04T15:12:33.000Z</time>
      </trkpt>
      <trkpt lat="43.07864" lon="6.21844">
        <ele>60</ele>
        <time>2015-09-04T15:12:34.000Z</time>
      </trkpt>
      <trkpt lat="43.07855" lon="6.21842">
        <ele>59</ele>
        <time>2015-09-04T15:12:35.000Z</time>
      </trkpt>
      <trkpt lat="43.07847" lon="6.2184">
        <ele>58</ele>
        <time>2015-09-04T15:12:36.000Z</time>
      </trkpt>
      <trkpt lat="43.0784" lon="6.2184">
        <ele>59</ele>
        <time>2015-09-04T15:12:37.000Z</time>
      </trkpt>
      <trkpt lat="43.07833" lon="6.21839">
        <ele>58</ele>
        <time>2015-09-04T15:12:38.000Z</time>
      </trkpt>
      <trkpt lat="43.07823" lon="6.21838">
        <ele>59</ele>
        <time>2015-09-04T15:12:39.000Z</time>
      </trkpt>
      <trkpt lat="43.07813" lon="6.21841">
        <ele>58</ele>
        <time>2015-09-04T15:12:40.000Z</time>
      </trkpt>
      <trkpt lat="43.07804" lon="6.21837">
        <ele>57</ele>
        <time>2015-09-04T15:12:41.000Z</time>
      </trkpt>
      <trkpt lat="43.07801" lon="6.21835">
        <ele>57</ele>
        <time>2015-09-04T15:12:42.000Z</time>
      </trkpt>
      <trkpt lat="43.07794" lon="6.21837">
        <ele>55</ele>
        <time>2015-09-04T15:12:43.000Z</time>
      </trkpt>
      <trkpt lat="43.07785" lon="6.21837">
        <ele>55</ele>
        <time>2015-09-04T15:12:44.000Z</time>
      </trkpt>
      <trkpt lat="43.07778" lon="6.21836">
        <ele>55</ele>
        <time>2015-09-04T15:12:45.000Z</time>
      </trkpt>
      <trkpt lat="43.07771" lon="6.21836">
        <ele>56</ele>
        <time>2015-09-04T15:12:46.000Z</time>
      </trkpt>
      <trkpt lat="43.07769" lon="6.21827">
        <ele>54</ele>
        <time>2015-09-04T15:12:47.000Z</time>
      </trkpt>
      <trkpt lat="43.0776" lon="6.21825">
        <ele>55</ele>
        <time>2015-09-04T15:12:48.000Z</time>
      </trkpt>
      <trkpt lat="43.0775" lon="6.21824">
        <ele>54</ele>
        <time>2015-09-04T15:12:49.000Z</time>
      </trkpt>
      <trkpt lat="43.07743" lon="6.21823">
        <ele>53</ele>
        <time>2015-09-04T15:12:50.000Z</time>
      </trkpt>
      <trkpt lat="43.07735" lon="6.21822">
        <ele>52</ele>
        <time>2015-09-04T15:12:51.000Z</time>
      </trkpt>
      <trkpt lat="43.07727" lon="6.21821">
        <ele>53</ele>
        <time>2015-09-04T15:12:52.000Z</time>
      </trkpt>
      <trkpt lat="43.07721" lon="6.2182">
        <ele>52</ele>
        <time>2015-09-04T15:12:53.000Z</time>
      </trkpt>
      <trkpt lat="43.07716" lon="6.2182">
        <ele>54</ele>
        <time>2015-09-04T15:12:54.000Z</time>
      </trkpt>
      <trkpt lat="43.07708" lon="6.2182">
        <ele>55</ele>
        <time>2015-09-04T15:12:55.000Z</time>
      </trkpt>
      <trkpt lat="43.07699" lon="6.21817">
        <ele>53</ele>
        <time>2015-09-04T15:12:56.000Z</time>
      </trkpt>
      <trkpt lat="43.0769" lon="6.21816">
        <ele>53</ele>
        <time>2015-09-04T15:12:57.000Z</time>
      </trkpt>
      <trkpt lat="43.07679" lon="6.21815">
        <ele>53</ele>
        <time>2015-09-04T15:12:58.000Z</time>
      </trkpt>
      <trkpt lat="43.07674" lon="6.21816">
        <ele>53</ele>
        <time>2015-09-04T15:12:59.000Z</time>
      </trkpt>
      <trkpt lat="43.07668" lon="6.21814">
        <ele>54</ele>
        <time>2015-09-04T15:13:00.000Z</time>
      </trkpt>
      <trkpt lat="43.07661" lon="6.21812">
        <ele>55</ele>
        <time>2015-09-04T15:13:01.000Z</time>
      </trkpt>
      <trkpt lat="43.07654" lon="6.2181">
        <ele>55</ele>
        <time>2015-09-04T15:13:02.000Z</time>
      </trkpt>
      <trkpt lat="43.07647" lon="6.21809">
        <ele>54</ele>
        <time>2015-09-04T15:13:03.000Z</time>
      </trkpt>
      <trkpt lat="43.07641" lon="6.21806">
        <ele>53</ele>
        <time>2015-09-04T15:13:04.000Z</time>
      </trkpt>
      <trkpt lat="43.07634" lon="6.21802">
        <ele>53</ele>
        <time>2015-09-04T15:13:05.000Z</time>
      </trkpt>
      <trkpt lat="43.07627" lon="6.218">
        <ele>55</ele>
        <time>2015-09-04T15:13:06.000Z</time>
      </trkpt>
      <trkpt lat="43.07621" lon="6.21801">
        <ele>58</ele>
        <time>2015-09-04T15:13:07.000Z</time>
      </trkpt>
      <trkpt lat="43.07613" lon="6.21802">
        <ele>58</ele>
        <time>2015-09-04T15:13:08.000Z</time>
      </trkpt>
      <trkpt lat="43.07604" lon="6.218">
        <ele>58</ele>
        <time>2015-09-04T15:13:09.000Z</time>
      </trkpt>
      <trkpt lat="43.07597" lon="6.21799">
        <ele>56</ele>
        <time>2015-09-04T15:13:10.000Z</time>
      </trkpt>
      <trkpt lat="43.07589" lon="6.21799">
        <ele>57</ele>
        <time>2015-09-04T15:13:11.000Z</time>
      </trkpt>
      <trkpt lat="43.07582" lon="6.21797">
        <ele>56</ele>
        <time>2015-09-04T15:13:12.000Z</time>
      </trkpt>
      <trkpt lat="43.07575" lon="6.21797">
        <ele>56</ele>
        <time>2015-09-04T15:13:13.000Z</time>
      </trkpt>
      <trkpt lat="43.07565" lon="6.21793">
        <ele>55</ele>
        <time>2015-09-04T15:13:14.000Z</time>
      </trkpt>
      <trkpt lat="43.07557" lon="6.21792">
        <ele>57</ele>
        <time>2015-09-04T15:13:15.000Z</time>
      </trkpt>
      <trkpt lat="43.07548" lon="6.21789">
        <ele>58</ele>
        <time>2015-09-04T15:13:16.000Z</time>
      </trkpt>
      <trkpt lat="43.07543" lon="6.21787">
        <ele>57</ele>
        <time>2015-09-04T15:13:17.000Z</time>
      </trkpt>
      <trkpt lat="43.07538" lon="6.21788">
        <ele>57</ele>
        <time>2015-09-04T15:13:18.000Z</time>
      </trkpt>
      <trkpt lat="43.07532" lon="6.21788">
        <ele>56</ele>
        <time>2015-09-04T15:13:19.000Z</time>
      </trkpt>
      <trkpt lat="43.07528" lon="6.2179">
        <ele>56</ele>
        <time>2015-09-04T15:13:20.000Z</time>
      </trkpt>
      <trkpt lat="43.07517" lon="6.21787">
        <ele>57</ele>
        <time>2015-09-04T15:13:21.000Z</time>
      </trkpt>
      <trkpt lat="43.0751" lon="6.21782">
        <ele>56</ele>
        <time>2015-09-04T15:13:22.000Z</time>
      </trkpt>
      <trkpt lat="43.07503" lon="6.2178">
        <ele>56</ele>
        <time>2015-09-04T15:13:23.000Z</time>
      </trkpt>
      <trkpt lat="43.07495" lon="6.21776">
        <ele>55</ele>
        <time>2015-09-04T15:13:24.000Z</time>
      </trkpt>
      <trkpt lat="43.0749" lon="6.21775">
        <ele>57</ele>
        <time>2015-09-04T15:13:25.000Z</time>
      </trkpt>
      <trkpt lat="43.07482" lon="6.21775">
        <ele>58</ele>
        <time>2015-09-04T15:13:26.000Z</time>
      </trkpt>
      <trkpt lat="43.07477" lon="6.21773">
        <ele>55</ele>
        <time>2015-09-04T15:13:27.000Z</time>
      </trkpt>
      <trkpt lat="43.07468" lon="6.21772">
        <ele>55</ele>
        <time>2015-09-04T15:13:28.000Z</time>
      </trkpt>
      <trkpt lat="43.07461" lon="6.2177">
        <ele>55</ele>
        <time>2015-09-04T15:13:29.000Z</time>
      </trkpt>
      <trkpt lat="43.07454" lon="6.21767">
        <ele>53</ele>
        <time>2015-09-04T15:13:30.000Z</time>
      </trkpt>
      <trkpt lat="43.07447" lon="6.21766">
        <ele>53</ele>
        <time>2015-09-04T15:13:31.000Z</time>
      </trkpt>
      <trkpt lat="43.07441" lon="6.21765">
        <ele>54</ele>
        <time>2015-09-04T15:13:32.000Z</time>
      </trkpt>
      <trkpt lat="43.07434" lon="6.21762">
        <ele>52</ele>
        <time>2015-09-04T15:13:33.000Z</time>
      </trkpt>
      <trkpt lat="43.07427" lon="6.21761">
        <ele>53</ele>
        <time>2015-09-04T15:13:34.000Z</time>
      </trkpt>
      <trkpt lat="43.0742" lon="6.2176">
        <ele>53</ele>
        <time>2015-09-04T15:13:35.000Z</time>
      </trkpt>
      <trkpt lat="43.07412" lon="6.21759">
        <ele>53</ele>
        <time>2015-09-04T15:13:36.000Z</time>
      </trkpt>
      <trkpt lat="43.07407" lon="6.21757">
        <ele>54</ele>
        <time>2015-09-04T15:13:37.000Z</time>
      </trkpt>
      <trkpt lat="43.07399" lon="6.21756">
        <ele>54</ele>
        <time>2015-09-04T15:13:38.000Z</time>
      </trkpt>
      <trkpt lat="43.07392" lon="6.21756">
        <ele>54</ele>
        <time>2015-09-04T15:13:39.000Z</time>
      </trkpt>
      <trkpt lat="43.07385" lon="6.21756">
        <ele>54</ele>
        <time>2015-09-04T15:13:40.000Z</time>
      </trkpt>
      <trkpt lat="43.07377" lon="6.21755">
        <ele>55</ele>
        <time>2015-09-04T15:13:41.000Z</time>
      </trkpt>
      <trkpt lat="43.07366" lon="6.21752">
        <ele>55</ele>
        <time>2015-09-04T15:13:42.000Z</time>
      </trkpt>
      <trkpt lat="43.07359" lon="6.21755">
        <ele>55</ele>
        <time>2015-09-04T15:13:43.000Z</time>
      </trkpt>
      <trkpt lat="43.07355" lon="6.21757">
        <ele>55</ele>
        <time>2015-09-04T15:13:44.000Z</time>
      </trkpt>
      <trkpt lat="43.07348" lon="6.21751">
        <ele>55</ele>
        <time>2015-09-04T15:13:45.000Z</time>
      </trkpt>
      <trkpt lat="43.07341" lon="6.21746">
        <ele>52</ele>
        <time>2015-09-04T15:13:46.000Z</time>
      </trkpt>
      <trkpt lat="43.07335" lon="6.21743">
        <ele>51</ele>
        <time>2015-09-04T15:13:47.000Z</time>
      </trkpt>
      <trkpt lat="43.07328" lon="6.21741">
        <ele>50</ele>
        <time>2015-09-04T15:13:48.000Z</time>
      </trkpt>
      <trkpt lat="43.07319" lon="6.21739">
        <ele>49</ele>
        <time>2015-09-04T15:13:49.000Z</time>
      </trkpt>
      <trkpt lat="43.07313" lon="6.21738">
        <ele>50</ele>
        <time>2015-09-04T15:13:50.000Z</time>
      </trkpt>
      <trkpt lat="43.07307" lon="6.21739">
        <ele>48</ele>
        <time>2015-09-04T15:13:51.000Z</time>
      </trkpt>
      <trkpt lat="43.07301" lon="6.21738">
        <ele>48</ele>
        <time>2015-09-04T15:13:52.000Z</time>
      </trkpt>
      <trkpt lat="43.07296" lon="6.21739">
        <ele>49</ele>
        <time>2015-09-04T15:13:53.000Z</time>
      </trkpt>
      <trkpt lat="43.07287" lon="6.21738">
        <ele>49</ele>
        <time>2015-09-04T15:13:54.000Z</time>
      </trkpt>
      <trkpt lat="43.07279" lon="6.21738">
        <ele>49</ele>
        <time>2015-09-04T15:13:55.000Z</time>
      </trkpt>
      <trkpt lat="43.07271" lon="6.21736">
        <ele>49</ele>
        <time>2015-09-04T15:13:56.000Z</time>
      </trkpt>
      <trkpt lat="43.07265" lon="6.21737">
        <ele>52</ele>
        <time>2015-09-04T15:13:57.000Z</time>
      </trkpt>
      <trkpt lat="43.07259" lon="6.21735">
        <ele>51</ele>
        <time>2015-09-04T15:13:58.000Z</time>
      </trkpt>
      <trkpt lat="43.0725" lon="6.21734">
        <ele>51</ele>
        <time>2015-09-04T15:13:59.000Z</time>
      </trkpt>
      <trkpt lat="43.07242" lon="6.21734">
        <ele>52</ele>
        <time>2015-09-04T15:14:00.000Z</time>
      </trkpt>
      <trkpt lat="43.07234" lon="6.21731">
        <ele>52</ele>
        <time>2015-09-04T15:14:01.000Z</time>
      </trkpt>
      <trkpt lat="43.07226" lon="6.21728">
        <ele>51</ele>
        <time>2015-09-04T15:14:02.000Z</time>
      </trkpt>
      <trkpt lat="43.07221" lon="6.21724">
        <ele>51</ele>
        <time>2015-09-04T15:14:03.000Z</time>
      </trkpt>
      <trkpt lat="43.07214" lon="6.21722">
        <ele>51</ele>
        <time>2015-09-04T15:14:04.000Z</time>
      </trkpt>
      <trkpt lat="43.07205" lon="6.21716">
        <ele>50</ele>
        <time>2015-09-04T15:14:05.000Z</time>
      </trkpt>
      <trkpt lat="43.07201" lon="6.21712">
        <ele>52</ele>
        <time>2015-09-04T15:14:06.000Z</time>
      </trkpt>
      <trkpt lat="43.07192" lon="6.21708">
        <ele>51</ele>
        <time>2015-09-04T15:14:07.000Z</time>
      </trkpt>
      <trkpt lat="43.07179" lon="6.21702">
        <ele>51</ele>
        <time>2015-09-04T15:14:08.000Z</time>
      </trkpt>
      <trkpt lat="43.07173" lon="6.21706">
        <ele>51</ele>
        <time>2015-09-04T15:14:09.000Z</time>
      </trkpt>
      <trkpt lat="43.07168" lon="6.21706">
        <ele>52</ele>
        <time>2015-09-04T15:14:10.000Z</time>
      </trkpt>
      <trkpt lat="43.07163" lon="6.21705">
        <ele>51</ele>
        <time>2015-09-04T15:14:11.000Z</time>
      </trkpt>
      <trkpt lat="43.07154" lon="6.21707">
        <ele>51</ele>
        <time>2015-09-04T15:14:12.000Z</time>
      </trkpt>
      <trkpt lat="43.0715" lon="6.21709">
        <ele>50</ele>
        <time>2015-09-04T15:14:13.000Z</time>
      </trkpt>
      <trkpt lat="43.07142" lon="6.21704">
        <ele>50</ele>
        <time>2015-09-04T15:14:14.000Z</time>
      </trkpt>
      <trkpt lat="43.07133" lon="6.21705">
        <ele>49</ele>
        <time>2015-09-04T15:14:15.000Z</time>
      </trkpt>
      <trkpt lat="43.07124" lon="6.21701">
        <ele>49</ele>
        <time>2015-09-04T15:14:16.000Z</time>
      </trkpt>
      <trkpt lat="43.07117" lon="6.21698">
        <ele>49</ele>
        <time>2015-09-04T15:14:17.000Z</time>
      </trkpt>
      <trkpt lat="43.07107" lon="6.21695">
        <ele>49</ele>
        <time>2015-09-04T15:14:18.000Z</time>
      </trkpt>
      <trkpt lat="43.07102" lon="6.21691">
        <ele>48</ele>
        <time>2015-09-04T15:14:19.000Z</time>
      </trkpt>
      <trkpt lat="43.07093" lon="6.21689">
        <ele>49</ele>
        <time>2015-09-04T15:14:20.000Z</time>
      </trkpt>
      <trkpt lat="43.07087" lon="6.21689">
        <ele>48</ele>
        <time>2015-09-04T15:14:21.000Z</time>
      </trkpt>
      <trkpt lat="43.0708" lon="6.21691">
        <ele>48</ele>
        <time>2015-09-04T15:14:22.000Z</time>
      </trkpt>
      <trkpt lat="43.07075" lon="6.21691">
        <ele>50</ele>
        <time>2015-09-04T15:14:23.000Z</time>
      </trkpt>
      <trkpt lat="43.07066" lon="6.21691">
        <ele>50</ele>
        <time>2015-09-04T15:14:24.000Z</time>
      </trkpt>
      <trkpt lat="43.07059" lon="6.21692">
        <ele>50</ele>
        <time>2015-09-04T15:14:25.000Z</time>
      </trkpt>
      <trkpt lat="43.07053" lon="6.21687">
        <ele>51</ele>
        <time>2015-09-04T15:14:26.000Z</time>
      </trkpt>
      <trkpt lat="43.07049" lon="6.21685">
        <ele>54</ele>
        <time>2015-09-04T15:14:27.000Z</time>
      </trkpt>
      <trkpt lat="43.0704" lon="6.21682">
        <ele>55</ele>
        <time>2015-09-04T15:14:28.000Z</time>
      </trkpt>
      <trkpt lat="43.07033" lon="6.2168">
        <ele>55</ele>
        <time>2015-09-04T15:14:29.000Z</time>
      </trkpt>
      <trkpt lat="43.07022" lon="6.21681">
        <ele>55</ele>
        <time>2015-09-04T15:14:30.000Z</time>
      </trkpt>
      <trkpt lat="43.07013" lon="6.21679">
        <ele>55</ele>
        <time>2015-09-04T15:14:31.000Z</time>
      </trkpt>
      <trkpt lat="43.07006" lon="6.21678">
        <ele>54</ele>
        <time>2015-09-04T15:14:32.000Z</time>
      </trkpt>
      <trkpt lat="43.07001" lon="6.21678">
        <ele>53</ele>
        <time>2015-09-04T15:14:33.000Z</time>
      </trkpt>
      <trkpt lat="43.06993" lon="6.21678">
        <ele>52</ele>
        <time>2015-09-04T15:14:34.000Z</time>
      </trkpt>
      <trkpt lat="43.0699" lon="6.21678">
        <ele>51</ele>
        <time>2015-09-04T15:14:35.000Z</time>
      </trkpt>
      <trkpt lat="43.0698" lon="6.21678">
        <ele>50</ele>
        <time>2015-09-04T15:14:36.000Z</time>
      </trkpt>
      <trkpt lat="43.0697" lon="6.21675">
        <ele>51</ele>
        <time>2015-09-04T15:14:37.000Z</time>
      </trkpt>
      <trkpt lat="43.06961" lon="6.21676">
        <ele>51</ele>
        <time>2015-09-04T15:14:38.000Z</time>
      </trkpt>
      <trkpt lat="43.06953" lon="6.21675">
        <ele>51</ele>
        <time>2015-09-04T15:14:39.000Z</time>
      </trkpt>
      <trkpt lat="43.06945" lon="6.21673">
        <ele>51</ele>
        <time>2015-09-04T15:14:40.000Z</time>
      </trkpt>
      <trkpt lat="43.06939" lon="6.21676">
        <ele>51</ele>
        <time>2015-09-04T15:14:41.000Z</time>
      </trkpt>
      <trkpt lat="43.06929" lon="6.21674">
        <ele>51</ele>
        <time>2015-09-04T15:14:42.000Z</time>
      </trkpt>
      <trkpt lat="43.06925" lon="6.21668">
        <ele>51</ele>
        <time>2015-09-04T15:14:43.000Z</time>
      </trkpt>
      <trkpt lat="43.06918" lon="6.21663">
        <ele>49</ele>
        <time>2015-09-04T15:14:44.000Z</time>
      </trkpt>
      <trkpt lat="43.06911" lon="6.21661">
        <ele>50</ele>
        <time>2015-09-04T15:14:45.000Z</time>
      </trkpt>
      <trkpt lat="43.06901" lon="6.21658">
        <ele>50</ele>
        <time>2015-09-04T15:14:46.000Z</time>
      </trkpt>
      <trkpt lat="43.06898" lon="6.21659">
        <ele>49</ele>
        <time>2015-09-04T15:14:47.000Z</time>
      </trkpt>
      <trkpt lat="43.06889" lon="6.21657">
        <ele>49</ele>
        <time>2015-09-04T15:14:48.000Z</time>
      </trkpt>
      <trkpt lat="43.0688" lon="6.21657">
        <ele>50</ele>
        <time>2015-09-04T15:14:49.000Z</time>
      </trkpt>
      <trkpt lat="43.06872" lon="6.21652">
        <ele>51</ele>
        <time>2015-09-04T15:14:50.000Z</time>
      </trkpt>
      <trkpt lat="43.06865" lon="6.21652">
        <ele>50</ele>
        <time>2015-09-04T15:14:51.000Z</time>
      </trkpt>
      <trkpt lat="43.06861" lon="6.21652">
        <ele>50</ele>
        <time>2015-09-04T15:14:52.000Z</time>
      </trkpt>
      <trkpt lat="43.06855" lon="6.21653">
        <ele>50</ele>
        <time>2015-09-04T15:14:53.000Z</time>
      </trkpt>
      <trkpt lat="43.06846" lon="6.2165">
        <ele>50</ele>
        <time>2015-09-04T15:14:54.000Z</time>
      </trkpt>
      <trkpt lat="43.06839" lon="6.21647">
        <ele>52</ele>
        <time>2015-09-04T15:14:55.000Z</time>
      </trkpt>
      <trkpt lat="43.06832" lon="6.21648">
        <ele>53</ele>
        <time>2015-09-04T15:14:56.000Z</time>
      </trkpt>
      <trkpt lat="43.06825" lon="6.2165">
        <ele>53</ele>
        <time>2015-09-04T15:14:57.000Z</time>
      </trkpt>
      <trkpt lat="43.06819" lon="6.2165">
        <ele>53</ele>
        <time>2015-09-04T15:14:58.000Z</time>
      </trkpt>
      <trkpt lat="43.06815" lon="6.2165">
        <ele>53</ele>
        <time>2015-09-04T15:14:59.000Z</time>
      </trkpt>
      <trkpt lat="43.06811" lon="6.21646">
        <ele>51</ele>
        <time>2015-09-04T15:15:00.000Z</time>
      </trkpt>
      <trkpt lat="43.06803" lon="6.21648">
        <ele>51</ele>
        <time>2015-09-04T15:15:01.000Z</time>
      </trkpt>
      <trkpt lat="43.06793" lon="6.2165">
        <ele>51</ele>
        <time>2015-09-04T15:15:02.000Z</time>
      </trkpt>
      <trkpt lat="43.06785" lon="6.21649">
        <ele>51</ele>
        <time>2015-09-04T15:15:03.000Z</time>
      </trkpt>
      <trkpt lat="43.06771" lon="6.21644">
        <ele>51</ele>
        <time>2015-09-04T15:15:04.000Z</time>
      </trkpt>
      <trkpt lat="43.06759" lon="6.21646">
        <ele>50</ele>
        <time>2015-09-04T15:15:05.000Z</time>
      </trkpt>
      <trkpt lat="43.06753" lon="6.21642">
        <ele>50</ele>
        <time>2015-09-04T15:15:06.000Z</time>
      </trkpt>
      <trkpt lat="43.06749" lon="6.21641">
        <ele>49</ele>
        <time>2015-09-04T15:15:07.000Z</time>
      </trkpt>
      <trkpt lat="43.06742" lon="6.2164">
        <ele>49</ele>
        <time>2015-09-04T15:15:08.000Z</time>
      </trkpt>
      <trkpt lat="43.06735" lon="6.2164">
        <ele>48</ele>
        <time>2015-09-04T15:15:09.000Z</time>
      </trkpt>
      <trkpt lat="43.06726" lon="6.21641">
        <ele>48</ele>
        <time>2015-09-04T15:15:10.000Z</time>
      </trkpt>
      <trkpt lat="43.06717" lon="6.2164">
        <ele>48</ele>
        <time>2015-09-04T15:15:11.000Z</time>
      </trkpt>
      <trkpt lat="43.06711" lon="6.21641">
        <ele>48</ele>
        <time>2015-09-04T15:15:12.000Z</time>
      </trkpt>
      <trkpt lat="43.06704" lon="6.21642">
        <ele>47</ele>
        <time>2015-09-04T15:15:13.000Z</time>
      </trkpt>
      <trkpt lat="43.06696" lon="6.21638">
        <ele>48</ele>
        <time>2015-09-04T15:15:14.000Z</time>
      </trkpt>
      <trkpt lat="43.06687" lon="6.21638">
        <ele>48</ele>
        <time>2015-09-04T15:15:15.000Z</time>
      </trkpt>
      <trkpt lat="43.06679" lon="6.21638">
        <ele>47</ele>
        <time>2015-09-04T15:15:16.000Z</time>
      </trkpt>
      <trkpt lat="43.06671" lon="6.21635">
        <ele>46</ele>
        <time>2015-09-04T15:15:17.000Z</time>
      </trkpt>
      <trkpt lat="43.06663" lon="6.21636">
        <ele>47</ele>
        <time>2015-09-04T15:15:18.000Z</time>
      </trkpt>
      <trkpt lat="43.06655" lon="6.21634">
        <ele>48</ele>
        <time>2015-09-04T15:15:19.000Z</time>
      </trkpt>
      <trkpt lat="43.06647" lon="6.21632">
        <ele>47</ele>
        <time>2015-09-04T15:15:20.000Z</time>
      </trkpt>
      <trkpt lat="43.06639" lon="6.21633">
        <ele>47</ele>
        <time>2015-09-04T15:15:21.000Z</time>
      </trkpt>
      <trkpt lat="43.06633" lon="6.21631">
        <ele>46</ele>
        <time>2015-09-04T15:15:22.000Z</time>
      </trkpt>
      <trkpt lat="43.06625" lon="6.2163">
        <ele>47</ele>
        <time>2015-09-04T15:15:23.000Z</time>
      </trkpt>
      <trkpt lat="43.06615" lon="6.21626">
        <ele>47</ele>
        <time>2015-09-04T15:15:24.000Z</time>
      </trkpt>
      <trkpt lat="43.06607" lon="6.21624">
        <ele>48</ele>
        <time>2015-09-04T15:15:25.000Z</time>
      </trkpt>
      <trkpt lat="43.06599" lon="6.21623">
        <ele>48</ele>
        <time>2015-09-04T15:15:26.000Z</time>
      </trkpt>
      <trkpt lat="43.06594" lon="6.21626">
        <ele>48</ele>
        <time>2015-09-04T15:15:27.000Z</time>
      </trkpt>
      <trkpt lat="43.06585" lon="6.21622">
        <ele>48</ele>
        <time>2015-09-04T15:15:28.000Z</time>
      </trkpt>
      <trkpt lat="43.0658" lon="6.2162">
        <ele>49</ele>
        <time>2015-09-04T15:15:29.000Z</time>
      </trkpt>
      <trkpt lat="43.06573" lon="6.2162">
        <ele>48</ele>
        <time>2015-09-04T15:15:30.000Z</time>
      </trkpt>
      <trkpt lat="43.06565" lon="6.2162">
        <ele>48</ele>
        <time>2015-09-04T15:15:31.000Z</time>
      </trkpt>
      <trkpt lat="43.06561" lon="6.21621">
        <ele>47</ele>
        <time>2015-09-04T15:15:32.000Z</time>
      </trkpt>
      <trkpt lat="43.06552" lon="6.21622">
        <ele>47</ele>
        <time>2015-09-04T15:15:33.000Z</time>
      </trkpt>
      <trkpt lat="43.06542" lon="6.21616">
        <ele>46</ele>
        <time>2015-09-04T15:15:34.000Z</time>
      </trkpt>
      <trkpt lat="43.06532" lon="6.21612">
        <ele>45</ele>
        <time>2015-09-04T15:15:35.000Z</time>
      </trkpt>
      <trkpt lat="43.06522" lon="6.21615">
        <ele>46</ele>
        <time>2015-09-04T15:15:36.000Z</time>
      </trkpt>
      <trkpt lat="43.06514" lon="6.21616">
        <ele>46</ele>
        <time>2015-09-04T15:15:37.000Z</time>
      </trkpt>
      <trkpt lat="43.06507" lon="6.21617">
        <ele>47</ele>
        <time>2015-09-04T15:15:38.000Z</time>
      </trkpt>
      <trkpt lat="43.06499" lon="6.21614">
        <ele>46</ele>
        <time>2015-09-04T15:15:39.000Z</time>
      </trkpt>
      <trkpt lat="43.06492" lon="6.21613">
        <ele>44</ele>
        <time>2015-09-04T15:15:40.000Z</time>
      </trkpt>
      <trkpt lat="43.06485" lon="6.21611">
        <ele>45</ele>
        <time>2015-09-04T15:15:41.000Z</time>
      </trkpt>
      <trkpt lat="43.06476" lon="6.21609">
        <ele>44</ele>
        <time>2015-09-04T15:15:42.000Z</time>
      </trkpt>
      <trkpt lat="43.0647" lon="6.21609">
        <ele>46</ele>
        <time>2015-09-04T15:15:43.000Z</time>
      </trkpt>
      <trkpt lat="43.06465" lon="6.21606">
        <ele>44</ele>
        <time>2015-09-04T15:15:44.000Z</time>
      </trkpt>
      <trkpt lat="43.06457" lon="6.21602">
        <ele>47</ele>
        <time>2015-09-04T15:15:45.000Z</time>
      </trkpt>
      <trkpt lat="43.06448" lon="6.21599">
        <ele>47</ele>
        <time>2015-09-04T15:15:46.000Z</time>
      </trkpt>
      <trkpt lat="43.06439" lon="6.21599">
        <ele>47</ele>
        <time>2015-09-04T15:15:47.000Z</time>
      </trkpt>
      <trkpt lat="43.06433" lon="6.21598">
        <ele>47</ele>
        <time>2015-09-04T15:15:48.000Z</time>
      </trkpt>
      <trkpt lat="43.06427" lon="6.21596">
        <ele>45</ele>
        <time>2015-09-04T15:15:49.000Z</time>
      </trkpt>
      <trkpt lat="43.0642" lon="6.21596">
        <ele>45</ele>
        <time>2015-09-04T15:15:50.000Z</time>
      </trkpt>
      <trkpt lat="43.06417" lon="6.21597">
        <ele>46</ele>
        <time>2015-09-04T15:15:51.000Z</time>
      </trkpt>
      <trkpt lat="43.06407" lon="6.21596">
        <ele>46</ele>
        <time>2015-09-04T15:15:52.000Z</time>
      </trkpt>
      <trkpt lat="43.06398" lon="6.21594">
        <ele>46</ele>
        <time>2015-09-04T15:15:53.000Z</time>
      </trkpt>
      <trkpt lat="43.06393" lon="6.21595">
        <ele>46</ele>
        <time>2015-09-04T15:15:54.000Z</time>
      </trkpt>
      <trkpt lat="43.06386" lon="6.21592">
        <ele>46</ele>
        <time>2015-09-04T15:15:55.000Z</time>
      </trkpt>
      <trkpt lat="43.06378" lon="6.21589">
        <ele>47</ele>
        <time>2015-09-04T15:15:56.000Z</time>
      </trkpt>
      <trkpt lat="43.06371" lon="6.21588">
        <ele>48</ele>
        <time>2015-09-04T15:15:57.000Z</time>
      </trkpt>
      <trkpt lat="43.06363" lon="6.21584">
        <ele>49</ele>
        <time>2015-09-04T15:15:58.000Z</time>
      </trkpt>
      <trkpt lat="43.06355" lon="6.21583">
        <ele>49</ele>
        <time>2015-09-04T15:15:59.000Z</time>
      </trkpt>
      <trkpt lat="43.06347" lon="6.21583">
        <ele>49</ele>
        <time>2015-09-04T15:16:00.000Z</time>
      </trkpt>
      <trkpt lat="43.0634" lon="6.21582">
        <ele>49</ele>
        <time>2015-09-04T15:16:01.000Z</time>
      </trkpt>
      <trkpt lat="43.06333" lon="6.21582">
        <ele>48</ele>
        <time>2015-09-04T15:16:02.000Z</time>
      </trkpt>
      <trkpt lat="43.06327" lon="6.21583">
        <ele>47</ele>
        <time>2015-09-04T15:16:03.000Z</time>
      </trkpt>
      <trkpt lat="43.06322" lon="6.21583">
        <ele>47</ele>
        <time>2015-09-04T15:16:04.000Z</time>
      </trkpt>
      <trkpt lat="43.06314" lon="6.2158">
        <ele>48</ele>
        <time>2015-09-04T15:16:05.000Z</time>
      </trkpt>
      <trkpt lat="43.06304" lon="6.21576">
        <ele>48</ele>
        <time>2015-09-04T15:16:06.000Z</time>
      </trkpt>
      <trkpt lat="43.06294" lon="6.21574">
        <ele>50</ele>
        <time>2015-09-04T15:16:07.000Z</time>
      </trkpt>
      <trkpt lat="43.06288" lon="6.21574">
        <ele>50</ele>
        <time>2015-09-04T15:16:08.000Z</time>
      </trkpt>
      <trkpt lat="43.0628" lon="6.21575">
        <ele>50</ele>
        <time>2015-09-04T15:16:09.000Z</time>
      </trkpt>
      <trkpt lat="43.06276" lon="6.21574">
        <ele>50</ele>
        <time>2015-09-04T15:16:10.000Z</time>
      </trkpt>
      <trkpt lat="43.06269" lon="6.21573">
        <ele>50</ele>
        <time>2015-09-04T15:16:11.000Z</time>
      </trkpt>
      <trkpt lat="43.0626" lon="6.21568">
        <ele>51</ele>
        <time>2015-09-04T15:16:12.000Z</time>
      </trkpt>
      <trkpt lat="43.06253" lon="6.21565">
        <ele>52</ele>
        <time>2015-09-04T15:16:13.000Z</time>
      </trkpt>
      <trkpt lat="43.06246" lon="6.21565">
        <ele>51</ele>
        <time>2015-09-04T15:16:14.000Z</time>
      </trkpt>
      <trkpt lat="43.06239" lon="6.21563">
        <ele>53</ele>
        <time>2015-09-04T15:16:15.000Z</time>
      </trkpt>
      <trkpt lat="43.06231" lon="6.21561">
        <ele>54</ele>
        <time>2015-09-04T15:16:16.000Z</time>
      </trkpt>
      <trkpt lat="43.06223" lon="6.21558">
        <ele>52</ele>
        <time>2015-09-04T15:16:17.000Z</time>
      </trkpt>
      <trkpt lat="43.06216" lon="6.21559">
        <ele>52</ele>
        <time>2015-09-04T15:16:18.000Z</time>
      </trkpt>
      <trkpt lat="43.06209" lon="6.21558">
        <ele>52</ele>
        <time>2015-09-04T15:16:19.000Z</time>
      </trkpt>
      <trkpt lat="43.06202" lon="6.21556">
        <ele>52</ele>
        <time>2015-09-04T15:16:20.000Z</time>
      </trkpt>
      <trkpt lat="43.06195" lon="6.21557">
        <ele>51</ele>
        <time>2015-09-04T15:16:21.000Z</time>
      </trkpt>
      <trkpt lat="43.06187" lon="6.21557">
        <ele>51</ele>
        <time>2015-09-04T15:16:22.000Z</time>
      </trkpt>
      <trkpt lat="43.06178" lon="6.21559">
        <ele>53</ele>
        <time>2015-09-04T15:16:23.000Z</time>
      </trkpt>
      <trkpt lat="43.0617" lon="6.21559">
        <ele>53</ele>
        <time>2015-09-04T15:16:24.000Z</time>
      </trkpt>
      <trkpt lat="43.06162" lon="6.21559">
        <ele>55</ele>
        <time>2015-09-04T15:16:25.000Z</time>
      </trkpt>
      <trkpt lat="43.06155" lon="6.21562">
        <ele>56</ele>
        <time>2015-09-04T15:16:26.000Z</time>
      </trkpt>
      <trkpt lat="43.06147" lon="6.21563">
        <ele>55</ele>
        <time>2015-09-04T15:16:27.000Z</time>
      </trkpt>
      <trkpt lat="43.0614" lon="6.21563">
        <ele>56</ele>
        <time>2015-09-04T15:16:28.000Z</time>
      </trkpt>
      <trkpt lat="43.06133" lon="6.21563">
        <ele>58</ele>
        <time>2015-09-04T15:16:29.000Z</time>
      </trkpt>
      <trkpt lat="43.06123" lon="6.21559">
        <ele>57</ele>
        <time>2015-09-04T15:16:30.000Z</time>
      </trkpt>
      <trkpt lat="43.06117" lon="6.21559">
        <ele>56</ele>
        <time>2015-09-04T15:16:31.000Z</time>
      </trkpt>
      <trkpt lat="43.0611" lon="6.21556">
        <ele>56</ele>
        <time>2015-09-04T15:16:32.000Z</time>
      </trkpt>
      <trkpt lat="43.06104" lon="6.21552">
        <ele>57</ele>
        <time>2015-09-04T15:16:33.000Z</time>
      </trkpt>
      <trkpt lat="43.06098" lon="6.21548">
        <ele>55</ele>
        <time>2015-09-04T15:16:34.000Z</time>
      </trkpt>
      <trkpt lat="43.06091" lon="6.21544">
        <ele>56</ele>
        <time>2015-09-04T15:16:35.000Z</time>
      </trkpt>
      <trkpt lat="43.06085" lon="6.21543">
        <ele>57</ele>
        <time>2015-09-04T15:16:36.000Z</time>
      </trkpt>
      <trkpt lat="43.06078" lon="6.21541">
        <ele>57</ele>
        <time>2015-09-04T15:16:37.000Z</time>
      </trkpt>
      <trkpt lat="43.0607" lon="6.21537">
        <ele>56</ele>
        <time>2015-09-04T15:16:38.000Z</time>
      </trkpt>
      <trkpt lat="43.06065" lon="6.21535">
        <ele>55</ele>
        <time>2015-09-04T15:16:39.000Z</time>
      </trkpt>
      <trkpt lat="43.0606" lon="6.21533">
        <ele>55</ele>
        <time>2015-09-04T15:16:40.000Z</time>
      </trkpt>
      <trkpt lat="43.06051" lon="6.21531">
        <ele>54</ele>
        <time>2015-09-04T15:16:41.000Z</time>
      </trkpt>
      <trkpt lat="43.06045" lon="6.21529">
        <ele>55</ele>
        <time>2015-09-04T15:16:42.000Z</time>
      </trkpt>
      <trkpt lat="43.06035" lon="6.21527">
        <ele>56</ele>
        <time>2015-09-04T15:16:43.000Z</time>
      </trkpt>
      <trkpt lat="43.06029" lon="6.21527">
        <ele>58</ele>
        <time>2015-09-04T15:16:44.000Z</time>
      </trkpt>
      <trkpt lat="43.06022" lon="6.21526">
        <ele>60</ele>
        <time>2015-09-04T15:16:45.000Z</time>
      </trkpt>
      <trkpt lat="43.06013" lon="6.21522">
        <ele>59</ele>
        <time>2015-09-04T15:16:46.000Z</time>
      </trkpt>
      <trkpt lat="43.06006" lon="6.21521">
        <ele>59</ele>
        <time>2015-09-04T15:16:47.000Z</time>
      </trkpt>
      <trkpt lat="43.05999" lon="6.21523">
        <ele>59</ele>
        <time>2015-09-04T15:16:48.000Z</time>
      </trkpt>
      <trkpt lat="43.05991" lon="6.21523">
        <ele>59</ele>
        <time>2015-09-04T15:16:49.000Z</time>
      </trkpt>
      <trkpt lat="43.05985" lon="6.21527">
        <ele>60</ele>
        <time>2015-09-04T15:16:50.000Z</time>
      </trkpt>
      <trkpt lat="43.05976" lon="6.21522">
        <ele>60</ele>
        <time>2015-09-04T15:16:51.000Z</time>
      </trkpt>
      <trkpt lat="43.05972" lon="6.21519">
        <ele>60</ele>
        <time>2015-09-04T15:16:52.000Z</time>
      </trkpt>
      <trkpt lat="43.05964" lon="6.2151">
        <ele>58</ele>
        <time>2015-09-04T15:16:53.000Z</time>
      </trkpt>
      <trkpt lat="43.05957" lon="6.21505">
        <ele>58</ele>
        <time>2015-09-04T15:16:54.000Z</time>
      </trkpt>
      <trkpt lat="43.05951" lon="6.21498">
        <ele>58</ele>
        <time>2015-09-04T15:16:55.000Z</time>
      </trkpt>
      <trkpt lat="43.05944" lon="6.21496">
        <ele>58</ele>
        <time>2015-09-04T15:16:56.000Z</time>
      </trkpt>
      <trkpt lat="43.05937" lon="6.21496">
        <ele>58</ele>
        <time>2015-09-04T15:16:57.000Z</time>
      </trkpt>
      <trkpt lat="43.05927" lon="6.21491">
        <ele>57</ele>
        <time>2015-09-04T15:16:58.000Z</time>
      </trkpt>
      <trkpt lat="43.0592" lon="6.21495">
        <ele>58</ele>
        <time>2015-09-04T15:16:59.000Z</time>
      </trkpt>
      <trkpt lat="43.05912" lon="6.21489">
        <ele>56</ele>
        <time>2015-09-04T15:17:00.000Z</time>
      </trkpt>
      <trkpt lat="43.05904" lon="6.21489">
        <ele>56</ele>
        <time>2015-09-04T15:17:01.000Z</time>
      </trkpt>
      <trkpt lat="43.05897" lon="6.21486">
        <ele>55</ele>
        <time>2015-09-04T15:17:02.000Z</time>
      </trkpt>
      <trkpt lat="43.05891" lon="6.21484">
        <ele>53</ele>
        <time>2015-09-04T15:17:03.000Z</time>
      </trkpt>
      <trkpt lat="43.05884" lon="6.21482">
        <ele>52</ele>
        <time>2015-09-04T15:17:04.000Z</time>
      </trkpt>
      <trkpt lat="43.05879" lon="6.2148">
        <ele>51</ele>
        <time>2015-09-04T15:17:05.000Z</time>
      </trkpt>
      <trkpt lat="43.05872" lon="6.21477">
        <ele>50</ele>
        <time>2015-09-04T15:17:06.000Z</time>
      </trkpt>
      <trkpt lat="43.05865" lon="6.21475">
        <ele>51</ele>
        <time>2015-09-04T15:17:07.000Z</time>
      </trkpt>
      <trkpt lat="43.05858" lon="6.21474">
        <ele>54</ele>
        <time>2015-09-04T15:17:08.000Z</time>
      </trkpt>
      <trkpt lat="43.05852" lon="6.21473">
        <ele>55</ele>
        <time>2015-09-04T15:17:09.000Z</time>
      </trkpt>
      <trkpt lat="43.05845" lon="6.21471">
        <ele>56</ele>
        <time>2015-09-04T15:17:10.000Z</time>
      </trkpt>
      <trkpt lat="43.05837" lon="6.21467">
        <ele>56</ele>
        <time>2015-09-04T15:17:11.000Z</time>
      </trkpt>
      <trkpt lat="43.05829" lon="6.21464">
        <ele>53</ele>
        <time>2015-09-04T15:17:12.000Z</time>
      </trkpt>
      <trkpt lat="43.05821" lon="6.21464">
        <ele>53</ele>
        <time>2015-09-04T15:17:13.000Z</time>
      </trkpt>
      <trkpt lat="43.05815" lon="6.21464">
        <ele>53</ele>
        <time>2015-09-04T15:17:14.000Z</time>
      </trkpt>
      <trkpt lat="43.05806" lon="6.21461">
        <ele>52</ele>
        <time>2015-09-04T15:17:15.000Z</time>
      </trkpt>
      <trkpt lat="43.058" lon="6.21459">
        <ele>52</ele>
        <time>2015-09-04T15:17:16.000Z</time>
      </trkpt>
      <trkpt lat="43.05792" lon="6.21457">
        <ele>50</ele>
        <time>2015-09-04T15:17:17.000Z</time>
      </trkpt>
      <trkpt lat="43.05786" lon="6.21457">
        <ele>51</ele>
        <time>2015-09-04T15:17:18.000Z</time>
      </trkpt>
      <trkpt lat="43.05781" lon="6.21457">
        <ele>52</ele>
        <time>2015-09-04T15:17:19.000Z</time>
      </trkpt>
      <trkpt lat="43.05773" lon="6.21453">
        <ele>51</ele>
        <time>2015-09-04T15:17:20.000Z</time>
      </trkpt>
      <trkpt lat="43.05765" lon="6.21451">
        <ele>51</ele>
        <time>2015-09-04T15:17:21.000Z</time>
      </trkpt>
      <trkpt lat="43.05758" lon="6.21449">
        <ele>51</ele>
        <time>2015-09-04T15:17:22.000Z</time>
      </trkpt>
      <trkpt lat="43.05752" lon="6.21448">
        <ele>51</ele>
        <time>2015-09-04T15:17:23.000Z</time>
      </trkpt>
      <trkpt lat="43.05744" lon="6.21446">
        <ele>51</ele>
        <time>2015-09-04T15:17:24.000Z</time>
      </trkpt>
      <trkpt lat="43.05737" lon="6.21446">
        <ele>50</ele>
        <time>2015-09-04T15:17:25.000Z</time>
      </trkpt>
      <trkpt lat="43.0573" lon="6.21442">
        <ele>50</ele>
        <time>2015-09-04T15:17:26.000Z</time>
      </trkpt>
      <trkpt lat="43.05723" lon="6.21442">
        <ele>51</ele>
        <time>2015-09-04T15:17:27.000Z</time>
      </trkpt>
      <trkpt lat="43.05713" lon="6.21438">
        <ele>49</ele>
        <time>2015-09-04T15:17:28.000Z</time>
      </trkpt>
      <trkpt lat="43.05706" lon="6.21438">
        <ele>50</ele>
        <time>2015-09-04T15:17:29.000Z</time>
      </trkpt>
      <trkpt lat="43.05699" lon="6.21432">
        <ele>49</ele>
        <time>2015-09-04T15:17:30.000Z</time>
      </trkpt>
      <trkpt lat="43.0569" lon="6.21425">
        <ele>49</ele>
        <time>2015-09-04T15:17:31.000Z</time>
      </trkpt>
      <trkpt lat="43.0568" lon="6.21423">
        <ele>49</ele>
        <time>2015-09-04T15:17:32.000Z</time>
      </trkpt>
      <trkpt lat="43.05675" lon="6.21418">
        <ele>48</ele>
        <time>2015-09-04T15:17:33.000Z</time>
      </trkpt>
      <trkpt lat="43.05669" lon="6.21414">
        <ele>48</ele>
        <time>2015-09-04T15:17:34.000Z</time>
      </trkpt>
      <trkpt lat="43.05669" lon="6.21421">
        <ele>47</ele>
        <time>2015-09-04T15:17:35.000Z</time>
      </trkpt>
      <trkpt lat="43.05663" lon="6.21422">
        <ele>46</ele>
        <time>2015-09-04T15:17:36.000Z</time>
      </trkpt>
      <trkpt lat="43.05653" lon="6.21419">
        <ele>44</ele>
        <time>2015-09-04T15:17:37.000Z</time>
      </trkpt>
      <trkpt lat="43.05648" lon="6.21421">
        <ele>45</ele>
        <time>2015-09-04T15:17:38.000Z</time>
      </trkpt>
      <trkpt lat="43.05638" lon="6.21414">
        <ele>46</ele>
        <time>2015-09-04T15:17:39.000Z</time>
      </trkpt>
      <trkpt lat="43.05629" lon="6.21411">
        <ele>47</ele>
        <time>2015-09-04T15:17:40.000Z</time>
      </trkpt>
      <trkpt lat="43.05621" lon="6.21412">
        <ele>46</ele>
        <time>2015-09-04T15:17:41.000Z</time>
      </trkpt>
      <trkpt lat="43.05612" lon="6.21409">
        <ele>46</ele>
        <time>2015-09-04T15:17:42.000Z</time>
      </trkpt>
      <trkpt lat="43.05606" lon="6.21407">
        <ele>47</ele>
        <time>2015-09-04T15:17:43.000Z</time>
      </trkpt>
      <trkpt lat="43.05599" lon="6.21405">
        <ele>48</ele>
        <time>2015-09-04T15:17:44.000Z</time>
      </trkpt>
      <trkpt lat="43.05593" lon="6.21403">
        <ele>49</ele>
        <time>2015-09-04T15:17:45.000Z</time>
      </trkpt>
      <trkpt lat="43.05588" lon="6.21399">
        <ele>47</ele>
        <time>2015-09-04T15:17:46.000Z</time>
      </trkpt>
      <trkpt lat="43.05582" lon="6.21399">
        <ele>48</ele>
        <time>2015-09-04T15:17:47.000Z</time>
      </trkpt>
      <trkpt lat="43.05574" lon="6.214">
        <ele>51</ele>
        <time>2015-09-04T15:17:48.000Z</time>
      </trkpt>
      <trkpt lat="43.05566" lon="6.21398">
        <ele>50</ele>
        <time>2015-09-04T15:17:49.000Z</time>
      </trkpt>
      <trkpt lat="43.05559" lon="6.21396">
        <ele>51</ele>
        <time>2015-09-04T15:17:50.000Z</time>
      </trkpt>
      <trkpt lat="43.05552" lon="6.21395">
        <ele>51</ele>
        <time>2015-09-04T15:17:51.000Z</time>
      </trkpt>
      <trkpt lat="43.05546" lon="6.21393">
        <ele>50</ele>
        <time>2015-09-04T15:17:52.000Z</time>
      </trkpt>
      <trkpt lat="43.0554" lon="6.2139">
        <ele>51</ele>
        <time>2015-09-04T15:17:53.000Z</time>
      </trkpt>
      <trkpt lat="43.05533" lon="6.21386">
        <ele>51</ele>
        <time>2015-09-04T15:17:54.000Z</time>
      </trkpt>
      <trkpt lat="43.05527" lon="6.21384">
        <ele>51</ele>
        <time>2015-09-04T15:17:55.000Z</time>
      </trkpt>
      <trkpt lat="43.05519" lon="6.21381">
        <ele>51</ele>
        <time>2015-09-04T15:17:56.000Z</time>
      </trkpt>
      <trkpt lat="43.05514" lon="6.21376">
        <ele>51</ele>
        <time>2015-09-04T15:17:57.000Z</time>
      </trkpt>
      <trkpt lat="43.05507" lon="6.21374">
        <ele>51</ele>
        <time>2015-09-04T15:17:58.000Z</time>
      </trkpt>
      <trkpt lat="43.05499" lon="6.21372">
        <ele>49</ele>
        <time>2015-09-04T15:17:59.000Z</time>
      </trkpt>
      <trkpt lat="43.05492" lon="6.2137">
        <ele>47</ele>
        <time>2015-09-04T15:18:00.000Z</time>
      </trkpt>
      <trkpt lat="43.05485" lon="6.21369">
        <ele>48</ele>
        <time>2015-09-04T15:18:01.000Z</time>
      </trkpt>
      <trkpt lat="43.05482" lon="6.21366">
        <ele>45</ele>
        <time>2015-09-04T15:18:02.000Z</time>
      </trkpt>
      <trkpt lat="43.05475" lon="6.21365">
        <ele>46</ele>
        <time>2015-09-04T15:18:03.000Z</time>
      </trkpt>
      <trkpt lat="43.05469" lon="6.21362">
        <ele>45</ele>
        <time>2015-09-04T15:18:04.000Z</time>
      </trkpt>
      <trkpt lat="43.05462" lon="6.21358">
        <ele>43</ele>
        <time>2015-09-04T15:18:05.000Z</time>
      </trkpt>
      <trkpt lat="43.05456" lon="6.21358">
        <ele>43</ele>
        <time>2015-09-04T15:18:06.000Z</time>
      </trkpt>
      <trkpt lat="43.05446" lon="6.21356">
        <ele>44</ele>
        <time>2015-09-04T15:18:07.000Z</time>
      </trkpt>
      <trkpt lat="43.05437" lon="6.21355">
        <ele>45</ele>
        <time>2015-09-04T15:18:08.000Z</time>
      </trkpt>
      <trkpt lat="43.05431" lon="6.21353">
        <ele>44</ele>
        <time>2015-09-04T15:18:09.000Z</time>
      </trkpt>
      <trkpt lat="43.05424" lon="6.21349">
        <ele>44</ele>
        <time>2015-09-04T15:18:10.000Z</time>
      </trkpt>
      <trkpt lat="43.05417" lon="6.21346">
        <ele>45</ele>
        <time>2015-09-04T15:18:11.000Z</time>
      </trkpt>
      <trkpt lat="43.0541" lon="6.21343">
        <ele>45</ele>
        <time>2015-09-04T15:18:12.000Z</time>
      </trkpt>
      <trkpt lat="43.05405" lon="6.21339">
        <ele>45</ele>
        <time>2015-09-04T15:18:13.000Z</time>
      </trkpt>
      <trkpt lat="43.05397" lon="6.21337">
        <ele>47</ele>
        <time>2015-09-04T15:18:14.000Z</time>
      </trkpt>
      <trkpt lat="43.05392" lon="6.21334">
        <ele>46</ele>
        <time>2015-09-04T15:18:15.000Z</time>
      </trkpt>
      <trkpt lat="43.05385" lon="6.21332">
        <ele>45</ele>
        <time>2015-09-04T15:18:16.000Z</time>
      </trkpt>
      <trkpt lat="43.05378" lon="6.21329">
        <ele>43</ele>
        <time>2015-09-04T15:18:17.000Z</time>
      </trkpt>
      <trkpt lat="43.0537" lon="6.21328">
        <ele>44</ele>
        <time>2015-09-04T15:18:18.000Z</time>
      </trkpt>
      <trkpt lat="43.05363" lon="6.21325">
        <ele>44</ele>
        <time>2015-09-04T15:18:19.000Z</time>
      </trkpt>
      <trkpt lat="43.05354" lon="6.21324">
        <ele>46</ele>
        <time>2015-09-04T15:18:20.000Z</time>
      </trkpt>
      <trkpt lat="43.05345" lon="6.21322">
        <ele>47</ele>
        <time>2015-09-04T15:18:21.000Z</time>
      </trkpt>
      <trkpt lat="43.05339" lon="6.21321">
        <ele>48</ele>
        <time>2015-09-04T15:18:22.000Z</time>
      </trkpt>
      <trkpt lat="43.05331" lon="6.21321">
        <ele>48</ele>
        <time>2015-09-04T15:18:23.000Z</time>
      </trkpt>
      <trkpt lat="43.05324" lon="6.2132">
        <ele>50</ele>
        <time>2015-09-04T15:18:24.000Z</time>
      </trkpt>
      <trkpt lat="43.05316" lon="6.21317">
        <ele>50</ele>
        <time>2015-09-04T15:18:25.000Z</time>
      </trkpt>
      <trkpt lat="43.05308" lon="6.21316">
        <ele>51</ele>
        <time>2015-09-04T15:18:26.000Z</time>
      </trkpt>
      <trkpt lat="43.053" lon="6.21316">
        <ele>51</ele>
        <time>2015-09-04T15:18:27.000Z</time>
      </trkpt>
      <trkpt lat="43.05292" lon="6.21314">
        <ele>51</ele>
        <time>2015-09-04T15:18:28.000Z</time>
      </trkpt>
      <trkpt lat="43.05286" lon="6.21313">
        <ele>50</ele>
        <time>2015-09-04T15:18:29.000Z</time>
      </trkpt>
      <trkpt lat="43.05277" lon="6.21307">
        <ele>49</ele>
        <time>2015-09-04T15:18:30.000Z</time>
      </trkpt>
      <trkpt lat="43.05271" lon="6.21306">
        <ele>49</ele>
        <time>2015-09-04T15:18:31.000Z</time>
      </trkpt>
      <trkpt lat="43.05265" lon="6.21306">
        <ele>49</ele>
        <time>2015-09-04T15:18:32.000Z</time>
      </trkpt>
      <trkpt lat="43.05258" lon="6.21306">
        <ele>49</ele>
        <time>2015-09-04T15:18:33.000Z</time>
      </trkpt>
      <trkpt lat="43.05253" lon="6.21303">
        <ele>49</ele>
        <time>2015-09-04T15:18:34.000Z</time>
      </trkpt>
      <trkpt lat="43.05246" lon="6.21299">
        <ele>47</ele>
        <time>2015-09-04T15:18:35.000Z</time>
      </trkpt>
      <trkpt lat="43.0524" lon="6.21295">
        <ele>47</ele>
        <time>2015-09-04T15:18:36.000Z</time>
      </trkpt>
      <trkpt lat="43.05234" lon="6.21293">
        <ele>47</ele>
        <time>2015-09-04T15:18:37.000Z</time>
      </trkpt>
      <trkpt lat="43.05226" lon="6.2129">
        <ele>47</ele>
        <time>2015-09-04T15:18:38.000Z</time>
      </trkpt>
      <trkpt lat="43.05219" lon="6.21289">
        <ele>47</ele>
        <time>2015-09-04T15:18:39.000Z</time>
      </trkpt>
      <trkpt lat="43.0521" lon="6.21287">
        <ele>46</ele>
        <time>2015-09-04T15:18:40.000Z</time>
      </trkpt>
      <trkpt lat="43.05202" lon="6.21283">
        <ele>45</ele>
        <time>2015-09-04T15:18:41.000Z</time>
      </trkpt>
      <trkpt lat="43.05194" lon="6.21279">
        <ele>45</ele>
        <time>2015-09-04T15:18:42.000Z</time>
      </trkpt>
      <trkpt lat="43.05186" lon="6.21276">
        <ele>47</ele>
        <time>2015-09-04T15:18:43.000Z</time>
      </trkpt>
      <trkpt lat="43.0518" lon="6.21273">
        <ele>46</ele>
        <time>2015-09-04T15:18:44.000Z</time>
      </trkpt>
      <trkpt lat="43.05172" lon="6.2127">
        <ele>47</ele>
        <time>2015-09-04T15:18:45.000Z</time>
      </trkpt>
      <trkpt lat="43.05166" lon="6.21268">
        <ele>46</ele>
        <time>2015-09-04T15:18:46.000Z</time>
      </trkpt>
      <trkpt lat="43.0516" lon="6.21266">
        <ele>46</ele>
        <time>2015-09-04T15:18:47.000Z</time>
      </trkpt>
      <trkpt lat="43.05154" lon="6.21261">
        <ele>47</ele>
        <time>2015-09-04T15:18:48.000Z</time>
      </trkpt>
      <trkpt lat="43.05145" lon="6.21261">
        <ele>47</ele>
        <time>2015-09-04T15:18:49.000Z</time>
      </trkpt>
      <trkpt lat="43.0514" lon="6.21259">
        <ele>47</ele>
        <time>2015-09-04T15:18:50.000Z</time>
      </trkpt>
      <trkpt lat="43.05133" lon="6.21257">
        <ele>45</ele>
        <time>2015-09-04T15:18:51.000Z</time>
      </trkpt>
      <trkpt lat="43.05128" lon="6.21255">
        <ele>46</ele>
        <time>2015-09-04T15:18:52.000Z</time>
      </trkpt>
      <trkpt lat="43.0512" lon="6.21254">
        <ele>47</ele>
        <time>2015-09-04T15:18:53.000Z</time>
      </trkpt>
      <trkpt lat="43.05112" lon="6.21252">
        <ele>47</ele>
        <time>2015-09-04T15:18:54.000Z</time>
      </trkpt>
      <trkpt lat="43.05105" lon="6.2125">
        <ele>48</ele>
        <time>2015-09-04T15:18:55.000Z</time>
      </trkpt>
      <trkpt lat="43.051" lon="6.21248">
        <ele>47</ele>
        <time>2015-09-04T15:18:56.000Z</time>
      </trkpt>
      <trkpt lat="43.05092" lon="6.21246">
        <ele>46</ele>
        <time>2015-09-04T15:18:57.000Z</time>
      </trkpt>
      <trkpt lat="43.05086" lon="6.21243">
        <ele>46</ele>
        <time>2015-09-04T15:18:58.000Z</time>
      </trkpt>
      <trkpt lat="43.05079" lon="6.21235">
        <ele>45</ele>
        <time>2015-09-04T15:18:59.000Z</time>
      </trkpt>
      <trkpt lat="43.05074" lon="6.21234">
        <ele>46</ele>
        <time>2015-09-04T15:19:00.000Z</time>
      </trkpt>
      <trkpt lat="43.05068" lon="6.21232">
        <ele>48</ele>
        <time>2015-09-04T15:19:01.000Z</time>
      </trkpt>
      <trkpt lat="43.05062" lon="6.21229">
        <ele>49</ele>
        <time>2015-09-04T15:19:02.000Z</time>
      </trkpt>
      <trkpt lat="43.05055" lon="6.2123">
        <ele>48</ele>
        <time>2015-09-04T15:19:03.000Z</time>
      </trkpt>
      <trkpt lat="43.05047" lon="6.21228">
        <ele>47</ele>
        <time>2015-09-04T15:19:04.000Z</time>
      </trkpt>
      <trkpt lat="43.0504" lon="6.21226">
        <ele>47</ele>
        <time>2015-09-04T15:19:05.000Z</time>
      </trkpt>
      <trkpt lat="43.05033" lon="6.21225">
        <ele>47</ele>
        <time>2015-09-04T15:19:06.000Z</time>
      </trkpt>
      <trkpt lat="43.05026" lon="6.21225">
        <ele>47</ele>
        <time>2015-09-04T15:19:07.000Z</time>
      </trkpt>
      <trkpt lat="43.05019" lon="6.21223">
        <ele>47</ele>
        <time>2015-09-04T15:19:08.000Z</time>
      </trkpt>
      <trkpt lat="43.05011" lon="6.21219">
        <ele>48</ele>
        <time>2015-09-04T15:19:09.000Z</time>
      </trkpt>
      <trkpt lat="43.05003" lon="6.21218">
        <ele>48</ele>
        <time>2015-09-04T15:19:10.000Z</time>
      </trkpt>
      <trkpt lat="43.04996" lon="6.21218">
        <ele>48</ele>
        <time>2015-09-04T15:19:11.000Z</time>
      </trkpt>
      <trkpt lat="43.04992" lon="6.21219">
        <ele>48</ele>
        <time>2015-09-04T15:19:12.000Z</time>
      </trkpt>
      <trkpt lat="43.04985" lon="6.21217">
        <ele>49</ele>
        <time>2015-09-04T15:19:13.000Z</time>
      </trkpt>
      <trkpt lat="43.04977" lon="6.21216">
        <ele>49</ele>
        <time>2015-09-04T15:19:14.000Z</time>
      </trkpt>
      <trkpt lat="43.0497" lon="6.21212">
        <ele>50</ele>
        <time>2015-09-04T15:19:15.000Z</time>
      </trkpt>
      <trkpt lat="43.04963" lon="6.21209">
        <ele>50</ele>
        <time>2015-09-04T15:19:16.000Z</time>
      </trkpt>
      <trkpt lat="43.04954" lon="6.21209">
        <ele>50</ele>
        <time>2015-09-04T15:19:17.000Z</time>
      </trkpt>
      <trkpt lat="43.04947" lon="6.21208">
        <ele>50</ele>
        <time>2015-09-04T15:19:18.000Z</time>
      </trkpt>
      <trkpt lat="43.04938" lon="6.21206">
        <ele>50</ele>
        <time>2015-09-04T15:19:19.000Z</time>
      </trkpt>
      <trkpt lat="43.04932" lon="6.21202">
        <ele>48</ele>
        <time>2015-09-04T15:19:20.000Z</time>
      </trkpt>
      <trkpt lat="43.04925" lon="6.21202">
        <ele>48</ele>
        <time>2015-09-04T15:19:21.000Z</time>
      </trkpt>
      <trkpt lat="43.04918" lon="6.21197">
        <ele>48</ele>
        <time>2015-09-04T15:19:22.000Z</time>
      </trkpt>
      <trkpt lat="43.04911" lon="6.21193">
        <ele>49</ele>
        <time>2015-09-04T15:19:23.000Z</time>
      </trkpt>
      <trkpt lat="43.04902" lon="6.21191">
        <ele>49</ele>
        <time>2015-09-04T15:19:24.000Z</time>
      </trkpt>
      <trkpt lat="43.04894" lon="6.21189">
        <ele>49</ele>
        <time>2015-09-04T15:19:25.000Z</time>
      </trkpt>
      <trkpt lat="43.04885" lon="6.2119">
        <ele>49</ele>
        <time>2015-09-04T15:19:26.000Z</time>
      </trkpt>
      <trkpt lat="43.04875" lon="6.21188">
        <ele>50</ele>
        <time>2015-09-04T15:19:27.000Z</time>
      </trkpt>
      <trkpt lat="43.0487" lon="6.21184">
        <ele>49</ele>
        <time>2015-09-04T15:19:28.000Z</time>
      </trkpt>
      <trkpt lat="43.04863" lon="6.21184">
        <ele>48</ele>
        <time>2015-09-04T15:19:29.000Z</time>
      </trkpt>
      <trkpt lat="43.04857" lon="6.21182">
        <ele>47</ele>
        <time>2015-09-04T15:19:30.000Z</time>
      </trkpt>
      <trkpt lat="43.0485" lon="6.21179">
        <ele>47</ele>
        <time>2015-09-04T15:19:31.000Z</time>
      </trkpt>
      <trkpt lat="43.04844" lon="6.21176">
        <ele>48</ele>
        <time>2015-09-04T15:19:32.000Z</time>
      </trkpt>
      <trkpt lat="43.04837" lon="6.21171">
        <ele>48</ele>
        <time>2015-09-04T15:19:33.000Z</time>
      </trkpt>
      <trkpt lat="43.04831" lon="6.21167">
        <ele>48</ele>
        <time>2015-09-04T15:19:34.000Z</time>
      </trkpt>
      <trkpt lat="43.04824" lon="6.21162">
        <ele>45</ele>
        <time>2015-09-04T15:19:35.000Z</time>
      </trkpt>
      <trkpt lat="43.04818" lon="6.2116">
        <ele>44</ele>
        <time>2015-09-04T15:19:36.000Z</time>
      </trkpt>
      <trkpt lat="43.04812" lon="6.21157">
        <ele>44</ele>
        <time>2015-09-04T15:19:37.000Z</time>
      </trkpt>
      <trkpt lat="43.04804" lon="6.21156">
        <ele>44</ele>
        <time>2015-09-04T15:19:38.000Z</time>
      </trkpt>
      <trkpt lat="43.04797" lon="6.21154">
        <ele>42</ele>
        <time>2015-09-04T15:19:39.000Z</time>
      </trkpt>
      <trkpt lat="43.04789" lon="6.21151">
        <ele>41</ele>
        <time>2015-09-04T15:19:40.000Z</time>
      </trkpt>
      <trkpt lat="43.04782" lon="6.21146">
        <ele>41</ele>
        <time>2015-09-04T15:19:41.000Z</time>
      </trkpt>
      <trkpt lat="43.04776" lon="6.21142">
        <ele>41</ele>
        <time>2015-09-04T15:19:42.000Z</time>
      </trkpt>
      <trkpt lat="43.0477" lon="6.21141">
        <ele>39</ele>
        <time>2015-09-04T15:19:43.000Z</time>
      </trkpt>
      <trkpt lat="43.04763" lon="6.21138">
        <ele>40</ele>
        <time>2015-09-04T15:19:44.000Z</time>
      </trkpt>
      <trkpt lat="43.04757" lon="6.21138">
        <ele>39</ele>
        <time>2015-09-04T15:19:45.000Z</time>
      </trkpt>
      <trkpt lat="43.0475" lon="6.21132">
        <ele>40</ele>
        <time>2015-09-04T15:19:46.000Z</time>
      </trkpt>
      <trkpt lat="43.04743" lon="6.21131">
        <ele>40</ele>
        <time>2015-09-04T15:19:47.000Z</time>
      </trkpt>
      <trkpt lat="43.04736" lon="6.21128">
        <ele>38</ele>
        <time>2015-09-04T15:19:48.000Z</time>
      </trkpt>
      <trkpt lat="43.0473" lon="6.21124">
        <ele>38</ele>
        <time>2015-09-04T15:19:49.000Z</time>
      </trkpt>
      <trkpt lat="43.04724" lon="6.21122">
        <ele>39</ele>
        <time>2015-09-04T15:19:50.000Z</time>
      </trkpt>
      <trkpt lat="43.04718" lon="6.21119">
        <ele>39</ele>
        <time>2015-09-04T15:19:51.000Z</time>
      </trkpt>
      <trkpt lat="43.04711" lon="6.21118">
        <ele>39</ele>
        <time>2015-09-04T15:19:52.000Z</time>
      </trkpt>
      <trkpt lat="43.04703" lon="6.21116">
        <ele>40</ele>
        <time>2015-09-04T15:19:53.000Z</time>
      </trkpt>
      <trkpt lat="43.04696" lon="6.21115">
        <ele>40</ele>
        <time>2015-09-04T15:19:54.000Z</time>
      </trkpt>
      <trkpt lat="43.04689" lon="6.21116">
        <ele>41</ele>
        <time>2015-09-04T15:19:55.000Z</time>
      </trkpt>
      <trkpt lat="43.04679" lon="6.21113">
        <ele>41</ele>
        <time>2015-09-04T15:19:56.000Z</time>
      </trkpt>
      <trkpt lat="43.04671" lon="6.21112">
        <ele>40</ele>
        <time>2015-09-04T15:19:57.000Z</time>
      </trkpt>
      <trkpt lat="43.04666" lon="6.21109">
        <ele>38</ele>
        <time>2015-09-04T15:19:58.000Z</time>
      </trkpt>
      <trkpt lat="43.04659" lon="6.21104">
        <ele>36</ele>
        <time>2015-09-04T15:19:59.000Z</time>
      </trkpt>
      <trkpt lat="43.04652" lon="6.21102">
        <ele>36</ele>
        <time>2015-09-04T15:20:00.000Z</time>
      </trkpt>
      <trkpt lat="43.04648" lon="6.21104">
        <ele>37</ele>
        <time>2015-09-04T15:20:01.000Z</time>
      </trkpt>
      <trkpt lat="43.04638" lon="6.211">
        <ele>38</ele>
        <time>2015-09-04T15:20:02.000Z</time>
      </trkpt>
      <trkpt lat="43.04631" lon="6.21098">
        <ele>39</ele>
        <time>2015-09-04T15:20:03.000Z</time>
      </trkpt>
      <trkpt lat="43.04624" lon="6.21095">
        <ele>39</ele>
        <time>2015-09-04T15:20:04.000Z</time>
      </trkpt>
      <trkpt lat="43.04618" lon="6.21092">
        <ele>39</ele>
        <time>2015-09-04T15:20:05.000Z</time>
      </trkpt>
      <trkpt lat="43.04609" lon="6.21089">
        <ele>38</ele>
        <time>2015-09-04T15:20:06.000Z</time>
      </trkpt>
      <trkpt lat="43.04604" lon="6.21087">
        <ele>39</ele>
        <time>2015-09-04T15:20:07.000Z</time>
      </trkpt>
      <trkpt lat="43.04597" lon="6.21084">
        <ele>41</ele>
        <time>2015-09-04T15:20:08.000Z</time>
      </trkpt>
      <trkpt lat="43.04589" lon="6.21081">
        <ele>41</ele>
        <time>2015-09-04T15:20:09.000Z</time>
      </trkpt>
      <trkpt lat="43.04583" lon="6.21082">
        <ele>43</ele>
        <time>2015-09-04T15:20:10.000Z</time>
      </trkpt>
      <trkpt lat="43.04575" lon="6.21079">
        <ele>42</ele>
        <time>2015-09-04T15:20:11.000Z</time>
      </trkpt>
      <trkpt lat="43.04566" lon="6.21075">
        <ele>43</ele>
        <time>2015-09-04T15:20:12.000Z</time>
      </trkpt>
      <trkpt lat="43.0456" lon="6.21076">
        <ele>44</ele>
        <time>2015-09-04T15:20:13.000Z</time>
      </trkpt>
      <trkpt lat="43.04549" lon="6.21073">
        <ele>45</ele>
        <time>2015-09-04T15:20:14.000Z</time>
      </trkpt>
      <trkpt lat="43.0454" lon="6.21069">
        <ele>46</ele>
        <time>2015-09-04T15:20:15.000Z</time>
      </trkpt>
      <trkpt lat="43.04535" lon="6.21068">
        <ele>48</ele>
        <time>2015-09-04T15:20:16.000Z</time>
      </trkpt>
      <trkpt lat="43.04527" lon="6.21067">
        <ele>49</ele>
        <time>2015-09-04T15:20:17.000Z</time>
      </trkpt>
      <trkpt lat="43.04521" lon="6.21071">
        <ele>48</ele>
        <time>2015-09-04T15:20:18.000Z</time>
      </trkpt>
      <trkpt lat="43.04516" lon="6.2107">
        <ele>47</ele>
        <time>2015-09-04T15:20:19.000Z</time>
      </trkpt>
      <trkpt lat="43.0451" lon="6.21068">
        <ele>47</ele>
        <time>2015-09-04T15:20:20.000Z</time>
      </trkpt>
      <trkpt lat="43.04503" lon="6.21067">
        <ele>47</ele>
        <time>2015-09-04T15:20:21.000Z</time>
      </trkpt>
      <trkpt lat="43.04497" lon="6.21063">
        <ele>47</ele>
        <time>2015-09-04T15:20:22.000Z</time>
      </trkpt>
      <trkpt lat="43.04492" lon="6.21061">
        <ele>47</ele>
        <time>2015-09-04T15:20:23.000Z</time>
      </trkpt>
      <trkpt lat="43.04485" lon="6.21061">
        <ele>48</ele>
        <time>2015-09-04T15:20:24.000Z</time>
      </trkpt>
      <trkpt lat="43.04479" lon="6.21059">
        <ele>48</ele>
        <time>2015-09-04T15:20:25.000Z</time>
      </trkpt>
      <trkpt lat="43.04469" lon="6.21058">
        <ele>49</ele>
        <time>2015-09-04T15:20:26.000Z</time>
      </trkpt>
      <trkpt lat="43.04461" lon="6.21058">
        <ele>50</ele>
        <time>2015-09-04T15:20:27.000Z</time>
      </trkpt>
      <trkpt lat="43.04452" lon="6.21057">
        <ele>49</ele>
        <time>2015-09-04T15:20:28.000Z</time>
      </trkpt>
      <trkpt lat="43.04445" lon="6.21056">
        <ele>48</ele>
        <time>2015-09-04T15:20:29.000Z</time>
      </trkpt>
      <trkpt lat="43.04436" lon="6.21051">
        <ele>49</ele>
        <time>2015-09-04T15:20:30.000Z</time>
      </trkpt>
      <trkpt lat="43.0443" lon="6.2105">
        <ele>50</ele>
        <time>2015-09-04T15:20:31.000Z</time>
      </trkpt>
      <trkpt lat="43.04425" lon="6.2105">
        <ele>50</ele>
        <time>2015-09-04T15:20:32.000Z</time>
      </trkpt>
      <trkpt lat="43.04417" lon="6.21048">
        <ele>50</ele>
        <time>2015-09-04T15:20:33.000Z</time>
      </trkpt>
      <trkpt lat="43.04412" lon="6.21045">
        <ele>49</ele>
        <time>2015-09-04T15:20:34.000Z</time>
      </trkpt>
      <trkpt lat="43.04404" lon="6.21043">
        <ele>49</ele>
        <time>2015-09-04T15:20:35.000Z</time>
      </trkpt>
      <trkpt lat="43.04398" lon="6.21044">
        <ele>49</ele>
        <time>2015-09-04T15:20:36.000Z</time>
      </trkpt>
      <trkpt lat="43.04387" lon="6.21038">
        <ele>48</ele>
        <time>2015-09-04T15:20:37.000Z</time>
      </trkpt>
      <trkpt lat="43.04381" lon="6.21037">
        <ele>49</ele>
        <time>2015-09-04T15:20:38.000Z</time>
      </trkpt>
      <trkpt lat="43.04372" lon="6.21038">
        <ele>48</ele>
        <time>2015-09-04T15:20:39.000Z</time>
      </trkpt>
      <trkpt lat="43.04363" lon="6.21038">
        <ele>48</ele>
        <time>2015-09-04T15:20:40.000Z</time>
      </trkpt>
      <trkpt lat="43.04358" lon="6.21034">
        <ele>47</ele>
        <time>2015-09-04T15:20:41.000Z</time>
      </trkpt>
      <trkpt lat="43.0435" lon="6.21033">
        <ele>47</ele>
        <time>2015-09-04T15:20:42.000Z</time>
      </trkpt>
      <trkpt lat="43.04345" lon="6.21029">
        <ele>48</ele>
        <time>2015-09-04T15:20:43.000Z</time>
      </trkpt>
      <trkpt lat="43.04336" lon="6.21027">
        <ele>48</ele>
        <time>2015-09-04T15:20:44.000Z</time>
      </trkpt>
      <trkpt lat="43.0433" lon="6.21029">
        <ele>48</ele>
        <time>2015-09-04T15:20:45.000Z</time>
      </trkpt>
      <trkpt lat="43.04321" lon="6.21026">
        <ele>47</ele>
        <time>2015-09-04T15:20:46.000Z</time>
      </trkpt>
      <trkpt lat="43.04318" lon="6.21031">
        <ele>48</ele>
        <time>2015-09-04T15:20:47.000Z</time>
      </trkpt>
      <trkpt lat="43.0431" lon="6.21032">
        <ele>47</ele>
        <time>2015-09-04T15:20:48.000Z</time>
      </trkpt>
      <trkpt lat="43.04303" lon="6.21032">
        <ele>47</ele>
        <time>2015-09-04T15:20:49.000Z</time>
      </trkpt>
      <trkpt lat="43.04295" lon="6.21029">
        <ele>48</ele>
        <time>2015-09-04T15:20:50.000Z</time>
      </trkpt>
      <trkpt lat="43.04287" lon="6.2103">
        <ele>47</ele>
        <time>2015-09-04T15:20:51.000Z</time>
      </trkpt>
      <trkpt lat="43.0428" lon="6.21022">
        <ele>48</ele>
        <time>2015-09-04T15:20:52.000Z</time>
      </trkpt>
      <trkpt lat="43.04274" lon="6.21018">
        <ele>47</ele>
        <time>2015-09-04T15:20:53.000Z</time>
      </trkpt>
      <trkpt lat="43.04264" lon="6.21017">
        <ele>48</ele>
        <time>2015-09-04T15:20:54.000Z</time>
      </trkpt>
      <trkpt lat="43.04255" lon="6.21014">
        <ele>49</ele>
        <time>2015-09-04T15:20:55.000Z</time>
      </trkpt>
      <trkpt lat="43.04249" lon="6.21016">
        <ele>50</ele>
        <time>2015-09-04T15:20:56.000Z</time>
      </trkpt>
      <trkpt lat="43.0424" lon="6.2101">
        <ele>50</ele>
        <time>2015-09-04T15:20:57.000Z</time>
      </trkpt>
      <trkpt lat="43.04236" lon="6.21008">
        <ele>49</ele>
        <time>2015-09-04T15:20:58.000Z</time>
      </trkpt>
      <trkpt lat="43.04226" lon="6.21006">
        <ele>50</ele>
        <time>2015-09-04T15:20:59.000Z</time>
      </trkpt>
      <trkpt lat="43.0422" lon="6.21003">
        <ele>51</ele>
        <time>2015-09-04T15:21:00.000Z</time>
      </trkpt>
      <trkpt lat="43.04213" lon="6.21003">
        <ele>51</ele>
        <time>2015-09-04T15:21:01.000Z</time>
      </trkpt>
      <trkpt lat="43.04208" lon="6.21">
        <ele>52</ele>
        <time>2015-09-04T15:21:02.000Z</time>
      </trkpt>
      <trkpt lat="43.04203" lon="6.20999">
        <ele>50</ele>
        <time>2015-09-04T15:21:03.000Z</time>
      </trkpt>
      <trkpt lat="43.04193" lon="6.20995">
        <ele>50</ele>
        <time>2015-09-04T15:21:04.000Z</time>
      </trkpt>
      <trkpt lat="43.04186" lon="6.20993">
        <ele>51</ele>
        <time>2015-09-04T15:21:05.000Z</time>
      </trkpt>
      <trkpt lat="43.04178" lon="6.20991">
        <ele>51</ele>
        <time>2015-09-04T15:21:06.000Z</time>
      </trkpt>
      <trkpt lat="43.0417" lon="6.20989">
        <ele>51</ele>
        <time>2015-09-04T15:21:07.000Z</time>
      </trkpt>
      <trkpt lat="43.04164" lon="6.20986">
        <ele>52</ele>
        <time>2015-09-04T15:21:08.000Z</time>
      </trkpt>
      <trkpt lat="43.04158" lon="6.20983">
        <ele>51</ele>
        <time>2015-09-04T15:21:09.000Z</time>
      </trkpt>
      <trkpt lat="43.0415" lon="6.20979">
        <ele>51</ele>
        <time>2015-09-04T15:21:10.000Z</time>
      </trkpt>
      <trkpt lat="43.04142" lon="6.20978">
        <ele>51</ele>
        <time>2015-09-04T15:21:11.000Z</time>
      </trkpt>
      <trkpt lat="43.04135" lon="6.20977">
        <ele>51</ele>
        <time>2015-09-04T15:21:12.000Z</time>
      </trkpt>
      <trkpt lat="43.04128" lon="6.20975">
        <ele>52</ele>
        <time>2015-09-04T15:21:13.000Z</time>
      </trkpt>
      <trkpt lat="43.04123" lon="6.20976">
        <ele>51</ele>
        <time>2015-09-04T15:21:14.000Z</time>
      </trkpt>
      <trkpt lat="43.04116" lon="6.20972">
        <ele>50</ele>
        <time>2015-09-04T15:21:15.000Z</time>
      </trkpt>
      <trkpt lat="43.04108" lon="6.20965">
        <ele>51</ele>
        <time>2015-09-04T15:21:16.000Z</time>
      </trkpt>
      <trkpt lat="43.04102" lon="6.20962">
        <ele>50</ele>
        <time>2015-09-04T15:21:17.000Z</time>
      </trkpt>
      <trkpt lat="43.04094" lon="6.2096">
        <ele>49</ele>
        <time>2015-09-04T15:21:18.000Z</time>
      </trkpt>
      <trkpt lat="43.04088" lon="6.2096">
        <ele>49</ele>
        <time>2015-09-04T15:21:19.000Z</time>
      </trkpt>
      <trkpt lat="43.0408" lon="6.20959">
        <ele>48</ele>
        <time>2015-09-04T15:21:20.000Z</time>
      </trkpt>
      <trkpt lat="43.04074" lon="6.20955">
        <ele>50</ele>
        <time>2015-09-04T15:21:21.000Z</time>
      </trkpt>
      <trkpt lat="43.04068" lon="6.20952">
        <ele>50</ele>
        <time>2015-09-04T15:21:22.000Z</time>
      </trkpt>
      <trkpt lat="43.04059" lon="6.20949">
        <ele>50</ele>
        <time>2015-09-04T15:21:23.000Z</time>
      </trkpt>
      <trkpt lat="43.04051" lon="6.20946">
        <ele>51</ele>
        <time>2015-09-04T15:21:24.000Z</time>
      </trkpt>
      <trkpt lat="43.04042" lon="6.20942">
        <ele>50</ele>
        <time>2015-09-04T15:21:25.000Z</time>
      </trkpt>
      <trkpt lat="43.04038" lon="6.20942">
        <ele>52</ele>
        <time>2015-09-04T15:21:26.000Z</time>
      </trkpt>
      <trkpt lat="43.04028" lon="6.20941">
        <ele>50</ele>
        <time>2015-09-04T15:21:27.000Z</time>
      </trkpt>
      <trkpt lat="43.04021" lon="6.20944">
        <ele>51</ele>
        <time>2015-09-04T15:21:28.000Z</time>
      </trkpt>
      <trkpt lat="43.04014" lon="6.2094">
        <ele>51</ele>
        <time>2015-09-04T15:21:29.000Z</time>
      </trkpt>
      <trkpt lat="43.04009" lon="6.20941">
        <ele>51</ele>
        <time>2015-09-04T15:21:30.000Z</time>
      </trkpt>
      <trkpt lat="43.04" lon="6.20936">
        <ele>52</ele>
        <time>2015-09-04T15:21:31.000Z</time>
      </trkpt>
      <trkpt lat="43.03992" lon="6.20933">
        <ele>52</ele>
        <time>2015-09-04T15:21:32.000Z</time>
      </trkpt>
      <trkpt lat="43.03985" lon="6.20929">
        <ele>51</ele>
        <time>2015-09-04T15:21:33.000Z</time>
      </trkpt>
      <trkpt lat="43.03978" lon="6.20926">
        <ele>51</ele>
        <time>2015-09-04T15:21:34.000Z</time>
      </trkpt>
      <trkpt lat="43.0397" lon="6.20924">
        <ele>49</ele>
        <time>2015-09-04T15:21:35.000Z</time>
      </trkpt>
      <trkpt lat="43.03962" lon="6.20922">
        <ele>50</ele>
        <time>2015-09-04T15:21:36.000Z</time>
      </trkpt>
      <trkpt lat="43.03956" lon="6.20921">
        <ele>50</ele>
        <time>2015-09-04T15:21:37.000Z</time>
      </trkpt>
      <trkpt lat="43.03951" lon="6.20919">
        <ele>50</ele>
        <time>2015-09-04T15:21:38.000Z</time>
      </trkpt>
      <trkpt lat="43.03945" lon="6.20919">
        <ele>50</ele>
        <time>2015-09-04T15:21:39.000Z</time>
      </trkpt>
      <trkpt lat="43.03936" lon="6.20916">
        <ele>51</ele>
        <time>2015-09-04T15:21:40.000Z</time>
      </trkpt>
      <trkpt lat="43.0393" lon="6.20915">
        <ele>52</ele>
        <time>2015-09-04T15:21:41.000Z</time>
      </trkpt>
      <trkpt lat="43.03921" lon="6.20914">
        <ele>53</ele>
        <time>2015-09-04T15:21:42.000Z</time>
      </trkpt>
      <trkpt lat="43.03916" lon="6.20912">
        <ele>52</ele>
        <time>2015-09-04T15:21:43.000Z</time>
      </trkpt>
      <trkpt lat="43.03908" lon="6.2091">
        <ele>52</ele>
        <time>2015-09-04T15:21:44.000Z</time>
      </trkpt>
      <trkpt lat="43.03901" lon="6.20907">
        <ele>52</ele>
        <time>2015-09-04T15:21:45.000Z</time>
      </trkpt>
      <trkpt lat="43.03894" lon="6.20904">
        <ele>52</ele>
        <time>2015-09-04T15:21:46.000Z</time>
      </trkpt>
      <trkpt lat="43.03887" lon="6.209">
        <ele>52</ele>
        <time>2015-09-04T15:21:47.000Z</time>
      </trkpt>
      <trkpt lat="43.0388" lon="6.20897">
        <ele>51</ele>
        <time>2015-09-04T15:21:48.000Z</time>
      </trkpt>
      <trkpt lat="43.03874" lon="6.20896">
        <ele>52</ele>
        <time>2015-09-04T15:21:49.000Z</time>
      </trkpt>
      <trkpt lat="43.03866" lon="6.20895">
        <ele>52</ele>
        <time>2015-09-04T15:21:50.000Z</time>
      </trkpt>
      <trkpt lat="43.03859" lon="6.20891">
        <ele>53</ele>
        <time>2015-09-04T15:21:51.000Z</time>
      </trkpt>
      <trkpt lat="43.03851" lon="6.20887">
        <ele>52</ele>
        <time>2015-09-04T15:21:52.000Z</time>
      </trkpt>
      <trkpt lat="43.03845" lon="6.20885">
        <ele>51</ele>
        <time>2015-09-04T15:21:53.000Z</time>
      </trkpt>
      <trkpt lat="43.03838" lon="6.20881">
        <ele>50</ele>
        <time>2015-09-04T15:21:54.000Z</time>
      </trkpt>
      <trkpt lat="43.03829" lon="6.20878">
        <ele>49</ele>
        <time>2015-09-04T15:21:55.000Z</time>
      </trkpt>
      <trkpt lat="43.0382" lon="6.20876">
        <ele>50</ele>
        <time>2015-09-04T15:21:56.000Z</time>
      </trkpt>
      <trkpt lat="43.03811" lon="6.20872">
        <ele>50</ele>
        <time>2015-09-04T15:21:57.000Z</time>
      </trkpt>
      <trkpt lat="43.03802" lon="6.20874">
        <ele>50</ele>
        <time>2015-09-04T15:21:58.000Z</time>
      </trkpt>
      <trkpt lat="43.03794" lon="6.20873">
        <ele>50</ele>
        <time>2015-09-04T15:21:59.000Z</time>
      </trkpt>
      <trkpt lat="43.03789" lon="6.20872">
        <ele>51</ele>
        <time>2015-09-04T15:22:00.000Z</time>
      </trkpt>
      <trkpt lat="43.03782" lon="6.20872">
        <ele>52</ele>
        <time>2015-09-04T15:22:01.000Z</time>
      </trkpt>
      <trkpt lat="43.03776" lon="6.20872">
        <ele>53</ele>
        <time>2015-09-04T15:22:02.000Z</time>
      </trkpt>
      <trkpt lat="43.03772" lon="6.20869">
        <ele>53</ele>
        <time>2015-09-04T15:22:03.000Z</time>
      </trkpt>
      <trkpt lat="43.03766" lon="6.20866">
        <ele>55</ele>
        <time>2015-09-04T15:22:04.000Z</time>
      </trkpt>
      <trkpt lat="43.03759" lon="6.20863">
        <ele>56</ele>
        <time>2015-09-04T15:22:05.000Z</time>
      </trkpt>
      <trkpt lat="43.03752" lon="6.20862">
        <ele>57</ele>
        <time>2015-09-04T15:22:06.000Z</time>
      </trkpt>
      <trkpt lat="43.03744" lon="6.20858">
        <ele>56</ele>
        <time>2015-09-04T15:22:07.000Z</time>
      </trkpt>
      <trkpt lat="43.03736" lon="6.20857">
        <ele>54</ele>
        <time>2015-09-04T15:22:08.000Z</time>
      </trkpt>
      <trkpt lat="43.03728" lon="6.20852">
        <ele>54</ele>
        <time>2015-09-04T15:22:09.000Z</time>
      </trkpt>
      <trkpt lat="43.03724" lon="6.2085">
        <ele>53</ele>
        <time>2015-09-04T15:22:10.000Z</time>
      </trkpt>
      <trkpt lat="43.03717" lon="6.20848">
        <ele>54</ele>
        <time>2015-09-04T15:22:11.000Z</time>
      </trkpt>
      <trkpt lat="43.03711" lon="6.20847">
        <ele>54</ele>
        <time>2015-09-04T15:22:12.000Z</time>
      </trkpt>
      <trkpt lat="43.03705" lon="6.20847">
        <ele>54</ele>
        <time>2015-09-04T15:22:13.000Z</time>
      </trkpt>
      <trkpt lat="43.03697" lon="6.20844">
        <ele>55</ele>
        <time>2015-09-04T15:22:14.000Z</time>
      </trkpt>
      <trkpt lat="43.03689" lon="6.20838">
        <ele>55</ele>
        <time>2015-09-04T15:22:15.000Z</time>
      </trkpt>
      <trkpt lat="43.03683" lon="6.20832">
        <ele>54</ele>
        <time>2015-09-04T15:22:16.000Z</time>
      </trkpt>
      <trkpt lat="43.03676" lon="6.20827">
        <ele>54</ele>
        <time>2015-09-04T15:22:17.000Z</time>
      </trkpt>
      <trkpt lat="43.03671" lon="6.20827">
        <ele>53</ele>
        <time>2015-09-04T15:22:18.000Z</time>
      </trkpt>
      <trkpt lat="43.03663" lon="6.20826">
        <ele>54</ele>
        <time>2015-09-04T15:22:19.000Z</time>
      </trkpt>
      <trkpt lat="43.03654" lon="6.20823">
        <ele>54</ele>
        <time>2015-09-04T15:22:20.000Z</time>
      </trkpt>
      <trkpt lat="43.03647" lon="6.20822">
        <ele>55</ele>
        <time>2015-09-04T15:22:21.000Z</time>
      </trkpt>
      <trkpt lat="43.0364" lon="6.20819">
        <ele>53</ele>
        <time>2015-09-04T15:22:22.000Z</time>
      </trkpt>
      <trkpt lat="43.03633" lon="6.20817">
        <ele>51</ele>
        <time>2015-09-04T15:22:23.000Z</time>
      </trkpt>
      <trkpt lat="43.03629" lon="6.20815">
        <ele>48</ele>
        <time>2015-09-04T15:22:24.000Z</time>
      </trkpt>
      <trkpt lat="43.03622" lon="6.20814">
        <ele>48</ele>
        <time>2015-09-04T15:22:25.000Z</time>
      </trkpt>
      <trkpt lat="43.03615" lon="6.20812">
        <ele>45</ele>
        <time>2015-09-04T15:22:26.000Z</time>
      </trkpt>
      <trkpt lat="43.0361" lon="6.20812">
        <ele>45</ele>
        <time>2015-09-04T15:22:27.000Z</time>
      </trkpt>
      <trkpt lat="43.03601" lon="6.20808">
        <ele>44</ele>
        <time>2015-09-04T15:22:28.000Z</time>
      </trkpt>
      <trkpt lat="43.03591" lon="6.20802">
        <ele>44</ele>
        <time>2015-09-04T15:22:29.000Z</time>
      </trkpt>
      <trkpt lat="43.03583" lon="6.20803">
        <ele>43</ele>
        <time>2015-09-04T15:22:30.000Z</time>
      </trkpt>
      <trkpt lat="43.03574" lon="6.20802">
        <ele>43</ele>
        <time>2015-09-04T15:22:31.000Z</time>
      </trkpt>
      <trkpt lat="43.03569" lon="6.20799">
        <ele>44</ele>
        <time>2015-09-04T15:22:32.000Z</time>
      </trkpt>
      <trkpt lat="43.03564" lon="6.20801">
        <ele>45</ele>
        <time>2015-09-04T15:22:33.000Z</time>
      </trkpt>
      <trkpt lat="43.03557" lon="6.20796">
        <ele>44</ele>
        <time>2015-09-04T15:22:34.000Z</time>
      </trkpt>
      <trkpt lat="43.03549" lon="6.20796">
        <ele>43</ele>
        <time>2015-09-04T15:22:35.000Z</time>
      </trkpt>
      <trkpt lat="43.03544" lon="6.20792">
        <ele>44</ele>
        <time>2015-09-04T15:22:36.000Z</time>
      </trkpt>
      <trkpt lat="43.03538" lon="6.20789">
        <ele>44</ele>
        <time>2015-09-04T15:22:37.000Z</time>
      </trkpt>
      <trkpt lat="43.0353" lon="6.20786">
        <ele>43</ele>
        <time>2015-09-04T15:22:38.000Z</time>
      </trkpt>
      <trkpt lat="43.03525" lon="6.2078">
        <ele>42</ele>
        <time>2015-09-04T15:22:39.000Z</time>
      </trkpt>
      <trkpt lat="43.03522" lon="6.20779">
        <ele>42</ele>
        <time>2015-09-04T15:22:40.000Z</time>
      </trkpt>
      <trkpt lat="43.03515" lon="6.20774">
        <ele>41</ele>
        <time>2015-09-04T15:22:41.000Z</time>
      </trkpt>
      <trkpt lat="43.03509" lon="6.20773">
        <ele>41</ele>
        <time>2015-09-04T15:22:42.000Z</time>
      </trkpt>
      <trkpt lat="43.03504" lon="6.20774">
        <ele>41</ele>
        <time>2015-09-04T15:22:43.000Z</time>
      </trkpt>
      <trkpt lat="43.03497" lon="6.20772">
        <ele>40</ele>
        <time>2015-09-04T15:22:44.000Z</time>
      </trkpt>
      <trkpt lat="43.0349" lon="6.20772">
        <ele>39</ele>
        <time>2015-09-04T15:22:45.000Z</time>
      </trkpt>
      <trkpt lat="43.03484" lon="6.2077">
        <ele>40</ele>
        <time>2015-09-04T15:22:46.000Z</time>
      </trkpt>
      <trkpt lat="43.03477" lon="6.20766">
        <ele>39</ele>
        <time>2015-09-04T15:22:47.000Z</time>
      </trkpt>
      <trkpt lat="43.03472" lon="6.20764">
        <ele>39</ele>
        <time>2015-09-04T15:22:48.000Z</time>
      </trkpt>
      <trkpt lat="43.03467" lon="6.20761">
        <ele>39</ele>
        <time>2015-09-04T15:22:49.000Z</time>
      </trkpt>
      <trkpt lat="43.03461" lon="6.20759">
        <ele>39</ele>
        <time>2015-09-04T15:22:50.000Z</time>
      </trkpt>
      <trkpt lat="43.03452" lon="6.2076">
        <ele>38</ele>
        <time>2015-09-04T15:22:51.000Z</time>
      </trkpt>
      <trkpt lat="43.03444" lon="6.20759">
        <ele>38</ele>
        <time>2015-09-04T15:22:52.000Z</time>
      </trkpt>
      <trkpt lat="43.03439" lon="6.20759">
        <ele>38</ele>
        <time>2015-09-04T15:22:53.000Z</time>
      </trkpt>
      <trkpt lat="43.03432" lon="6.20756">
        <ele>38</ele>
        <time>2015-09-04T15:22:54.000Z</time>
      </trkpt>
      <trkpt lat="43.03426" lon="6.20754">
        <ele>37</ele>
        <time>2015-09-04T15:22:55.000Z</time>
      </trkpt>
      <trkpt lat="43.03418" lon="6.2075">
        <ele>36</ele>
        <time>2015-09-04T15:22:56.000Z</time>
      </trkpt>
      <trkpt lat="43.03411" lon="6.20749">
        <ele>35</ele>
        <time>2015-09-04T15:22:57.000Z</time>
      </trkpt>
      <trkpt lat="43.03404" lon="6.20747">
        <ele>36</ele>
        <time>2015-09-04T15:22:58.000Z</time>
      </trkpt>
      <trkpt lat="43.03396" lon="6.20743">
        <ele>36</ele>
        <time>2015-09-04T15:22:59.000Z</time>
      </trkpt>
      <trkpt lat="43.03388" lon="6.20742">
        <ele>37</ele>
        <time>2015-09-04T15:23:00.000Z</time>
      </trkpt>
      <trkpt lat="43.03381" lon="6.2074">
        <ele>36</ele>
        <time>2015-09-04T15:23:01.000Z</time>
      </trkpt>
      <trkpt lat="43.03373" lon="6.20738">
        <ele>36</ele>
        <time>2015-09-04T15:23:02.000Z</time>
      </trkpt>
      <trkpt lat="43.03365" lon="6.20738">
        <ele>36</ele>
        <time>2015-09-04T15:23:03.000Z</time>
      </trkpt>
      <trkpt lat="43.03359" lon="6.20737">
        <ele>36</ele>
        <time>2015-09-04T15:23:04.000Z</time>
      </trkpt>
      <trkpt lat="43.03351" lon="6.20734">
        <ele>38</ele>
        <time>2015-09-04T15:23:05.000Z</time>
      </trkpt>
      <trkpt lat="43.03344" lon="6.20732">
        <ele>39</ele>
        <time>2015-09-04T15:23:06.000Z</time>
      </trkpt>
      <trkpt lat="43.03337" lon="6.20728">
        <ele>37</ele>
        <time>2015-09-04T15:23:07.000Z</time>
      </trkpt>
      <trkpt lat="43.0333" lon="6.20726">
        <ele>37</ele>
        <time>2015-09-04T15:23:08.000Z</time>
      </trkpt>
      <trkpt lat="43.03323" lon="6.20723">
        <ele>38</ele>
        <time>2015-09-04T15:23:09.000Z</time>
      </trkpt>
      <trkpt lat="43.03318" lon="6.20721">
        <ele>37</ele>
        <time>2015-09-04T15:23:10.000Z</time>
      </trkpt>
      <trkpt lat="43.0331" lon="6.20717">
        <ele>36</ele>
        <time>2015-09-04T15:23:11.000Z</time>
      </trkpt>
      <trkpt lat="43.03303" lon="6.20714">
        <ele>37</ele>
        <time>2015-09-04T15:23:12.000Z</time>
      </trkpt>
      <trkpt lat="43.03296" lon="6.20712">
        <ele>37</ele>
        <time>2015-09-04T15:23:13.000Z</time>
      </trkpt>
      <trkpt lat="43.03291" lon="6.20711">
        <ele>37</ele>
        <time>2015-09-04T15:23:14.000Z</time>
      </trkpt>
      <trkpt lat="43.03283" lon="6.2071">
        <ele>37</ele>
        <time>2015-09-04T15:23:15.000Z</time>
      </trkpt>
      <trkpt lat="43.03275" lon="6.20707">
        <ele>39</ele>
        <time>2015-09-04T15:23:16.000Z</time>
      </trkpt>
      <trkpt lat="43.0327" lon="6.20706">
        <ele>39</ele>
        <time>2015-09-04T15:23:17.000Z</time>
      </trkpt>
      <trkpt lat="43.03263" lon="6.20704">
        <ele>41</ele>
        <time>2015-09-04T15:23:18.000Z</time>
      </trkpt>
      <trkpt lat="43.03257" lon="6.20701">
        <ele>42</ele>
        <time>2015-09-04T15:23:19.000Z</time>
      </trkpt>
      <trkpt lat="43.03252" lon="6.207">
        <ele>42</ele>
        <time>2015-09-04T15:23:20.000Z</time>
      </trkpt>
      <trkpt lat="43.03245" lon="6.20698">
        <ele>42</ele>
        <time>2015-09-04T15:23:21.000Z</time>
      </trkpt>
      <trkpt lat="43.03238" lon="6.20696">
        <ele>40</ele>
        <time>2015-09-04T15:23:22.000Z</time>
      </trkpt>
      <trkpt lat="43.03231" lon="6.20695">
        <ele>41</ele>
        <time>2015-09-04T15:23:23.000Z</time>
      </trkpt>
      <trkpt lat="43.03225" lon="6.2069">
        <ele>40</ele>
        <time>2015-09-04T15:23:24.000Z</time>
      </trkpt>
      <trkpt lat="43.03221" lon="6.20686">
        <ele>39</ele>
        <time>2015-09-04T15:23:25.000Z</time>
      </trkpt>
      <trkpt lat="43.03214" lon="6.20682">
        <ele>37</ele>
        <time>2015-09-04T15:23:26.000Z</time>
      </trkpt>
      <trkpt lat="43.03208" lon="6.20681">
        <ele>38</ele>
        <time>2015-09-04T15:23:27.000Z</time>
      </trkpt>
      <trkpt lat="43.03202" lon="6.2068">
        <ele>38</ele>
        <time>2015-09-04T15:23:28.000Z</time>
      </trkpt>
      <trkpt lat="43.03199" lon="6.20679">
        <ele>38</ele>
        <time>2015-09-04T15:23:29.000Z</time>
      </trkpt>
      <trkpt lat="43.03196" lon="6.20679">
        <ele>38</ele>
        <time>2015-09-04T15:23:30.000Z</time>
      </trkpt>
      <trkpt lat="43.03195" lon="6.2068">
        <ele>39</ele>
        <time>2015-09-04T15:23:31.000Z</time>
      </trkpt>
      <trkpt lat="43.03194" lon="6.20681">
        <ele>40</ele>
        <time>2015-09-04T15:23:32.000Z</time>
      </trkpt>
      <trkpt lat="43.03194" lon="6.20682">
        <ele>40</ele>
        <time>2015-09-04T15:23:34.000Z</time>
      </trkpt>
      <trkpt lat="43.03194" lon="6.20682">
        <ele>40</ele>
        <time>2015-09-04T15:23:35.000Z</time>
      </trkpt>
      <trkpt lat="43.03194" lon="6.20683">
        <ele>40</ele>
        <time>2015-09-04T15:23:36.000Z</time>
      </trkpt>
      <trkpt lat="43.03196" lon="6.20683">
        <ele>40</ele>
        <time>2015-09-04T15:23:37.000Z</time>
      </trkpt>
      <trkpt lat="43.032" lon="6.20686">
        <ele>40</ele>
        <time>2015-09-04T15:23:38.000Z</time>
      </trkpt>
      <trkpt lat="43.03204" lon="6.20694">
        <ele>39</ele>
        <time>2015-09-04T15:23:39.000Z</time>
      </trkpt>
      <trkpt lat="43.03206" lon="6.20697">
        <ele>40</ele>
        <time>2015-09-04T15:23:40.000Z</time>
      </trkpt>
      <trkpt lat="43.03211" lon="6.20702">
        <ele>40</ele>
        <time>2015-09-04T15:23:41.000Z</time>
      </trkpt>
      <trkpt lat="43.03213" lon="6.20702">
        <ele>40</ele>
        <time>2015-09-04T15:23:42.000Z</time>
      </trkpt>
      <trkpt lat="43.03219" lon="6.20702">
        <ele>41</ele>
        <time>2015-09-04T15:23:43.000Z</time>
      </trkpt>
      <trkpt lat="43.03223" lon="6.207">
        <ele>41</ele>
        <time>2015-09-04T15:23:44.000Z</time>
      </trkpt>
      <trkpt lat="43.03229" lon="6.20701">
        <ele>41</ele>
        <time>2015-09-04T15:23:45.000Z</time>
      </trkpt>
      <trkpt lat="43.03234" lon="6.20703">
        <ele>41</ele>
        <time>2015-09-04T15:23:46.000Z</time>
      </trkpt>
      <trkpt lat="43.03242" lon="6.207">
        <ele>41</ele>
        <time>2015-09-04T15:23:47.000Z</time>
      </trkpt>
      <trkpt lat="43.03249" lon="6.20699">
        <ele>42</ele>
        <time>2015-09-04T15:23:48.000Z</time>
      </trkpt>
      <trkpt lat="43.03255" lon="6.207">
        <ele>43</ele>
        <time>2015-09-04T15:23:49.000Z</time>
      </trkpt>
      <trkpt lat="43.0326" lon="6.20698">
        <ele>43</ele>
        <time>2015-09-04T15:23:50.000Z</time>
      </trkpt>
      <trkpt lat="43.0327" lon="6.20696">
        <ele>42</ele>
        <time>2015-09-04T15:23:51.000Z</time>
      </trkpt>
      <trkpt lat="43.03278" lon="6.20695">
        <ele>41</ele>
        <time>2015-09-04T15:23:52.000Z</time>
      </trkpt>
      <trkpt lat="43.03285" lon="6.20695">
        <ele>44</ele>
        <time>2015-09-04T15:23:53.000Z</time>
      </trkpt>
      <trkpt lat="43.03294" lon="6.20694">
        <ele>42</ele>
        <time>2015-09-04T15:23:54.000Z</time>
      </trkpt>
      <trkpt lat="43.03303" lon="6.20696">
        <ele>42</ele>
        <time>2015-09-04T15:23:55.000Z</time>
      </trkpt>
      <trkpt lat="43.03309" lon="6.20694">
        <ele>42</ele>
        <time>2015-09-04T15:23:56.000Z</time>
      </trkpt>
      <trkpt lat="43.03316" lon="6.20693">
        <ele>42</ele>
        <time>2015-09-04T15:23:57.000Z</time>
      </trkpt>
      <trkpt lat="43.03322" lon="6.20691">
        <ele>42</ele>
        <time>2015-09-04T15:23:58.000Z</time>
      </trkpt>
      <trkpt lat="43.03329" lon="6.20691">
        <ele>41</ele>
        <time>2015-09-04T15:23:59.000Z</time>
      </trkpt>
      <trkpt lat="43.03336" lon="6.20691">
        <ele>43</ele>
        <time>2015-09-04T15:24:00.000Z</time>
      </trkpt>
      <trkpt lat="43.03342" lon="6.20691">
        <ele>43</ele>
        <time>2015-09-04T15:24:01.000Z</time>
      </trkpt>
      <trkpt lat="43.03349" lon="6.2069">
        <ele>44</ele>
        <time>2015-09-04T15:24:02.000Z</time>
      </trkpt>
      <trkpt lat="43.03357" lon="6.20691">
        <ele>43</ele>
        <time>2015-09-04T15:24:03.000Z</time>
      </trkpt>
      <trkpt lat="43.03362" lon="6.2069">
        <ele>42</ele>
        <time>2015-09-04T15:24:04.000Z</time>
      </trkpt>
      <trkpt lat="43.03369" lon="6.20687">
        <ele>45</ele>
        <time>2015-09-04T15:24:05.000Z</time>
      </trkpt>
      <trkpt lat="43.03377" lon="6.20689">
        <ele>45</ele>
        <time>2015-09-04T15:24:06.000Z</time>
      </trkpt>
      <trkpt lat="43.03385" lon="6.20689">
        <ele>45</ele>
        <time>2015-09-04T15:24:07.000Z</time>
      </trkpt>
      <trkpt lat="43.03391" lon="6.20689">
        <ele>44</ele>
        <time>2015-09-04T15:24:08.000Z</time>
      </trkpt>
      <trkpt lat="43.03395" lon="6.20689">
        <ele>44</ele>
        <time>2015-09-04T15:24:09.000Z</time>
      </trkpt>
      <trkpt lat="43.03403" lon="6.20688">
        <ele>46</ele>
        <time>2015-09-04T15:24:10.000Z</time>
      </trkpt>
      <trkpt lat="43.03408" lon="6.20689">
        <ele>45</ele>
        <time>2015-09-04T15:24:11.000Z</time>
      </trkpt>
      <trkpt lat="43.03414" lon="6.20689">
        <ele>45</ele>
        <time>2015-09-04T15:24:12.000Z</time>
      </trkpt>
      <trkpt lat="43.0342" lon="6.20688">
        <ele>45</ele>
        <time>2015-09-04T15:24:13.000Z</time>
      </trkpt>
      <trkpt lat="43.03427" lon="6.20686">
        <ele>46</ele>
        <time>2015-09-04T15:24:14.000Z</time>
      </trkpt>
      <trkpt lat="43.03432" lon="6.20685">
        <ele>45</ele>
        <time>2015-09-04T15:24:15.000Z</time>
      </trkpt>
      <trkpt lat="43.03438" lon="6.20684">
        <ele>45</ele>
        <time>2015-09-04T15:24:16.000Z</time>
      </trkpt>
      <trkpt lat="43.03444" lon="6.20682">
        <ele>47</ele>
        <time>2015-09-04T15:24:17.000Z</time>
      </trkpt>
      <trkpt lat="43.03451" lon="6.20682">
        <ele>47</ele>
        <time>2015-09-04T15:24:18.000Z</time>
      </trkpt>
      <trkpt lat="43.03458" lon="6.20682">
        <ele>47</ele>
        <time>2015-09-04T15:24:19.000Z</time>
      </trkpt>
      <trkpt lat="43.03464" lon="6.20682">
        <ele>47</ele>
        <time>2015-09-04T15:24:20.000Z</time>
      </trkpt>
      <trkpt lat="43.0347" lon="6.2068">
        <ele>46</ele>
        <time>2015-09-04T15:24:21.000Z</time>
      </trkpt>
      <trkpt lat="43.03476" lon="6.20678">
        <ele>47</ele>
        <time>2015-09-04T15:24:22.000Z</time>
      </trkpt>
      <trkpt lat="43.03483" lon="6.20677">
        <ele>47</ele>
        <time>2015-09-04T15:24:23.000Z</time>
      </trkpt>
      <trkpt lat="43.0349" lon="6.20676">
        <ele>47</ele>
        <time>2015-09-04T15:24:24.000Z</time>
      </trkpt>
      <trkpt lat="43.03497" lon="6.20676">
        <ele>49</ele>
        <time>2015-09-04T15:24:25.000Z</time>
      </trkpt>
      <trkpt lat="43.03502" lon="6.20676">
        <ele>48</ele>
        <time>2015-09-04T15:24:26.000Z</time>
      </trkpt>
      <trkpt lat="43.0351" lon="6.20674">
        <ele>48</ele>
        <time>2015-09-04T15:24:27.000Z</time>
      </trkpt>
      <trkpt lat="43.03517" lon="6.20673">
        <ele>46</ele>
        <time>2015-09-04T15:24:28.000Z</time>
      </trkpt>
      <trkpt lat="43.03523" lon="6.20672">
        <ele>47</ele>
        <time>2015-09-04T15:24:29.000Z</time>
      </trkpt>
      <trkpt lat="43.03531" lon="6.2067">
        <ele>47</ele>
        <time>2015-09-04T15:24:30.000Z</time>
      </trkpt>
      <trkpt lat="43.03537" lon="6.20669">
        <ele>46</ele>
        <time>2015-09-04T15:24:31.000Z</time>
      </trkpt>
      <trkpt lat="43.03544" lon="6.20668">
        <ele>47</ele>
        <time>2015-09-04T15:24:32.000Z</time>
      </trkpt>
      <trkpt lat="43.03551" lon="6.20666">
        <ele>47</ele>
        <time>2015-09-04T15:24:33.000Z</time>
      </trkpt>
      <trkpt lat="43.03557" lon="6.20664">
        <ele>47</ele>
        <time>2015-09-04T15:24:34.000Z</time>
      </trkpt>
      <trkpt lat="43.03565" lon="6.20661">
        <ele>48</ele>
        <time>2015-09-04T15:24:35.000Z</time>
      </trkpt>
      <trkpt lat="43.03572" lon="6.20659">
        <ele>48</ele>
        <time>2015-09-04T15:24:36.000Z</time>
      </trkpt>
      <trkpt lat="43.03578" lon="6.20659">
        <ele>47</ele>
        <time>2015-09-04T15:24:37.000Z</time>
      </trkpt>
      <trkpt lat="43.03584" lon="6.20657">
        <ele>47</ele>
        <time>2015-09-04T15:24:38.000Z</time>
      </trkpt>
      <trkpt lat="43.03591" lon="6.20656">
        <ele>47</ele>
        <time>2015-09-04T15:24:39.000Z</time>
      </trkpt>
      <trkpt lat="43.03599" lon="6.20654">
        <ele>49</ele>
        <time>2015-09-04T15:24:40.000Z</time>
      </trkpt>
      <trkpt lat="43.03604" lon="6.20652">
        <ele>46</ele>
        <time>2015-09-04T15:24:41.000Z</time>
      </trkpt>
      <trkpt lat="43.03612" lon="6.2065">
        <ele>47</ele>
        <time>2015-09-04T15:24:42.000Z</time>
      </trkpt>
      <trkpt lat="43.03618" lon="6.20647">
        <ele>46</ele>
        <time>2015-09-04T15:24:43.000Z</time>
      </trkpt>
      <trkpt lat="43.03625" lon="6.20644">
        <ele>47</ele>
        <time>2015-09-04T15:24:44.000Z</time>
      </trkpt>
      <trkpt lat="43.03631" lon="6.20643">
        <ele>47</ele>
        <time>2015-09-04T15:24:45.000Z</time>
      </trkpt>
      <trkpt lat="43.03638" lon="6.2064">
        <ele>48</ele>
        <time>2015-09-04T15:24:46.000Z</time>
      </trkpt>
      <trkpt lat="43.03644" lon="6.20638">
        <ele>48</ele>
        <time>2015-09-04T15:24:47.000Z</time>
      </trkpt>
      <trkpt lat="43.0365" lon="6.20636">
        <ele>49</ele>
        <time>2015-09-04T15:24:48.000Z</time>
      </trkpt>
      <trkpt lat="43.03657" lon="6.20634">
        <ele>49</ele>
        <time>2015-09-04T15:24:49.000Z</time>
      </trkpt>
      <trkpt lat="43.03664" lon="6.20631">
        <ele>49</ele>
        <time>2015-09-04T15:24:50.000Z</time>
      </trkpt>
      <trkpt lat="43.0367" lon="6.20629">
        <ele>49</ele>
        <time>2015-09-04T15:24:51.000Z</time>
      </trkpt>
      <trkpt lat="43.03676" lon="6.20626">
        <ele>47</ele>
        <time>2015-09-04T15:24:52.000Z</time>
      </trkpt>
      <trkpt lat="43.03682" lon="6.20624">
        <ele>46</ele>
        <time>2015-09-04T15:24:53.000Z</time>
      </trkpt>
      <trkpt lat="43.03688" lon="6.20623">
        <ele>46</ele>
        <time>2015-09-04T15:24:54.000Z</time>
      </trkpt>
      <trkpt lat="43.03696" lon="6.20622">
        <ele>45</ele>
        <time>2015-09-04T15:24:55.000Z</time>
      </trkpt>
      <trkpt lat="43.03702" lon="6.2062">
        <ele>46</ele>
        <time>2015-09-04T15:24:56.000Z</time>
      </trkpt>
      <trkpt lat="43.03709" lon="6.20618">
        <ele>45</ele>
        <time>2015-09-04T15:24:57.000Z</time>
      </trkpt>
      <trkpt lat="43.03716" lon="6.20618">
        <ele>43</ele>
        <time>2015-09-04T15:24:58.000Z</time>
      </trkpt>
      <trkpt lat="43.03723" lon="6.20616">
        <ele>42</ele>
        <time>2015-09-04T15:24:59.000Z</time>
      </trkpt>
      <trkpt lat="43.0373" lon="6.20616">
        <ele>41</ele>
        <time>2015-09-04T15:25:00.000Z</time>
      </trkpt>
      <trkpt lat="43.03736" lon="6.20613">
        <ele>42</ele>
        <time>2015-09-04T15:25:01.000Z</time>
      </trkpt>
      <trkpt lat="43.03743" lon="6.20611">
        <ele>43</ele>
        <time>2015-09-04T15:25:02.000Z</time>
      </trkpt>
      <trkpt lat="43.0375" lon="6.20607">
        <ele>44</ele>
        <time>2015-09-04T15:25:03.000Z</time>
      </trkpt>
      <trkpt lat="43.03756" lon="6.20606">
        <ele>43</ele>
        <time>2015-09-04T15:25:04.000Z</time>
      </trkpt>
      <trkpt lat="43.03763" lon="6.20603">
        <ele>43</ele>
        <time>2015-09-04T15:25:05.000Z</time>
      </trkpt>
      <trkpt lat="43.03769" lon="6.206">
        <ele>42</ele>
        <time>2015-09-04T15:25:06.000Z</time>
      </trkpt>
      <trkpt lat="43.03776" lon="6.20596">
        <ele>43</ele>
        <time>2015-09-04T15:25:07.000Z</time>
      </trkpt>
      <trkpt lat="43.03782" lon="6.20594">
        <ele>43</ele>
        <time>2015-09-04T15:25:08.000Z</time>
      </trkpt>
      <trkpt lat="43.03788" lon="6.20592">
        <ele>43</ele>
        <time>2015-09-04T15:25:09.000Z</time>
      </trkpt>
      <trkpt lat="43.03796" lon="6.20589">
        <ele>43</ele>
        <time>2015-09-04T15:25:10.000Z</time>
      </trkpt>
      <trkpt lat="43.03803" lon="6.20583">
        <ele>44</ele>
        <time>2015-09-04T15:25:11.000Z</time>
      </trkpt>
      <trkpt lat="43.0381" lon="6.2058">
        <ele>44</ele>
        <time>2015-09-04T15:25:12.000Z</time>
      </trkpt>
      <trkpt lat="43.03815" lon="6.20576">
        <ele>44</ele>
        <time>2015-09-04T15:25:13.000Z</time>
      </trkpt>
      <trkpt lat="43.03821" lon="6.20572">
        <ele>43</ele>
        <time>2015-09-04T15:25:14.000Z</time>
      </trkpt>
      <trkpt lat="43.03827" lon="6.2057">
        <ele>43</ele>
        <time>2015-09-04T15:25:15.000Z</time>
      </trkpt>
      <trkpt lat="43.03833" lon="6.20565">
        <ele>44</ele>
        <time>2015-09-04T15:25:16.000Z</time>
      </trkpt>
      <trkpt lat="43.0384" lon="6.20561">
        <ele>42</ele>
        <time>2015-09-04T15:25:17.000Z</time>
      </trkpt>
      <trkpt lat="43.03847" lon="6.20559">
        <ele>43</ele>
        <time>2015-09-04T15:25:18.000Z</time>
      </trkpt>
      <trkpt lat="43.03851" lon="6.20557">
        <ele>41</ele>
        <time>2015-09-04T15:25:19.000Z</time>
      </trkpt>
      <trkpt lat="43.03857" lon="6.20555">
        <ele>40</ele>
        <time>2015-09-04T15:25:20.000Z</time>
      </trkpt>
      <trkpt lat="43.03862" lon="6.20553">
        <ele>40</ele>
        <time>2015-09-04T15:25:21.000Z</time>
      </trkpt>
      <trkpt lat="43.03867" lon="6.20549">
        <ele>40</ele>
        <time>2015-09-04T15:25:22.000Z</time>
      </trkpt>
      <trkpt lat="43.03873" lon="6.20546">
        <ele>41</ele>
        <time>2015-09-04T15:25:23.000Z</time>
      </trkpt>
      <trkpt lat="43.03879" lon="6.20544">
        <ele>42</ele>
        <time>2015-09-04T15:25:24.000Z</time>
      </trkpt>
      <trkpt lat="43.03886" lon="6.20544">
        <ele>41</ele>
        <time>2015-09-04T15:25:25.000Z</time>
      </trkpt>
      <trkpt lat="43.03892" lon="6.20541">
        <ele>41</ele>
        <time>2015-09-04T15:25:26.000Z</time>
      </trkpt>
      <trkpt lat="43.03899" lon="6.20539">
        <ele>41</ele>
        <time>2015-09-04T15:25:27.000Z</time>
      </trkpt>
      <trkpt lat="43.03907" lon="6.20537">
        <ele>43</ele>
        <time>2015-09-04T15:25:28.000Z</time>
      </trkpt>
      <trkpt lat="43.03913" lon="6.20536">
        <ele>44</ele>
        <time>2015-09-04T15:25:29.000Z</time>
      </trkpt>
      <trkpt lat="43.03921" lon="6.20534">
        <ele>44</ele>
        <time>2015-09-04T15:25:30.000Z</time>
      </trkpt>
      <trkpt lat="43.03928" lon="6.20532">
        <ele>43</ele>
        <time>2015-09-04T15:25:31.000Z</time>
      </trkpt>
      <trkpt lat="43.03936" lon="6.20531">
        <ele>43</ele>
        <time>2015-09-04T15:25:32.000Z</time>
      </trkpt>
      <trkpt lat="43.03943" lon="6.20528">
        <ele>42</ele>
        <time>2015-09-04T15:25:33.000Z</time>
      </trkpt>
      <trkpt lat="43.03951" lon="6.20527">
        <ele>41</ele>
        <time>2015-09-04T15:25:34.000Z</time>
      </trkpt>
      <trkpt lat="43.03958" lon="6.20525">
        <ele>42</ele>
        <time>2015-09-04T15:25:35.000Z</time>
      </trkpt>
      <trkpt lat="43.03964" lon="6.20523">
        <ele>42</ele>
        <time>2015-09-04T15:25:36.000Z</time>
      </trkpt>
      <trkpt lat="43.0397" lon="6.20521">
        <ele>41</ele>
        <time>2015-09-04T15:25:37.000Z</time>
      </trkpt>
      <trkpt lat="43.03976" lon="6.20517">
        <ele>40</ele>
        <time>2015-09-04T15:25:38.000Z</time>
      </trkpt>
      <trkpt lat="43.03983" lon="6.20514">
        <ele>41</ele>
        <time>2015-09-04T15:25:39.000Z</time>
      </trkpt>
      <trkpt lat="43.03989" lon="6.20511">
        <ele>41</ele>
        <time>2015-09-04T15:25:40.000Z</time>
      </trkpt>
      <trkpt lat="43.03996" lon="6.20507">
        <ele>42</ele>
        <time>2015-09-04T15:25:41.000Z</time>
      </trkpt>
      <trkpt lat="43.04002" lon="6.20503">
        <ele>42</ele>
        <time>2015-09-04T15:25:42.000Z</time>
      </trkpt>
      <trkpt lat="43.04009" lon="6.205">
        <ele>42</ele>
        <time>2015-09-04T15:25:43.000Z</time>
      </trkpt>
      <trkpt lat="43.04015" lon="6.20498">
        <ele>42</ele>
        <time>2015-09-04T15:25:44.000Z</time>
      </trkpt>
      <trkpt lat="43.04021" lon="6.20494">
        <ele>42</ele>
        <time>2015-09-04T15:25:45.000Z</time>
      </trkpt>
      <trkpt lat="43.04026" lon="6.20492">
        <ele>42</ele>
        <time>2015-09-04T15:25:46.000Z</time>
      </trkpt>
      <trkpt lat="43.04031" lon="6.20489">
        <ele>42</ele>
        <time>2015-09-04T15:25:47.000Z</time>
      </trkpt>
      <trkpt lat="43.04037" lon="6.20488">
        <ele>43</ele>
        <time>2015-09-04T15:25:48.000Z</time>
      </trkpt>
      <trkpt lat="43.04043" lon="6.20486">
        <ele>44</ele>
        <time>2015-09-04T15:25:49.000Z</time>
      </trkpt>
      <trkpt lat="43.04051" lon="6.20485">
        <ele>44</ele>
        <time>2015-09-04T15:25:50.000Z</time>
      </trkpt>
      <trkpt lat="43.04059" lon="6.20483">
        <ele>44</ele>
        <time>2015-09-04T15:25:51.000Z</time>
      </trkpt>
      <trkpt lat="43.04066" lon="6.20481">
        <ele>45</ele>
        <time>2015-09-04T15:25:52.000Z</time>
      </trkpt>
      <trkpt lat="43.04072" lon="6.20479">
        <ele>45</ele>
        <time>2015-09-04T15:25:53.000Z</time>
      </trkpt>
      <trkpt lat="43.04079" lon="6.20476">
        <ele>46</ele>
        <time>2015-09-04T15:25:54.000Z</time>
      </trkpt>
      <trkpt lat="43.04085" lon="6.20475">
        <ele>46</ele>
        <time>2015-09-04T15:25:55.000Z</time>
      </trkpt>
      <trkpt lat="43.04092" lon="6.20474">
        <ele>45</ele>
        <time>2015-09-04T15:25:56.000Z</time>
      </trkpt>
      <trkpt lat="43.041" lon="6.20471">
        <ele>46</ele>
        <time>2015-09-04T15:25:57.000Z</time>
      </trkpt>
      <trkpt lat="43.04107" lon="6.20468">
        <ele>46</ele>
        <time>2015-09-04T15:25:58.000Z</time>
      </trkpt>
      <trkpt lat="43.04113" lon="6.20465">
        <ele>45</ele>
        <time>2015-09-04T15:25:59.000Z</time>
      </trkpt>
      <trkpt lat="43.0412" lon="6.20463">
        <ele>45</ele>
        <time>2015-09-04T15:26:00.000Z</time>
      </trkpt>
      <trkpt lat="43.04127" lon="6.20461">
        <ele>44</ele>
        <time>2015-09-04T15:26:01.000Z</time>
      </trkpt>
      <trkpt lat="43.04134" lon="6.20459">
        <ele>44</ele>
        <time>2015-09-04T15:26:02.000Z</time>
      </trkpt>
      <trkpt lat="43.04137" lon="6.20458">
        <ele>44</ele>
        <time>2015-09-04T15:26:03.000Z</time>
      </trkpt>
      <trkpt lat="43.04144" lon="6.20455">
        <ele>44</ele>
        <time>2015-09-04T15:26:04.000Z</time>
      </trkpt>
      <trkpt lat="43.0415" lon="6.20453">
        <ele>44</ele>
        <time>2015-09-04T15:26:05.000Z</time>
      </trkpt>
      <trkpt lat="43.04155" lon="6.2045">
        <ele>43</ele>
        <time>2015-09-04T15:26:06.000Z</time>
      </trkpt>
      <trkpt lat="43.04162" lon="6.20448">
        <ele>43</ele>
        <time>2015-09-04T15:26:07.000Z</time>
      </trkpt>
      <trkpt lat="43.04168" lon="6.20443">
        <ele>42</ele>
        <time>2015-09-04T15:26:08.000Z</time>
      </trkpt>
      <trkpt lat="43.04175" lon="6.20442">
        <ele>42</ele>
        <time>2015-09-04T15:26:09.000Z</time>
      </trkpt>
      <trkpt lat="43.04181" lon="6.20439">
        <ele>43</ele>
        <time>2015-09-04T15:26:10.000Z</time>
      </trkpt>
      <trkpt lat="43.04189" lon="6.20438">
        <ele>43</ele>
        <time>2015-09-04T15:26:11.000Z</time>
      </trkpt>
      <trkpt lat="43.04196" lon="6.20436">
        <ele>43</ele>
        <time>2015-09-04T15:26:12.000Z</time>
      </trkpt>
      <trkpt lat="43.04201" lon="6.20434">
        <ele>42</ele>
        <time>2015-09-04T15:26:13.000Z</time>
      </trkpt>
      <trkpt lat="43.04207" lon="6.20431">
        <ele>43</ele>
        <time>2015-09-04T15:26:14.000Z</time>
      </trkpt>
      <trkpt lat="43.04214" lon="6.20429">
        <ele>42</ele>
        <time>2015-09-04T15:26:15.000Z</time>
      </trkpt>
      <trkpt lat="43.04221" lon="6.20427">
        <ele>42</ele>
        <time>2015-09-04T15:26:16.000Z</time>
      </trkpt>
      <trkpt lat="43.04227" lon="6.20424">
        <ele>42</ele>
        <time>2015-09-04T15:26:17.000Z</time>
      </trkpt>
      <trkpt lat="43.04233" lon="6.20421">
        <ele>42</ele>
        <time>2015-09-04T15:26:18.000Z</time>
      </trkpt>
      <trkpt lat="43.04238" lon="6.20419">
        <ele>42</ele>
        <time>2015-09-04T15:26:19.000Z</time>
      </trkpt>
      <trkpt lat="43.04246" lon="6.20418">
        <ele>43</ele>
        <time>2015-09-04T15:26:20.000Z</time>
      </trkpt>
      <trkpt lat="43.04252" lon="6.20415">
        <ele>44</ele>
        <time>2015-09-04T15:26:21.000Z</time>
      </trkpt>
      <trkpt lat="43.04258" lon="6.20413">
        <ele>44</ele>
        <time>2015-09-04T15:26:22.000Z</time>
      </trkpt>
      <trkpt lat="43.04264" lon="6.2041">
        <ele>46</ele>
        <time>2015-09-04T15:26:23.000Z</time>
      </trkpt>
      <trkpt lat="43.0427" lon="6.2041">
        <ele>45</ele>
        <time>2015-09-04T15:26:24.000Z</time>
      </trkpt>
      <trkpt lat="43.04275" lon="6.20407">
        <ele>44</ele>
        <time>2015-09-04T15:26:25.000Z</time>
      </trkpt>
      <trkpt lat="43.0428" lon="6.20404">
        <ele>44</ele>
        <time>2015-09-04T15:26:26.000Z</time>
      </trkpt>
      <trkpt lat="43.04283" lon="6.20401">
        <ele>44</ele>
        <time>2015-09-04T15:26:27.000Z</time>
      </trkpt>
      <trkpt lat="43.04284" lon="6.20398">
        <ele>44</ele>
        <time>2015-09-04T15:26:28.000Z</time>
      </trkpt>
      <trkpt lat="43.04286" lon="6.20393">
        <ele>44</ele>
        <time>2015-09-04T15:26:29.000Z</time>
      </trkpt>
      <trkpt lat="43.04285" lon="6.20391">
        <ele>45</ele>
        <time>2015-09-04T15:26:30.000Z</time>
      </trkpt>
      <trkpt lat="43.04281" lon="6.20397">
        <ele>45</ele>
        <time>2015-09-04T15:26:31.000Z</time>
      </trkpt>
      <trkpt lat="43.04275" lon="6.20404">
        <ele>44</ele>
        <time>2015-09-04T15:26:32.000Z</time>
      </trkpt>
      <trkpt lat="43.0427" lon="6.20407">
        <ele>43</ele>
        <time>2015-09-04T15:26:33.000Z</time>
      </trkpt>
      <trkpt lat="43.04264" lon="6.20412">
        <ele>44</ele>
        <time>2015-09-04T15:26:34.000Z</time>
      </trkpt>
      <trkpt lat="43.04255" lon="6.20414">
        <ele>44</ele>
        <time>2015-09-04T15:26:35.000Z</time>
      </trkpt>
      <trkpt lat="43.04243" lon="6.20407">
        <ele>43</ele>
        <time>2015-09-04T15:26:36.000Z</time>
      </trkpt>
      <trkpt lat="43.04234" lon="6.2041">
        <ele>44</ele>
        <time>2015-09-04T15:26:37.000Z</time>
      </trkpt>
      <trkpt lat="43.04223" lon="6.20406">
        <ele>44</ele>
        <time>2015-09-04T15:26:38.000Z</time>
      </trkpt>
      <trkpt lat="43.04213" lon="6.20407">
        <ele>44</ele>
        <time>2015-09-04T15:26:39.000Z</time>
      </trkpt>
      <trkpt lat="43.04202" lon="6.20407">
        <ele>45</ele>
        <time>2015-09-04T15:26:40.000Z</time>
      </trkpt>
      <trkpt lat="43.04196" lon="6.20405">
        <ele>47</ele>
        <time>2015-09-04T15:26:41.000Z</time>
      </trkpt>
      <trkpt lat="43.04186" lon="6.20404">
        <ele>46</ele>
        <time>2015-09-04T15:26:42.000Z</time>
      </trkpt>
      <trkpt lat="43.04179" lon="6.20399">
        <ele>46</ele>
        <time>2015-09-04T15:26:43.000Z</time>
      </trkpt>
      <trkpt lat="43.04172" lon="6.20398">
        <ele>46</ele>
        <time>2015-09-04T15:26:44.000Z</time>
      </trkpt>
      <trkpt lat="43.04165" lon="6.20399">
        <ele>46</ele>
        <time>2015-09-04T15:26:45.000Z</time>
      </trkpt>
      <trkpt lat="43.04158" lon="6.20397">
        <ele>47</ele>
        <time>2015-09-04T15:26:46.000Z</time>
      </trkpt>
      <trkpt lat="43.04151" lon="6.20396">
        <ele>47</ele>
        <time>2015-09-04T15:26:47.000Z</time>
      </trkpt>
      <trkpt lat="43.04145" lon="6.20395">
        <ele>48</ele>
        <time>2015-09-04T15:26:48.000Z</time>
      </trkpt>
      <trkpt lat="43.04136" lon="6.20393">
        <ele>47</ele>
        <time>2015-09-04T15:26:49.000Z</time>
      </trkpt>
      <trkpt lat="43.04128" lon="6.20392">
        <ele>48</ele>
        <time>2015-09-04T15:26:50.000Z</time>
      </trkpt>
      <trkpt lat="43.0412" lon="6.2039">
        <ele>49</ele>
        <time>2015-09-04T15:26:51.000Z</time>
      </trkpt>
      <trkpt lat="43.04112" lon="6.20389">
        <ele>50</ele>
        <time>2015-09-04T15:26:52.000Z</time>
      </trkpt>
      <trkpt lat="43.04105" lon="6.20388">
        <ele>51</ele>
        <time>2015-09-04T15:26:53.000Z</time>
      </trkpt>
      <trkpt lat="43.04096" lon="6.20383">
        <ele>50</ele>
        <time>2015-09-04T15:26:54.000Z</time>
      </trkpt>
      <trkpt lat="43.04087" lon="6.2038">
        <ele>50</ele>
        <time>2015-09-04T15:26:55.000Z</time>
      </trkpt>
      <trkpt lat="43.04079" lon="6.2038">
        <ele>50</ele>
        <time>2015-09-04T15:26:56.000Z</time>
      </trkpt>
      <trkpt lat="43.0407" lon="6.20384">
        <ele>50</ele>
        <time>2015-09-04T15:26:57.000Z</time>
      </trkpt>
      <trkpt lat="43.04065" lon="6.20378">
        <ele>50</ele>
        <time>2015-09-04T15:26:58.000Z</time>
      </trkpt>
      <trkpt lat="43.04058" lon="6.20374">
        <ele>49</ele>
        <time>2015-09-04T15:26:59.000Z</time>
      </trkpt>
      <trkpt lat="43.04052" lon="6.20374">
        <ele>48</ele>
        <time>2015-09-04T15:27:00.000Z</time>
      </trkpt>
      <trkpt lat="43.04044" lon="6.20373">
        <ele>47</ele>
        <time>2015-09-04T15:27:01.000Z</time>
      </trkpt>
      <trkpt lat="43.04037" lon="6.2037">
        <ele>47</ele>
        <time>2015-09-04T15:27:02.000Z</time>
      </trkpt>
      <trkpt lat="43.04029" lon="6.20369">
        <ele>47</ele>
        <time>2015-09-04T15:27:03.000Z</time>
      </trkpt>
      <trkpt lat="43.04021" lon="6.20364">
        <ele>44</ele>
        <time>2015-09-04T15:27:04.000Z</time>
      </trkpt>
      <trkpt lat="43.04015" lon="6.20364">
        <ele>44</ele>
        <time>2015-09-04T15:27:05.000Z</time>
      </trkpt>
      <trkpt lat="43.04007" lon="6.20363">
        <ele>44</ele>
        <time>2015-09-04T15:27:06.000Z</time>
      </trkpt>
      <trkpt lat="43.03999" lon="6.20365">
        <ele>44</ele>
        <time>2015-09-04T15:27:07.000Z</time>
      </trkpt>
      <trkpt lat="43.03993" lon="6.20362">
        <ele>44</ele>
        <time>2015-09-04T15:27:08.000Z</time>
      </trkpt>
      <trkpt lat="43.03984" lon="6.20363">
        <ele>45</ele>
        <time>2015-09-04T15:27:09.000Z</time>
      </trkpt>
      <trkpt lat="43.03974" lon="6.20363">
        <ele>45</ele>
        <time>2015-09-04T15:27:10.000Z</time>
      </trkpt>
      <trkpt lat="43.03967" lon="6.20358">
        <ele>45</ele>
        <time>2015-09-04T15:27:11.000Z</time>
      </trkpt>
      <trkpt lat="43.03959" lon="6.20355">
        <ele>45</ele>
        <time>2015-09-04T15:27:12.000Z</time>
      </trkpt>
      <trkpt lat="43.03952" lon="6.20352">
        <ele>45</ele>
        <time>2015-09-04T15:27:13.000Z</time>
      </trkpt>
      <trkpt lat="43.03944" lon="6.20353">
        <ele>47</ele>
        <time>2015-09-04T15:27:14.000Z</time>
      </trkpt>
      <trkpt lat="43.03935" lon="6.20353">
        <ele>46</ele>
        <time>2015-09-04T15:27:15.000Z</time>
      </trkpt>
      <trkpt lat="43.03929" lon="6.20354">
        <ele>46</ele>
        <time>2015-09-04T15:27:16.000Z</time>
      </trkpt>
      <trkpt lat="43.03922" lon="6.20354">
        <ele>46</ele>
        <time>2015-09-04T15:27:17.000Z</time>
      </trkpt>
      <trkpt lat="43.03913" lon="6.20352">
        <ele>46</ele>
        <time>2015-09-04T15:27:18.000Z</time>
      </trkpt>
      <trkpt lat="43.03906" lon="6.20353">
        <ele>47</ele>
        <time>2015-09-04T15:27:19.000Z</time>
      </trkpt>
      <trkpt lat="43.03898" lon="6.20353">
        <ele>47</ele>
        <time>2015-09-04T15:27:20.000Z</time>
      </trkpt>
      <trkpt lat="43.03889" lon="6.20351">
        <ele>47</ele>
        <time>2015-09-04T15:27:21.000Z</time>
      </trkpt>
      <trkpt lat="43.0388" lon="6.2035">
        <ele>48</ele>
        <time>2015-09-04T15:27:22.000Z</time>
      </trkpt>
      <trkpt lat="43.03872" lon="6.20349">
        <ele>48</ele>
        <time>2015-09-04T15:27:23.000Z</time>
      </trkpt>
      <trkpt lat="43.03865" lon="6.20347">
        <ele>50</ele>
        <time>2015-09-04T15:27:24.000Z</time>
      </trkpt>
      <trkpt lat="43.03857" lon="6.20347">
        <ele>51</ele>
        <time>2015-09-04T15:27:25.000Z</time>
      </trkpt>
      <trkpt lat="43.03849" lon="6.20346">
        <ele>50</ele>
        <time>2015-09-04T15:27:26.000Z</time>
      </trkpt>
      <trkpt lat="43.03843" lon="6.20347">
        <ele>50</ele>
        <time>2015-09-04T15:27:27.000Z</time>
      </trkpt>
      <trkpt lat="43.03835" lon="6.20345">
        <ele>49</ele>
        <time>2015-09-04T15:27:28.000Z</time>
      </trkpt>
      <trkpt lat="43.03829" lon="6.2034">
        <ele>49</ele>
        <time>2015-09-04T15:27:29.000Z</time>
      </trkpt>
      <trkpt lat="43.0382" lon="6.20341">
        <ele>49</ele>
        <time>2015-09-04T15:27:30.000Z</time>
      </trkpt>
      <trkpt lat="43.03812" lon="6.20336">
        <ele>49</ele>
        <time>2015-09-04T15:27:31.000Z</time>
      </trkpt>
      <trkpt lat="43.03805" lon="6.2034">
        <ele>49</ele>
        <time>2015-09-04T15:27:32.000Z</time>
      </trkpt>
      <trkpt lat="43.03799" lon="6.20339">
        <ele>48</ele>
        <time>2015-09-04T15:27:33.000Z</time>
      </trkpt>
      <trkpt lat="43.03789" lon="6.2034">
        <ele>48</ele>
        <time>2015-09-04T15:27:34.000Z</time>
      </trkpt>
      <trkpt lat="43.0378" lon="6.20339">
        <ele>46</ele>
        <time>2015-09-04T15:27:35.000Z</time>
      </trkpt>
      <trkpt lat="43.03773" lon="6.2034">
        <ele>46</ele>
        <time>2015-09-04T15:27:36.000Z</time>
      </trkpt>
      <trkpt lat="43.03766" lon="6.2034">
        <ele>46</ele>
        <time>2015-09-04T15:27:37.000Z</time>
      </trkpt>
      <trkpt lat="43.03757" lon="6.20339">
        <ele>46</ele>
        <time>2015-09-04T15:27:38.000Z</time>
      </trkpt>
      <trkpt lat="43.03749" lon="6.20339">
        <ele>46</ele>
        <time>2015-09-04T15:27:39.000Z</time>
      </trkpt>
      <trkpt lat="43.03743" lon="6.20338">
        <ele>47</ele>
        <time>2015-09-04T15:27:40.000Z</time>
      </trkpt>
      <trkpt lat="43.03734" lon="6.20335">
        <ele>47</ele>
        <time>2015-09-04T15:27:41.000Z</time>
      </trkpt>
      <trkpt lat="43.03725" lon="6.20336">
        <ele>47</ele>
        <time>2015-09-04T15:27:42.000Z</time>
      </trkpt>
      <trkpt lat="43.03718" lon="6.20331">
        <ele>49</ele>
        <time>2015-09-04T15:27:43.000Z</time>
      </trkpt>
      <trkpt lat="43.03708" lon="6.20331">
        <ele>49</ele>
        <time>2015-09-04T15:27:44.000Z</time>
      </trkpt>
      <trkpt lat="43.03701" lon="6.20331">
        <ele>49</ele>
        <time>2015-09-04T15:27:45.000Z</time>
      </trkpt>
      <trkpt lat="43.03692" lon="6.20329">
        <ele>49</ele>
        <time>2015-09-04T15:27:46.000Z</time>
      </trkpt>
      <trkpt lat="43.03685" lon="6.20327">
        <ele>49</ele>
        <time>2015-09-04T15:27:47.000Z</time>
      </trkpt>
      <trkpt lat="43.03677" lon="6.20325">
        <ele>49</ele>
        <time>2015-09-04T15:27:48.000Z</time>
      </trkpt>
      <trkpt lat="43.03668" lon="6.20322">
        <ele>49</ele>
        <time>2015-09-04T15:27:49.000Z</time>
      </trkpt>
      <trkpt lat="43.03661" lon="6.2032">
        <ele>49</ele>
        <time>2015-09-04T15:27:50.000Z</time>
      </trkpt>
      <trkpt lat="43.03652" lon="6.20318">
        <ele>50</ele>
        <time>2015-09-04T15:27:51.000Z</time>
      </trkpt>
      <trkpt lat="43.03644" lon="6.20314">
        <ele>49</ele>
        <time>2015-09-04T15:27:52.000Z</time>
      </trkpt>
      <trkpt lat="43.03638" lon="6.20316">
        <ele>48</ele>
        <time>2015-09-04T15:27:53.000Z</time>
      </trkpt>
      <trkpt lat="43.0363" lon="6.20316">
        <ele>49</ele>
        <time>2015-09-04T15:27:54.000Z</time>
      </trkpt>
      <trkpt lat="43.03622" lon="6.20316">
        <ele>50</ele>
        <time>2015-09-04T15:27:55.000Z</time>
      </trkpt>
      <trkpt lat="43.03616" lon="6.20314">
        <ele>49</ele>
        <time>2015-09-04T15:27:56.000Z</time>
      </trkpt>
      <trkpt lat="43.03608" lon="6.20311">
        <ele>50</ele>
        <time>2015-09-04T15:27:57.000Z</time>
      </trkpt>
      <trkpt lat="43.03601" lon="6.20308">
        <ele>48</ele>
        <time>2015-09-04T15:27:58.000Z</time>
      </trkpt>
      <trkpt lat="43.03594" lon="6.20306">
        <ele>48</ele>
        <time>2015-09-04T15:27:59.000Z</time>
      </trkpt>
      <trkpt lat="43.03585" lon="6.20302">
        <ele>49</ele>
        <time>2015-09-04T15:28:00.000Z</time>
      </trkpt>
      <trkpt lat="43.03578" lon="6.20299">
        <ele>49</ele>
        <time>2015-09-04T15:28:01.000Z</time>
      </trkpt>
      <trkpt lat="43.03568" lon="6.20298">
        <ele>48</ele>
        <time>2015-09-04T15:28:02.000Z</time>
      </trkpt>
      <trkpt lat="43.0356" lon="6.203">
        <ele>50</ele>
        <time>2015-09-04T15:28:03.000Z</time>
      </trkpt>
      <trkpt lat="43.03552" lon="6.20301">
        <ele>48</ele>
        <time>2015-09-04T15:28:04.000Z</time>
      </trkpt>
      <trkpt lat="43.03544" lon="6.20295">
        <ele>48</ele>
        <time>2015-09-04T15:28:05.000Z</time>
      </trkpt>
      <trkpt lat="43.03538" lon="6.20294">
        <ele>47</ele>
        <time>2015-09-04T15:28:06.000Z</time>
      </trkpt>
      <trkpt lat="43.0353" lon="6.2029">
        <ele>46</ele>
        <time>2015-09-04T15:28:07.000Z</time>
      </trkpt>
      <trkpt lat="43.03523" lon="6.20289">
        <ele>46</ele>
        <time>2015-09-04T15:28:08.000Z</time>
      </trkpt>
      <trkpt lat="43.03516" lon="6.20287">
        <ele>47</ele>
        <time>2015-09-04T15:28:09.000Z</time>
      </trkpt>
      <trkpt lat="43.0351" lon="6.20284">
        <ele>48</ele>
        <time>2015-09-04T15:28:10.000Z</time>
      </trkpt>
      <trkpt lat="43.03501" lon="6.20282">
        <ele>48</ele>
        <time>2015-09-04T15:28:11.000Z</time>
      </trkpt>
      <trkpt lat="43.03494" lon="6.20282">
        <ele>48</ele>
        <time>2015-09-04T15:28:12.000Z</time>
      </trkpt>
      <trkpt lat="43.03484" lon="6.2028">
        <ele>49</ele>
        <time>2015-09-04T15:28:13.000Z</time>
      </trkpt>
      <trkpt lat="43.03479" lon="6.2028">
        <ele>48</ele>
        <time>2015-09-04T15:28:14.000Z</time>
      </trkpt>
      <trkpt lat="43.0347" lon="6.20277">
        <ele>47</ele>
        <time>2015-09-04T15:28:15.000Z</time>
      </trkpt>
      <trkpt lat="43.03464" lon="6.20275">
        <ele>47</ele>
        <time>2015-09-04T15:28:16.000Z</time>
      </trkpt>
      <trkpt lat="43.03458" lon="6.20276">
        <ele>47</ele>
        <time>2015-09-04T15:28:17.000Z</time>
      </trkpt>
      <trkpt lat="43.03451" lon="6.20274">
        <ele>47</ele>
        <time>2015-09-04T15:28:18.000Z</time>
      </trkpt>
      <trkpt lat="43.03444" lon="6.2027">
        <ele>47</ele>
        <time>2015-09-04T15:28:19.000Z</time>
      </trkpt>
      <trkpt lat="43.03436" lon="6.20266">
        <ele>46</ele>
        <time>2015-09-04T15:28:20.000Z</time>
      </trkpt>
      <trkpt lat="43.03427" lon="6.20268">
        <ele>45</ele>
        <time>2015-09-04T15:28:21.000Z</time>
      </trkpt>
      <trkpt lat="43.0342" lon="6.20261">
        <ele>43</ele>
        <time>2015-09-04T15:28:22.000Z</time>
      </trkpt>
      <trkpt lat="43.03413" lon="6.20256">
        <ele>42</ele>
        <time>2015-09-04T15:28:23.000Z</time>
      </trkpt>
      <trkpt lat="43.03404" lon="6.20253">
        <ele>42</ele>
        <time>2015-09-04T15:28:24.000Z</time>
      </trkpt>
      <trkpt lat="43.03396" lon="6.20255">
        <ele>43</ele>
        <time>2015-09-04T15:28:25.000Z</time>
      </trkpt>
      <trkpt lat="43.03389" lon="6.20254">
        <ele>44</ele>
        <time>2015-09-04T15:28:26.000Z</time>
      </trkpt>
      <trkpt lat="43.03382" lon="6.20249">
        <ele>44</ele>
        <time>2015-09-04T15:28:27.000Z</time>
      </trkpt>
      <trkpt lat="43.03376" lon="6.20247">
        <ele>40</ele>
        <time>2015-09-04T15:28:28.000Z</time>
      </trkpt>
      <trkpt lat="43.03369" lon="6.20246">
        <ele>40</ele>
        <time>2015-09-04T15:28:29.000Z</time>
      </trkpt>
      <trkpt lat="43.03362" lon="6.20248">
        <ele>40</ele>
        <time>2015-09-04T15:28:30.000Z</time>
      </trkpt>
      <trkpt lat="43.03355" lon="6.20248">
        <ele>41</ele>
        <time>2015-09-04T15:28:31.000Z</time>
      </trkpt>
      <trkpt lat="43.03347" lon="6.20247">
        <ele>41</ele>
        <time>2015-09-04T15:28:32.000Z</time>
      </trkpt>
      <trkpt lat="43.03342" lon="6.20248">
        <ele>42</ele>
        <time>2015-09-04T15:28:33.000Z</time>
      </trkpt>
      <trkpt lat="43.03336" lon="6.2025">
        <ele>42</ele>
        <time>2015-09-04T15:28:34.000Z</time>
      </trkpt>
      <trkpt lat="43.03325" lon="6.20251">
        <ele>42</ele>
        <time>2015-09-04T15:28:35.000Z</time>
      </trkpt>
      <trkpt lat="43.03318" lon="6.20249">
        <ele>41</ele>
        <time>2015-09-04T15:28:36.000Z</time>
      </trkpt>
      <trkpt lat="43.03313" lon="6.20253">
        <ele>42</ele>
        <time>2015-09-04T15:28:37.000Z</time>
      </trkpt>
      <trkpt lat="43.03305" lon="6.20251">
        <ele>41</ele>
        <time>2015-09-04T15:28:38.000Z</time>
      </trkpt>
      <trkpt lat="43.03296" lon="6.20248">
        <ele>41</ele>
        <time>2015-09-04T15:28:39.000Z</time>
      </trkpt>
      <trkpt lat="43.03286" lon="6.20246">
        <ele>41</ele>
        <time>2015-09-04T15:28:40.000Z</time>
      </trkpt>
      <trkpt lat="43.03279" lon="6.20244">
        <ele>42</ele>
        <time>2015-09-04T15:28:41.000Z</time>
      </trkpt>
      <trkpt lat="43.03271" lon="6.20243">
        <ele>43</ele>
        <time>2015-09-04T15:28:42.000Z</time>
      </trkpt>
      <trkpt lat="43.03263" lon="6.2024">
        <ele>43</ele>
        <time>2015-09-04T15:28:43.000Z</time>
      </trkpt>
      <trkpt lat="43.03257" lon="6.20239">
        <ele>42</ele>
        <time>2015-09-04T15:28:44.000Z</time>
      </trkpt>
      <trkpt lat="43.03251" lon="6.20238">
        <ele>42</ele>
        <time>2015-09-04T15:28:45.000Z</time>
      </trkpt>
      <trkpt lat="43.03245" lon="6.20236">
        <ele>41</ele>
        <time>2015-09-04T15:28:46.000Z</time>
      </trkpt>
      <trkpt lat="43.03237" lon="6.20235">
        <ele>41</ele>
        <time>2015-09-04T15:28:47.000Z</time>
      </trkpt>
      <trkpt lat="43.03231" lon="6.20234">
        <ele>42</ele>
        <time>2015-09-04T15:28:48.000Z</time>
      </trkpt>
      <trkpt lat="43.03225" lon="6.20231">
        <ele>42</ele>
        <time>2015-09-04T15:28:49.000Z</time>
      </trkpt>
      <trkpt lat="43.03219" lon="6.2023">
        <ele>42</ele>
        <time>2015-09-04T15:28:50.000Z</time>
      </trkpt>
      <trkpt lat="43.03209" lon="6.20233">
        <ele>42</ele>
        <time>2015-09-04T15:28:51.000Z</time>
      </trkpt>
      <trkpt lat="43.03202" lon="6.20233">
        <ele>42</ele>
        <time>2015-09-04T15:28:52.000Z</time>
      </trkpt>
      <trkpt lat="43.03195" lon="6.20231">
        <ele>42</ele>
        <time>2015-09-04T15:28:53.000Z</time>
      </trkpt>
      <trkpt lat="43.03188" lon="6.20229">
        <ele>43</ele>
        <time>2015-09-04T15:28:54.000Z</time>
      </trkpt>
      <trkpt lat="43.03181" lon="6.2023">
        <ele>44</ele>
        <time>2015-09-04T15:28:55.000Z</time>
      </trkpt>
      <trkpt lat="43.03175" lon="6.20231">
        <ele>43</ele>
        <time>2015-09-04T15:28:56.000Z</time>
      </trkpt>
      <trkpt lat="43.03166" lon="6.20228">
        <ele>43</ele>
        <time>2015-09-04T15:28:57.000Z</time>
      </trkpt>
      <trkpt lat="43.03158" lon="6.20229">
        <ele>43</ele>
        <time>2015-09-04T15:28:58.000Z</time>
      </trkpt>
      <trkpt lat="43.0315" lon="6.20228">
        <ele>43</ele>
        <time>2015-09-04T15:28:59.000Z</time>
      </trkpt>
      <trkpt lat="43.03143" lon="6.20227">
        <ele>45</ele>
        <time>2015-09-04T15:29:00.000Z</time>
      </trkpt>
      <trkpt lat="43.03138" lon="6.20232">
        <ele>45</ele>
        <time>2015-09-04T15:29:01.000Z</time>
      </trkpt>
      <trkpt lat="43.0313" lon="6.20233">
        <ele>45</ele>
        <time>2015-09-04T15:29:02.000Z</time>
      </trkpt>
      <trkpt lat="43.03121" lon="6.20232">
        <ele>45</ele>
        <time>2015-09-04T15:29:03.000Z</time>
      </trkpt>
      <trkpt lat="43.03115" lon="6.20233">
        <ele>45</ele>
        <time>2015-09-04T15:29:04.000Z</time>
      </trkpt>
      <trkpt lat="43.03109" lon="6.20236">
        <ele>44</ele>
        <time>2015-09-04T15:29:05.000Z</time>
      </trkpt>
      <trkpt lat="43.03104" lon="6.20233">
        <ele>44</ele>
        <time>2015-09-04T15:29:06.000Z</time>
      </trkpt>
      <trkpt lat="43.03094" lon="6.20233">
        <ele>44</ele>
        <time>2015-09-04T15:29:07.000Z</time>
      </trkpt>
      <trkpt lat="43.03086" lon="6.20232">
        <ele>44</ele>
        <time>2015-09-04T15:29:08.000Z</time>
      </trkpt>
      <trkpt lat="43.03078" lon="6.2023">
        <ele>43</ele>
        <time>2015-09-04T15:29:09.000Z</time>
      </trkpt>
      <trkpt lat="43.0307" lon="6.20229">
        <ele>47</ele>
        <time>2015-09-04T15:29:10.000Z</time>
      </trkpt>
      <trkpt lat="43.03063" lon="6.20227">
        <ele>46</ele>
        <time>2015-09-04T15:29:11.000Z</time>
      </trkpt>
      <trkpt lat="43.03057" lon="6.20229">
        <ele>46</ele>
        <time>2015-09-04T15:29:12.000Z</time>
      </trkpt>
      <trkpt lat="43.03049" lon="6.20229">
        <ele>45</ele>
        <time>2015-09-04T15:29:13.000Z</time>
      </trkpt>
      <trkpt lat="43.03041" lon="6.2023">
        <ele>46</ele>
        <time>2015-09-04T15:29:14.000Z</time>
      </trkpt>
      <trkpt lat="43.03034" lon="6.20227">
        <ele>46</ele>
        <time>2015-09-04T15:29:15.000Z</time>
      </trkpt>
      <trkpt lat="43.03026" lon="6.20228">
        <ele>46</ele>
        <time>2015-09-04T15:29:16.000Z</time>
      </trkpt>
      <trkpt lat="43.0302" lon="6.20227">
        <ele>45</ele>
        <time>2015-09-04T15:29:17.000Z</time>
      </trkpt>
      <trkpt lat="43.03014" lon="6.20225">
        <ele>45</ele>
        <time>2015-09-04T15:29:18.000Z</time>
      </trkpt>
      <trkpt lat="43.03006" lon="6.20227">
        <ele>45</ele>
        <time>2015-09-04T15:29:19.000Z</time>
      </trkpt>
      <trkpt lat="43.02997" lon="6.20228">
        <ele>45</ele>
        <time>2015-09-04T15:29:20.000Z</time>
      </trkpt>
      <trkpt lat="43.02989" lon="6.20227">
        <ele>45</ele>
        <time>2015-09-04T15:29:21.000Z</time>
      </trkpt>
      <trkpt lat="43.02981" lon="6.20227">
        <ele>45</ele>
        <time>2015-09-04T15:29:22.000Z</time>
      </trkpt>
      <trkpt lat="43.02972" lon="6.20227">
        <ele>46</ele>
        <time>2015-09-04T15:29:23.000Z</time>
      </trkpt>
      <trkpt lat="43.02965" lon="6.20224">
        <ele>46</ele>
        <time>2015-09-04T15:29:24.000Z</time>
      </trkpt>
      <trkpt lat="43.02959" lon="6.20222">
        <ele>47</ele>
        <time>2015-09-04T15:29:25.000Z</time>
      </trkpt>
      <trkpt lat="43.02951" lon="6.2022">
        <ele>45</ele>
        <time>2015-09-04T15:29:26.000Z</time>
      </trkpt>
      <trkpt lat="43.02942" lon="6.20223">
        <ele>45</ele>
        <time>2015-09-04T15:29:27.000Z</time>
      </trkpt>
      <trkpt lat="43.02937" lon="6.20222">
        <ele>45</ele>
        <time>2015-09-04T15:29:28.000Z</time>
      </trkpt>
      <trkpt lat="43.02929" lon="6.2022">
        <ele>44</ele>
        <time>2015-09-04T15:29:29.000Z</time>
      </trkpt>
      <trkpt lat="43.02922" lon="6.20217">
        <ele>44</ele>
        <time>2015-09-04T15:29:30.000Z</time>
      </trkpt>
      <trkpt lat="43.02914" lon="6.20221">
        <ele>47</ele>
        <time>2015-09-04T15:29:31.000Z</time>
      </trkpt>
      <trkpt lat="43.02906" lon="6.20222">
        <ele>48</ele>
        <time>2015-09-04T15:29:32.000Z</time>
      </trkpt>
      <trkpt lat="43.02901" lon="6.2022">
        <ele>49</ele>
        <time>2015-09-04T15:29:33.000Z</time>
      </trkpt>
      <trkpt lat="43.02893" lon="6.20219">
        <ele>49</ele>
        <time>2015-09-04T15:29:34.000Z</time>
      </trkpt>
      <trkpt lat="43.02887" lon="6.20214">
        <ele>45</ele>
        <time>2015-09-04T15:29:35.000Z</time>
      </trkpt>
      <trkpt lat="43.02881" lon="6.20216">
        <ele>45</ele>
        <time>2015-09-04T15:29:36.000Z</time>
      </trkpt>
      <trkpt lat="43.02873" lon="6.20216">
        <ele>45</ele>
        <time>2015-09-04T15:29:37.000Z</time>
      </trkpt>
      <trkpt lat="43.02865" lon="6.20215">
        <ele>46</ele>
        <time>2015-09-04T15:29:38.000Z</time>
      </trkpt>
      <trkpt lat="43.02858" lon="6.20214">
        <ele>47</ele>
        <time>2015-09-04T15:29:39.000Z</time>
      </trkpt>
      <trkpt lat="43.02852" lon="6.20214">
        <ele>48</ele>
        <time>2015-09-04T15:29:40.000Z</time>
      </trkpt>
      <trkpt lat="43.02847" lon="6.20216">
        <ele>49</ele>
        <time>2015-09-04T15:29:41.000Z</time>
      </trkpt>
      <trkpt lat="43.0284" lon="6.20213">
        <ele>49</ele>
        <time>2015-09-04T15:29:42.000Z</time>
      </trkpt>
      <trkpt lat="43.02831" lon="6.20211">
        <ele>48</ele>
        <time>2015-09-04T15:29:43.000Z</time>
      </trkpt>
      <trkpt lat="43.02825" lon="6.2021">
        <ele>47</ele>
        <time>2015-09-04T15:29:44.000Z</time>
      </trkpt>
      <trkpt lat="43.02819" lon="6.20211">
        <ele>46</ele>
        <time>2015-09-04T15:29:45.000Z</time>
      </trkpt>
      <trkpt lat="43.02812" lon="6.2021">
        <ele>47</ele>
        <time>2015-09-04T15:29:46.000Z</time>
      </trkpt>
      <trkpt lat="43.02803" lon="6.20211">
        <ele>46</ele>
        <time>2015-09-04T15:29:47.000Z</time>
      </trkpt>
      <trkpt lat="43.02795" lon="6.20209">
        <ele>46</ele>
        <time>2015-09-04T15:29:48.000Z</time>
      </trkpt>
      <trkpt lat="43.02788" lon="6.2021">
        <ele>46</ele>
        <time>2015-09-04T15:29:49.000Z</time>
      </trkpt>
      <trkpt lat="43.0278" lon="6.20211">
        <ele>45</ele>
        <time>2015-09-04T15:29:50.000Z</time>
      </trkpt>
      <trkpt lat="43.02771" lon="6.20211">
        <ele>46</ele>
        <time>2015-09-04T15:29:51.000Z</time>
      </trkpt>
      <trkpt lat="43.02762" lon="6.20212">
        <ele>48</ele>
        <time>2015-09-04T15:29:52.000Z</time>
      </trkpt>
      <trkpt lat="43.02755" lon="6.2021">
        <ele>50</ele>
        <time>2015-09-04T15:29:53.000Z</time>
      </trkpt>
      <trkpt lat="43.02748" lon="6.20207">
        <ele>51</ele>
        <time>2015-09-04T15:29:54.000Z</time>
      </trkpt>
      <trkpt lat="43.02742" lon="6.20207">
        <ele>51</ele>
        <time>2015-09-04T15:29:55.000Z</time>
      </trkpt>
      <trkpt lat="43.02736" lon="6.20209">
        <ele>52</ele>
        <time>2015-09-04T15:29:56.000Z</time>
      </trkpt>
      <trkpt lat="43.02729" lon="6.20211">
        <ele>52</ele>
        <time>2015-09-04T15:29:57.000Z</time>
      </trkpt>
      <trkpt lat="43.02722" lon="6.20207">
        <ele>54</ele>
        <time>2015-09-04T15:29:58.000Z</time>
      </trkpt>
      <trkpt lat="43.02715" lon="6.20209">
        <ele>54</ele>
        <time>2015-09-04T15:29:59.000Z</time>
      </trkpt>
      <trkpt lat="43.02709" lon="6.20208">
        <ele>55</ele>
        <time>2015-09-04T15:30:00.000Z</time>
      </trkpt>
      <trkpt lat="43.027" lon="6.2021">
        <ele>55</ele>
        <time>2015-09-04T15:30:01.000Z</time>
      </trkpt>
      <trkpt lat="43.02693" lon="6.2021">
        <ele>54</ele>
        <time>2015-09-04T15:30:02.000Z</time>
      </trkpt>
      <trkpt lat="43.02684" lon="6.2021">
        <ele>53</ele>
        <time>2015-09-04T15:30:03.000Z</time>
      </trkpt>
      <trkpt lat="43.0268" lon="6.20214">
        <ele>53</ele>
        <time>2015-09-04T15:30:04.000Z</time>
      </trkpt>
      <trkpt lat="43.02671" lon="6.20215">
        <ele>54</ele>
        <time>2015-09-04T15:30:05.000Z</time>
      </trkpt>
      <trkpt lat="43.02665" lon="6.20214">
        <ele>54</ele>
        <time>2015-09-04T15:30:06.000Z</time>
      </trkpt>
      <trkpt lat="43.02658" lon="6.20214">
        <ele>53</ele>
        <time>2015-09-04T15:30:07.000Z</time>
      </trkpt>
      <trkpt lat="43.02652" lon="6.20221">
        <ele>53</ele>
        <time>2015-09-04T15:30:08.000Z</time>
      </trkpt>
      <trkpt lat="43.02642" lon="6.20225">
        <ele>53</ele>
        <time>2015-09-04T15:30:09.000Z</time>
      </trkpt>
      <trkpt lat="43.02635" lon="6.20225">
        <ele>52</ele>
        <time>2015-09-04T15:30:10.000Z</time>
      </trkpt>
      <trkpt lat="43.02625" lon="6.20231">
        <ele>52</ele>
        <time>2015-09-04T15:30:11.000Z</time>
      </trkpt>
      <trkpt lat="43.02619" lon="6.20233">
        <ele>53</ele>
        <time>2015-09-04T15:30:12.000Z</time>
      </trkpt>
      <trkpt lat="43.0261" lon="6.20231">
        <ele>55</ele>
        <time>2015-09-04T15:30:13.000Z</time>
      </trkpt>
      <trkpt lat="43.02604" lon="6.20231">
        <ele>53</ele>
        <time>2015-09-04T15:30:14.000Z</time>
      </trkpt>
      <trkpt lat="43.02597" lon="6.20233">
        <ele>54</ele>
        <time>2015-09-04T15:30:15.000Z</time>
      </trkpt>
      <trkpt lat="43.02589" lon="6.2023">
        <ele>53</ele>
        <time>2015-09-04T15:30:16.000Z</time>
      </trkpt>
      <trkpt lat="43.02581" lon="6.20229">
        <ele>54</ele>
        <time>2015-09-04T15:30:17.000Z</time>
      </trkpt>
      <trkpt lat="43.02574" lon="6.20228">
        <ele>53</ele>
        <time>2015-09-04T15:30:18.000Z</time>
      </trkpt>
      <trkpt lat="43.02567" lon="6.2023">
        <ele>53</ele>
        <time>2015-09-04T15:30:19.000Z</time>
      </trkpt>
      <trkpt lat="43.02557" lon="6.2023">
        <ele>52</ele>
        <time>2015-09-04T15:30:20.000Z</time>
      </trkpt>
      <trkpt lat="43.02547" lon="6.20233">
        <ele>54</ele>
        <time>2015-09-04T15:30:21.000Z</time>
      </trkpt>
      <trkpt lat="43.0254" lon="6.20233">
        <ele>54</ele>
        <time>2015-09-04T15:30:22.000Z</time>
      </trkpt>
      <trkpt lat="43.02529" lon="6.20232">
        <ele>53</ele>
        <time>2015-09-04T15:30:23.000Z</time>
      </trkpt>
      <trkpt lat="43.02521" lon="6.20235">
        <ele>54</ele>
        <time>2015-09-04T15:30:24.000Z</time>
      </trkpt>
      <trkpt lat="43.02512" lon="6.20234">
        <ele>53</ele>
        <time>2015-09-04T15:30:25.000Z</time>
      </trkpt>
      <trkpt lat="43.02504" lon="6.20234">
        <ele>54</ele>
        <time>2015-09-04T15:30:26.000Z</time>
      </trkpt>
      <trkpt lat="43.02498" lon="6.20237">
        <ele>52</ele>
        <time>2015-09-04T15:30:27.000Z</time>
      </trkpt>
      <trkpt lat="43.0249" lon="6.20234">
        <ele>51</ele>
        <time>2015-09-04T15:30:28.000Z</time>
      </trkpt>
      <trkpt lat="43.02481" lon="6.20231">
        <ele>51</ele>
        <time>2015-09-04T15:30:29.000Z</time>
      </trkpt>
      <trkpt lat="43.02472" lon="6.2023">
        <ele>51</ele>
        <time>2015-09-04T15:30:30.000Z</time>
      </trkpt>
      <trkpt lat="43.02465" lon="6.20229">
        <ele>51</ele>
        <time>2015-09-04T15:30:31.000Z</time>
      </trkpt>
      <trkpt lat="43.02456" lon="6.2023">
        <ele>51</ele>
        <time>2015-09-04T15:30:32.000Z</time>
      </trkpt>
      <trkpt lat="43.02449" lon="6.20228">
        <ele>47</ele>
        <time>2015-09-04T15:30:33.000Z</time>
      </trkpt>
      <trkpt lat="43.02443" lon="6.20231">
        <ele>46</ele>
        <time>2015-09-04T15:30:34.000Z</time>
      </trkpt>
      <trkpt lat="43.02436" lon="6.20231">
        <ele>46</ele>
        <time>2015-09-04T15:30:35.000Z</time>
      </trkpt>
      <trkpt lat="43.02426" lon="6.20235">
        <ele>46</ele>
        <time>2015-09-04T15:30:36.000Z</time>
      </trkpt>
      <trkpt lat="43.02415" lon="6.20232">
        <ele>46</ele>
        <time>2015-09-04T15:30:37.000Z</time>
      </trkpt>
      <trkpt lat="43.02409" lon="6.20242">
        <ele>47</ele>
        <time>2015-09-04T15:30:38.000Z</time>
      </trkpt>
      <trkpt lat="43.02398" lon="6.20243">
        <ele>47</ele>
        <time>2015-09-04T15:30:39.000Z</time>
      </trkpt>
      <trkpt lat="43.0239" lon="6.20244">
        <ele>47</ele>
        <time>2015-09-04T15:30:40.000Z</time>
      </trkpt>
      <trkpt lat="43.02382" lon="6.20247">
        <ele>47</ele>
        <time>2015-09-04T15:30:41.000Z</time>
      </trkpt>
      <trkpt lat="43.02374" lon="6.20246">
        <ele>47</ele>
        <time>2015-09-04T15:30:42.000Z</time>
      </trkpt>
      <trkpt lat="43.02368" lon="6.20248">
        <ele>47</ele>
        <time>2015-09-04T15:30:43.000Z</time>
      </trkpt>
      <trkpt lat="43.0236" lon="6.20242">
        <ele>45</ele>
        <time>2015-09-04T15:30:44.000Z</time>
      </trkpt>
      <trkpt lat="43.02353" lon="6.20244">
        <ele>46</ele>
        <time>2015-09-04T15:30:45.000Z</time>
      </trkpt>
      <trkpt lat="43.02347" lon="6.20246">
        <ele>45</ele>
        <time>2015-09-04T15:30:46.000Z</time>
      </trkpt>
      <trkpt lat="43.0234" lon="6.20242">
        <ele>45</ele>
        <time>2015-09-04T15:30:47.000Z</time>
      </trkpt>
      <trkpt lat="43.02334" lon="6.20242">
        <ele>45</ele>
        <time>2015-09-04T15:30:48.000Z</time>
      </trkpt>
      <trkpt lat="43.02326" lon="6.20242">
        <ele>46</ele>
        <time>2015-09-04T15:30:49.000Z</time>
      </trkpt>
      <trkpt lat="43.02314" lon="6.20235">
        <ele>46</ele>
        <time>2015-09-04T15:30:50.000Z</time>
      </trkpt>
      <trkpt lat="43.02306" lon="6.20244">
        <ele>47</ele>
        <time>2015-09-04T15:30:51.000Z</time>
      </trkpt>
      <trkpt lat="43.02298" lon="6.20245">
        <ele>47</ele>
        <time>2015-09-04T15:30:52.000Z</time>
      </trkpt>
      <trkpt lat="43.02292" lon="6.20245">
        <ele>48</ele>
        <time>2015-09-04T15:30:53.000Z</time>
      </trkpt>
      <trkpt lat="43.02284" lon="6.20248">
        <ele>49</ele>
        <time>2015-09-04T15:30:54.000Z</time>
      </trkpt>
      <trkpt lat="43.02275" lon="6.20245">
        <ele>49</ele>
        <time>2015-09-04T15:30:55.000Z</time>
      </trkpt>
      <trkpt lat="43.02269" lon="6.20244">
        <ele>50</ele>
        <time>2015-09-04T15:30:56.000Z</time>
      </trkpt>
      <trkpt lat="43.02262" lon="6.20246">
        <ele>48</ele>
        <time>2015-09-04T15:30:57.000Z</time>
      </trkpt>
      <trkpt lat="43.02254" lon="6.20244">
        <ele>48</ele>
        <time>2015-09-04T15:30:58.000Z</time>
      </trkpt>
      <trkpt lat="43.02248" lon="6.20243">
        <ele>48</ele>
        <time>2015-09-04T15:30:59.000Z</time>
      </trkpt>
      <trkpt lat="43.0224" lon="6.2024">
        <ele>47</ele>
        <time>2015-09-04T15:31:00.000Z</time>
      </trkpt>
      <trkpt lat="43.02232" lon="6.20241">
        <ele>47</ele>
        <time>2015-09-04T15:31:01.000Z</time>
      </trkpt>
      <trkpt lat="43.02223" lon="6.20243">
        <ele>47</ele>
        <time>2015-09-04T15:31:02.000Z</time>
      </trkpt>
      <trkpt lat="43.02214" lon="6.20247">
        <ele>47</ele>
        <time>2015-09-04T15:31:03.000Z</time>
      </trkpt>
      <trkpt lat="43.02203" lon="6.20247">
        <ele>47</ele>
        <time>2015-09-04T15:31:04.000Z</time>
      </trkpt>
      <trkpt lat="43.02196" lon="6.20248">
        <ele>47</ele>
        <time>2015-09-04T15:31:05.000Z</time>
      </trkpt>
      <trkpt lat="43.02187" lon="6.20248">
        <ele>49</ele>
        <time>2015-09-04T15:31:06.000Z</time>
      </trkpt>
      <trkpt lat="43.02179" lon="6.20247">
        <ele>50</ele>
        <time>2015-09-04T15:31:07.000Z</time>
      </trkpt>
      <trkpt lat="43.0217" lon="6.20243">
        <ele>50</ele>
        <time>2015-09-04T15:31:08.000Z</time>
      </trkpt>
      <trkpt lat="43.02166" lon="6.20248">
        <ele>52</ele>
        <time>2015-09-04T15:31:09.000Z</time>
      </trkpt>
      <trkpt lat="43.02157" lon="6.20249">
        <ele>51</ele>
        <time>2015-09-04T15:31:10.000Z</time>
      </trkpt>
      <trkpt lat="43.02151" lon="6.20251">
        <ele>51</ele>
        <time>2015-09-04T15:31:11.000Z</time>
      </trkpt>
      <trkpt lat="43.02141" lon="6.2025">
        <ele>51</ele>
        <time>2015-09-04T15:31:12.000Z</time>
      </trkpt>
      <trkpt lat="43.02134" lon="6.20249">
        <ele>50</ele>
        <time>2015-09-04T15:31:13.000Z</time>
      </trkpt>
      <trkpt lat="43.02123" lon="6.20252">
        <ele>50</ele>
        <time>2015-09-04T15:31:14.000Z</time>
      </trkpt>
      <trkpt lat="43.02117" lon="6.20248">
        <ele>50</ele>
        <time>2015-09-04T15:31:15.000Z</time>
      </trkpt>
      <trkpt lat="43.02111" lon="6.20251">
        <ele>50</ele>
        <time>2015-09-04T15:31:16.000Z</time>
      </trkpt>
      <trkpt lat="43.02104" lon="6.2025">
        <ele>51</ele>
        <time>2015-09-04T15:31:17.000Z</time>
      </trkpt>
      <trkpt lat="43.02096" lon="6.20247">
        <ele>50</ele>
        <time>2015-09-04T15:31:18.000Z</time>
      </trkpt>
      <trkpt lat="43.0209" lon="6.20245">
        <ele>51</ele>
        <time>2015-09-04T15:31:19.000Z</time>
      </trkpt>
      <trkpt lat="43.0208" lon="6.20242">
        <ele>52</ele>
        <time>2015-09-04T15:31:20.000Z</time>
      </trkpt>
      <trkpt lat="43.02071" lon="6.20243">
        <ele>53</ele>
        <time>2015-09-04T15:31:21.000Z</time>
      </trkpt>
      <trkpt lat="43.02062" lon="6.20241">
        <ele>52</ele>
        <time>2015-09-04T15:31:22.000Z</time>
      </trkpt>
      <trkpt lat="43.02054" lon="6.20241">
        <ele>53</ele>
        <time>2015-09-04T15:31:23.000Z</time>
      </trkpt>
      <trkpt lat="43.02047" lon="6.20243">
        <ele>53</ele>
        <time>2015-09-04T15:31:24.000Z</time>
      </trkpt>
      <trkpt lat="43.02041" lon="6.20245">
        <ele>53</ele>
        <time>2015-09-04T15:31:25.000Z</time>
      </trkpt>
      <trkpt lat="43.02032" lon="6.20243">
        <ele>52</ele>
        <time>2015-09-04T15:31:26.000Z</time>
      </trkpt>
      <trkpt lat="43.02022" lon="6.20243">
        <ele>52</ele>
        <time>2015-09-04T15:31:27.000Z</time>
      </trkpt>
      <trkpt lat="43.02015" lon="6.20239">
        <ele>52</ele>
        <time>2015-09-04T15:31:28.000Z</time>
      </trkpt>
      <trkpt lat="43.02007" lon="6.20237">
        <ele>52</ele>
        <time>2015-09-04T15:31:29.000Z</time>
      </trkpt>
      <trkpt lat="43.02002" lon="6.20241">
        <ele>51</ele>
        <time>2015-09-04T15:31:30.000Z</time>
      </trkpt>
      <trkpt lat="43.01993" lon="6.20243">
        <ele>52</ele>
        <time>2015-09-04T15:31:31.000Z</time>
      </trkpt>
      <trkpt lat="43.01986" lon="6.20244">
        <ele>53</ele>
        <time>2015-09-04T15:31:32.000Z</time>
      </trkpt>
      <trkpt lat="43.01979" lon="6.20247">
        <ele>53</ele>
        <time>2015-09-04T15:31:33.000Z</time>
      </trkpt>
      <trkpt lat="43.01969" lon="6.20245">
        <ele>52</ele>
        <time>2015-09-04T15:31:34.000Z</time>
      </trkpt>
      <trkpt lat="43.0196" lon="6.20245">
        <ele>52</ele>
        <time>2015-09-04T15:31:35.000Z</time>
      </trkpt>
      <trkpt lat="43.01952" lon="6.20243">
        <ele>52</ele>
        <time>2015-09-04T15:31:36.000Z</time>
      </trkpt>
      <trkpt lat="43.01943" lon="6.20242">
        <ele>52</ele>
        <time>2015-09-04T15:31:37.000Z</time>
      </trkpt>
      <trkpt lat="43.01939" lon="6.20247">
        <ele>53</ele>
        <time>2015-09-04T15:31:38.000Z</time>
      </trkpt>
      <trkpt lat="43.01929" lon="6.20245">
        <ele>55</ele>
        <time>2015-09-04T15:31:39.000Z</time>
      </trkpt>
      <trkpt lat="43.01917" lon="6.20239">
        <ele>55</ele>
        <time>2015-09-04T15:31:40.000Z</time>
      </trkpt>
      <trkpt lat="43.01909" lon="6.20238">
        <ele>54</ele>
        <time>2015-09-04T15:31:41.000Z</time>
      </trkpt>
      <trkpt lat="43.019" lon="6.20237">
        <ele>54</ele>
        <time>2015-09-04T15:31:42.000Z</time>
      </trkpt>
      <trkpt lat="43.01895" lon="6.20239">
        <ele>53</ele>
        <time>2015-09-04T15:31:43.000Z</time>
      </trkpt>
      <trkpt lat="43.0189" lon="6.2024">
        <ele>54</ele>
        <time>2015-09-04T15:31:44.000Z</time>
      </trkpt>
      <trkpt lat="43.01886" lon="6.2024">
        <ele>53</ele>
        <time>2015-09-04T15:31:45.000Z</time>
      </trkpt>
      <trkpt lat="43.0188" lon="6.2024">
        <ele>53</ele>
        <time>2015-09-04T15:31:46.000Z</time>
      </trkpt>
      <trkpt lat="43.01872" lon="6.20241">
        <ele>54</ele>
        <time>2015-09-04T15:31:47.000Z</time>
      </trkpt>
      <trkpt lat="43.01865" lon="6.20243">
        <ele>53</ele>
        <time>2015-09-04T15:31:48.000Z</time>
      </trkpt>
      <trkpt lat="43.01857" lon="6.20246">
        <ele>54</ele>
        <time>2015-09-04T15:31:49.000Z</time>
      </trkpt>
      <trkpt lat="43.0185" lon="6.20246">
        <ele>54</ele>
        <time>2015-09-04T15:31:50.000Z</time>
      </trkpt>
      <trkpt lat="43.01846" lon="6.20246">
        <ele>54</ele>
        <time>2015-09-04T15:31:51.000Z</time>
      </trkpt>
      <trkpt lat="43.01836" lon="6.2025">
        <ele>54</ele>
        <time>2015-09-04T15:31:52.000Z</time>
      </trkpt>
      <trkpt lat="43.01829" lon="6.20244">
        <ele>54</ele>
        <time>2015-09-04T15:31:53.000Z</time>
      </trkpt>
      <trkpt lat="43.0182" lon="6.20244">
        <ele>54</ele>
        <time>2015-09-04T15:31:54.000Z</time>
      </trkpt>
      <trkpt lat="43.01812" lon="6.20244">
        <ele>52</ele>
        <time>2015-09-04T15:31:55.000Z</time>
      </trkpt>
      <trkpt lat="43.01802" lon="6.20245">
        <ele>51</ele>
        <time>2015-09-04T15:31:56.000Z</time>
      </trkpt>
      <trkpt lat="43.01795" lon="6.20244">
        <ele>50</ele>
        <time>2015-09-04T15:31:57.000Z</time>
      </trkpt>
      <trkpt lat="43.01785" lon="6.20242">
        <ele>50</ele>
        <time>2015-09-04T15:31:58.000Z</time>
      </trkpt>
      <trkpt lat="43.01777" lon="6.20243">
        <ele>51</ele>
        <time>2015-09-04T15:31:59.000Z</time>
      </trkpt>
      <trkpt lat="43.0177" lon="6.2024">
        <ele>51</ele>
        <time>2015-09-04T15:32:00.000Z</time>
      </trkpt>
      <trkpt lat="43.01763" lon="6.2024">
        <ele>52</ele>
        <time>2015-09-04T15:32:01.000Z</time>
      </trkpt>
      <trkpt lat="43.01756" lon="6.20239">
        <ele>54</ele>
        <time>2015-09-04T15:32:02.000Z</time>
      </trkpt>
      <trkpt lat="43.0175" lon="6.20237">
        <ele>55</ele>
        <time>2015-09-04T15:32:03.000Z</time>
      </trkpt>
      <trkpt lat="43.01742" lon="6.20237">
        <ele>53</ele>
        <time>2015-09-04T15:32:04.000Z</time>
      </trkpt>
      <trkpt lat="43.01735" lon="6.20238">
        <ele>52</ele>
        <time>2015-09-04T15:32:05.000Z</time>
      </trkpt>
      <trkpt lat="43.01727" lon="6.2024">
        <ele>51</ele>
        <time>2015-09-04T15:32:06.000Z</time>
      </trkpt>
      <trkpt lat="43.01722" lon="6.20243">
        <ele>51</ele>
        <time>2015-09-04T15:32:07.000Z</time>
      </trkpt>
      <trkpt lat="43.01713" lon="6.20249">
        <ele>51</ele>
        <time>2015-09-04T15:32:08.000Z</time>
      </trkpt>
      <trkpt lat="43.01705" lon="6.20246">
        <ele>51</ele>
        <time>2015-09-04T15:32:09.000Z</time>
      </trkpt>
      <trkpt lat="43.01699" lon="6.20246">
        <ele>51</ele>
        <time>2015-09-04T15:32:10.000Z</time>
      </trkpt>
      <trkpt lat="43.01694" lon="6.20242">
        <ele>51</ele>
        <time>2015-09-04T15:32:11.000Z</time>
      </trkpt>
      <trkpt lat="43.01686" lon="6.20242">
        <ele>51</ele>
        <time>2015-09-04T15:32:12.000Z</time>
      </trkpt>
      <trkpt lat="43.01678" lon="6.20242">
        <ele>51</ele>
        <time>2015-09-04T15:32:13.000Z</time>
      </trkpt>
      <trkpt lat="43.0167" lon="6.20243">
        <ele>51</ele>
        <time>2015-09-04T15:32:14.000Z</time>
      </trkpt>
      <trkpt lat="43.0166" lon="6.20242">
        <ele>50</ele>
        <time>2015-09-04T15:32:15.000Z</time>
      </trkpt>
      <trkpt lat="43.01651" lon="6.20244">
        <ele>52</ele>
        <time>2015-09-04T15:32:16.000Z</time>
      </trkpt>
      <trkpt lat="43.01643" lon="6.20248">
        <ele>51</ele>
        <time>2015-09-04T15:32:17.000Z</time>
      </trkpt>
      <trkpt lat="43.01634" lon="6.20245">
        <ele>50</ele>
        <time>2015-09-04T15:32:18.000Z</time>
      </trkpt>
      <trkpt lat="43.01629" lon="6.20253">
        <ele>51</ele>
        <time>2015-09-04T15:32:19.000Z</time>
      </trkpt>
      <trkpt lat="43.01623" lon="6.20247">
        <ele>51</ele>
        <time>2015-09-04T15:32:20.000Z</time>
      </trkpt>
      <trkpt lat="43.01615" lon="6.20252">
        <ele>52</ele>
        <time>2015-09-04T15:32:21.000Z</time>
      </trkpt>
      <trkpt lat="43.01607" lon="6.20253">
        <ele>53</ele>
        <time>2015-09-04T15:32:22.000Z</time>
      </trkpt>
      <trkpt lat="43.01601" lon="6.20252">
        <ele>52</ele>
        <time>2015-09-04T15:32:23.000Z</time>
      </trkpt>
      <trkpt lat="43.01595" lon="6.20251">
        <ele>53</ele>
        <time>2015-09-04T15:32:24.000Z</time>
      </trkpt>
      <trkpt lat="43.0159" lon="6.20259">
        <ele>55</ele>
        <time>2015-09-04T15:32:25.000Z</time>
      </trkpt>
      <trkpt lat="43.0158" lon="6.20263">
        <ele>55</ele>
        <time>2015-09-04T15:32:26.000Z</time>
      </trkpt>
      <trkpt lat="43.01572" lon="6.20262">
        <ele>55</ele>
        <time>2015-09-04T15:32:27.000Z</time>
      </trkpt>
      <trkpt lat="43.01564" lon="6.20264">
        <ele>57</ele>
        <time>2015-09-04T15:32:28.000Z</time>
      </trkpt>
      <trkpt lat="43.01557" lon="6.20265">
        <ele>56</ele>
        <time>2015-09-04T15:32:29.000Z</time>
      </trkpt>
      <trkpt lat="43.0155" lon="6.20267">
        <ele>56</ele>
        <time>2015-09-04T15:32:30.000Z</time>
      </trkpt>
      <trkpt lat="43.01544" lon="6.20266">
        <ele>56</ele>
        <time>2015-09-04T15:32:31.000Z</time>
      </trkpt>
      <trkpt lat="43.01537" lon="6.20266">
        <ele>57</ele>
        <time>2015-09-04T15:32:32.000Z</time>
      </trkpt>
      <trkpt lat="43.01529" lon="6.20265">
        <ele>55</ele>
        <time>2015-09-04T15:32:33.000Z</time>
      </trkpt>
      <trkpt lat="43.01522" lon="6.20268">
        <ele>56</ele>
        <time>2015-09-04T15:32:34.000Z</time>
      </trkpt>
      <trkpt lat="43.01515" lon="6.20271">
        <ele>55</ele>
        <time>2015-09-04T15:32:35.000Z</time>
      </trkpt>
      <trkpt lat="43.0151" lon="6.20274">
        <ele>56</ele>
        <time>2015-09-04T15:32:36.000Z</time>
      </trkpt>
      <trkpt lat="43.01506" lon="6.2028">
        <ele>56</ele>
        <time>2015-09-04T15:32:37.000Z</time>
      </trkpt>
      <trkpt lat="43.01502" lon="6.20284">
        <ele>56</ele>
        <time>2015-09-04T15:32:38.000Z</time>
      </trkpt>
      <trkpt lat="43.01498" lon="6.20288">
        <ele>55</ele>
        <time>2015-09-04T15:32:39.000Z</time>
      </trkpt>
      <trkpt lat="43.01494" lon="6.20287">
        <ele>56</ele>
        <time>2015-09-04T15:32:40.000Z</time>
      </trkpt>
      <trkpt lat="43.01487" lon="6.20325">
        <ele>54</ele>
        <time>2015-09-04T15:32:47.000Z</time>
      </trkpt>
      <trkpt lat="43.01493" lon="6.20327">
        <ele>57</ele>
        <time>2015-09-04T15:32:48.000Z</time>
      </trkpt>
      <trkpt lat="43.0149" lon="6.20333">
        <ele>54</ele>
        <time>2015-09-04T15:32:49.000Z</time>
      </trkpt>
      <trkpt lat="43.01486" lon="6.20334">
        <ele>53</ele>
        <time>2015-09-04T15:32:50.000Z</time>
      </trkpt>
      <trkpt lat="43.01485" lon="6.20335">
        <ele>52</ele>
        <time>2015-09-04T15:32:51.000Z</time>
      </trkpt>
      <trkpt lat="43.01483" lon="6.2034">
        <ele>53</ele>
        <time>2015-09-04T15:32:52.000Z</time>
      </trkpt>
      <trkpt lat="43.01483" lon="6.20346">
        <ele>53</ele>
        <time>2015-09-04T15:32:53.000Z</time>
      </trkpt>
      <trkpt lat="43.01483" lon="6.20355">
        <ele>54</ele>
        <time>2015-09-04T15:32:54.000Z</time>
      </trkpt>
      <trkpt lat="43.01483" lon="6.20361">
        <ele>54</ele>
        <time>2015-09-04T15:32:55.000Z</time>
      </trkpt>
      <trkpt lat="43.01484" lon="6.20373">
        <ele>55</ele>
        <time>2015-09-04T15:32:56.000Z</time>
      </trkpt>
      <trkpt lat="43.0149" lon="6.20382">
        <ele>55</ele>
        <time>2015-09-04T15:32:57.000Z</time>
      </trkpt>
      <trkpt lat="43.01493" lon="6.20386">
        <ele>52</ele>
        <time>2015-09-04T15:32:58.000Z</time>
      </trkpt>
      <trkpt lat="43.015" lon="6.20394">
        <ele>54</ele>
        <time>2015-09-04T15:32:59.000Z</time>
      </trkpt>
      <trkpt lat="43.01506" lon="6.20398">
        <ele>55</ele>
        <time>2015-09-04T15:33:00.000Z</time>
      </trkpt>
      <trkpt lat="43.01512" lon="6.20401">
        <ele>52</ele>
        <time>2015-09-04T15:33:01.000Z</time>
      </trkpt>
      <trkpt lat="43.01512" lon="6.20404">
        <ele>51</ele>
        <time>2015-09-04T15:33:02.000Z</time>
      </trkpt>
      <trkpt lat="43.0151" lon="6.20412">
        <ele>50</ele>
        <time>2015-09-04T15:33:03.000Z</time>
      </trkpt>
      <trkpt lat="43.0151" lon="6.2042">
        <ele>50</ele>
        <time>2015-09-04T15:33:04.000Z</time>
      </trkpt>
      <trkpt lat="43.01509" lon="6.2043">
        <ele>50</ele>
        <time>2015-09-04T15:33:05.000Z</time>
      </trkpt>
      <trkpt lat="43.01506" lon="6.20438">
        <ele>50</ele>
        <time>2015-09-04T15:33:06.000Z</time>
      </trkpt>
      <trkpt lat="43.01504" lon="6.20448">
        <ele>49</ele>
        <time>2015-09-04T15:33:07.000Z</time>
      </trkpt>
      <trkpt lat="43.01503" lon="6.20457">
        <ele>48</ele>
        <time>2015-09-04T15:33:08.000Z</time>
      </trkpt>
      <trkpt lat="43.015" lon="6.20465">
        <ele>47</ele>
        <time>2015-09-04T15:33:09.000Z</time>
      </trkpt>
      <trkpt lat="43.01495" lon="6.2047">
        <ele>47</ele>
        <time>2015-09-04T15:33:10.000Z</time>
      </trkpt>
      <trkpt lat="43.01492" lon="6.20477">
        <ele>46</ele>
        <time>2015-09-04T15:33:11.000Z</time>
      </trkpt>
      <trkpt lat="43.01489" lon="6.20487">
        <ele>46</ele>
        <time>2015-09-04T15:33:12.000Z</time>
      </trkpt>
      <trkpt lat="43.01484" lon="6.20494">
        <ele>49</ele>
        <time>2015-09-04T15:33:13.000Z</time>
      </trkpt>
      <trkpt lat="43.01482" lon="6.20502">
        <ele>48</ele>
        <time>2015-09-04T15:33:14.000Z</time>
      </trkpt>
      <trkpt lat="43.01479" lon="6.20506">
        <ele>47</ele>
        <time>2015-09-04T15:33:15.000Z</time>
      </trkpt>
      <trkpt lat="43.01476" lon="6.20515">
        <ele>46</ele>
        <time>2015-09-04T15:33:16.000Z</time>
      </trkpt>
      <trkpt lat="43.01471" lon="6.20524">
        <ele>46</ele>
        <time>2015-09-04T15:33:17.000Z</time>
      </trkpt>
      <trkpt lat="43.01466" lon="6.20533">
        <ele>46</ele>
        <time>2015-09-04T15:33:18.000Z</time>
      </trkpt>
      <trkpt lat="43.0146" lon="6.20541">
        <ele>45</ele>
        <time>2015-09-04T15:33:19.000Z</time>
      </trkpt>
      <trkpt lat="43.01454" lon="6.20546">
        <ele>47</ele>
        <time>2015-09-04T15:33:20.000Z</time>
      </trkpt>
      <trkpt lat="43.01448" lon="6.20555">
        <ele>46</ele>
        <time>2015-09-04T15:33:21.000Z</time>
      </trkpt>
      <trkpt lat="43.01445" lon="6.20562">
        <ele>47</ele>
        <time>2015-09-04T15:33:22.000Z</time>
      </trkpt>
      <trkpt lat="43.01441" lon="6.20568">
        <ele>47</ele>
        <time>2015-09-04T15:33:23.000Z</time>
      </trkpt>
      <trkpt lat="43.01435" lon="6.20578">
        <ele>48</ele>
        <time>2015-09-04T15:33:24.000Z</time>
      </trkpt>
      <trkpt lat="43.0143" lon="6.20586">
        <ele>48</ele>
        <time>2015-09-04T15:33:25.000Z</time>
      </trkpt>
      <trkpt lat="43.01425" lon="6.20592">
        <ele>47</ele>
        <time>2015-09-04T15:33:26.000Z</time>
      </trkpt>
      <trkpt lat="43.01443" lon="6.20596">
        <ele>49</ele>
        <time>2015-09-04T15:33:27.000Z</time>
      </trkpt>
      <trkpt lat="43.01446" lon="6.20605">
        <ele>48</ele>
        <time>2015-09-04T15:33:28.000Z</time>
      </trkpt>
      <trkpt lat="43.01449" lon="6.20614">
        <ele>49</ele>
        <time>2015-09-04T15:33:29.000Z</time>
      </trkpt>
      <trkpt lat="43.01448" lon="6.20626">
        <ele>52</ele>
        <time>2015-09-04T15:33:30.000Z</time>
      </trkpt>
      <trkpt lat="43.01449" lon="6.20633">
        <ele>52</ele>
        <time>2015-09-04T15:33:31.000Z</time>
      </trkpt>
      <trkpt lat="43.01451" lon="6.20641">
        <ele>52</ele>
        <time>2015-09-04T15:33:32.000Z</time>
      </trkpt>
      <trkpt lat="43.01453" lon="6.20649">
        <ele>51</ele>
        <time>2015-09-04T15:33:33.000Z</time>
      </trkpt>
      <trkpt lat="43.01457" lon="6.20658">
        <ele>52</ele>
        <time>2015-09-04T15:33:34.000Z</time>
      </trkpt>
      <trkpt lat="43.01459" lon="6.20667">
        <ele>51</ele>
        <time>2015-09-04T15:33:35.000Z</time>
      </trkpt>
      <trkpt lat="43.01457" lon="6.20674">
        <ele>52</ele>
        <time>2015-09-04T15:33:36.000Z</time>
      </trkpt>
      <trkpt lat="43.01455" lon="6.20682">
        <ele>52</ele>
        <time>2015-09-04T15:33:37.000Z</time>
      </trkpt>
      <trkpt lat="43.01453" lon="6.20687">
        <ele>52</ele>
        <time>2015-09-04T15:33:38.000Z</time>
      </trkpt>
      <trkpt lat="43.01453" lon="6.20691">
        <ele>52</ele>
        <time>2015-09-04T15:33:39.000Z</time>
      </trkpt>
      <trkpt lat="43.01453" lon="6.20696">
        <ele>53</ele>
        <time>2015-09-04T15:33:40.000Z</time>
      </trkpt>
      <trkpt lat="43.01453" lon="6.20701">
        <ele>53</ele>
        <time>2015-09-04T15:33:41.000Z</time>
      </trkpt>
      <trkpt lat="43.01451" lon="6.20702">
        <ele>50</ele>
        <time>2015-09-04T15:33:42.000Z</time>
      </trkpt>
      <trkpt lat="43.01456" lon="6.20712">
        <ele>50</ele>
        <time>2015-09-04T15:33:43.000Z</time>
      </trkpt>
      <trkpt lat="43.01456" lon="6.20719">
        <ele>47</ele>
        <time>2015-09-04T15:33:44.000Z</time>
      </trkpt>
      <trkpt lat="43.01458" lon="6.20727">
        <ele>47</ele>
        <time>2015-09-04T15:33:45.000Z</time>
      </trkpt>
      <trkpt lat="43.01458" lon="6.20736">
        <ele>47</ele>
        <time>2015-09-04T15:33:46.000Z</time>
      </trkpt>
      <trkpt lat="43.01459" lon="6.20748">
        <ele>48</ele>
        <time>2015-09-04T15:33:47.000Z</time>
      </trkpt>
      <trkpt lat="43.0146" lon="6.20757">
        <ele>50</ele>
        <time>2015-09-04T15:33:48.000Z</time>
      </trkpt>
      <trkpt lat="43.0146" lon="6.20767">
        <ele>50</ele>
        <time>2015-09-04T15:33:49.000Z</time>
      </trkpt>
      <trkpt lat="43.01461" lon="6.20775">
        <ele>51</ele>
        <time>2015-09-04T15:33:50.000Z</time>
      </trkpt>
      <trkpt lat="43.01462" lon="6.20782">
        <ele>51</ele>
        <time>2015-09-04T15:33:51.000Z</time>
      </trkpt>
      <trkpt lat="43.01464" lon="6.20789">
        <ele>52</ele>
        <time>2015-09-04T15:33:52.000Z</time>
      </trkpt>
      <trkpt lat="43.01465" lon="6.20797">
        <ele>51</ele>
        <time>2015-09-04T15:33:53.000Z</time>
      </trkpt>
      <trkpt lat="43.0146" lon="6.20809">
        <ele>51</ele>
        <time>2015-09-04T15:33:54.000Z</time>
      </trkpt>
      <trkpt lat="43.01461" lon="6.20819">
        <ele>52</ele>
        <time>2015-09-04T15:33:55.000Z</time>
      </trkpt>
      <trkpt lat="43.01454" lon="6.20824">
        <ele>51</ele>
        <time>2015-09-04T15:33:56.000Z</time>
      </trkpt>
      <trkpt lat="43.0145" lon="6.20829">
        <ele>51</ele>
        <time>2015-09-04T15:33:57.000Z</time>
      </trkpt>
      <trkpt lat="43.01449" lon="6.20836">
        <ele>50</ele>
        <time>2015-09-04T15:33:58.000Z</time>
      </trkpt>
      <trkpt lat="43.01448" lon="6.20843">
        <ele>50</ele>
        <time>2015-09-04T15:33:59.000Z</time>
      </trkpt>
      <trkpt lat="43.01447" lon="6.20852">
        <ele>50</ele>
        <time>2015-09-04T15:34:00.000Z</time>
      </trkpt>
      <trkpt lat="43.01446" lon="6.20859">
        <ele>50</ele>
        <time>2015-09-04T15:34:01.000Z</time>
      </trkpt>
      <trkpt lat="43.01445" lon="6.20867">
        <ele>51</ele>
        <time>2015-09-04T15:34:02.000Z</time>
      </trkpt>
      <trkpt lat="43.01446" lon="6.20875">
        <ele>49</ele>
        <time>2015-09-04T15:34:03.000Z</time>
      </trkpt>
      <trkpt lat="43.01447" lon="6.20883">
        <ele>49</ele>
        <time>2015-09-04T15:34:04.000Z</time>
      </trkpt>
      <trkpt lat="43.01443" lon="6.20888">
        <ele>49</ele>
        <time>2015-09-04T15:34:05.000Z</time>
      </trkpt>
      <trkpt lat="43.01442" lon="6.20895">
        <ele>50</ele>
        <time>2015-09-04T15:34:06.000Z</time>
      </trkpt>
      <trkpt lat="43.01441" lon="6.20902">
        <ele>50</ele>
        <time>2015-09-04T15:34:07.000Z</time>
      </trkpt>
      <trkpt lat="43.0144" lon="6.20909">
        <ele>50</ele>
        <time>2015-09-04T15:34:08.000Z</time>
      </trkpt>
      <trkpt lat="43.01439" lon="6.20917">
        <ele>50</ele>
        <time>2015-09-04T15:34:09.000Z</time>
      </trkpt>
      <trkpt lat="43.0144" lon="6.20923">
        <ele>50</ele>
        <time>2015-09-04T15:34:10.000Z</time>
      </trkpt>
      <trkpt lat="43.01444" lon="6.20932">
        <ele>51</ele>
        <time>2015-09-04T15:34:11.000Z</time>
      </trkpt>
      <trkpt lat="43.01445" lon="6.20939">
        <ele>51</ele>
        <time>2015-09-04T15:34:12.000Z</time>
      </trkpt>
      <trkpt lat="43.01446" lon="6.20945">
        <ele>51</ele>
        <time>2015-09-04T15:34:13.000Z</time>
      </trkpt>
      <trkpt lat="43.0145" lon="6.20946">
        <ele>52</ele>
        <time>2015-09-04T15:34:14.000Z</time>
      </trkpt>
      <trkpt lat="43.01453" lon="6.20952">
        <ele>51</ele>
        <time>2015-09-04T15:34:15.000Z</time>
      </trkpt>
      <trkpt lat="43.0146" lon="6.20954">
        <ele>49</ele>
        <time>2015-09-04T15:34:16.000Z</time>
      </trkpt>
      <trkpt lat="43.01465" lon="6.20958">
        <ele>51</ele>
        <time>2015-09-04T15:34:17.000Z</time>
      </trkpt>
      <trkpt lat="43.01472" lon="6.2096">
        <ele>51</ele>
        <time>2015-09-04T15:34:18.000Z</time>
      </trkpt>
      <trkpt lat="43.01477" lon="6.20963">
        <ele>51</ele>
        <time>2015-09-04T15:34:19.000Z</time>
      </trkpt>
      <trkpt lat="43.01482" lon="6.20964">
        <ele>50</ele>
        <time>2015-09-04T15:34:20.000Z</time>
      </trkpt>
      <trkpt lat="43.01489" lon="6.20968">
        <ele>51</ele>
        <time>2015-09-04T15:34:21.000Z</time>
      </trkpt>
      <trkpt lat="43.01495" lon="6.20967">
        <ele>50</ele>
        <time>2015-09-04T15:34:22.000Z</time>
      </trkpt>
      <trkpt lat="43.01497" lon="6.20963">
        <ele>50</ele>
        <time>2015-09-04T15:34:23.000Z</time>
      </trkpt>
      <trkpt lat="43.01502" lon="6.20963">
        <ele>50</ele>
        <time>2015-09-04T15:34:24.000Z</time>
      </trkpt>
      <trkpt lat="43.01507" lon="6.20964">
        <ele>50</ele>
        <time>2015-09-04T15:34:25.000Z</time>
      </trkpt>
      <trkpt lat="43.01513" lon="6.20968">
        <ele>50</ele>
        <time>2015-09-04T15:34:26.000Z</time>
      </trkpt>
      <trkpt lat="43.01519" lon="6.20973">
        <ele>50</ele>
        <time>2015-09-04T15:34:27.000Z</time>
      </trkpt>
      <trkpt lat="43.01525" lon="6.20975">
        <ele>50</ele>
        <time>2015-09-04T15:34:28.000Z</time>
      </trkpt>
      <trkpt lat="43.01528" lon="6.2098">
        <ele>50</ele>
        <time>2015-09-04T15:34:29.000Z</time>
      </trkpt>
      <trkpt lat="43.01533" lon="6.20988">
        <ele>49</ele>
        <time>2015-09-04T15:34:30.000Z</time>
      </trkpt>
      <trkpt lat="43.0154" lon="6.20994">
        <ele>50</ele>
        <time>2015-09-04T15:34:31.000Z</time>
      </trkpt>
      <trkpt lat="43.01541" lon="6.21003">
        <ele>47</ele>
        <time>2015-09-04T15:34:32.000Z</time>
      </trkpt>
      <trkpt lat="43.01545" lon="6.21008">
        <ele>48</ele>
        <time>2015-09-04T15:34:33.000Z</time>
      </trkpt>
      <trkpt lat="43.0155" lon="6.21014">
        <ele>48</ele>
        <time>2015-09-04T15:34:34.000Z</time>
      </trkpt>
      <trkpt lat="43.0155" lon="6.21019">
        <ele>47</ele>
        <time>2015-09-04T15:34:35.000Z</time>
      </trkpt>
      <trkpt lat="43.01555" lon="6.21027">
        <ele>47</ele>
        <time>2015-09-04T15:34:36.000Z</time>
      </trkpt>
      <trkpt lat="43.01559" lon="6.21038">
        <ele>47</ele>
        <time>2015-09-04T15:34:37.000Z</time>
      </trkpt>
      <trkpt lat="43.01566" lon="6.21048">
        <ele>46</ele>
        <time>2015-09-04T15:34:38.000Z</time>
      </trkpt>
      <trkpt lat="43.01571" lon="6.21055">
        <ele>48</ele>
        <time>2015-09-04T15:34:39.000Z</time>
      </trkpt>
      <trkpt lat="43.01577" lon="6.21062">
        <ele>48</ele>
        <time>2015-09-04T15:34:40.000Z</time>
      </trkpt>
      <trkpt lat="43.01582" lon="6.21069">
        <ele>48</ele>
        <time>2015-09-04T15:34:41.000Z</time>
      </trkpt>
      <trkpt lat="43.01588" lon="6.21075">
        <ele>48</ele>
        <time>2015-09-04T15:34:42.000Z</time>
      </trkpt>
      <trkpt lat="43.01594" lon="6.21084">
        <ele>49</ele>
        <time>2015-09-04T15:34:43.000Z</time>
      </trkpt>
      <trkpt lat="43.01598" lon="6.21092">
        <ele>50</ele>
        <time>2015-09-04T15:34:44.000Z</time>
      </trkpt>
      <trkpt lat="43.01603" lon="6.21101">
        <ele>50</ele>
        <time>2015-09-04T15:34:45.000Z</time>
      </trkpt>
      <trkpt lat="43.01606" lon="6.21109">
        <ele>50</ele>
        <time>2015-09-04T15:34:46.000Z</time>
      </trkpt>
      <trkpt lat="43.0161" lon="6.21119">
        <ele>49</ele>
        <time>2015-09-04T15:34:47.000Z</time>
      </trkpt>
      <trkpt lat="43.01616" lon="6.21131">
        <ele>49</ele>
        <time>2015-09-04T15:34:48.000Z</time>
      </trkpt>
      <trkpt lat="43.01623" lon="6.21137">
        <ele>49</ele>
        <time>2015-09-04T15:34:49.000Z</time>
      </trkpt>
      <trkpt lat="43.0163" lon="6.21144">
        <ele>50</ele>
        <time>2015-09-04T15:34:50.000Z</time>
      </trkpt>
      <trkpt lat="43.01636" lon="6.21151">
        <ele>50</ele>
        <time>2015-09-04T15:34:51.000Z</time>
      </trkpt>
      <trkpt lat="43.01642" lon="6.21156">
        <ele>49</ele>
        <time>2015-09-04T15:34:52.000Z</time>
      </trkpt>
      <trkpt lat="43.01649" lon="6.21161">
        <ele>50</ele>
        <time>2015-09-04T15:34:53.000Z</time>
      </trkpt>
      <trkpt lat="43.01656" lon="6.21168">
        <ele>49</ele>
        <time>2015-09-04T15:34:54.000Z</time>
      </trkpt>
      <trkpt lat="43.01658" lon="6.21182">
        <ele>50</ele>
        <time>2015-09-04T15:34:55.000Z</time>
      </trkpt>
      <trkpt lat="43.01663" lon="6.21192">
        <ele>49</ele>
        <time>2015-09-04T15:34:56.000Z</time>
      </trkpt>
      <trkpt lat="43.01671" lon="6.21204">
        <ele>49</ele>
        <time>2015-09-04T15:34:57.000Z</time>
      </trkpt>
      <trkpt lat="43.01678" lon="6.21201">
        <ele>49</ele>
        <time>2015-09-04T15:34:58.000Z</time>
      </trkpt>
      <trkpt lat="43.01692" lon="6.21204">
        <ele>48</ele>
        <time>2015-09-04T15:34:59.000Z</time>
      </trkpt>
      <trkpt lat="43.01702" lon="6.21211">
        <ele>48</ele>
        <time>2015-09-04T15:35:00.000Z</time>
      </trkpt>
      <trkpt lat="43.01711" lon="6.21215">
        <ele>48</ele>
        <time>2015-09-04T15:35:01.000Z</time>
      </trkpt>
      <trkpt lat="43.01715" lon="6.21217">
        <ele>49</ele>
        <time>2015-09-04T15:35:02.000Z</time>
      </trkpt>
      <trkpt lat="43.01726" lon="6.21224">
        <ele>50</ele>
        <time>2015-09-04T15:35:03.000Z</time>
      </trkpt>
      <trkpt lat="43.01736" lon="6.2123">
        <ele>51</ele>
        <time>2015-09-04T15:35:04.000Z</time>
      </trkpt>
      <trkpt lat="43.01744" lon="6.21229">
        <ele>51</ele>
        <time>2015-09-04T15:35:05.000Z</time>
      </trkpt>
      <trkpt lat="43.01751" lon="6.2123">
        <ele>52</ele>
        <time>2015-09-04T15:35:06.000Z</time>
      </trkpt>
      <trkpt lat="43.01757" lon="6.21231">
        <ele>52</ele>
        <time>2015-09-04T15:35:07.000Z</time>
      </trkpt>
      <trkpt lat="43.0177" lon="6.21243">
        <ele>52</ele>
        <time>2015-09-04T15:35:08.000Z</time>
      </trkpt>
      <trkpt lat="43.01779" lon="6.21249">
        <ele>52</ele>
        <time>2015-09-04T15:35:09.000Z</time>
      </trkpt>
      <trkpt lat="43.01779" lon="6.2125">
        <ele>52</ele>
        <time>2015-09-04T15:35:10.000Z</time>
      </trkpt>
      <trkpt lat="43.01789" lon="6.21248">
        <ele>53</ele>
        <time>2015-09-04T15:35:11.000Z</time>
      </trkpt>
      <trkpt lat="43.01797" lon="6.21249">
        <ele>51</ele>
        <time>2015-09-04T15:35:12.000Z</time>
      </trkpt>
      <trkpt lat="43.01806" lon="6.21249">
        <ele>51</ele>
        <time>2015-09-04T15:35:13.000Z</time>
      </trkpt>
      <trkpt lat="43.01813" lon="6.21252">
        <ele>51</ele>
        <time>2015-09-04T15:35:14.000Z</time>
      </trkpt>
      <trkpt lat="43.0182" lon="6.21249">
        <ele>51</ele>
        <time>2015-09-04T15:35:15.000Z</time>
      </trkpt>
      <trkpt lat="43.0183" lon="6.2125">
        <ele>52</ele>
        <time>2015-09-04T15:35:16.000Z</time>
      </trkpt>
      <trkpt lat="43.0184" lon="6.21252">
        <ele>52</ele>
        <time>2015-09-04T15:35:17.000Z</time>
      </trkpt>
      <trkpt lat="43.01849" lon="6.21253">
        <ele>53</ele>
        <time>2015-09-04T15:35:18.000Z</time>
      </trkpt>
      <trkpt lat="43.01858" lon="6.21254">
        <ele>53</ele>
        <time>2015-09-04T15:35:19.000Z</time>
      </trkpt>
      <trkpt lat="43.01866" lon="6.21254">
        <ele>53</ele>
        <time>2015-09-04T15:35:20.000Z</time>
      </trkpt>
      <trkpt lat="43.01874" lon="6.21254">
        <ele>52</ele>
        <time>2015-09-04T15:35:21.000Z</time>
      </trkpt>
      <trkpt lat="43.01882" lon="6.21251">
        <ele>52</ele>
        <time>2015-09-04T15:35:22.000Z</time>
      </trkpt>
      <trkpt lat="43.01889" lon="6.21249">
        <ele>54</ele>
        <time>2015-09-04T15:35:23.000Z</time>
      </trkpt>
      <trkpt lat="43.01894" lon="6.21249">
        <ele>53</ele>
        <time>2015-09-04T15:35:24.000Z</time>
      </trkpt>
      <trkpt lat="43.01902" lon="6.21248">
        <ele>51</ele>
        <time>2015-09-04T15:35:25.000Z</time>
      </trkpt>
      <trkpt lat="43.01909" lon="6.21248">
        <ele>50</ele>
        <time>2015-09-04T15:35:26.000Z</time>
      </trkpt>
      <trkpt lat="43.01917" lon="6.21248">
        <ele>49</ele>
        <time>2015-09-04T15:35:27.000Z</time>
      </trkpt>
      <trkpt lat="43.01926" lon="6.21251">
        <ele>49</ele>
        <time>2015-09-04T15:35:28.000Z</time>
      </trkpt>
      <trkpt lat="43.01933" lon="6.21256">
        <ele>49</ele>
        <time>2015-09-04T15:35:29.000Z</time>
      </trkpt>
      <trkpt lat="43.01941" lon="6.21261">
        <ele>49</ele>
        <time>2015-09-04T15:35:30.000Z</time>
      </trkpt>
      <trkpt lat="43.0195" lon="6.21266">
        <ele>49</ele>
        <time>2015-09-04T15:35:31.000Z</time>
      </trkpt>
      <trkpt lat="43.01957" lon="6.2127">
        <ele>50</ele>
        <time>2015-09-04T15:35:32.000Z</time>
      </trkpt>
      <trkpt lat="43.01965" lon="6.2127">
        <ele>50</ele>
        <time>2015-09-04T15:35:33.000Z</time>
      </trkpt>
      <trkpt lat="43.01972" lon="6.21273">
        <ele>50</ele>
        <time>2015-09-04T15:35:34.000Z</time>
      </trkpt>
      <trkpt lat="43.01978" lon="6.21272">
        <ele>51</ele>
        <time>2015-09-04T15:35:35.000Z</time>
      </trkpt>
      <trkpt lat="43.01984" lon="6.21272">
        <ele>50</ele>
        <time>2015-09-04T15:35:36.000Z</time>
      </trkpt>
      <trkpt lat="43.01989" lon="6.21274">
        <ele>49</ele>
        <time>2015-09-04T15:35:37.000Z</time>
      </trkpt>
      <trkpt lat="43.01998" lon="6.21273">
        <ele>50</ele>
        <time>2015-09-04T15:35:38.000Z</time>
      </trkpt>
      <trkpt lat="43.02007" lon="6.21274">
        <ele>50</ele>
        <time>2015-09-04T15:35:39.000Z</time>
      </trkpt>
      <trkpt lat="43.02015" lon="6.21272">
        <ele>50</ele>
        <time>2015-09-04T15:35:40.000Z</time>
      </trkpt>
      <trkpt lat="43.02021" lon="6.2127">
        <ele>49</ele>
        <time>2015-09-04T15:35:41.000Z</time>
      </trkpt>
      <trkpt lat="43.02029" lon="6.21268">
        <ele>49</ele>
        <time>2015-09-04T15:35:42.000Z</time>
      </trkpt>
      <trkpt lat="43.02038" lon="6.21266">
        <ele>49</ele>
        <time>2015-09-04T15:35:43.000Z</time>
      </trkpt>
      <trkpt lat="43.02046" lon="6.21263">
        <ele>48</ele>
        <time>2015-09-04T15:35:44.000Z</time>
      </trkpt>
      <trkpt lat="43.02053" lon="6.21262">
        <ele>48</ele>
        <time>2015-09-04T15:35:45.000Z</time>
      </trkpt>
      <trkpt lat="43.02061" lon="6.2126">
        <ele>47</ele>
        <time>2015-09-04T15:35:46.000Z</time>
      </trkpt>
      <trkpt lat="43.02068" lon="6.21257">
        <ele>47</ele>
        <time>2015-09-04T15:35:47.000Z</time>
      </trkpt>
      <trkpt lat="43.02073" lon="6.21255">
        <ele>48</ele>
        <time>2015-09-04T15:35:48.000Z</time>
      </trkpt>
      <trkpt lat="43.02081" lon="6.21253">
        <ele>49</ele>
        <time>2015-09-04T15:35:49.000Z</time>
      </trkpt>
      <trkpt lat="43.02087" lon="6.21251">
        <ele>49</ele>
        <time>2015-09-04T15:35:50.000Z</time>
      </trkpt>
      <trkpt lat="43.02093" lon="6.21251">
        <ele>49</ele>
        <time>2015-09-04T15:35:51.000Z</time>
      </trkpt>
      <trkpt lat="43.02098" lon="6.21248">
        <ele>49</ele>
        <time>2015-09-04T15:35:52.000Z</time>
      </trkpt>
      <trkpt lat="43.02103" lon="6.21253">
        <ele>48</ele>
        <time>2015-09-04T15:35:53.000Z</time>
      </trkpt>
      <trkpt lat="43.02111" lon="6.21252">
        <ele>49</ele>
        <time>2015-09-04T15:35:54.000Z</time>
      </trkpt>
      <trkpt lat="43.02118" lon="6.21252">
        <ele>48</ele>
        <time>2015-09-04T15:35:55.000Z</time>
      </trkpt>
      <trkpt lat="43.02126" lon="6.21251">
        <ele>47</ele>
        <time>2015-09-04T15:35:56.000Z</time>
      </trkpt>
      <trkpt lat="43.02132" lon="6.21249">
        <ele>48</ele>
        <time>2015-09-04T15:35:57.000Z</time>
      </trkpt>
      <trkpt lat="43.0214" lon="6.21247">
        <ele>49</ele>
        <time>2015-09-04T15:35:58.000Z</time>
      </trkpt>
      <trkpt lat="43.02147" lon="6.21247">
        <ele>48</ele>
        <time>2015-09-04T15:35:59.000Z</time>
      </trkpt>
      <trkpt lat="43.02154" lon="6.21245">
        <ele>49</ele>
        <time>2015-09-04T15:36:00.000Z</time>
      </trkpt>
      <trkpt lat="43.02161" lon="6.21242">
        <ele>49</ele>
        <time>2015-09-04T15:36:01.000Z</time>
      </trkpt>
      <trkpt lat="43.02166" lon="6.21239">
        <ele>49</ele>
        <time>2015-09-04T15:36:02.000Z</time>
      </trkpt>
      <trkpt lat="43.02172" lon="6.21236">
        <ele>50</ele>
        <time>2015-09-04T15:36:03.000Z</time>
      </trkpt>
      <trkpt lat="43.02178" lon="6.21233">
        <ele>50</ele>
        <time>2015-09-04T15:36:04.000Z</time>
      </trkpt>
      <trkpt lat="43.02185" lon="6.21231">
        <ele>50</ele>
        <time>2015-09-04T15:36:05.000Z</time>
      </trkpt>
      <trkpt lat="43.02191" lon="6.21228">
        <ele>50</ele>
        <time>2015-09-04T15:36:06.000Z</time>
      </trkpt>
      <trkpt lat="43.02198" lon="6.21224">
        <ele>50</ele>
        <time>2015-09-04T15:36:07.000Z</time>
      </trkpt>
      <trkpt lat="43.02205" lon="6.21222">
        <ele>51</ele>
        <time>2015-09-04T15:36:08.000Z</time>
      </trkpt>
      <trkpt lat="43.02211" lon="6.21219">
        <ele>51</ele>
        <time>2015-09-04T15:36:09.000Z</time>
      </trkpt>
      <trkpt lat="43.02217" lon="6.21217">
        <ele>50</ele>
        <time>2015-09-04T15:36:10.000Z</time>
      </trkpt>
      <trkpt lat="43.02223" lon="6.21214">
        <ele>50</ele>
        <time>2015-09-04T15:36:11.000Z</time>
      </trkpt>
      <trkpt lat="43.02228" lon="6.21212">
        <ele>50</ele>
        <time>2015-09-04T15:36:12.000Z</time>
      </trkpt>
      <trkpt lat="43.02233" lon="6.2121">
        <ele>50</ele>
        <time>2015-09-04T15:36:13.000Z</time>
      </trkpt>
      <trkpt lat="43.02238" lon="6.2121">
        <ele>49</ele>
        <time>2015-09-04T15:36:14.000Z</time>
      </trkpt>
      <trkpt lat="43.02243" lon="6.21209">
        <ele>48</ele>
        <time>2015-09-04T15:36:15.000Z</time>
      </trkpt>
      <trkpt lat="43.02249" lon="6.21208">
        <ele>48</ele>
        <time>2015-09-04T15:36:16.000Z</time>
      </trkpt>
      <trkpt lat="43.02256" lon="6.21207">
        <ele>48</ele>
        <time>2015-09-04T15:36:17.000Z</time>
      </trkpt>
      <trkpt lat="43.02262" lon="6.21205">
        <ele>47</ele>
        <time>2015-09-04T15:36:18.000Z</time>
      </trkpt>
      <trkpt lat="43.02269" lon="6.21203">
        <ele>47</ele>
        <time>2015-09-04T15:36:19.000Z</time>
      </trkpt>
      <trkpt lat="43.02275" lon="6.21201">
        <ele>47</ele>
        <time>2015-09-04T15:36:20.000Z</time>
      </trkpt>
      <trkpt lat="43.02281" lon="6.21198">
        <ele>48</ele>
        <time>2015-09-04T15:36:21.000Z</time>
      </trkpt>
      <trkpt lat="43.02287" lon="6.21196">
        <ele>48</ele>
        <time>2015-09-04T15:36:22.000Z</time>
      </trkpt>
      <trkpt lat="43.02293" lon="6.21194">
        <ele>48</ele>
        <time>2015-09-04T15:36:23.000Z</time>
      </trkpt>
      <trkpt lat="43.02299" lon="6.21192">
        <ele>49</ele>
        <time>2015-09-04T15:36:24.000Z</time>
      </trkpt>
      <trkpt lat="43.02306" lon="6.2119">
        <ele>49</ele>
        <time>2015-09-04T15:36:25.000Z</time>
      </trkpt>
      <trkpt lat="43.02312" lon="6.21187">
        <ele>48</ele>
        <time>2015-09-04T15:36:26.000Z</time>
      </trkpt>
      <trkpt lat="43.02318" lon="6.21184">
        <ele>49</ele>
        <time>2015-09-04T15:36:27.000Z</time>
      </trkpt>
      <trkpt lat="43.02323" lon="6.21183">
        <ele>48</ele>
        <time>2015-09-04T15:36:28.000Z</time>
      </trkpt>
      <trkpt lat="43.02328" lon="6.21182">
        <ele>48</ele>
        <time>2015-09-04T15:36:29.000Z</time>
      </trkpt>
      <trkpt lat="43.02332" lon="6.2118">
        <ele>48</ele>
        <time>2015-09-04T15:36:30.000Z</time>
      </trkpt>
      <trkpt lat="43.02338" lon="6.21178">
        <ele>47</ele>
        <time>2015-09-04T15:36:31.000Z</time>
      </trkpt>
      <trkpt lat="43.02343" lon="6.21177">
        <ele>47</ele>
        <time>2015-09-04T15:36:32.000Z</time>
      </trkpt>
      <trkpt lat="43.0235" lon="6.21175">
        <ele>47</ele>
        <time>2015-09-04T15:36:33.000Z</time>
      </trkpt>
      <trkpt lat="43.02358" lon="6.21174">
        <ele>46</ele>
        <time>2015-09-04T15:36:34.000Z</time>
      </trkpt>
      <trkpt lat="43.02364" lon="6.21172">
        <ele>46</ele>
        <time>2015-09-04T15:36:35.000Z</time>
      </trkpt>
      <trkpt lat="43.0237" lon="6.21168">
        <ele>47</ele>
        <time>2015-09-04T15:36:36.000Z</time>
      </trkpt>
      <trkpt lat="43.02377" lon="6.21166">
        <ele>46</ele>
        <time>2015-09-04T15:36:37.000Z</time>
      </trkpt>
      <trkpt lat="43.02383" lon="6.21162">
        <ele>46</ele>
        <time>2015-09-04T15:36:38.000Z</time>
      </trkpt>
      <trkpt lat="43.0239" lon="6.21159">
        <ele>45</ele>
        <time>2015-09-04T15:36:39.000Z</time>
      </trkpt>
      <trkpt lat="43.02397" lon="6.21156">
        <ele>46</ele>
        <time>2015-09-04T15:36:40.000Z</time>
      </trkpt>
      <trkpt lat="43.02404" lon="6.21152">
        <ele>46</ele>
        <time>2015-09-04T15:36:41.000Z</time>
      </trkpt>
      <trkpt lat="43.0241" lon="6.21149">
        <ele>45</ele>
        <time>2015-09-04T15:36:42.000Z</time>
      </trkpt>
      <trkpt lat="43.02417" lon="6.21147">
        <ele>44</ele>
        <time>2015-09-04T15:36:43.000Z</time>
      </trkpt>
      <trkpt lat="43.02423" lon="6.21144">
        <ele>44</ele>
        <time>2015-09-04T15:36:44.000Z</time>
      </trkpt>
      <trkpt lat="43.0243" lon="6.21141">
        <ele>45</ele>
        <time>2015-09-04T15:36:45.000Z</time>
      </trkpt>
      <trkpt lat="43.02437" lon="6.21137">
        <ele>44</ele>
        <time>2015-09-04T15:36:46.000Z</time>
      </trkpt>
      <trkpt lat="43.02443" lon="6.21134">
        <ele>44</ele>
        <time>2015-09-04T15:36:47.000Z</time>
      </trkpt>
      <trkpt lat="43.02449" lon="6.21132">
        <ele>44</ele>
        <time>2015-09-04T15:36:48.000Z</time>
      </trkpt>
      <trkpt lat="43.02455" lon="6.21129">
        <ele>45</ele>
        <time>2015-09-04T15:36:49.000Z</time>
      </trkpt>
      <trkpt lat="43.02461" lon="6.21126">
        <ele>45</ele>
        <time>2015-09-04T15:36:50.000Z</time>
      </trkpt>
      <trkpt lat="43.02468" lon="6.21125">
        <ele>44</ele>
        <time>2015-09-04T15:36:51.000Z</time>
      </trkpt>
      <trkpt lat="43.02474" lon="6.21122">
        <ele>44</ele>
        <time>2015-09-04T15:36:52.000Z</time>
      </trkpt>
      <trkpt lat="43.0248" lon="6.2112">
        <ele>44</ele>
        <time>2015-09-04T15:36:53.000Z</time>
      </trkpt>
      <trkpt lat="43.02487" lon="6.21119">
        <ele>44</ele>
        <time>2015-09-04T15:36:54.000Z</time>
      </trkpt>
      <trkpt lat="43.02494" lon="6.21116">
        <ele>45</ele>
        <time>2015-09-04T15:36:55.000Z</time>
      </trkpt>
      <trkpt lat="43.025" lon="6.21113">
        <ele>44</ele>
        <time>2015-09-04T15:36:56.000Z</time>
      </trkpt>
      <trkpt lat="43.02507" lon="6.21112">
        <ele>44</ele>
        <time>2015-09-04T15:36:57.000Z</time>
      </trkpt>
      <trkpt lat="43.02515" lon="6.21109">
        <ele>44</ele>
        <time>2015-09-04T15:36:58.000Z</time>
      </trkpt>
      <trkpt lat="43.02523" lon="6.21106">
        <ele>45</ele>
        <time>2015-09-04T15:36:59.000Z</time>
      </trkpt>
      <trkpt lat="43.02527" lon="6.21103">
        <ele>45</ele>
        <time>2015-09-04T15:37:00.000Z</time>
      </trkpt>
      <trkpt lat="43.02535" lon="6.211">
        <ele>44</ele>
        <time>2015-09-04T15:37:01.000Z</time>
      </trkpt>
      <trkpt lat="43.02541" lon="6.21097">
        <ele>43</ele>
        <time>2015-09-04T15:37:02.000Z</time>
      </trkpt>
      <trkpt lat="43.02546" lon="6.21095">
        <ele>43</ele>
        <time>2015-09-04T15:37:03.000Z</time>
      </trkpt>
      <trkpt lat="43.02553" lon="6.21091">
        <ele>42</ele>
        <time>2015-09-04T15:37:04.000Z</time>
      </trkpt>
      <trkpt lat="43.02557" lon="6.21089">
        <ele>41</ele>
        <time>2015-09-04T15:37:05.000Z</time>
      </trkpt>
      <trkpt lat="43.02563" lon="6.21087">
        <ele>42</ele>
        <time>2015-09-04T15:37:06.000Z</time>
      </trkpt>
      <trkpt lat="43.02568" lon="6.21089">
        <ele>42</ele>
        <time>2015-09-04T15:37:07.000Z</time>
      </trkpt>
      <trkpt lat="43.02574" lon="6.21087">
        <ele>43</ele>
        <time>2015-09-04T15:37:08.000Z</time>
      </trkpt>
      <trkpt lat="43.02582" lon="6.21085">
        <ele>43</ele>
        <time>2015-09-04T15:37:09.000Z</time>
      </trkpt>
      <trkpt lat="43.02589" lon="6.21084">
        <ele>42</ele>
        <time>2015-09-04T15:37:10.000Z</time>
      </trkpt>
      <trkpt lat="43.02595" lon="6.21082">
        <ele>42</ele>
        <time>2015-09-04T15:37:11.000Z</time>
      </trkpt>
      <trkpt lat="43.02602" lon="6.2108">
        <ele>42</ele>
        <time>2015-09-04T15:37:12.000Z</time>
      </trkpt>
      <trkpt lat="43.02608" lon="6.21078">
        <ele>42</ele>
        <time>2015-09-04T15:37:13.000Z</time>
      </trkpt>
      <trkpt lat="43.02614" lon="6.21076">
        <ele>41</ele>
        <time>2015-09-04T15:37:14.000Z</time>
      </trkpt>
      <trkpt lat="43.02619" lon="6.21074">
        <ele>41</ele>
        <time>2015-09-04T15:37:15.000Z</time>
      </trkpt>
      <trkpt lat="43.02625" lon="6.21072">
        <ele>43</ele>
        <time>2015-09-04T15:37:16.000Z</time>
      </trkpt>
      <trkpt lat="43.02632" lon="6.21071">
        <ele>41</ele>
        <time>2015-09-04T15:37:17.000Z</time>
      </trkpt>
      <trkpt lat="43.02638" lon="6.21071">
        <ele>41</ele>
        <time>2015-09-04T15:37:18.000Z</time>
      </trkpt>
      <trkpt lat="43.02643" lon="6.21069">
        <ele>42</ele>
        <time>2015-09-04T15:37:19.000Z</time>
      </trkpt>
      <trkpt lat="43.0265" lon="6.21067">
        <ele>44</ele>
        <time>2015-09-04T15:37:20.000Z</time>
      </trkpt>
      <trkpt lat="43.02655" lon="6.21064">
        <ele>43</ele>
        <time>2015-09-04T15:37:21.000Z</time>
      </trkpt>
      <trkpt lat="43.02661" lon="6.21061">
        <ele>43</ele>
        <time>2015-09-04T15:37:22.000Z</time>
      </trkpt>
      <trkpt lat="43.02666" lon="6.2106">
        <ele>43</ele>
        <time>2015-09-04T15:37:23.000Z</time>
      </trkpt>
      <trkpt lat="43.02671" lon="6.21059">
        <ele>42</ele>
        <time>2015-09-04T15:37:24.000Z</time>
      </trkpt>
      <trkpt lat="43.02676" lon="6.21059">
        <ele>42</ele>
        <time>2015-09-04T15:37:25.000Z</time>
      </trkpt>
      <trkpt lat="43.02683" lon="6.21058">
        <ele>41</ele>
        <time>2015-09-04T15:37:26.000Z</time>
      </trkpt>
      <trkpt lat="43.02691" lon="6.21058">
        <ele>41</ele>
        <time>2015-09-04T15:37:27.000Z</time>
      </trkpt>
      <trkpt lat="43.02698" lon="6.21056">
        <ele>41</ele>
        <time>2015-09-04T15:37:28.000Z</time>
      </trkpt>
      <trkpt lat="43.02705" lon="6.21054">
        <ele>43</ele>
        <time>2015-09-04T15:37:29.000Z</time>
      </trkpt>
      <trkpt lat="43.02712" lon="6.21053">
        <ele>43</ele>
        <time>2015-09-04T15:37:30.000Z</time>
      </trkpt>
      <trkpt lat="43.02718" lon="6.21052">
        <ele>43</ele>
        <time>2015-09-04T15:37:31.000Z</time>
      </trkpt>
      <trkpt lat="43.02725" lon="6.2105">
        <ele>44</ele>
        <time>2015-09-04T15:37:32.000Z</time>
      </trkpt>
      <trkpt lat="43.02731" lon="6.21047">
        <ele>44</ele>
        <time>2015-09-04T15:37:33.000Z</time>
      </trkpt>
      <trkpt lat="43.02738" lon="6.21045">
        <ele>44</ele>
        <time>2015-09-04T15:37:34.000Z</time>
      </trkpt>
      <trkpt lat="43.02744" lon="6.21041">
        <ele>44</ele>
        <time>2015-09-04T15:37:35.000Z</time>
      </trkpt>
      <trkpt lat="43.0275" lon="6.21037">
        <ele>43</ele>
        <time>2015-09-04T15:37:36.000Z</time>
      </trkpt>
      <trkpt lat="43.02757" lon="6.21034">
        <ele>44</ele>
        <time>2015-09-04T15:37:37.000Z</time>
      </trkpt>
      <trkpt lat="43.02765" lon="6.21031">
        <ele>47</ele>
        <time>2015-09-04T15:37:38.000Z</time>
      </trkpt>
      <trkpt lat="43.02772" lon="6.21029">
        <ele>47</ele>
        <time>2015-09-04T15:37:39.000Z</time>
      </trkpt>
      <trkpt lat="43.02778" lon="6.21028">
        <ele>47</ele>
        <time>2015-09-04T15:37:40.000Z</time>
      </trkpt>
      <trkpt lat="43.02786" lon="6.21027">
        <ele>45</ele>
        <time>2015-09-04T15:37:41.000Z</time>
      </trkpt>
      <trkpt lat="43.02793" lon="6.21026">
        <ele>45</ele>
        <time>2015-09-04T15:37:42.000Z</time>
      </trkpt>
      <trkpt lat="43.02798" lon="6.21025">
        <ele>45</ele>
        <time>2015-09-04T15:37:43.000Z</time>
      </trkpt>
      <trkpt lat="43.02806" lon="6.21024">
        <ele>45</ele>
        <time>2015-09-04T15:37:44.000Z</time>
      </trkpt>
      <trkpt lat="43.02814" lon="6.21023">
        <ele>46</ele>
        <time>2015-09-04T15:37:45.000Z</time>
      </trkpt>
      <trkpt lat="43.02821" lon="6.2102">
        <ele>47</ele>
        <time>2015-09-04T15:37:46.000Z</time>
      </trkpt>
      <trkpt lat="43.02827" lon="6.21018">
        <ele>47</ele>
        <time>2015-09-04T15:37:47.000Z</time>
      </trkpt>
      <trkpt lat="43.02834" lon="6.21016">
        <ele>48</ele>
        <time>2015-09-04T15:37:48.000Z</time>
      </trkpt>
      <trkpt lat="43.02841" lon="6.21014">
        <ele>47</ele>
        <time>2015-09-04T15:37:49.000Z</time>
      </trkpt>
      <trkpt lat="43.02847" lon="6.21013">
        <ele>47</ele>
        <time>2015-09-04T15:37:50.000Z</time>
      </trkpt>
      <trkpt lat="43.02854" lon="6.21012">
        <ele>48</ele>
        <time>2015-09-04T15:37:51.000Z</time>
      </trkpt>
      <trkpt lat="43.02861" lon="6.21011">
        <ele>47</ele>
        <time>2015-09-04T15:37:52.000Z</time>
      </trkpt>
      <trkpt lat="43.02867" lon="6.21011">
        <ele>47</ele>
        <time>2015-09-04T15:37:53.000Z</time>
      </trkpt>
      <trkpt lat="43.02875" lon="6.2101">
        <ele>48</ele>
        <time>2015-09-04T15:37:54.000Z</time>
      </trkpt>
      <trkpt lat="43.02883" lon="6.2101">
        <ele>47</ele>
        <time>2015-09-04T15:37:55.000Z</time>
      </trkpt>
      <trkpt lat="43.0289" lon="6.21009">
        <ele>47</ele>
        <time>2015-09-04T15:37:56.000Z</time>
      </trkpt>
      <trkpt lat="43.02896" lon="6.21009">
        <ele>46</ele>
        <time>2015-09-04T15:37:57.000Z</time>
      </trkpt>
      <trkpt lat="43.02903" lon="6.21008">
        <ele>46</ele>
        <time>2015-09-04T15:37:58.000Z</time>
      </trkpt>
      <trkpt lat="43.0291" lon="6.21006">
        <ele>47</ele>
        <time>2015-09-04T15:37:59.000Z</time>
      </trkpt>
      <trkpt lat="43.02915" lon="6.21004">
        <ele>47</ele>
        <time>2015-09-04T15:38:00.000Z</time>
      </trkpt>
      <trkpt lat="43.0292" lon="6.21004">
        <ele>46</ele>
        <time>2015-09-04T15:38:01.000Z</time>
      </trkpt>
      <trkpt lat="43.02928" lon="6.21003">
        <ele>47</ele>
        <time>2015-09-04T15:38:02.000Z</time>
      </trkpt>
      <trkpt lat="43.02934" lon="6.21001">
        <ele>47</ele>
        <time>2015-09-04T15:38:03.000Z</time>
      </trkpt>
      <trkpt lat="43.0294" lon="6.21">
        <ele>47</ele>
        <time>2015-09-04T15:38:04.000Z</time>
      </trkpt>
      <trkpt lat="43.02946" lon="6.20998">
        <ele>47</ele>
        <time>2015-09-04T15:38:05.000Z</time>
      </trkpt>
      <trkpt lat="43.02951" lon="6.20998">
        <ele>47</ele>
        <time>2015-09-04T15:38:06.000Z</time>
      </trkpt>
      <trkpt lat="43.02957" lon="6.20997">
        <ele>47</ele>
        <time>2015-09-04T15:38:07.000Z</time>
      </trkpt>
      <trkpt lat="43.02963" lon="6.20996">
        <ele>47</ele>
        <time>2015-09-04T15:38:08.000Z</time>
      </trkpt>
      <trkpt lat="43.0297" lon="6.20997">
        <ele>47</ele>
        <time>2015-09-04T15:38:09.000Z</time>
      </trkpt>
      <trkpt lat="43.02976" lon="6.20997">
        <ele>47</ele>
        <time>2015-09-04T15:38:10.000Z</time>
      </trkpt>
      <trkpt lat="43.02982" lon="6.20995">
        <ele>47</ele>
        <time>2015-09-04T15:38:11.000Z</time>
      </trkpt>
      <trkpt lat="43.02988" lon="6.20995">
        <ele>46</ele>
        <time>2015-09-04T15:38:12.000Z</time>
      </trkpt>
      <trkpt lat="43.02994" lon="6.20996">
        <ele>46</ele>
        <time>2015-09-04T15:38:13.000Z</time>
      </trkpt>
      <trkpt lat="43.02998" lon="6.20996">
        <ele>46</ele>
        <time>2015-09-04T15:38:14.000Z</time>
      </trkpt>
      <trkpt lat="43.03003" lon="6.20996">
        <ele>47</ele>
        <time>2015-09-04T15:38:15.000Z</time>
      </trkpt>
      <trkpt lat="43.03008" lon="6.20997">
        <ele>47</ele>
        <time>2015-09-04T15:38:16.000Z</time>
      </trkpt>
      <trkpt lat="43.03012" lon="6.20998">
        <ele>48</ele>
        <time>2015-09-04T15:38:17.000Z</time>
      </trkpt>
      <trkpt lat="43.03016" lon="6.20999">
        <ele>48</ele>
        <time>2015-09-04T15:38:18.000Z</time>
      </trkpt>
      <trkpt lat="43.0302" lon="6.21001">
        <ele>48</ele>
        <time>2015-09-04T15:38:19.000Z</time>
      </trkpt>
      <trkpt lat="43.03025" lon="6.21004">
        <ele>48</ele>
        <time>2015-09-04T15:38:20.000Z</time>
      </trkpt>
      <trkpt lat="43.03032" lon="6.21004">
        <ele>46</ele>
        <time>2015-09-04T15:38:21.000Z</time>
      </trkpt>
      <trkpt lat="43.03038" lon="6.21004">
        <ele>46</ele>
        <time>2015-09-04T15:38:22.000Z</time>
      </trkpt>
      <trkpt lat="43.03044" lon="6.21006">
        <ele>46</ele>
        <time>2015-09-04T15:38:23.000Z</time>
      </trkpt>
      <trkpt lat="43.0305" lon="6.21008">
        <ele>46</ele>
        <time>2015-09-04T15:38:24.000Z</time>
      </trkpt>
      <trkpt lat="43.03056" lon="6.21007">
        <ele>46</ele>
        <time>2015-09-04T15:38:25.000Z</time>
      </trkpt>
      <trkpt lat="43.03062" lon="6.21007">
        <ele>47</ele>
        <time>2015-09-04T15:38:26.000Z</time>
      </trkpt>
      <trkpt lat="43.03068" lon="6.21007">
        <ele>46</ele>
        <time>2015-09-04T15:38:27.000Z</time>
      </trkpt>
      <trkpt lat="43.03075" lon="6.21007">
        <ele>46</ele>
        <time>2015-09-04T15:38:28.000Z</time>
      </trkpt>
      <trkpt lat="43.03081" lon="6.21009">
        <ele>47</ele>
        <time>2015-09-04T15:38:29.000Z</time>
      </trkpt>
      <trkpt lat="43.03088" lon="6.21009">
        <ele>46</ele>
        <time>2015-09-04T15:38:30.000Z</time>
      </trkpt>
      <trkpt lat="43.03094" lon="6.21009">
        <ele>47</ele>
        <time>2015-09-04T15:38:31.000Z</time>
      </trkpt>
      <trkpt lat="43.03101" lon="6.21007">
        <ele>47</ele>
        <time>2015-09-04T15:38:32.000Z</time>
      </trkpt>
      <trkpt lat="43.03107" lon="6.2101">
        <ele>47</ele>
        <time>2015-09-04T15:38:33.000Z</time>
      </trkpt>
      <trkpt lat="43.03114" lon="6.2101">
        <ele>46</ele>
        <time>2015-09-04T15:38:34.000Z</time>
      </trkpt>
      <trkpt lat="43.0312" lon="6.21011">
        <ele>46</ele>
        <time>2015-09-04T15:38:35.000Z</time>
      </trkpt>
      <trkpt lat="43.03129" lon="6.21014">
        <ele>45</ele>
        <time>2015-09-04T15:38:36.000Z</time>
      </trkpt>
      <trkpt lat="43.03134" lon="6.21016">
        <ele>45</ele>
        <time>2015-09-04T15:38:37.000Z</time>
      </trkpt>
      <trkpt lat="43.0314" lon="6.21017">
        <ele>45</ele>
        <time>2015-09-04T15:38:38.000Z</time>
      </trkpt>
      <trkpt lat="43.03147" lon="6.21016">
        <ele>45</ele>
        <time>2015-09-04T15:38:39.000Z</time>
      </trkpt>
      <trkpt lat="43.03153" lon="6.21016">
        <ele>45</ele>
        <time>2015-09-04T15:38:40.000Z</time>
      </trkpt>
      <trkpt lat="43.03159" lon="6.21013">
        <ele>45</ele>
        <time>2015-09-04T15:38:41.000Z</time>
      </trkpt>
      <trkpt lat="43.03166" lon="6.21012">
        <ele>46</ele>
        <time>2015-09-04T15:38:42.000Z</time>
      </trkpt>
      <trkpt lat="43.03172" lon="6.21011">
        <ele>46</ele>
        <time>2015-09-04T15:38:43.000Z</time>
      </trkpt>
      <trkpt lat="43.03181" lon="6.21009">
        <ele>45</ele>
        <time>2015-09-04T15:38:44.000Z</time>
      </trkpt>
      <trkpt lat="43.03187" lon="6.21009">
        <ele>47</ele>
        <time>2015-09-04T15:38:45.000Z</time>
      </trkpt>
      <trkpt lat="43.03195" lon="6.2101">
        <ele>47</ele>
        <time>2015-09-04T15:38:46.000Z</time>
      </trkpt>
      <trkpt lat="43.03202" lon="6.2101">
        <ele>46</ele>
        <time>2015-09-04T15:38:47.000Z</time>
      </trkpt>
      <trkpt lat="43.03209" lon="6.2101">
        <ele>46</ele>
        <time>2015-09-04T15:38:48.000Z</time>
      </trkpt>
      <trkpt lat="43.03215" lon="6.21009">
        <ele>45</ele>
        <time>2015-09-04T15:38:49.000Z</time>
      </trkpt>
      <trkpt lat="43.03222" lon="6.2101">
        <ele>45</ele>
        <time>2015-09-04T15:38:50.000Z</time>
      </trkpt>
      <trkpt lat="43.03227" lon="6.2101">
        <ele>44</ele>
        <time>2015-09-04T15:38:51.000Z</time>
      </trkpt>
      <trkpt lat="43.03234" lon="6.21011">
        <ele>45</ele>
        <time>2015-09-04T15:38:52.000Z</time>
      </trkpt>
      <trkpt lat="43.0324" lon="6.2101">
        <ele>47</ele>
        <time>2015-09-04T15:38:53.000Z</time>
      </trkpt>
      <trkpt lat="43.03247" lon="6.21009">
        <ele>46</ele>
        <time>2015-09-04T15:38:54.000Z</time>
      </trkpt>
      <trkpt lat="43.03253" lon="6.21009">
        <ele>45</ele>
        <time>2015-09-04T15:38:55.000Z</time>
      </trkpt>
      <trkpt lat="43.03259" lon="6.2101">
        <ele>44</ele>
        <time>2015-09-04T15:38:56.000Z</time>
      </trkpt>
      <trkpt lat="43.03266" lon="6.21012">
        <ele>44</ele>
        <time>2015-09-04T15:38:57.000Z</time>
      </trkpt>
      <trkpt lat="43.03272" lon="6.21015">
        <ele>45</ele>
        <time>2015-09-04T15:38:58.000Z</time>
      </trkpt>
      <trkpt lat="43.03277" lon="6.21017">
        <ele>45</ele>
        <time>2015-09-04T15:38:59.000Z</time>
      </trkpt>
      <trkpt lat="43.03284" lon="6.21019">
        <ele>44</ele>
        <time>2015-09-04T15:39:00.000Z</time>
      </trkpt>
      <trkpt lat="43.03291" lon="6.2102">
        <ele>44</ele>
        <time>2015-09-04T15:39:01.000Z</time>
      </trkpt>
      <trkpt lat="43.03298" lon="6.21021">
        <ele>43</ele>
        <time>2015-09-04T15:39:02.000Z</time>
      </trkpt>
      <trkpt lat="43.03304" lon="6.2102">
        <ele>43</ele>
        <time>2015-09-04T15:39:03.000Z</time>
      </trkpt>
      <trkpt lat="43.03311" lon="6.21019">
        <ele>44</ele>
        <time>2015-09-04T15:39:04.000Z</time>
      </trkpt>
      <trkpt lat="43.03319" lon="6.21019">
        <ele>43</ele>
        <time>2015-09-04T15:39:05.000Z</time>
      </trkpt>
      <trkpt lat="43.03326" lon="6.21019">
        <ele>44</ele>
        <time>2015-09-04T15:39:06.000Z</time>
      </trkpt>
      <trkpt lat="43.03333" lon="6.2102">
        <ele>47</ele>
        <time>2015-09-04T15:39:07.000Z</time>
      </trkpt>
      <trkpt lat="43.03342" lon="6.21021">
        <ele>47</ele>
        <time>2015-09-04T15:39:08.000Z</time>
      </trkpt>
      <trkpt lat="43.0335" lon="6.21019">
        <ele>45</ele>
        <time>2015-09-04T15:39:09.000Z</time>
      </trkpt>
      <trkpt lat="43.03355" lon="6.21019">
        <ele>46</ele>
        <time>2015-09-04T15:39:10.000Z</time>
      </trkpt>
      <trkpt lat="43.03361" lon="6.21018">
        <ele>45</ele>
        <time>2015-09-04T15:39:11.000Z</time>
      </trkpt>
      <trkpt lat="43.03368" lon="6.21017">
        <ele>44</ele>
        <time>2015-09-04T15:39:12.000Z</time>
      </trkpt>
      <trkpt lat="43.03374" lon="6.21016">
        <ele>44</ele>
        <time>2015-09-04T15:39:13.000Z</time>
      </trkpt>
      <trkpt lat="43.03379" lon="6.21015">
        <ele>43</ele>
        <time>2015-09-04T15:39:14.000Z</time>
      </trkpt>
      <trkpt lat="43.03385" lon="6.21013">
        <ele>43</ele>
        <time>2015-09-04T15:39:15.000Z</time>
      </trkpt>
      <trkpt lat="43.03393" lon="6.21012">
        <ele>43</ele>
        <time>2015-09-04T15:39:16.000Z</time>
      </trkpt>
      <trkpt lat="43.03401" lon="6.21013">
        <ele>45</ele>
        <time>2015-09-04T15:39:17.000Z</time>
      </trkpt>
      <trkpt lat="43.03408" lon="6.21011">
        <ele>45</ele>
        <time>2015-09-04T15:39:18.000Z</time>
      </trkpt>
      <trkpt lat="43.03414" lon="6.21011">
        <ele>45</ele>
        <time>2015-09-04T15:39:19.000Z</time>
      </trkpt>
      <trkpt lat="43.0342" lon="6.2101">
        <ele>46</ele>
        <time>2015-09-04T15:39:20.000Z</time>
      </trkpt>
      <trkpt lat="43.03427" lon="6.2101">
        <ele>45</ele>
        <time>2015-09-04T15:39:21.000Z</time>
      </trkpt>
      <trkpt lat="43.03433" lon="6.21009">
        <ele>46</ele>
        <time>2015-09-04T15:39:22.000Z</time>
      </trkpt>
      <trkpt lat="43.0344" lon="6.2101">
        <ele>47</ele>
        <time>2015-09-04T15:39:23.000Z</time>
      </trkpt>
      <trkpt lat="43.03444" lon="6.2101">
        <ele>46</ele>
        <time>2015-09-04T15:39:24.000Z</time>
      </trkpt>
      <trkpt lat="43.03451" lon="6.21008">
        <ele>47</ele>
        <time>2015-09-04T15:39:25.000Z</time>
      </trkpt>
      <trkpt lat="43.03458" lon="6.21009">
        <ele>47</ele>
        <time>2015-09-04T15:39:26.000Z</time>
      </trkpt>
      <trkpt lat="43.03466" lon="6.21009">
        <ele>48</ele>
        <time>2015-09-04T15:39:27.000Z</time>
      </trkpt>
      <trkpt lat="43.03474" lon="6.21009">
        <ele>47</ele>
        <time>2015-09-04T15:39:28.000Z</time>
      </trkpt>
      <trkpt lat="43.0348" lon="6.21009">
        <ele>47</ele>
        <time>2015-09-04T15:39:29.000Z</time>
      </trkpt>
      <trkpt lat="43.03486" lon="6.21009">
        <ele>46</ele>
        <time>2015-09-04T15:39:30.000Z</time>
      </trkpt>
      <trkpt lat="43.03493" lon="6.21009">
        <ele>45</ele>
        <time>2015-09-04T15:39:31.000Z</time>
      </trkpt>
      <trkpt lat="43.035" lon="6.21008">
        <ele>46</ele>
        <time>2015-09-04T15:39:32.000Z</time>
      </trkpt>
      <trkpt lat="43.03508" lon="6.21008">
        <ele>46</ele>
        <time>2015-09-04T15:39:33.000Z</time>
      </trkpt>
      <trkpt lat="43.03516" lon="6.21007">
        <ele>48</ele>
        <time>2015-09-04T15:39:34.000Z</time>
      </trkpt>
      <trkpt lat="43.03523" lon="6.21008">
        <ele>48</ele>
        <time>2015-09-04T15:39:35.000Z</time>
      </trkpt>
      <trkpt lat="43.0353" lon="6.21006">
        <ele>48</ele>
        <time>2015-09-04T15:39:36.000Z</time>
      </trkpt>
      <trkpt lat="43.03537" lon="6.21005">
        <ele>48</ele>
        <time>2015-09-04T15:39:37.000Z</time>
      </trkpt>
      <trkpt lat="43.03542" lon="6.21001">
        <ele>46</ele>
        <time>2015-09-04T15:39:38.000Z</time>
      </trkpt>
      <trkpt lat="43.03546" lon="6.21">
        <ele>47</ele>
        <time>2015-09-04T15:39:39.000Z</time>
      </trkpt>
      <trkpt lat="43.03553" lon="6.21">
        <ele>47</ele>
        <time>2015-09-04T15:39:40.000Z</time>
      </trkpt>
      <trkpt lat="43.03558" lon="6.21">
        <ele>47</ele>
        <time>2015-09-04T15:39:41.000Z</time>
      </trkpt>
      <trkpt lat="43.03566" lon="6.20998">
        <ele>47</ele>
        <time>2015-09-04T15:39:42.000Z</time>
      </trkpt>
      <trkpt lat="43.03571" lon="6.20997">
        <ele>45</ele>
        <time>2015-09-04T15:39:43.000Z</time>
      </trkpt>
      <trkpt lat="43.03577" lon="6.20997">
        <ele>46</ele>
        <time>2015-09-04T15:39:44.000Z</time>
      </trkpt>
      <trkpt lat="43.03583" lon="6.20998">
        <ele>45</ele>
        <time>2015-09-04T15:39:45.000Z</time>
      </trkpt>
      <trkpt lat="43.0359" lon="6.20998">
        <ele>45</ele>
        <time>2015-09-04T15:39:46.000Z</time>
      </trkpt>
      <trkpt lat="43.03596" lon="6.20993">
        <ele>44</ele>
        <time>2015-09-04T15:39:47.000Z</time>
      </trkpt>
      <trkpt lat="43.03604" lon="6.2099">
        <ele>44</ele>
        <time>2015-09-04T15:39:48.000Z</time>
      </trkpt>
      <trkpt lat="43.03612" lon="6.20989">
        <ele>45</ele>
        <time>2015-09-04T15:39:49.000Z</time>
      </trkpt>
      <trkpt lat="43.0362" lon="6.20988">
        <ele>44</ele>
        <time>2015-09-04T15:39:50.000Z</time>
      </trkpt>
      <trkpt lat="43.03628" lon="6.20986">
        <ele>44</ele>
        <time>2015-09-04T15:39:51.000Z</time>
      </trkpt>
      <trkpt lat="43.03635" lon="6.20984">
        <ele>44</ele>
        <time>2015-09-04T15:39:52.000Z</time>
      </trkpt>
      <trkpt lat="43.0364" lon="6.20983">
        <ele>44</ele>
        <time>2015-09-04T15:39:53.000Z</time>
      </trkpt>
      <trkpt lat="43.03648" lon="6.20984">
        <ele>43</ele>
        <time>2015-09-04T15:39:54.000Z</time>
      </trkpt>
      <trkpt lat="43.03654" lon="6.20982">
        <ele>43</ele>
        <time>2015-09-04T15:39:55.000Z</time>
      </trkpt>
      <trkpt lat="43.03662" lon="6.20981">
        <ele>44</ele>
        <time>2015-09-04T15:39:56.000Z</time>
      </trkpt>
      <trkpt lat="43.03667" lon="6.20979">
        <ele>44</ele>
        <time>2015-09-04T15:39:57.000Z</time>
      </trkpt>
      <trkpt lat="43.03674" lon="6.20977">
        <ele>44</ele>
        <time>2015-09-04T15:39:58.000Z</time>
      </trkpt>
      <trkpt lat="43.0368" lon="6.20974">
        <ele>45</ele>
        <time>2015-09-04T15:39:59.000Z</time>
      </trkpt>
      <trkpt lat="43.03687" lon="6.20973">
        <ele>45</ele>
        <time>2015-09-04T15:40:00.000Z</time>
      </trkpt>
      <trkpt lat="43.03693" lon="6.20971">
        <ele>47</ele>
        <time>2015-09-04T15:40:01.000Z</time>
      </trkpt>
      <trkpt lat="43.03698" lon="6.20969">
        <ele>46</ele>
        <time>2015-09-04T15:40:02.000Z</time>
      </trkpt>
      <trkpt lat="43.03702" lon="6.20968">
        <ele>45</ele>
        <time>2015-09-04T15:40:03.000Z</time>
      </trkpt>
      <trkpt lat="43.03708" lon="6.20966">
        <ele>45</ele>
        <time>2015-09-04T15:40:04.000Z</time>
      </trkpt>
      <trkpt lat="43.03713" lon="6.20964">
        <ele>45</ele>
        <time>2015-09-04T15:40:05.000Z</time>
      </trkpt>
      <trkpt lat="43.03718" lon="6.20963">
        <ele>45</ele>
        <time>2015-09-04T15:40:06.000Z</time>
      </trkpt>
      <trkpt lat="43.03723" lon="6.20962">
        <ele>45</ele>
        <time>2015-09-04T15:40:07.000Z</time>
      </trkpt>
      <trkpt lat="43.03727" lon="6.20963">
        <ele>45</ele>
        <time>2015-09-04T15:40:08.000Z</time>
      </trkpt>
      <trkpt lat="43.03732" lon="6.20963">
        <ele>45</ele>
        <time>2015-09-04T15:40:09.000Z</time>
      </trkpt>
      <trkpt lat="43.0374" lon="6.20962">
        <ele>46</ele>
        <time>2015-09-04T15:40:10.000Z</time>
      </trkpt>
      <trkpt lat="43.03747" lon="6.20964">
        <ele>48</ele>
        <time>2015-09-04T15:40:11.000Z</time>
      </trkpt>
      <trkpt lat="43.03753" lon="6.20962">
        <ele>48</ele>
        <time>2015-09-04T15:40:12.000Z</time>
      </trkpt>
      <trkpt lat="43.03761" lon="6.2096">
        <ele>47</ele>
        <time>2015-09-04T15:40:13.000Z</time>
      </trkpt>
      <trkpt lat="43.03769" lon="6.20959">
        <ele>47</ele>
        <time>2015-09-04T15:40:14.000Z</time>
      </trkpt>
      <trkpt lat="43.03776" lon="6.2096">
        <ele>49</ele>
        <time>2015-09-04T15:40:15.000Z</time>
      </trkpt>
      <trkpt lat="43.03782" lon="6.20958">
        <ele>48</ele>
        <time>2015-09-04T15:40:16.000Z</time>
      </trkpt>
      <trkpt lat="43.03789" lon="6.20958">
        <ele>48</ele>
        <time>2015-09-04T15:40:17.000Z</time>
      </trkpt>
      <trkpt lat="43.03798" lon="6.20956">
        <ele>48</ele>
        <time>2015-09-04T15:40:18.000Z</time>
      </trkpt>
      <trkpt lat="43.03804" lon="6.20952">
        <ele>47</ele>
        <time>2015-09-04T15:40:19.000Z</time>
      </trkpt>
      <trkpt lat="43.03809" lon="6.2095">
        <ele>48</ele>
        <time>2015-09-04T15:40:20.000Z</time>
      </trkpt>
      <trkpt lat="43.03816" lon="6.20948">
        <ele>47</ele>
        <time>2015-09-04T15:40:21.000Z</time>
      </trkpt>
      <trkpt lat="43.03822" lon="6.20946">
        <ele>47</ele>
        <time>2015-09-04T15:40:22.000Z</time>
      </trkpt>
      <trkpt lat="43.03829" lon="6.20943">
        <ele>47</ele>
        <time>2015-09-04T15:40:23.000Z</time>
      </trkpt>
      <trkpt lat="43.03836" lon="6.20941">
        <ele>47</ele>
        <time>2015-09-04T15:40:24.000Z</time>
      </trkpt>
      <trkpt lat="43.03842" lon="6.20938">
        <ele>47</ele>
        <time>2015-09-04T15:40:25.000Z</time>
      </trkpt>
      <trkpt lat="43.03849" lon="6.20936">
        <ele>47</ele>
        <time>2015-09-04T15:40:26.000Z</time>
      </trkpt>
      <trkpt lat="43.03856" lon="6.20934">
        <ele>47</ele>
        <time>2015-09-04T15:40:27.000Z</time>
      </trkpt>
      <trkpt lat="43.03862" lon="6.20932">
        <ele>47</ele>
        <time>2015-09-04T15:40:28.000Z</time>
      </trkpt>
      <trkpt lat="43.03868" lon="6.2093">
        <ele>48</ele>
        <time>2015-09-04T15:40:29.000Z</time>
      </trkpt>
      <trkpt lat="43.03874" lon="6.20929">
        <ele>48</ele>
        <time>2015-09-04T15:40:30.000Z</time>
      </trkpt>
      <trkpt lat="43.03881" lon="6.20928">
        <ele>48</ele>
        <time>2015-09-04T15:40:31.000Z</time>
      </trkpt>
      <trkpt lat="43.03887" lon="6.20927">
        <ele>48</ele>
        <time>2015-09-04T15:40:32.000Z</time>
      </trkpt>
      <trkpt lat="43.03894" lon="6.20926">
        <ele>48</ele>
        <time>2015-09-04T15:40:33.000Z</time>
      </trkpt>
      <trkpt lat="43.039" lon="6.20921">
        <ele>49</ele>
        <time>2015-09-04T15:40:34.000Z</time>
      </trkpt>
      <trkpt lat="43.03907" lon="6.20919">
        <ele>49</ele>
        <time>2015-09-04T15:40:35.000Z</time>
      </trkpt>
      <trkpt lat="43.03915" lon="6.20917">
        <ele>50</ele>
        <time>2015-09-04T15:40:36.000Z</time>
      </trkpt>
      <trkpt lat="43.0392" lon="6.20915">
        <ele>50</ele>
        <time>2015-09-04T15:40:37.000Z</time>
      </trkpt>
      <trkpt lat="43.03926" lon="6.20912">
        <ele>50</ele>
        <time>2015-09-04T15:40:38.000Z</time>
      </trkpt>
      <trkpt lat="43.03933" lon="6.20909">
        <ele>50</ele>
        <time>2015-09-04T15:40:39.000Z</time>
      </trkpt>
      <trkpt lat="43.03937" lon="6.20906">
        <ele>50</ele>
        <time>2015-09-04T15:40:40.000Z</time>
      </trkpt>
      <trkpt lat="43.03941" lon="6.20904">
        <ele>49</ele>
        <time>2015-09-04T15:40:41.000Z</time>
      </trkpt>
      <trkpt lat="43.03947" lon="6.20904">
        <ele>50</ele>
        <time>2015-09-04T15:40:42.000Z</time>
      </trkpt>
      <trkpt lat="43.03953" lon="6.20903">
        <ele>50</ele>
        <time>2015-09-04T15:40:43.000Z</time>
      </trkpt>
      <trkpt lat="43.0396" lon="6.20902">
        <ele>51</ele>
        <time>2015-09-04T15:40:44.000Z</time>
      </trkpt>
      <trkpt lat="43.03965" lon="6.20901">
        <ele>51</ele>
        <time>2015-09-04T15:40:45.000Z</time>
      </trkpt>
      <trkpt lat="43.03971" lon="6.20897">
        <ele>51</ele>
        <time>2015-09-04T15:40:46.000Z</time>
      </trkpt>
      <trkpt lat="43.03976" lon="6.20893">
        <ele>50</ele>
        <time>2015-09-04T15:40:47.000Z</time>
      </trkpt>
      <trkpt lat="43.03982" lon="6.20892">
        <ele>50</ele>
        <time>2015-09-04T15:40:48.000Z</time>
      </trkpt>
      <trkpt lat="43.0399" lon="6.2089">
        <ele>48</ele>
        <time>2015-09-04T15:40:49.000Z</time>
      </trkpt>
      <trkpt lat="43.03996" lon="6.20889">
        <ele>47</ele>
        <time>2015-09-04T15:40:50.000Z</time>
      </trkpt>
      <trkpt lat="43.04003" lon="6.20886">
        <ele>48</ele>
        <time>2015-09-04T15:40:51.000Z</time>
      </trkpt>
      <trkpt lat="43.04011" lon="6.20884">
        <ele>49</ele>
        <time>2015-09-04T15:40:52.000Z</time>
      </trkpt>
      <trkpt lat="43.04018" lon="6.20882">
        <ele>49</ele>
        <time>2015-09-04T15:40:53.000Z</time>
      </trkpt>
      <trkpt lat="43.04025" lon="6.2088">
        <ele>50</ele>
        <time>2015-09-04T15:40:54.000Z</time>
      </trkpt>
      <trkpt lat="43.04031" lon="6.20878">
        <ele>49</ele>
        <time>2015-09-04T15:40:55.000Z</time>
      </trkpt>
      <trkpt lat="43.04037" lon="6.20875">
        <ele>47</ele>
        <time>2015-09-04T15:40:56.000Z</time>
      </trkpt>
      <trkpt lat="43.04044" lon="6.20872">
        <ele>47</ele>
        <time>2015-09-04T15:40:57.000Z</time>
      </trkpt>
      <trkpt lat="43.04051" lon="6.2087">
        <ele>48</ele>
        <time>2015-09-04T15:40:58.000Z</time>
      </trkpt>
      <trkpt lat="43.04057" lon="6.20869">
        <ele>48</ele>
        <time>2015-09-04T15:40:59.000Z</time>
      </trkpt>
      <trkpt lat="43.04062" lon="6.20866">
        <ele>47</ele>
        <time>2015-09-04T15:41:00.000Z</time>
      </trkpt>
      <trkpt lat="43.04069" lon="6.20865">
        <ele>48</ele>
        <time>2015-09-04T15:41:01.000Z</time>
      </trkpt>
      <trkpt lat="43.04076" lon="6.20863">
        <ele>49</ele>
        <time>2015-09-04T15:41:02.000Z</time>
      </trkpt>
      <trkpt lat="43.04083" lon="6.2086">
        <ele>49</ele>
        <time>2015-09-04T15:41:03.000Z</time>
      </trkpt>
      <trkpt lat="43.04088" lon="6.20857">
        <ele>49</ele>
        <time>2015-09-04T15:41:04.000Z</time>
      </trkpt>
      <trkpt lat="43.04093" lon="6.20855">
        <ele>49</ele>
        <time>2015-09-04T15:41:05.000Z</time>
      </trkpt>
      <trkpt lat="43.04099" lon="6.2085">
        <ele>49</ele>
        <time>2015-09-04T15:41:06.000Z</time>
      </trkpt>
      <trkpt lat="43.04104" lon="6.20846">
        <ele>45</ele>
        <time>2015-09-04T15:41:07.000Z</time>
      </trkpt>
      <trkpt lat="43.04111" lon="6.20845">
        <ele>45</ele>
        <time>2015-09-04T15:41:08.000Z</time>
      </trkpt>
      <trkpt lat="43.04118" lon="6.20844">
        <ele>45</ele>
        <time>2015-09-04T15:41:09.000Z</time>
      </trkpt>
      <trkpt lat="43.04126" lon="6.2084">
        <ele>45</ele>
        <time>2015-09-04T15:41:10.000Z</time>
      </trkpt>
      <trkpt lat="43.04133" lon="6.20837">
        <ele>45</ele>
        <time>2015-09-04T15:41:11.000Z</time>
      </trkpt>
      <trkpt lat="43.04141" lon="6.20837">
        <ele>46</ele>
        <time>2015-09-04T15:41:12.000Z</time>
      </trkpt>
      <trkpt lat="43.04147" lon="6.20833">
        <ele>46</ele>
        <time>2015-09-04T15:41:13.000Z</time>
      </trkpt>
      <trkpt lat="43.04155" lon="6.20831">
        <ele>46</ele>
        <time>2015-09-04T15:41:14.000Z</time>
      </trkpt>
      <trkpt lat="43.04162" lon="6.20829">
        <ele>48</ele>
        <time>2015-09-04T15:41:15.000Z</time>
      </trkpt>
      <trkpt lat="43.04168" lon="6.20826">
        <ele>47</ele>
        <time>2015-09-04T15:41:16.000Z</time>
      </trkpt>
      <trkpt lat="43.04177" lon="6.20823">
        <ele>47</ele>
        <time>2015-09-04T15:41:17.000Z</time>
      </trkpt>
      <trkpt lat="43.04184" lon="6.2082">
        <ele>47</ele>
        <time>2015-09-04T15:41:18.000Z</time>
      </trkpt>
      <trkpt lat="43.0419" lon="6.20817">
        <ele>47</ele>
        <time>2015-09-04T15:41:19.000Z</time>
      </trkpt>
      <trkpt lat="43.04196" lon="6.20815">
        <ele>47</ele>
        <time>2015-09-04T15:41:20.000Z</time>
      </trkpt>
      <trkpt lat="43.04204" lon="6.20812">
        <ele>48</ele>
        <time>2015-09-04T15:41:21.000Z</time>
      </trkpt>
      <trkpt lat="43.04211" lon="6.20811">
        <ele>49</ele>
        <time>2015-09-04T15:41:22.000Z</time>
      </trkpt>
      <trkpt lat="43.04219" lon="6.2081">
        <ele>49</ele>
        <time>2015-09-04T15:41:23.000Z</time>
      </trkpt>
      <trkpt lat="43.04226" lon="6.20806">
        <ele>49</ele>
        <time>2015-09-04T15:41:24.000Z</time>
      </trkpt>
      <trkpt lat="43.04229" lon="6.20803">
        <ele>49</ele>
        <time>2015-09-04T15:41:25.000Z</time>
      </trkpt>
      <trkpt lat="43.04236" lon="6.20802">
        <ele>49</ele>
        <time>2015-09-04T15:41:26.000Z</time>
      </trkpt>
      <trkpt lat="43.04242" lon="6.20802">
        <ele>48</ele>
        <time>2015-09-04T15:41:27.000Z</time>
      </trkpt>
      <trkpt lat="43.04246" lon="6.20802">
        <ele>47</ele>
        <time>2015-09-04T15:41:28.000Z</time>
      </trkpt>
      <trkpt lat="43.04252" lon="6.20802">
        <ele>48</ele>
        <time>2015-09-04T15:41:29.000Z</time>
      </trkpt>
      <trkpt lat="43.04258" lon="6.20802">
        <ele>47</ele>
        <time>2015-09-04T15:41:30.000Z</time>
      </trkpt>
      <trkpt lat="43.04265" lon="6.20802">
        <ele>46</ele>
        <time>2015-09-04T15:41:31.000Z</time>
      </trkpt>
      <trkpt lat="43.04273" lon="6.20802">
        <ele>47</ele>
        <time>2015-09-04T15:41:32.000Z</time>
      </trkpt>
      <trkpt lat="43.0428" lon="6.20802">
        <ele>46</ele>
        <time>2015-09-04T15:41:33.000Z</time>
      </trkpt>
      <trkpt lat="43.04286" lon="6.20801">
        <ele>46</ele>
        <time>2015-09-04T15:41:34.000Z</time>
      </trkpt>
      <trkpt lat="43.04291" lon="6.20799">
        <ele>46</ele>
        <time>2015-09-04T15:41:35.000Z</time>
      </trkpt>
      <trkpt lat="43.04297" lon="6.20796">
        <ele>46</ele>
        <time>2015-09-04T15:41:36.000Z</time>
      </trkpt>
      <trkpt lat="43.04304" lon="6.20794">
        <ele>47</ele>
        <time>2015-09-04T15:41:37.000Z</time>
      </trkpt>
      <trkpt lat="43.04312" lon="6.20792">
        <ele>49</ele>
        <time>2015-09-04T15:41:38.000Z</time>
      </trkpt>
      <trkpt lat="43.0432" lon="6.20791">
        <ele>49</ele>
        <time>2015-09-04T15:41:39.000Z</time>
      </trkpt>
      <trkpt lat="43.04325" lon="6.20789">
        <ele>49</ele>
        <time>2015-09-04T15:41:40.000Z</time>
      </trkpt>
      <trkpt lat="43.04333" lon="6.20787">
        <ele>48</ele>
        <time>2015-09-04T15:41:41.000Z</time>
      </trkpt>
      <trkpt lat="43.04341" lon="6.20785">
        <ele>48</ele>
        <time>2015-09-04T15:41:42.000Z</time>
      </trkpt>
      <trkpt lat="43.04347" lon="6.20783">
        <ele>48</ele>
        <time>2015-09-04T15:41:43.000Z</time>
      </trkpt>
      <trkpt lat="43.04353" lon="6.20781">
        <ele>47</ele>
        <time>2015-09-04T15:41:44.000Z</time>
      </trkpt>
      <trkpt lat="43.04359" lon="6.20778">
        <ele>47</ele>
        <time>2015-09-04T15:41:45.000Z</time>
      </trkpt>
      <trkpt lat="43.04365" lon="6.20776">
        <ele>47</ele>
        <time>2015-09-04T15:41:46.000Z</time>
      </trkpt>
      <trkpt lat="43.04371" lon="6.20776">
        <ele>47</ele>
        <time>2015-09-04T15:41:47.000Z</time>
      </trkpt>
      <trkpt lat="43.04377" lon="6.20771">
        <ele>48</ele>
        <time>2015-09-04T15:41:48.000Z</time>
      </trkpt>
      <trkpt lat="43.04383" lon="6.20769">
        <ele>49</ele>
        <time>2015-09-04T15:41:49.000Z</time>
      </trkpt>
      <trkpt lat="43.0439" lon="6.20766">
        <ele>50</ele>
        <time>2015-09-04T15:41:50.000Z</time>
      </trkpt>
      <trkpt lat="43.04397" lon="6.20764">
        <ele>50</ele>
        <time>2015-09-04T15:41:51.000Z</time>
      </trkpt>
      <trkpt lat="43.04403" lon="6.20762">
        <ele>51</ele>
        <time>2015-09-04T15:41:52.000Z</time>
      </trkpt>
      <trkpt lat="43.04409" lon="6.2076">
        <ele>50</ele>
        <time>2015-09-04T15:41:53.000Z</time>
      </trkpt>
      <trkpt lat="43.04415" lon="6.20759">
        <ele>48</ele>
        <time>2015-09-04T15:41:54.000Z</time>
      </trkpt>
      <trkpt lat="43.0442" lon="6.20755">
        <ele>46</ele>
        <time>2015-09-04T15:41:55.000Z</time>
      </trkpt>
      <trkpt lat="43.04426" lon="6.20754">
        <ele>46</ele>
        <time>2015-09-04T15:41:56.000Z</time>
      </trkpt>
      <trkpt lat="43.04433" lon="6.20752">
        <ele>46</ele>
        <time>2015-09-04T15:41:57.000Z</time>
      </trkpt>
      <trkpt lat="43.04442" lon="6.20748">
        <ele>46</ele>
        <time>2015-09-04T15:41:58.000Z</time>
      </trkpt>
      <trkpt lat="43.04449" lon="6.20746">
        <ele>46</ele>
        <time>2015-09-04T15:41:59.000Z</time>
      </trkpt>
      <trkpt lat="43.04455" lon="6.20743">
        <ele>47</ele>
        <time>2015-09-04T15:42:00.000Z</time>
      </trkpt>
      <trkpt lat="43.0446" lon="6.2074">
        <ele>48</ele>
        <time>2015-09-04T15:42:01.000Z</time>
      </trkpt>
      <trkpt lat="43.04466" lon="6.20738">
        <ele>48</ele>
        <time>2015-09-04T15:42:02.000Z</time>
      </trkpt>
      <trkpt lat="43.04471" lon="6.20736">
        <ele>47</ele>
        <time>2015-09-04T15:42:03.000Z</time>
      </trkpt>
      <trkpt lat="43.04479" lon="6.20735">
        <ele>48</ele>
        <time>2015-09-04T15:42:04.000Z</time>
      </trkpt>
      <trkpt lat="43.04484" lon="6.20732">
        <ele>47</ele>
        <time>2015-09-04T15:42:05.000Z</time>
      </trkpt>
      <trkpt lat="43.04493" lon="6.20733">
        <ele>47</ele>
        <time>2015-09-04T15:42:06.000Z</time>
      </trkpt>
      <trkpt lat="43.04499" lon="6.2073">
        <ele>47</ele>
        <time>2015-09-04T15:42:07.000Z</time>
      </trkpt>
      <trkpt lat="43.04505" lon="6.20729">
        <ele>47</ele>
        <time>2015-09-04T15:42:08.000Z</time>
      </trkpt>
      <trkpt lat="43.04516" lon="6.20728">
        <ele>48</ele>
        <time>2015-09-04T15:42:09.000Z</time>
      </trkpt>
      <trkpt lat="43.04523" lon="6.20726">
        <ele>47</ele>
        <time>2015-09-04T15:42:10.000Z</time>
      </trkpt>
      <trkpt lat="43.0453" lon="6.20723">
        <ele>45</ele>
        <time>2015-09-04T15:42:11.000Z</time>
      </trkpt>
      <trkpt lat="43.04537" lon="6.20723">
        <ele>46</ele>
        <time>2015-09-04T15:42:12.000Z</time>
      </trkpt>
      <trkpt lat="43.04545" lon="6.20723">
        <ele>46</ele>
        <time>2015-09-04T15:42:13.000Z</time>
      </trkpt>
      <trkpt lat="43.04553" lon="6.20722">
        <ele>48</ele>
        <time>2015-09-04T15:42:14.000Z</time>
      </trkpt>
      <trkpt lat="43.0456" lon="6.20721">
        <ele>48</ele>
        <time>2015-09-04T15:42:15.000Z</time>
      </trkpt>
      <trkpt lat="43.04568" lon="6.20719">
        <ele>48</ele>
        <time>2015-09-04T15:42:16.000Z</time>
      </trkpt>
      <trkpt lat="43.04577" lon="6.20718">
        <ele>48</ele>
        <time>2015-09-04T15:42:17.000Z</time>
      </trkpt>
      <trkpt lat="43.04583" lon="6.20718">
        <ele>47</ele>
        <time>2015-09-04T15:42:18.000Z</time>
      </trkpt>
      <trkpt lat="43.04591" lon="6.20716">
        <ele>48</ele>
        <time>2015-09-04T15:42:19.000Z</time>
      </trkpt>
      <trkpt lat="43.046" lon="6.20715">
        <ele>48</ele>
        <time>2015-09-04T15:42:20.000Z</time>
      </trkpt>
      <trkpt lat="43.04608" lon="6.20716">
        <ele>48</ele>
        <time>2015-09-04T15:42:21.000Z</time>
      </trkpt>
      <trkpt lat="43.04616" lon="6.20715">
        <ele>49</ele>
        <time>2015-09-04T15:42:22.000Z</time>
      </trkpt>
      <trkpt lat="43.04623" lon="6.20715">
        <ele>49</ele>
        <time>2015-09-04T15:42:23.000Z</time>
      </trkpt>
      <trkpt lat="43.04631" lon="6.20714">
        <ele>50</ele>
        <time>2015-09-04T15:42:24.000Z</time>
      </trkpt>
      <trkpt lat="43.04638" lon="6.20714">
        <ele>50</ele>
        <time>2015-09-04T15:42:25.000Z</time>
      </trkpt>
      <trkpt lat="43.04644" lon="6.20712">
        <ele>50</ele>
        <time>2015-09-04T15:42:26.000Z</time>
      </trkpt>
      <trkpt lat="43.04653" lon="6.20712">
        <ele>51</ele>
        <time>2015-09-04T15:42:27.000Z</time>
      </trkpt>
      <trkpt lat="43.04661" lon="6.20712">
        <ele>52</ele>
        <time>2015-09-04T15:42:28.000Z</time>
      </trkpt>
      <trkpt lat="43.04667" lon="6.20711">
        <ele>53</ele>
        <time>2015-09-04T15:42:29.000Z</time>
      </trkpt>
      <trkpt lat="43.04675" lon="6.2071">
        <ele>52</ele>
        <time>2015-09-04T15:42:30.000Z</time>
      </trkpt>
      <trkpt lat="43.04683" lon="6.20709">
        <ele>53</ele>
        <time>2015-09-04T15:42:31.000Z</time>
      </trkpt>
      <trkpt lat="43.04688" lon="6.20706">
        <ele>51</ele>
        <time>2015-09-04T15:42:32.000Z</time>
      </trkpt>
      <trkpt lat="43.04696" lon="6.20703">
        <ele>52</ele>
        <time>2015-09-04T15:42:33.000Z</time>
      </trkpt>
      <trkpt lat="43.04704" lon="6.20702">
        <ele>51</ele>
        <time>2015-09-04T15:42:34.000Z</time>
      </trkpt>
      <trkpt lat="43.04711" lon="6.20701">
        <ele>51</ele>
        <time>2015-09-04T15:42:35.000Z</time>
      </trkpt>
      <trkpt lat="43.04715" lon="6.20698">
        <ele>50</ele>
        <time>2015-09-04T15:42:36.000Z</time>
      </trkpt>
      <trkpt lat="43.04723" lon="6.20696">
        <ele>51</ele>
        <time>2015-09-04T15:42:37.000Z</time>
      </trkpt>
      <trkpt lat="43.04732" lon="6.20697">
        <ele>51</ele>
        <time>2015-09-04T15:42:38.000Z</time>
      </trkpt>
      <trkpt lat="43.04737" lon="6.20696">
        <ele>51</ele>
        <time>2015-09-04T15:42:39.000Z</time>
      </trkpt>
      <trkpt lat="43.04745" lon="6.20695">
        <ele>50</ele>
        <time>2015-09-04T15:42:40.000Z</time>
      </trkpt>
      <trkpt lat="43.04752" lon="6.20693">
        <ele>49</ele>
        <time>2015-09-04T15:42:41.000Z</time>
      </trkpt>
      <trkpt lat="43.04758" lon="6.20691">
        <ele>50</ele>
        <time>2015-09-04T15:42:42.000Z</time>
      </trkpt>
      <trkpt lat="43.04789" lon="6.20685">
        <ele>43</ele>
        <time>2015-09-04T15:42:53.000Z</time>
      </trkpt>
      <trkpt lat="43.04791" lon="6.20691">
        <ele>44</ele>
        <time>2015-09-04T15:42:54.000Z</time>
      </trkpt>
      <trkpt lat="43.04795" lon="6.20693">
        <ele>43</ele>
        <time>2015-09-04T15:42:55.000Z</time>
      </trkpt>
      <trkpt lat="43.04798" lon="6.20698">
        <ele>47</ele>
        <time>2015-09-04T15:42:56.000Z</time>
      </trkpt>
      <trkpt lat="43.04803" lon="6.20697">
        <ele>49</ele>
        <time>2015-09-04T15:42:57.000Z</time>
      </trkpt>
      <trkpt lat="43.04809" lon="6.20699">
        <ele>52</ele>
        <time>2015-09-04T15:42:58.000Z</time>
      </trkpt>
      <trkpt lat="43.04814" lon="6.20698">
        <ele>53</ele>
        <time>2015-09-04T15:42:59.000Z</time>
      </trkpt>
      <trkpt lat="43.04821" lon="6.20695">
        <ele>52</ele>
        <time>2015-09-04T15:43:00.000Z</time>
      </trkpt>
      <trkpt lat="43.0483" lon="6.2069">
        <ele>51</ele>
        <time>2015-09-04T15:43:01.000Z</time>
      </trkpt>
      <trkpt lat="43.04835" lon="6.20683">
        <ele>48</ele>
        <time>2015-09-04T15:43:02.000Z</time>
      </trkpt>
      <trkpt lat="43.04844" lon="6.20681">
        <ele>49</ele>
        <time>2015-09-04T15:43:03.000Z</time>
      </trkpt>
      <trkpt lat="43.04849" lon="6.20683">
        <ele>50</ele>
        <time>2015-09-04T15:43:04.000Z</time>
      </trkpt>
      <trkpt lat="43.04854" lon="6.2068">
        <ele>49</ele>
        <time>2015-09-04T15:43:05.000Z</time>
      </trkpt>
      <trkpt lat="43.0486" lon="6.2068">
        <ele>48</ele>
        <time>2015-09-04T15:43:06.000Z</time>
      </trkpt>
      <trkpt lat="43.04865" lon="6.20679">
        <ele>47</ele>
        <time>2015-09-04T15:43:07.000Z</time>
      </trkpt>
      <trkpt lat="43.0487" lon="6.20682">
        <ele>48</ele>
        <time>2015-09-04T15:43:08.000Z</time>
      </trkpt>
      <trkpt lat="43.04876" lon="6.20682">
        <ele>50</ele>
        <time>2015-09-04T15:43:09.000Z</time>
      </trkpt>
      <trkpt lat="43.04885" lon="6.2068">
        <ele>51</ele>
        <time>2015-09-04T15:43:10.000Z</time>
      </trkpt>
      <trkpt lat="43.04892" lon="6.20677">
        <ele>52</ele>
        <time>2015-09-04T15:43:11.000Z</time>
      </trkpt>
      <trkpt lat="43.049" lon="6.20675">
        <ele>53</ele>
        <time>2015-09-04T15:43:12.000Z</time>
      </trkpt>
      <trkpt lat="43.04906" lon="6.20673">
        <ele>53</ele>
        <time>2015-09-04T15:43:13.000Z</time>
      </trkpt>
      <trkpt lat="43.04913" lon="6.20671">
        <ele>55</ele>
        <time>2015-09-04T15:43:14.000Z</time>
      </trkpt>
      <trkpt lat="43.0492" lon="6.2067">
        <ele>55</ele>
        <time>2015-09-04T15:43:15.000Z</time>
      </trkpt>
      <trkpt lat="43.04927" lon="6.20666">
        <ele>55</ele>
        <time>2015-09-04T15:43:16.000Z</time>
      </trkpt>
      <trkpt lat="43.04934" lon="6.20665">
        <ele>57</ele>
        <time>2015-09-04T15:43:17.000Z</time>
      </trkpt>
      <trkpt lat="43.04941" lon="6.20663">
        <ele>56</ele>
        <time>2015-09-04T15:43:18.000Z</time>
      </trkpt>
      <trkpt lat="43.04947" lon="6.20661">
        <ele>55</ele>
        <time>2015-09-04T15:43:19.000Z</time>
      </trkpt>
      <trkpt lat="43.04954" lon="6.20659">
        <ele>54</ele>
        <time>2015-09-04T15:43:20.000Z</time>
      </trkpt>
      <trkpt lat="43.0496" lon="6.20656">
        <ele>53</ele>
        <time>2015-09-04T15:43:21.000Z</time>
      </trkpt>
      <trkpt lat="43.04966" lon="6.20653">
        <ele>53</ele>
        <time>2015-09-04T15:43:22.000Z</time>
      </trkpt>
      <trkpt lat="43.04973" lon="6.20651">
        <ele>52</ele>
        <time>2015-09-04T15:43:23.000Z</time>
      </trkpt>
      <trkpt lat="43.04982" lon="6.20649">
        <ele>52</ele>
        <time>2015-09-04T15:43:24.000Z</time>
      </trkpt>
      <trkpt lat="43.04989" lon="6.20649">
        <ele>52</ele>
        <time>2015-09-04T15:43:25.000Z</time>
      </trkpt>
      <trkpt lat="43.04994" lon="6.20649">
        <ele>54</ele>
        <time>2015-09-04T15:43:26.000Z</time>
      </trkpt>
      <trkpt lat="43.04999" lon="6.20646">
        <ele>53</ele>
        <time>2015-09-04T15:43:27.000Z</time>
      </trkpt>
      <trkpt lat="43.05005" lon="6.20643">
        <ele>53</ele>
        <time>2015-09-04T15:43:28.000Z</time>
      </trkpt>
      <trkpt lat="43.05012" lon="6.20639">
        <ele>52</ele>
        <time>2015-09-04T15:43:29.000Z</time>
      </trkpt>
      <trkpt lat="43.0502" lon="6.20637">
        <ele>54</ele>
        <time>2015-09-04T15:43:30.000Z</time>
      </trkpt>
      <trkpt lat="43.05027" lon="6.20635">
        <ele>53</ele>
        <time>2015-09-04T15:43:31.000Z</time>
      </trkpt>
      <trkpt lat="43.05033" lon="6.20634">
        <ele>53</ele>
        <time>2015-09-04T15:43:32.000Z</time>
      </trkpt>
      <trkpt lat="43.0504" lon="6.20632">
        <ele>53</ele>
        <time>2015-09-04T15:43:33.000Z</time>
      </trkpt>
      <trkpt lat="43.05045" lon="6.2063">
        <ele>54</ele>
        <time>2015-09-04T15:43:34.000Z</time>
      </trkpt>
      <trkpt lat="43.05051" lon="6.20627">
        <ele>53</ele>
        <time>2015-09-04T15:43:35.000Z</time>
      </trkpt>
      <trkpt lat="43.05058" lon="6.20624">
        <ele>54</ele>
        <time>2015-09-04T15:43:36.000Z</time>
      </trkpt>
      <trkpt lat="43.05068" lon="6.20622">
        <ele>54</ele>
        <time>2015-09-04T15:43:37.000Z</time>
      </trkpt>
      <trkpt lat="43.05075" lon="6.20621">
        <ele>53</ele>
        <time>2015-09-04T15:43:38.000Z</time>
      </trkpt>
      <trkpt lat="43.0508" lon="6.2062">
        <ele>52</ele>
        <time>2015-09-04T15:43:39.000Z</time>
      </trkpt>
      <trkpt lat="43.05088" lon="6.20618">
        <ele>53</ele>
        <time>2015-09-04T15:43:40.000Z</time>
      </trkpt>
      <trkpt lat="43.05095" lon="6.20615">
        <ele>53</ele>
        <time>2015-09-04T15:43:41.000Z</time>
      </trkpt>
      <trkpt lat="43.05102" lon="6.2061">
        <ele>50</ele>
        <time>2015-09-04T15:43:42.000Z</time>
      </trkpt>
      <trkpt lat="43.0511" lon="6.20607">
        <ele>51</ele>
        <time>2015-09-04T15:43:43.000Z</time>
      </trkpt>
      <trkpt lat="43.0512" lon="6.20603">
        <ele>51</ele>
        <time>2015-09-04T15:43:44.000Z</time>
      </trkpt>
      <trkpt lat="43.05128" lon="6.20602">
        <ele>52</ele>
        <time>2015-09-04T15:43:45.000Z</time>
      </trkpt>
      <trkpt lat="43.05136" lon="6.20598">
        <ele>51</ele>
        <time>2015-09-04T15:43:46.000Z</time>
      </trkpt>
      <trkpt lat="43.05141" lon="6.20594">
        <ele>50</ele>
        <time>2015-09-04T15:43:47.000Z</time>
      </trkpt>
      <trkpt lat="43.05147" lon="6.20591">
        <ele>51</ele>
        <time>2015-09-04T15:43:48.000Z</time>
      </trkpt>
      <trkpt lat="43.05156" lon="6.20589">
        <ele>52</ele>
        <time>2015-09-04T15:43:49.000Z</time>
      </trkpt>
      <trkpt lat="43.05164" lon="6.20587">
        <ele>53</ele>
        <time>2015-09-04T15:43:50.000Z</time>
      </trkpt>
      <trkpt lat="43.05171" lon="6.20584">
        <ele>52</ele>
        <time>2015-09-04T15:43:51.000Z</time>
      </trkpt>
      <trkpt lat="43.0518" lon="6.20579">
        <ele>52</ele>
        <time>2015-09-04T15:43:52.000Z</time>
      </trkpt>
      <trkpt lat="43.05186" lon="6.20577">
        <ele>51</ele>
        <time>2015-09-04T15:43:53.000Z</time>
      </trkpt>
      <trkpt lat="43.05194" lon="6.20574">
        <ele>54</ele>
        <time>2015-09-04T15:43:54.000Z</time>
      </trkpt>
      <trkpt lat="43.05199" lon="6.20574">
        <ele>54</ele>
        <time>2015-09-04T15:43:55.000Z</time>
      </trkpt>
      <trkpt lat="43.05206" lon="6.20571">
        <ele>54</ele>
        <time>2015-09-04T15:43:56.000Z</time>
      </trkpt>
      <trkpt lat="43.05215" lon="6.20566">
        <ele>52</ele>
        <time>2015-09-04T15:43:57.000Z</time>
      </trkpt>
      <trkpt lat="43.05222" lon="6.20562">
        <ele>53</ele>
        <time>2015-09-04T15:43:58.000Z</time>
      </trkpt>
      <trkpt lat="43.05227" lon="6.2056">
        <ele>53</ele>
        <time>2015-09-04T15:43:59.000Z</time>
      </trkpt>
      <trkpt lat="43.05233" lon="6.20559">
        <ele>54</ele>
        <time>2015-09-04T15:44:00.000Z</time>
      </trkpt>
      <trkpt lat="43.0524" lon="6.20561">
        <ele>53</ele>
        <time>2015-09-04T15:44:01.000Z</time>
      </trkpt>
      <trkpt lat="43.05246" lon="6.2056">
        <ele>53</ele>
        <time>2015-09-04T15:44:02.000Z</time>
      </trkpt>
      <trkpt lat="43.05254" lon="6.2056">
        <ele>52</ele>
        <time>2015-09-04T15:44:03.000Z</time>
      </trkpt>
      <trkpt lat="43.0526" lon="6.20559">
        <ele>51</ele>
        <time>2015-09-04T15:44:04.000Z</time>
      </trkpt>
      <trkpt lat="43.05265" lon="6.20558">
        <ele>49</ele>
        <time>2015-09-04T15:44:05.000Z</time>
      </trkpt>
      <trkpt lat="43.05271" lon="6.20557">
        <ele>49</ele>
        <time>2015-09-04T15:44:06.000Z</time>
      </trkpt>
      <trkpt lat="43.05278" lon="6.20555">
        <ele>50</ele>
        <time>2015-09-04T15:44:07.000Z</time>
      </trkpt>
      <trkpt lat="43.05283" lon="6.20555">
        <ele>51</ele>
        <time>2015-09-04T15:44:08.000Z</time>
      </trkpt>
      <trkpt lat="43.0529" lon="6.20552">
        <ele>49</ele>
        <time>2015-09-04T15:44:09.000Z</time>
      </trkpt>
      <trkpt lat="43.05296" lon="6.2055">
        <ele>49</ele>
        <time>2015-09-04T15:44:10.000Z</time>
      </trkpt>
      <trkpt lat="43.05304" lon="6.20548">
        <ele>49</ele>
        <time>2015-09-04T15:44:11.000Z</time>
      </trkpt>
      <trkpt lat="43.05311" lon="6.20547">
        <ele>49</ele>
        <time>2015-09-04T15:44:12.000Z</time>
      </trkpt>
      <trkpt lat="43.05317" lon="6.20544">
        <ele>48</ele>
        <time>2015-09-04T15:44:13.000Z</time>
      </trkpt>
      <trkpt lat="43.05325" lon="6.20545">
        <ele>46</ele>
        <time>2015-09-04T15:44:14.000Z</time>
      </trkpt>
      <trkpt lat="43.05331" lon="6.20542">
        <ele>46</ele>
        <time>2015-09-04T15:44:15.000Z</time>
      </trkpt>
      <trkpt lat="43.05338" lon="6.20541">
        <ele>45</ele>
        <time>2015-09-04T15:44:16.000Z</time>
      </trkpt>
      <trkpt lat="43.05345" lon="6.2054">
        <ele>45</ele>
        <time>2015-09-04T15:44:17.000Z</time>
      </trkpt>
      <trkpt lat="43.05352" lon="6.20538">
        <ele>46</ele>
        <time>2015-09-04T15:44:18.000Z</time>
      </trkpt>
      <trkpt lat="43.05358" lon="6.20537">
        <ele>47</ele>
        <time>2015-09-04T15:44:19.000Z</time>
      </trkpt>
      <trkpt lat="43.05366" lon="6.20538">
        <ele>45</ele>
        <time>2015-09-04T15:44:20.000Z</time>
      </trkpt>
      <trkpt lat="43.05375" lon="6.20537">
        <ele>44</ele>
        <time>2015-09-04T15:44:21.000Z</time>
      </trkpt>
      <trkpt lat="43.05384" lon="6.20537">
        <ele>44</ele>
        <time>2015-09-04T15:44:22.000Z</time>
      </trkpt>
      <trkpt lat="43.05392" lon="6.20536">
        <ele>43</ele>
        <time>2015-09-04T15:44:23.000Z</time>
      </trkpt>
      <trkpt lat="43.05399" lon="6.20534">
        <ele>44</ele>
        <time>2015-09-04T15:44:24.000Z</time>
      </trkpt>
      <trkpt lat="43.05406" lon="6.20533">
        <ele>44</ele>
        <time>2015-09-04T15:44:25.000Z</time>
      </trkpt>
      <trkpt lat="43.05414" lon="6.20531">
        <ele>44</ele>
        <time>2015-09-04T15:44:26.000Z</time>
      </trkpt>
      <trkpt lat="43.0542" lon="6.20529">
        <ele>44</ele>
        <time>2015-09-04T15:44:27.000Z</time>
      </trkpt>
      <trkpt lat="43.05426" lon="6.20529">
        <ele>44</ele>
        <time>2015-09-04T15:44:28.000Z</time>
      </trkpt>
      <trkpt lat="43.05433" lon="6.20528">
        <ele>45</ele>
        <time>2015-09-04T15:44:29.000Z</time>
      </trkpt>
      <trkpt lat="43.05441" lon="6.20526">
        <ele>44</ele>
        <time>2015-09-04T15:44:30.000Z</time>
      </trkpt>
      <trkpt lat="43.05448" lon="6.20525">
        <ele>43</ele>
        <time>2015-09-04T15:44:31.000Z</time>
      </trkpt>
      <trkpt lat="43.05456" lon="6.20525">
        <ele>44</ele>
        <time>2015-09-04T15:44:32.000Z</time>
      </trkpt>
      <trkpt lat="43.05463" lon="6.20525">
        <ele>45</ele>
        <time>2015-09-04T15:44:33.000Z</time>
      </trkpt>
      <trkpt lat="43.05471" lon="6.20523">
        <ele>45</ele>
        <time>2015-09-04T15:44:34.000Z</time>
      </trkpt>
      <trkpt lat="43.05479" lon="6.2052">
        <ele>45</ele>
        <time>2015-09-04T15:44:35.000Z</time>
      </trkpt>
      <trkpt lat="43.05484" lon="6.20517">
        <ele>44</ele>
        <time>2015-09-04T15:44:36.000Z</time>
      </trkpt>
      <trkpt lat="43.0549" lon="6.20518">
        <ele>44</ele>
        <time>2015-09-04T15:44:37.000Z</time>
      </trkpt>
      <trkpt lat="43.05498" lon="6.20517">
        <ele>44</ele>
        <time>2015-09-04T15:44:38.000Z</time>
      </trkpt>
      <trkpt lat="43.05504" lon="6.20514">
        <ele>44</ele>
        <time>2015-09-04T15:44:39.000Z</time>
      </trkpt>
      <trkpt lat="43.0551" lon="6.20513">
        <ele>45</ele>
        <time>2015-09-04T15:44:40.000Z</time>
      </trkpt>
      <trkpt lat="43.05517" lon="6.20512">
        <ele>45</ele>
        <time>2015-09-04T15:44:41.000Z</time>
      </trkpt>
      <trkpt lat="43.05526" lon="6.20511">
        <ele>45</ele>
        <time>2015-09-04T15:44:42.000Z</time>
      </trkpt>
      <trkpt lat="43.05531" lon="6.20509">
        <ele>45</ele>
        <time>2015-09-04T15:44:43.000Z</time>
      </trkpt>
      <trkpt lat="43.05538" lon="6.20508">
        <ele>45</ele>
        <time>2015-09-04T15:44:44.000Z</time>
      </trkpt>
      <trkpt lat="43.05545" lon="6.20506">
        <ele>45</ele>
        <time>2015-09-04T15:44:45.000Z</time>
      </trkpt>
      <trkpt lat="43.05551" lon="6.20503">
        <ele>45</ele>
        <time>2015-09-04T15:44:46.000Z</time>
      </trkpt>
      <trkpt lat="43.05559" lon="6.205">
        <ele>44</ele>
        <time>2015-09-04T15:44:47.000Z</time>
      </trkpt>
      <trkpt lat="43.05567" lon="6.20499">
        <ele>45</ele>
        <time>2015-09-04T15:44:48.000Z</time>
      </trkpt>
      <trkpt lat="43.05574" lon="6.20498">
        <ele>45</ele>
        <time>2015-09-04T15:44:49.000Z</time>
      </trkpt>
      <trkpt lat="43.05582" lon="6.20497">
        <ele>45</ele>
        <time>2015-09-04T15:44:50.000Z</time>
      </trkpt>
      <trkpt lat="43.0559" lon="6.20496">
        <ele>45</ele>
        <time>2015-09-04T15:44:51.000Z</time>
      </trkpt>
      <trkpt lat="43.05597" lon="6.20496">
        <ele>44</ele>
        <time>2015-09-04T15:44:52.000Z</time>
      </trkpt>
      <trkpt lat="43.05605" lon="6.20496">
        <ele>45</ele>
        <time>2015-09-04T15:44:53.000Z</time>
      </trkpt>
      <trkpt lat="43.05613" lon="6.20495">
        <ele>45</ele>
        <time>2015-09-04T15:44:54.000Z</time>
      </trkpt>
      <trkpt lat="43.0562" lon="6.20494">
        <ele>45</ele>
        <time>2015-09-04T15:44:55.000Z</time>
      </trkpt>
      <trkpt lat="43.05628" lon="6.20493">
        <ele>46</ele>
        <time>2015-09-04T15:44:56.000Z</time>
      </trkpt>
      <trkpt lat="43.05636" lon="6.2049">
        <ele>45</ele>
        <time>2015-09-04T15:44:57.000Z</time>
      </trkpt>
      <trkpt lat="43.05643" lon="6.20489">
        <ele>46</ele>
        <time>2015-09-04T15:44:58.000Z</time>
      </trkpt>
      <trkpt lat="43.05649" lon="6.20488">
        <ele>45</ele>
        <time>2015-09-04T15:44:59.000Z</time>
      </trkpt>
      <trkpt lat="43.05658" lon="6.20486">
        <ele>45</ele>
        <time>2015-09-04T15:45:00.000Z</time>
      </trkpt>
      <trkpt lat="43.05666" lon="6.20486">
        <ele>46</ele>
        <time>2015-09-04T15:45:01.000Z</time>
      </trkpt>
      <trkpt lat="43.05675" lon="6.20485">
        <ele>47</ele>
        <time>2015-09-04T15:45:02.000Z</time>
      </trkpt>
      <trkpt lat="43.05683" lon="6.20485">
        <ele>47</ele>
        <time>2015-09-04T15:45:03.000Z</time>
      </trkpt>
      <trkpt lat="43.05691" lon="6.20483">
        <ele>47</ele>
        <time>2015-09-04T15:45:04.000Z</time>
      </trkpt>
      <trkpt lat="43.057" lon="6.20482">
        <ele>48</ele>
        <time>2015-09-04T15:45:05.000Z</time>
      </trkpt>
      <trkpt lat="43.05706" lon="6.20478">
        <ele>49</ele>
        <time>2015-09-04T15:45:06.000Z</time>
      </trkpt>
      <trkpt lat="43.05712" lon="6.20476">
        <ele>49</ele>
        <time>2015-09-04T15:45:07.000Z</time>
      </trkpt>
      <trkpt lat="43.05721" lon="6.20473">
        <ele>48</ele>
        <time>2015-09-04T15:45:08.000Z</time>
      </trkpt>
      <trkpt lat="43.05728" lon="6.20471">
        <ele>48</ele>
        <time>2015-09-04T15:45:09.000Z</time>
      </trkpt>
      <trkpt lat="43.05734" lon="6.20471">
        <ele>48</ele>
        <time>2015-09-04T15:45:10.000Z</time>
      </trkpt>
      <trkpt lat="43.05741" lon="6.20469">
        <ele>49</ele>
        <time>2015-09-04T15:45:11.000Z</time>
      </trkpt>
      <trkpt lat="43.0575" lon="6.20468">
        <ele>48</ele>
        <time>2015-09-04T15:45:12.000Z</time>
      </trkpt>
      <trkpt lat="43.05757" lon="6.20468">
        <ele>48</ele>
        <time>2015-09-04T15:45:13.000Z</time>
      </trkpt>
      <trkpt lat="43.05764" lon="6.20466">
        <ele>48</ele>
        <time>2015-09-04T15:45:14.000Z</time>
      </trkpt>
      <trkpt lat="43.05771" lon="6.20465">
        <ele>48</ele>
        <time>2015-09-04T15:45:15.000Z</time>
      </trkpt>
      <trkpt lat="43.05781" lon="6.20462">
        <ele>49</ele>
        <time>2015-09-04T15:45:16.000Z</time>
      </trkpt>
      <trkpt lat="43.05789" lon="6.20462">
        <ele>49</ele>
        <time>2015-09-04T15:45:17.000Z</time>
      </trkpt>
      <trkpt lat="43.05798" lon="6.20461">
        <ele>50</ele>
        <time>2015-09-04T15:45:18.000Z</time>
      </trkpt>
      <trkpt lat="43.05803" lon="6.2046">
        <ele>49</ele>
        <time>2015-09-04T15:45:19.000Z</time>
      </trkpt>
      <trkpt lat="43.05809" lon="6.20458">
        <ele>48</ele>
        <time>2015-09-04T15:45:20.000Z</time>
      </trkpt>
      <trkpt lat="43.05818" lon="6.20456">
        <ele>48</ele>
        <time>2015-09-04T15:45:21.000Z</time>
      </trkpt>
      <trkpt lat="43.05826" lon="6.20454">
        <ele>47</ele>
        <time>2015-09-04T15:45:22.000Z</time>
      </trkpt>
      <trkpt lat="43.05833" lon="6.20451">
        <ele>47</ele>
        <time>2015-09-04T15:45:23.000Z</time>
      </trkpt>
      <trkpt lat="43.05842" lon="6.20448">
        <ele>48</ele>
        <time>2015-09-04T15:45:24.000Z</time>
      </trkpt>
      <trkpt lat="43.05849" lon="6.20445">
        <ele>47</ele>
        <time>2015-09-04T15:45:25.000Z</time>
      </trkpt>
      <trkpt lat="43.05855" lon="6.20444">
        <ele>46</ele>
        <time>2015-09-04T15:45:26.000Z</time>
      </trkpt>
      <trkpt lat="43.05862" lon="6.20443">
        <ele>46</ele>
        <time>2015-09-04T15:45:27.000Z</time>
      </trkpt>
      <trkpt lat="43.05866" lon="6.20441">
        <ele>44</ele>
        <time>2015-09-04T15:45:28.000Z</time>
      </trkpt>
      <trkpt lat="43.05874" lon="6.20438">
        <ele>45</ele>
        <time>2015-09-04T15:45:29.000Z</time>
      </trkpt>
      <trkpt lat="43.05882" lon="6.20438">
        <ele>45</ele>
        <time>2015-09-04T15:45:30.000Z</time>
      </trkpt>
      <trkpt lat="43.05889" lon="6.20436">
        <ele>46</ele>
        <time>2015-09-04T15:45:31.000Z</time>
      </trkpt>
      <trkpt lat="43.05898" lon="6.20434">
        <ele>46</ele>
        <time>2015-09-04T15:45:32.000Z</time>
      </trkpt>
      <trkpt lat="43.05905" lon="6.20433">
        <ele>47</ele>
        <time>2015-09-04T15:45:33.000Z</time>
      </trkpt>
      <trkpt lat="43.05913" lon="6.20433">
        <ele>48</ele>
        <time>2015-09-04T15:45:34.000Z</time>
      </trkpt>
      <trkpt lat="43.0592" lon="6.20432">
        <ele>48</ele>
        <time>2015-09-04T15:45:35.000Z</time>
      </trkpt>
      <trkpt lat="43.05928" lon="6.20431">
        <ele>48</ele>
        <time>2015-09-04T15:45:36.000Z</time>
      </trkpt>
      <trkpt lat="43.05937" lon="6.20431">
        <ele>47</ele>
        <time>2015-09-04T15:45:37.000Z</time>
      </trkpt>
      <trkpt lat="43.05944" lon="6.20431">
        <ele>47</ele>
        <time>2015-09-04T15:45:38.000Z</time>
      </trkpt>
      <trkpt lat="43.05952" lon="6.20429">
        <ele>46</ele>
        <time>2015-09-04T15:45:39.000Z</time>
      </trkpt>
      <trkpt lat="43.05959" lon="6.20427">
        <ele>47</ele>
        <time>2015-09-04T15:45:40.000Z</time>
      </trkpt>
      <trkpt lat="43.05967" lon="6.20425">
        <ele>47</ele>
        <time>2015-09-04T15:45:41.000Z</time>
      </trkpt>
      <trkpt lat="43.05974" lon="6.20423">
        <ele>48</ele>
        <time>2015-09-04T15:45:42.000Z</time>
      </trkpt>
      <trkpt lat="43.05982" lon="6.20424">
        <ele>47</ele>
        <time>2015-09-04T15:45:43.000Z</time>
      </trkpt>
      <trkpt lat="43.05989" lon="6.20423">
        <ele>48</ele>
        <time>2015-09-04T15:45:44.000Z</time>
      </trkpt>
      <trkpt lat="43.05996" lon="6.20423">
        <ele>48</ele>
        <time>2015-09-04T15:45:45.000Z</time>
      </trkpt>
      <trkpt lat="43.06003" lon="6.20422">
        <ele>48</ele>
        <time>2015-09-04T15:45:46.000Z</time>
      </trkpt>
      <trkpt lat="43.0601" lon="6.20421">
        <ele>48</ele>
        <time>2015-09-04T15:45:47.000Z</time>
      </trkpt>
      <trkpt lat="43.06017" lon="6.2042">
        <ele>49</ele>
        <time>2015-09-04T15:45:48.000Z</time>
      </trkpt>
      <trkpt lat="43.06026" lon="6.20418">
        <ele>49</ele>
        <time>2015-09-04T15:45:49.000Z</time>
      </trkpt>
      <trkpt lat="43.06035" lon="6.20417">
        <ele>50</ele>
        <time>2015-09-04T15:45:50.000Z</time>
      </trkpt>
      <trkpt lat="43.06042" lon="6.20417">
        <ele>50</ele>
        <time>2015-09-04T15:45:51.000Z</time>
      </trkpt>
      <trkpt lat="43.06051" lon="6.20416">
        <ele>51</ele>
        <time>2015-09-04T15:45:52.000Z</time>
      </trkpt>
      <trkpt lat="43.06059" lon="6.20415">
        <ele>51</ele>
        <time>2015-09-04T15:45:53.000Z</time>
      </trkpt>
      <trkpt lat="43.06066" lon="6.20414">
        <ele>51</ele>
        <time>2015-09-04T15:45:54.000Z</time>
      </trkpt>
      <trkpt lat="43.06075" lon="6.20413">
        <ele>51</ele>
        <time>2015-09-04T15:45:55.000Z</time>
      </trkpt>
      <trkpt lat="43.06083" lon="6.20411">
        <ele>51</ele>
        <time>2015-09-04T15:45:56.000Z</time>
      </trkpt>
      <trkpt lat="43.06091" lon="6.20408">
        <ele>51</ele>
        <time>2015-09-04T15:45:57.000Z</time>
      </trkpt>
      <trkpt lat="43.06098" lon="6.20406">
        <ele>50</ele>
        <time>2015-09-04T15:45:58.000Z</time>
      </trkpt>
      <trkpt lat="43.06106" lon="6.20404">
        <ele>51</ele>
        <time>2015-09-04T15:45:59.000Z</time>
      </trkpt>
      <trkpt lat="43.06114" lon="6.20402">
        <ele>50</ele>
        <time>2015-09-04T15:46:00.000Z</time>
      </trkpt>
      <trkpt lat="43.06123" lon="6.204">
        <ele>50</ele>
        <time>2015-09-04T15:46:01.000Z</time>
      </trkpt>
      <trkpt lat="43.0613" lon="6.20398">
        <ele>50</ele>
        <time>2015-09-04T15:46:02.000Z</time>
      </trkpt>
      <trkpt lat="43.06138" lon="6.20397">
        <ele>50</ele>
        <time>2015-09-04T15:46:03.000Z</time>
      </trkpt>
      <trkpt lat="43.06147" lon="6.20397">
        <ele>50</ele>
        <time>2015-09-04T15:46:04.000Z</time>
      </trkpt>
      <trkpt lat="43.06156" lon="6.20395">
        <ele>50</ele>
        <time>2015-09-04T15:46:05.000Z</time>
      </trkpt>
      <trkpt lat="43.06162" lon="6.20392">
        <ele>50</ele>
        <time>2015-09-04T15:46:06.000Z</time>
      </trkpt>
      <trkpt lat="43.0617" lon="6.20392">
        <ele>49</ele>
        <time>2015-09-04T15:46:07.000Z</time>
      </trkpt>
      <trkpt lat="43.06179" lon="6.20392">
        <ele>49</ele>
        <time>2015-09-04T15:46:08.000Z</time>
      </trkpt>
      <trkpt lat="43.06187" lon="6.2039">
        <ele>48</ele>
        <time>2015-09-04T15:46:09.000Z</time>
      </trkpt>
      <trkpt lat="43.06194" lon="6.20389">
        <ele>48</ele>
        <time>2015-09-04T15:46:10.000Z</time>
      </trkpt>
      <trkpt lat="43.06201" lon="6.20388">
        <ele>48</ele>
        <time>2015-09-04T15:46:11.000Z</time>
      </trkpt>
      <trkpt lat="43.06209" lon="6.20388">
        <ele>48</ele>
        <time>2015-09-04T15:46:12.000Z</time>
      </trkpt>
      <trkpt lat="43.06215" lon="6.20386">
        <ele>48</ele>
        <time>2015-09-04T15:46:13.000Z</time>
      </trkpt>
      <trkpt lat="43.06222" lon="6.20387">
        <ele>48</ele>
        <time>2015-09-04T15:46:14.000Z</time>
      </trkpt>
      <trkpt lat="43.06228" lon="6.20384">
        <ele>50</ele>
        <time>2015-09-04T15:46:15.000Z</time>
      </trkpt>
      <trkpt lat="43.06239" lon="6.20381">
        <ele>50</ele>
        <time>2015-09-04T15:46:16.000Z</time>
      </trkpt>
      <trkpt lat="43.06243" lon="6.20381">
        <ele>49</ele>
        <time>2015-09-04T15:46:17.000Z</time>
      </trkpt>
      <trkpt lat="43.06249" lon="6.20379">
        <ele>49</ele>
        <time>2015-09-04T15:46:18.000Z</time>
      </trkpt>
      <trkpt lat="43.06258" lon="6.20378">
        <ele>50</ele>
        <time>2015-09-04T15:46:19.000Z</time>
      </trkpt>
      <trkpt lat="43.06264" lon="6.20379">
        <ele>50</ele>
        <time>2015-09-04T15:46:20.000Z</time>
      </trkpt>
      <trkpt lat="43.06273" lon="6.20377">
        <ele>50</ele>
        <time>2015-09-04T15:46:21.000Z</time>
      </trkpt>
      <trkpt lat="43.06281" lon="6.20375">
        <ele>49</ele>
        <time>2015-09-04T15:46:22.000Z</time>
      </trkpt>
      <trkpt lat="43.06287" lon="6.20375">
        <ele>48</ele>
        <time>2015-09-04T15:46:23.000Z</time>
      </trkpt>
      <trkpt lat="43.06294" lon="6.20374">
        <ele>48</ele>
        <time>2015-09-04T15:46:24.000Z</time>
      </trkpt>
      <trkpt lat="43.063" lon="6.20374">
        <ele>49</ele>
        <time>2015-09-04T15:46:25.000Z</time>
      </trkpt>
      <trkpt lat="43.06308" lon="6.20374">
        <ele>50</ele>
        <time>2015-09-04T15:46:26.000Z</time>
      </trkpt>
      <trkpt lat="43.06317" lon="6.20372">
        <ele>49</ele>
        <time>2015-09-04T15:46:27.000Z</time>
      </trkpt>
      <trkpt lat="43.06325" lon="6.20371">
        <ele>50</ele>
        <time>2015-09-04T15:46:28.000Z</time>
      </trkpt>
      <trkpt lat="43.06334" lon="6.2037">
        <ele>49</ele>
        <time>2015-09-04T15:46:29.000Z</time>
      </trkpt>
      <trkpt lat="43.06338" lon="6.20368">
        <ele>48</ele>
        <time>2015-09-04T15:46:30.000Z</time>
      </trkpt>
      <trkpt lat="43.06345" lon="6.20368">
        <ele>48</ele>
        <time>2015-09-04T15:46:31.000Z</time>
      </trkpt>
      <trkpt lat="43.06352" lon="6.20367">
        <ele>47</ele>
        <time>2015-09-04T15:46:32.000Z</time>
      </trkpt>
      <trkpt lat="43.06358" lon="6.20366">
        <ele>46</ele>
        <time>2015-09-04T15:46:33.000Z</time>
      </trkpt>
      <trkpt lat="43.06364" lon="6.20366">
        <ele>46</ele>
        <time>2015-09-04T15:46:34.000Z</time>
      </trkpt>
      <trkpt lat="43.06371" lon="6.20364">
        <ele>48</ele>
        <time>2015-09-04T15:46:35.000Z</time>
      </trkpt>
      <trkpt lat="43.06378" lon="6.20365">
        <ele>47</ele>
        <time>2015-09-04T15:46:36.000Z</time>
      </trkpt>
      <trkpt lat="43.06385" lon="6.20365">
        <ele>48</ele>
        <time>2015-09-04T15:46:37.000Z</time>
      </trkpt>
      <trkpt lat="43.06392" lon="6.20366">
        <ele>48</ele>
        <time>2015-09-04T15:46:38.000Z</time>
      </trkpt>
      <trkpt lat="43.06398" lon="6.20367">
        <ele>47</ele>
        <time>2015-09-04T15:46:39.000Z</time>
      </trkpt>
      <trkpt lat="43.06406" lon="6.20368">
        <ele>47</ele>
        <time>2015-09-04T15:46:40.000Z</time>
      </trkpt>
      <trkpt lat="43.06414" lon="6.20369">
        <ele>48</ele>
        <time>2015-09-04T15:46:41.000Z</time>
      </trkpt>
      <trkpt lat="43.0642" lon="6.20368">
        <ele>47</ele>
        <time>2015-09-04T15:46:42.000Z</time>
      </trkpt>
      <trkpt lat="43.06428" lon="6.20367">
        <ele>46</ele>
        <time>2015-09-04T15:46:43.000Z</time>
      </trkpt>
      <trkpt lat="43.06435" lon="6.20367">
        <ele>47</ele>
        <time>2015-09-04T15:46:44.000Z</time>
      </trkpt>
      <trkpt lat="43.06441" lon="6.20366">
        <ele>48</ele>
        <time>2015-09-04T15:46:45.000Z</time>
      </trkpt>
      <trkpt lat="43.0645" lon="6.20366">
        <ele>48</ele>
        <time>2015-09-04T15:46:46.000Z</time>
      </trkpt>
      <trkpt lat="43.06457" lon="6.20366">
        <ele>48</ele>
        <time>2015-09-04T15:46:47.000Z</time>
      </trkpt>
      <trkpt lat="43.06463" lon="6.20366">
        <ele>48</ele>
        <time>2015-09-04T15:46:48.000Z</time>
      </trkpt>
      <trkpt lat="43.0647" lon="6.20365">
        <ele>48</ele>
        <time>2015-09-04T15:46:49.000Z</time>
      </trkpt>
      <trkpt lat="43.06477" lon="6.20365">
        <ele>49</ele>
        <time>2015-09-04T15:46:50.000Z</time>
      </trkpt>
      <trkpt lat="43.06484" lon="6.20365">
        <ele>49</ele>
        <time>2015-09-04T15:46:51.000Z</time>
      </trkpt>
      <trkpt lat="43.06492" lon="6.20365">
        <ele>49</ele>
        <time>2015-09-04T15:46:52.000Z</time>
      </trkpt>
      <trkpt lat="43.06499" lon="6.20364">
        <ele>48</ele>
        <time>2015-09-04T15:46:53.000Z</time>
      </trkpt>
      <trkpt lat="43.06505" lon="6.20361">
        <ele>48</ele>
        <time>2015-09-04T15:46:54.000Z</time>
      </trkpt>
      <trkpt lat="43.06513" lon="6.20361">
        <ele>49</ele>
        <time>2015-09-04T15:46:55.000Z</time>
      </trkpt>
      <trkpt lat="43.0652" lon="6.20359">
        <ele>49</ele>
        <time>2015-09-04T15:46:56.000Z</time>
      </trkpt>
      <trkpt lat="43.06526" lon="6.20357">
        <ele>48</ele>
        <time>2015-09-04T15:46:57.000Z</time>
      </trkpt>
      <trkpt lat="43.06531" lon="6.20357">
        <ele>48</ele>
        <time>2015-09-04T15:46:58.000Z</time>
      </trkpt>
      <trkpt lat="43.06538" lon="6.20357">
        <ele>48</ele>
        <time>2015-09-04T15:46:59.000Z</time>
      </trkpt>
      <trkpt lat="43.06544" lon="6.20356">
        <ele>48</ele>
        <time>2015-09-04T15:47:00.000Z</time>
      </trkpt>
      <trkpt lat="43.06551" lon="6.20355">
        <ele>48</ele>
        <time>2015-09-04T15:47:01.000Z</time>
      </trkpt>
      <trkpt lat="43.06557" lon="6.20354">
        <ele>49</ele>
        <time>2015-09-04T15:47:02.000Z</time>
      </trkpt>
      <trkpt lat="43.06561" lon="6.20352">
        <ele>48</ele>
        <time>2015-09-04T15:47:03.000Z</time>
      </trkpt>
      <trkpt lat="43.06567" lon="6.20348">
        <ele>49</ele>
        <time>2015-09-04T15:47:04.000Z</time>
      </trkpt>
      <trkpt lat="43.06574" lon="6.20347">
        <ele>50</ele>
        <time>2015-09-04T15:47:05.000Z</time>
      </trkpt>
      <trkpt lat="43.06581" lon="6.20346">
        <ele>50</ele>
        <time>2015-09-04T15:47:06.000Z</time>
      </trkpt>
      <trkpt lat="43.06588" lon="6.20343">
        <ele>51</ele>
        <time>2015-09-04T15:47:07.000Z</time>
      </trkpt>
      <trkpt lat="43.06595" lon="6.20342">
        <ele>51</ele>
        <time>2015-09-04T15:47:08.000Z</time>
      </trkpt>
      <trkpt lat="43.06602" lon="6.20343">
        <ele>51</ele>
        <time>2015-09-04T15:47:09.000Z</time>
      </trkpt>
      <trkpt lat="43.06609" lon="6.20342">
        <ele>52</ele>
        <time>2015-09-04T15:47:10.000Z</time>
      </trkpt>
      <trkpt lat="43.06617" lon="6.2034">
        <ele>52</ele>
        <time>2015-09-04T15:47:11.000Z</time>
      </trkpt>
      <trkpt lat="43.06625" lon="6.20338">
        <ele>51</ele>
        <time>2015-09-04T15:47:12.000Z</time>
      </trkpt>
      <trkpt lat="43.0663" lon="6.20336">
        <ele>52</ele>
        <time>2015-09-04T15:47:13.000Z</time>
      </trkpt>
      <trkpt lat="43.06637" lon="6.20334">
        <ele>52</ele>
        <time>2015-09-04T15:47:14.000Z</time>
      </trkpt>
      <trkpt lat="43.06645" lon="6.20332">
        <ele>53</ele>
        <time>2015-09-04T15:47:15.000Z</time>
      </trkpt>
      <trkpt lat="43.06652" lon="6.20331">
        <ele>53</ele>
        <time>2015-09-04T15:47:16.000Z</time>
      </trkpt>
      <trkpt lat="43.06659" lon="6.20331">
        <ele>52</ele>
        <time>2015-09-04T15:47:17.000Z</time>
      </trkpt>
      <trkpt lat="43.06667" lon="6.2033">
        <ele>53</ele>
        <time>2015-09-04T15:47:18.000Z</time>
      </trkpt>
      <trkpt lat="43.06677" lon="6.20331">
        <ele>53</ele>
        <time>2015-09-04T15:47:19.000Z</time>
      </trkpt>
      <trkpt lat="43.06683" lon="6.20329">
        <ele>53</ele>
        <time>2015-09-04T15:47:20.000Z</time>
      </trkpt>
      <trkpt lat="43.0669" lon="6.20328">
        <ele>53</ele>
        <time>2015-09-04T15:47:21.000Z</time>
      </trkpt>
      <trkpt lat="43.06697" lon="6.20325">
        <ele>51</ele>
        <time>2015-09-04T15:47:22.000Z</time>
      </trkpt>
      <trkpt lat="43.06703" lon="6.20323">
        <ele>51</ele>
        <time>2015-09-04T15:47:23.000Z</time>
      </trkpt>
      <trkpt lat="43.0671" lon="6.20323">
        <ele>51</ele>
        <time>2015-09-04T15:47:24.000Z</time>
      </trkpt>
      <trkpt lat="43.06717" lon="6.2032">
        <ele>49</ele>
        <time>2015-09-04T15:47:25.000Z</time>
      </trkpt>
      <trkpt lat="43.06723" lon="6.20319">
        <ele>49</ele>
        <time>2015-09-04T15:47:26.000Z</time>
      </trkpt>
      <trkpt lat="43.06729" lon="6.20317">
        <ele>49</ele>
        <time>2015-09-04T15:47:27.000Z</time>
      </trkpt>
      <trkpt lat="43.06736" lon="6.20315">
        <ele>50</ele>
        <time>2015-09-04T15:47:28.000Z</time>
      </trkpt>
      <trkpt lat="43.06743" lon="6.20315">
        <ele>50</ele>
        <time>2015-09-04T15:47:29.000Z</time>
      </trkpt>
      <trkpt lat="43.06749" lon="6.20312">
        <ele>49</ele>
        <time>2015-09-04T15:47:30.000Z</time>
      </trkpt>
      <trkpt lat="43.06756" lon="6.20312">
        <ele>48</ele>
        <time>2015-09-04T15:47:31.000Z</time>
      </trkpt>
      <trkpt lat="43.06764" lon="6.20311">
        <ele>48</ele>
        <time>2015-09-04T15:47:32.000Z</time>
      </trkpt>
      <trkpt lat="43.0677" lon="6.20309">
        <ele>49</ele>
        <time>2015-09-04T15:47:33.000Z</time>
      </trkpt>
      <trkpt lat="43.06777" lon="6.20308">
        <ele>48</ele>
        <time>2015-09-04T15:47:34.000Z</time>
      </trkpt>
      <trkpt lat="43.06783" lon="6.20306">
        <ele>48</ele>
        <time>2015-09-04T15:47:35.000Z</time>
      </trkpt>
      <trkpt lat="43.0679" lon="6.20306">
        <ele>48</ele>
        <time>2015-09-04T15:47:36.000Z</time>
      </trkpt>
      <trkpt lat="43.06796" lon="6.20306">
        <ele>47</ele>
        <time>2015-09-04T15:47:37.000Z</time>
      </trkpt>
      <trkpt lat="43.06803" lon="6.20306">
        <ele>49</ele>
        <time>2015-09-04T15:47:38.000Z</time>
      </trkpt>
      <trkpt lat="43.06811" lon="6.20306">
        <ele>48</ele>
        <time>2015-09-04T15:47:39.000Z</time>
      </trkpt>
      <trkpt lat="43.06817" lon="6.20304">
        <ele>48</ele>
        <time>2015-09-04T15:47:40.000Z</time>
      </trkpt>
      <trkpt lat="43.06825" lon="6.20304">
        <ele>48</ele>
        <time>2015-09-04T15:47:41.000Z</time>
      </trkpt>
      <trkpt lat="43.06831" lon="6.20306">
        <ele>46</ele>
        <time>2015-09-04T15:47:42.000Z</time>
      </trkpt>
      <trkpt lat="43.06838" lon="6.20305">
        <ele>47</ele>
        <time>2015-09-04T15:47:43.000Z</time>
      </trkpt>
      <trkpt lat="43.06845" lon="6.20303">
        <ele>45</ele>
        <time>2015-09-04T15:47:44.000Z</time>
      </trkpt>
      <trkpt lat="43.06853" lon="6.20303">
        <ele>46</ele>
        <time>2015-09-04T15:47:45.000Z</time>
      </trkpt>
      <trkpt lat="43.06861" lon="6.203">
        <ele>45</ele>
        <time>2015-09-04T15:47:46.000Z</time>
      </trkpt>
      <trkpt lat="43.06869" lon="6.20299">
        <ele>45</ele>
        <time>2015-09-04T15:47:47.000Z</time>
      </trkpt>
      <trkpt lat="43.06878" lon="6.20297">
        <ele>46</ele>
        <time>2015-09-04T15:47:48.000Z</time>
      </trkpt>
      <trkpt lat="43.06884" lon="6.20295">
        <ele>44</ele>
        <time>2015-09-04T15:47:49.000Z</time>
      </trkpt>
      <trkpt lat="43.06891" lon="6.20291">
        <ele>47</ele>
        <time>2015-09-04T15:47:50.000Z</time>
      </trkpt>
      <trkpt lat="43.06897" lon="6.20289">
        <ele>47</ele>
        <time>2015-09-04T15:47:51.000Z</time>
      </trkpt>
      <trkpt lat="43.06903" lon="6.20289">
        <ele>48</ele>
        <time>2015-09-04T15:47:52.000Z</time>
      </trkpt>
      <trkpt lat="43.0691" lon="6.20289">
        <ele>48</ele>
        <time>2015-09-04T15:47:53.000Z</time>
      </trkpt>
      <trkpt lat="43.06916" lon="6.20287">
        <ele>48</ele>
        <time>2015-09-04T15:47:54.000Z</time>
      </trkpt>
      <trkpt lat="43.06923" lon="6.20288">
        <ele>48</ele>
        <time>2015-09-04T15:47:55.000Z</time>
      </trkpt>
      <trkpt lat="43.0693" lon="6.20287">
        <ele>48</ele>
        <time>2015-09-04T15:47:56.000Z</time>
      </trkpt>
      <trkpt lat="43.06938" lon="6.20285">
        <ele>49</ele>
        <time>2015-09-04T15:47:57.000Z</time>
      </trkpt>
      <trkpt lat="43.06945" lon="6.20285">
        <ele>48</ele>
        <time>2015-09-04T15:47:58.000Z</time>
      </trkpt>
      <trkpt lat="43.06952" lon="6.20284">
        <ele>46</ele>
        <time>2015-09-04T15:47:59.000Z</time>
      </trkpt>
      <trkpt lat="43.06959" lon="6.20283">
        <ele>46</ele>
        <time>2015-09-04T15:48:00.000Z</time>
      </trkpt>
      <trkpt lat="43.06966" lon="6.20283">
        <ele>46</ele>
        <time>2015-09-04T15:48:01.000Z</time>
      </trkpt>
      <trkpt lat="43.06973" lon="6.20283">
        <ele>47</ele>
        <time>2015-09-04T15:48:02.000Z</time>
      </trkpt>
      <trkpt lat="43.06978" lon="6.20281">
        <ele>46</ele>
        <time>2015-09-04T15:48:03.000Z</time>
      </trkpt>
      <trkpt lat="43.06986" lon="6.20282">
        <ele>47</ele>
        <time>2015-09-04T15:48:04.000Z</time>
      </trkpt>
      <trkpt lat="43.06993" lon="6.20282">
        <ele>47</ele>
        <time>2015-09-04T15:48:05.000Z</time>
      </trkpt>
      <trkpt lat="43.07" lon="6.20282">
        <ele>47</ele>
        <time>2015-09-04T15:48:06.000Z</time>
      </trkpt>
      <trkpt lat="43.07006" lon="6.20282">
        <ele>46</ele>
        <time>2015-09-04T15:48:07.000Z</time>
      </trkpt>
      <trkpt lat="43.07012" lon="6.20282">
        <ele>45</ele>
        <time>2015-09-04T15:48:08.000Z</time>
      </trkpt>
      <trkpt lat="43.0702" lon="6.20281">
        <ele>45</ele>
        <time>2015-09-04T15:48:09.000Z</time>
      </trkpt>
      <trkpt lat="43.07027" lon="6.20281">
        <ele>46</ele>
        <time>2015-09-04T15:48:10.000Z</time>
      </trkpt>
      <trkpt lat="43.07034" lon="6.20279">
        <ele>46</ele>
        <time>2015-09-04T15:48:11.000Z</time>
      </trkpt>
      <trkpt lat="43.07041" lon="6.20279">
        <ele>47</ele>
        <time>2015-09-04T15:48:12.000Z</time>
      </trkpt>
      <trkpt lat="43.07048" lon="6.20277">
        <ele>46</ele>
        <time>2015-09-04T15:48:13.000Z</time>
      </trkpt>
      <trkpt lat="43.07054" lon="6.20277">
        <ele>47</ele>
        <time>2015-09-04T15:48:14.000Z</time>
      </trkpt>
      <trkpt lat="43.0706" lon="6.20276">
        <ele>47</ele>
        <time>2015-09-04T15:48:15.000Z</time>
      </trkpt>
      <trkpt lat="43.07066" lon="6.20276">
        <ele>46</ele>
        <time>2015-09-04T15:48:16.000Z</time>
      </trkpt>
      <trkpt lat="43.07071" lon="6.20276">
        <ele>44</ele>
        <time>2015-09-04T15:48:17.000Z</time>
      </trkpt>
      <trkpt lat="43.07078" lon="6.20275">
        <ele>44</ele>
        <time>2015-09-04T15:48:18.000Z</time>
      </trkpt>
      <trkpt lat="43.07086" lon="6.20275">
        <ele>44</ele>
        <time>2015-09-04T15:48:19.000Z</time>
      </trkpt>
      <trkpt lat="43.07093" lon="6.20277">
        <ele>45</ele>
        <time>2015-09-04T15:48:20.000Z</time>
      </trkpt>
      <trkpt lat="43.07098" lon="6.20276">
        <ele>44</ele>
        <time>2015-09-04T15:48:21.000Z</time>
      </trkpt>
      <trkpt lat="43.07105" lon="6.20278">
        <ele>42</ele>
        <time>2015-09-04T15:48:22.000Z</time>
      </trkpt>
      <trkpt lat="43.07112" lon="6.20278">
        <ele>42</ele>
        <time>2015-09-04T15:48:23.000Z</time>
      </trkpt>
      <trkpt lat="43.07119" lon="6.20277">
        <ele>43</ele>
        <time>2015-09-04T15:48:24.000Z</time>
      </trkpt>
      <trkpt lat="43.07126" lon="6.20276">
        <ele>43</ele>
        <time>2015-09-04T15:48:25.000Z</time>
      </trkpt>
      <trkpt lat="43.07133" lon="6.20276">
        <ele>41</ele>
        <time>2015-09-04T15:48:26.000Z</time>
      </trkpt>
      <trkpt lat="43.07139" lon="6.20275">
        <ele>42</ele>
        <time>2015-09-04T15:48:27.000Z</time>
      </trkpt>
      <trkpt lat="43.07145" lon="6.20274">
        <ele>43</ele>
        <time>2015-09-04T15:48:28.000Z</time>
      </trkpt>
      <trkpt lat="43.07152" lon="6.20274">
        <ele>43</ele>
        <time>2015-09-04T15:48:29.000Z</time>
      </trkpt>
      <trkpt lat="43.07159" lon="6.20275">
        <ele>44</ele>
        <time>2015-09-04T15:48:30.000Z</time>
      </trkpt>
      <trkpt lat="43.07166" lon="6.20275">
        <ele>44</ele>
        <time>2015-09-04T15:48:31.000Z</time>
      </trkpt>
      <trkpt lat="43.07173" lon="6.20276">
        <ele>45</ele>
        <time>2015-09-04T15:48:32.000Z</time>
      </trkpt>
      <trkpt lat="43.07181" lon="6.20277">
        <ele>44</ele>
        <time>2015-09-04T15:48:33.000Z</time>
      </trkpt>
      <trkpt lat="43.07187" lon="6.20276">
        <ele>43</ele>
        <time>2015-09-04T15:48:34.000Z</time>
      </trkpt>
      <trkpt lat="43.07193" lon="6.20275">
        <ele>43</ele>
        <time>2015-09-04T15:48:35.000Z</time>
      </trkpt>
      <trkpt lat="43.07199" lon="6.20273">
        <ele>43</ele>
        <time>2015-09-04T15:48:36.000Z</time>
      </trkpt>
      <trkpt lat="43.07206" lon="6.20272">
        <ele>43</ele>
        <time>2015-09-04T15:48:37.000Z</time>
      </trkpt>
      <trkpt lat="43.07212" lon="6.2027">
        <ele>44</ele>
        <time>2015-09-04T15:48:38.000Z</time>
      </trkpt>
      <trkpt lat="43.07219" lon="6.20268">
        <ele>44</ele>
        <time>2015-09-04T15:48:39.000Z</time>
      </trkpt>
      <trkpt lat="43.07225" lon="6.20266">
        <ele>45</ele>
        <time>2015-09-04T15:48:40.000Z</time>
      </trkpt>
      <trkpt lat="43.0723" lon="6.20264">
        <ele>45</ele>
        <time>2015-09-04T15:48:41.000Z</time>
      </trkpt>
      <trkpt lat="43.07235" lon="6.20261">
        <ele>44</ele>
        <time>2015-09-04T15:48:42.000Z</time>
      </trkpt>
      <trkpt lat="43.07239" lon="6.20258">
        <ele>44</ele>
        <time>2015-09-04T15:48:43.000Z</time>
      </trkpt>
      <trkpt lat="43.07245" lon="6.20259">
        <ele>44</ele>
        <time>2015-09-04T15:48:44.000Z</time>
      </trkpt>
      <trkpt lat="43.0725" lon="6.2026">
        <ele>45</ele>
        <time>2015-09-04T15:48:45.000Z</time>
      </trkpt>
      <trkpt lat="43.07255" lon="6.20259">
        <ele>45</ele>
        <time>2015-09-04T15:48:46.000Z</time>
      </trkpt>
      <trkpt lat="43.07259" lon="6.20259">
        <ele>45</ele>
        <time>2015-09-04T15:48:47.000Z</time>
      </trkpt>
      <trkpt lat="43.07263" lon="6.20257">
        <ele>45</ele>
        <time>2015-09-04T15:48:48.000Z</time>
      </trkpt>
      <trkpt lat="43.07267" lon="6.20259">
        <ele>45</ele>
        <time>2015-09-04T15:48:49.000Z</time>
      </trkpt>
      <trkpt lat="43.0727" lon="6.2026">
        <ele>45</ele>
        <time>2015-09-04T15:48:50.000Z</time>
      </trkpt>
      <trkpt lat="43.07273" lon="6.2026">
        <ele>45</ele>
        <time>2015-09-04T15:48:51.000Z</time>
      </trkpt>
      <trkpt lat="43.07276" lon="6.20261">
        <ele>45</ele>
        <time>2015-09-04T15:48:52.000Z</time>
      </trkpt>
      <trkpt lat="43.07281" lon="6.20264">
        <ele>46</ele>
        <time>2015-09-04T15:48:53.000Z</time>
      </trkpt>
      <trkpt lat="43.07284" lon="6.20263">
        <ele>46</ele>
        <time>2015-09-04T15:48:54.000Z</time>
      </trkpt>
      <trkpt lat="43.07291" lon="6.20265">
        <ele>45</ele>
        <time>2015-09-04T15:48:55.000Z</time>
      </trkpt>
      <trkpt lat="43.07299" lon="6.20264">
        <ele>45</ele>
        <time>2015-09-04T15:48:56.000Z</time>
      </trkpt>
      <trkpt lat="43.07307" lon="6.20264">
        <ele>45</ele>
        <time>2015-09-04T15:48:57.000Z</time>
      </trkpt>
      <trkpt lat="43.07313" lon="6.20264">
        <ele>44</ele>
        <time>2015-09-04T15:48:58.000Z</time>
      </trkpt>
      <trkpt lat="43.07321" lon="6.20264">
        <ele>44</ele>
        <time>2015-09-04T15:48:59.000Z</time>
      </trkpt>
      <trkpt lat="43.07327" lon="6.20262">
        <ele>43</ele>
        <time>2015-09-04T15:49:00.000Z</time>
      </trkpt>
      <trkpt lat="43.07333" lon="6.20262">
        <ele>43</ele>
        <time>2015-09-04T15:49:01.000Z</time>
      </trkpt>
      <trkpt lat="43.0734" lon="6.20261">
        <ele>45</ele>
        <time>2015-09-04T15:49:02.000Z</time>
      </trkpt>
      <trkpt lat="43.07348" lon="6.2026">
        <ele>44</ele>
        <time>2015-09-04T15:49:03.000Z</time>
      </trkpt>
      <trkpt lat="43.07355" lon="6.2026">
        <ele>43</ele>
        <time>2015-09-04T15:49:04.000Z</time>
      </trkpt>
      <trkpt lat="43.07362" lon="6.2026">
        <ele>43</ele>
        <time>2015-09-04T15:49:05.000Z</time>
      </trkpt>
      <trkpt lat="43.07369" lon="6.20258">
        <ele>43</ele>
        <time>2015-09-04T15:49:06.000Z</time>
      </trkpt>
      <trkpt lat="43.07375" lon="6.20257">
        <ele>42</ele>
        <time>2015-09-04T15:49:07.000Z</time>
      </trkpt>
      <trkpt lat="43.07382" lon="6.20255">
        <ele>42</ele>
        <time>2015-09-04T15:49:08.000Z</time>
      </trkpt>
      <trkpt lat="43.07388" lon="6.20256">
        <ele>41</ele>
        <time>2015-09-04T15:49:09.000Z</time>
      </trkpt>
      <trkpt lat="43.07395" lon="6.20256">
        <ele>41</ele>
        <time>2015-09-04T15:49:10.000Z</time>
      </trkpt>
      <trkpt lat="43.074" lon="6.20256">
        <ele>40</ele>
        <time>2015-09-04T15:49:11.000Z</time>
      </trkpt>
      <trkpt lat="43.07407" lon="6.20256">
        <ele>41</ele>
        <time>2015-09-04T15:49:12.000Z</time>
      </trkpt>
      <trkpt lat="43.07413" lon="6.20255">
        <ele>41</ele>
        <time>2015-09-04T15:49:13.000Z</time>
      </trkpt>
      <trkpt lat="43.07419" lon="6.20256">
        <ele>41</ele>
        <time>2015-09-04T15:49:14.000Z</time>
      </trkpt>
      <trkpt lat="43.07423" lon="6.20256">
        <ele>41</ele>
        <time>2015-09-04T15:49:15.000Z</time>
      </trkpt>
      <trkpt lat="43.07429" lon="6.20257">
        <ele>40</ele>
        <time>2015-09-04T15:49:16.000Z</time>
      </trkpt>
      <trkpt lat="43.07434" lon="6.20257">
        <ele>40</ele>
        <time>2015-09-04T15:49:17.000Z</time>
      </trkpt>
      <trkpt lat="43.07438" lon="6.20255">
        <ele>39</ele>
        <time>2015-09-04T15:49:18.000Z</time>
      </trkpt>
      <trkpt lat="43.07444" lon="6.20257">
        <ele>39</ele>
        <time>2015-09-04T15:49:19.000Z</time>
      </trkpt>
      <trkpt lat="43.07449" lon="6.20258">
        <ele>39</ele>
        <time>2015-09-04T15:49:20.000Z</time>
      </trkpt>
      <trkpt lat="43.07455" lon="6.20257">
        <ele>39</ele>
        <time>2015-09-04T15:49:21.000Z</time>
      </trkpt>
      <trkpt lat="43.0746" lon="6.20257">
        <ele>40</ele>
        <time>2015-09-04T15:49:22.000Z</time>
      </trkpt>
      <trkpt lat="43.07464" lon="6.20256">
        <ele>40</ele>
        <time>2015-09-04T15:49:23.000Z</time>
      </trkpt>
      <trkpt lat="43.07466" lon="6.20256">
        <ele>41</ele>
        <time>2015-09-04T15:49:24.000Z</time>
      </trkpt>
      <trkpt lat="43.07468" lon="6.20256">
        <ele>40</ele>
        <time>2015-09-04T15:49:25.000Z</time>
      </trkpt>
      <trkpt lat="43.0747" lon="6.20259">
        <ele>40</ele>
        <time>2015-09-04T15:49:26.000Z</time>
      </trkpt>
      <trkpt lat="43.07472" lon="6.20259">
        <ele>40</ele>
        <time>2015-09-04T15:49:27.000Z</time>
      </trkpt>
      <trkpt lat="43.07477" lon="6.20263">
        <ele>41</ele>
        <time>2015-09-04T15:49:28.000Z</time>
      </trkpt>
      <trkpt lat="43.07482" lon="6.20266">
        <ele>41</ele>
        <time>2015-09-04T15:49:29.000Z</time>
      </trkpt>
      <trkpt lat="43.07486" lon="6.20267">
        <ele>40</ele>
        <time>2015-09-04T15:49:30.000Z</time>
      </trkpt>
      <trkpt lat="43.07491" lon="6.20267">
        <ele>41</ele>
        <time>2015-09-04T15:49:31.000Z</time>
      </trkpt>
      <trkpt lat="43.07497" lon="6.20267">
        <ele>42</ele>
        <time>2015-09-04T15:49:32.000Z</time>
      </trkpt>
      <trkpt lat="43.07502" lon="6.20266">
        <ele>42</ele>
        <time>2015-09-04T15:49:33.000Z</time>
      </trkpt>
      <trkpt lat="43.07507" lon="6.20264">
        <ele>43</ele>
        <time>2015-09-04T15:49:34.000Z</time>
      </trkpt>
      <trkpt lat="43.07511" lon="6.20266">
        <ele>41</ele>
        <time>2015-09-04T15:49:35.000Z</time>
      </trkpt>
      <trkpt lat="43.07516" lon="6.20267">
        <ele>41</ele>
        <time>2015-09-04T15:49:36.000Z</time>
      </trkpt>
      <trkpt lat="43.07523" lon="6.20265">
        <ele>41</ele>
        <time>2015-09-04T15:49:37.000Z</time>
      </trkpt>
      <trkpt lat="43.07529" lon="6.20265">
        <ele>41</ele>
        <time>2015-09-04T15:49:38.000Z</time>
      </trkpt>
      <trkpt lat="43.07536" lon="6.20266">
        <ele>42</ele>
        <time>2015-09-04T15:49:39.000Z</time>
      </trkpt>
      <trkpt lat="43.07541" lon="6.20266">
        <ele>42</ele>
        <time>2015-09-04T15:49:40.000Z</time>
      </trkpt>
      <trkpt lat="43.07546" lon="6.20266">
        <ele>42</ele>
        <time>2015-09-04T15:49:41.000Z</time>
      </trkpt>
      <trkpt lat="43.07551" lon="6.20264">
        <ele>42</ele>
        <time>2015-09-04T15:49:42.000Z</time>
      </trkpt>
      <trkpt lat="43.07556" lon="6.20264">
        <ele>41</ele>
        <time>2015-09-04T15:49:43.000Z</time>
      </trkpt>
      <trkpt lat="43.07562" lon="6.20264">
        <ele>42</ele>
        <time>2015-09-04T15:49:44.000Z</time>
      </trkpt>
      <trkpt lat="43.07568" lon="6.20263">
        <ele>42</ele>
        <time>2015-09-04T15:49:45.000Z</time>
      </trkpt>
      <trkpt lat="43.07575" lon="6.20263">
        <ele>43</ele>
        <time>2015-09-04T15:49:46.000Z</time>
      </trkpt>
      <trkpt lat="43.07581" lon="6.20264">
        <ele>43</ele>
        <time>2015-09-04T15:49:47.000Z</time>
      </trkpt>
      <trkpt lat="43.07588" lon="6.20265">
        <ele>44</ele>
        <time>2015-09-04T15:49:48.000Z</time>
      </trkpt>
      <trkpt lat="43.07595" lon="6.20265">
        <ele>45</ele>
        <time>2015-09-04T15:49:49.000Z</time>
      </trkpt>
      <trkpt lat="43.07603" lon="6.20264">
        <ele>45</ele>
        <time>2015-09-04T15:49:50.000Z</time>
      </trkpt>
      <trkpt lat="43.0761" lon="6.20263">
        <ele>44</ele>
        <time>2015-09-04T15:49:51.000Z</time>
      </trkpt>
      <trkpt lat="43.07618" lon="6.2026">
        <ele>44</ele>
        <time>2015-09-04T15:49:52.000Z</time>
      </trkpt>
      <trkpt lat="43.07627" lon="6.20258">
        <ele>43</ele>
        <time>2015-09-04T15:49:53.000Z</time>
      </trkpt>
      <trkpt lat="43.07634" lon="6.20256">
        <ele>43</ele>
        <time>2015-09-04T15:49:54.000Z</time>
      </trkpt>
      <trkpt lat="43.07641" lon="6.20254">
        <ele>43</ele>
        <time>2015-09-04T15:49:55.000Z</time>
      </trkpt>
      <trkpt lat="43.07648" lon="6.20251">
        <ele>43</ele>
        <time>2015-09-04T15:49:56.000Z</time>
      </trkpt>
      <trkpt lat="43.07654" lon="6.20249">
        <ele>44</ele>
        <time>2015-09-04T15:49:57.000Z</time>
      </trkpt>
      <trkpt lat="43.07661" lon="6.20249">
        <ele>45</ele>
        <time>2015-09-04T15:49:58.000Z</time>
      </trkpt>
      <trkpt lat="43.07667" lon="6.20248">
        <ele>45</ele>
        <time>2015-09-04T15:49:59.000Z</time>
      </trkpt>
      <trkpt lat="43.07673" lon="6.20247">
        <ele>45</ele>
        <time>2015-09-04T15:50:00.000Z</time>
      </trkpt>
      <trkpt lat="43.07679" lon="6.20246">
        <ele>45</ele>
        <time>2015-09-04T15:50:01.000Z</time>
      </trkpt>
      <trkpt lat="43.07686" lon="6.20245">
        <ele>44</ele>
        <time>2015-09-04T15:50:02.000Z</time>
      </trkpt>
      <trkpt lat="43.07691" lon="6.20244">
        <ele>45</ele>
        <time>2015-09-04T15:50:03.000Z</time>
      </trkpt>
      <trkpt lat="43.07697" lon="6.20243">
        <ele>45</ele>
        <time>2015-09-04T15:50:04.000Z</time>
      </trkpt>
      <trkpt lat="43.07704" lon="6.20242">
        <ele>46</ele>
        <time>2015-09-04T15:50:05.000Z</time>
      </trkpt>
      <trkpt lat="43.0771" lon="6.20242">
        <ele>45</ele>
        <time>2015-09-04T15:50:06.000Z</time>
      </trkpt>
      <trkpt lat="43.07716" lon="6.20241">
        <ele>44</ele>
        <time>2015-09-04T15:50:07.000Z</time>
      </trkpt>
      <trkpt lat="43.07724" lon="6.20239">
        <ele>43</ele>
        <time>2015-09-04T15:50:08.000Z</time>
      </trkpt>
      <trkpt lat="43.07731" lon="6.20238">
        <ele>43</ele>
        <time>2015-09-04T15:50:09.000Z</time>
      </trkpt>
      <trkpt lat="43.07738" lon="6.20236">
        <ele>42</ele>
        <time>2015-09-04T15:50:10.000Z</time>
      </trkpt>
      <trkpt lat="43.07746" lon="6.20234">
        <ele>42</ele>
        <time>2015-09-04T15:50:11.000Z</time>
      </trkpt>
      <trkpt lat="43.07749" lon="6.20233">
        <ele>41</ele>
        <time>2015-09-04T15:50:12.000Z</time>
      </trkpt>
      <trkpt lat="43.07757" lon="6.20232">
        <ele>42</ele>
        <time>2015-09-04T15:50:13.000Z</time>
      </trkpt>
      <trkpt lat="43.07764" lon="6.20231">
        <ele>42</ele>
        <time>2015-09-04T15:50:14.000Z</time>
      </trkpt>
      <trkpt lat="43.07771" lon="6.2023">
        <ele>44</ele>
        <time>2015-09-04T15:50:15.000Z</time>
      </trkpt>
      <trkpt lat="43.07777" lon="6.20229">
        <ele>44</ele>
        <time>2015-09-04T15:50:16.000Z</time>
      </trkpt>
      <trkpt lat="43.07783" lon="6.20228">
        <ele>43</ele>
        <time>2015-09-04T15:50:17.000Z</time>
      </trkpt>
      <trkpt lat="43.0779" lon="6.20227">
        <ele>42</ele>
        <time>2015-09-04T15:50:18.000Z</time>
      </trkpt>
      <trkpt lat="43.07797" lon="6.20223">
        <ele>43</ele>
        <time>2015-09-04T15:50:19.000Z</time>
      </trkpt>
      <trkpt lat="43.07806" lon="6.20223">
        <ele>43</ele>
        <time>2015-09-04T15:50:20.000Z</time>
      </trkpt>
      <trkpt lat="43.07814" lon="6.20222">
        <ele>44</ele>
        <time>2015-09-04T15:50:21.000Z</time>
      </trkpt>
      <trkpt lat="43.0782" lon="6.2022">
        <ele>44</ele>
        <time>2015-09-04T15:50:22.000Z</time>
      </trkpt>
      <trkpt lat="43.07826" lon="6.20217">
        <ele>45</ele>
        <time>2015-09-04T15:50:23.000Z</time>
      </trkpt>
      <trkpt lat="43.07834" lon="6.20215">
        <ele>43</ele>
        <time>2015-09-04T15:50:24.000Z</time>
      </trkpt>
      <trkpt lat="43.07842" lon="6.20212">
        <ele>44</ele>
        <time>2015-09-04T15:50:25.000Z</time>
      </trkpt>
      <trkpt lat="43.07849" lon="6.2021">
        <ele>46</ele>
        <time>2015-09-04T15:50:26.000Z</time>
      </trkpt>
      <trkpt lat="43.07856" lon="6.20208">
        <ele>46</ele>
        <time>2015-09-04T15:50:27.000Z</time>
      </trkpt>
      <trkpt lat="43.07864" lon="6.20207">
        <ele>46</ele>
        <time>2015-09-04T15:50:28.000Z</time>
      </trkpt>
      <trkpt lat="43.0787" lon="6.20204">
        <ele>45</ele>
        <time>2015-09-04T15:50:29.000Z</time>
      </trkpt>
      <trkpt lat="43.07877" lon="6.20202">
        <ele>46</ele>
        <time>2015-09-04T15:50:30.000Z</time>
      </trkpt>
      <trkpt lat="43.07884" lon="6.202">
        <ele>45</ele>
        <time>2015-09-04T15:50:31.000Z</time>
      </trkpt>
      <trkpt lat="43.0789" lon="6.20198">
        <ele>46</ele>
        <time>2015-09-04T15:50:32.000Z</time>
      </trkpt>
      <trkpt lat="43.07897" lon="6.20196">
        <ele>46</ele>
        <time>2015-09-04T15:50:33.000Z</time>
      </trkpt>
      <trkpt lat="43.07903" lon="6.20193">
        <ele>45</ele>
        <time>2015-09-04T15:50:34.000Z</time>
      </trkpt>
      <trkpt lat="43.0791" lon="6.20192">
        <ele>42</ele>
        <time>2015-09-04T15:50:35.000Z</time>
      </trkpt>
      <trkpt lat="43.07917" lon="6.20191">
        <ele>43</ele>
        <time>2015-09-04T15:50:36.000Z</time>
      </trkpt>
      <trkpt lat="43.07925" lon="6.20189">
        <ele>43</ele>
        <time>2015-09-04T15:50:37.000Z</time>
      </trkpt>
      <trkpt lat="43.07931" lon="6.20188">
        <ele>43</ele>
        <time>2015-09-04T15:50:38.000Z</time>
      </trkpt>
      <trkpt lat="43.07938" lon="6.20187">
        <ele>44</ele>
        <time>2015-09-04T15:50:39.000Z</time>
      </trkpt>
      <trkpt lat="43.07944" lon="6.20186">
        <ele>42</ele>
        <time>2015-09-04T15:50:40.000Z</time>
      </trkpt>
      <trkpt lat="43.07951" lon="6.20184">
        <ele>42</ele>
        <time>2015-09-04T15:50:41.000Z</time>
      </trkpt>
      <trkpt lat="43.07957" lon="6.20183">
        <ele>43</ele>
        <time>2015-09-04T15:50:42.000Z</time>
      </trkpt>
      <trkpt lat="43.07965" lon="6.20181">
        <ele>42</ele>
        <time>2015-09-04T15:50:43.000Z</time>
      </trkpt>
      <trkpt lat="43.07972" lon="6.20181">
        <ele>42</ele>
        <time>2015-09-04T15:50:44.000Z</time>
      </trkpt>
      <trkpt lat="43.0798" lon="6.20179">
        <ele>42</ele>
        <time>2015-09-04T15:50:45.000Z</time>
      </trkpt>
      <trkpt lat="43.07988" lon="6.20179">
        <ele>43</ele>
        <time>2015-09-04T15:50:46.000Z</time>
      </trkpt>
      <trkpt lat="43.07995" lon="6.20178">
        <ele>43</ele>
        <time>2015-09-04T15:50:47.000Z</time>
      </trkpt>
      <trkpt lat="43.08001" lon="6.20177">
        <ele>43</ele>
        <time>2015-09-04T15:50:48.000Z</time>
      </trkpt>
      <trkpt lat="43.08007" lon="6.20176">
        <ele>43</ele>
        <time>2015-09-04T15:50:49.000Z</time>
      </trkpt>
      <trkpt lat="43.08016" lon="6.20176">
        <ele>43</ele>
        <time>2015-09-04T15:50:50.000Z</time>
      </trkpt>
      <trkpt lat="43.08023" lon="6.20173">
        <ele>43</ele>
        <time>2015-09-04T15:50:51.000Z</time>
      </trkpt>
      <trkpt lat="43.0803" lon="6.20173">
        <ele>44</ele>
        <time>2015-09-04T15:50:52.000Z</time>
      </trkpt>
      <trkpt lat="43.08038" lon="6.20172">
        <ele>45</ele>
        <time>2015-09-04T15:50:53.000Z</time>
      </trkpt>
      <trkpt lat="43.08045" lon="6.20172">
        <ele>45</ele>
        <time>2015-09-04T15:50:54.000Z</time>
      </trkpt>
      <trkpt lat="43.08052" lon="6.2017">
        <ele>45</ele>
        <time>2015-09-04T15:50:55.000Z</time>
      </trkpt>
      <trkpt lat="43.0806" lon="6.2017">
        <ele>46</ele>
        <time>2015-09-04T15:50:56.000Z</time>
      </trkpt>
      <trkpt lat="43.08068" lon="6.20169">
        <ele>45</ele>
        <time>2015-09-04T15:50:57.000Z</time>
      </trkpt>
      <trkpt lat="43.08075" lon="6.20169">
        <ele>45</ele>
        <time>2015-09-04T15:50:58.000Z</time>
      </trkpt>
      <trkpt lat="43.08084" lon="6.20165">
        <ele>44</ele>
        <time>2015-09-04T15:50:59.000Z</time>
      </trkpt>
      <trkpt lat="43.0809" lon="6.20163">
        <ele>45</ele>
        <time>2015-09-04T15:51:00.000Z</time>
      </trkpt>
      <trkpt lat="43.08098" lon="6.20163">
        <ele>46</ele>
        <time>2015-09-04T15:51:01.000Z</time>
      </trkpt>
      <trkpt lat="43.08105" lon="6.20162">
        <ele>46</ele>
        <time>2015-09-04T15:51:02.000Z</time>
      </trkpt>
      <trkpt lat="43.08112" lon="6.2016">
        <ele>47</ele>
        <time>2015-09-04T15:51:03.000Z</time>
      </trkpt>
      <trkpt lat="43.08119" lon="6.20161">
        <ele>48</ele>
        <time>2015-09-04T15:51:04.000Z</time>
      </trkpt>
      <trkpt lat="43.08126" lon="6.2016">
        <ele>48</ele>
        <time>2015-09-04T15:51:05.000Z</time>
      </trkpt>
      <trkpt lat="43.08133" lon="6.20158">
        <ele>48</ele>
        <time>2015-09-04T15:51:06.000Z</time>
      </trkpt>
      <trkpt lat="43.0814" lon="6.20158">
        <ele>48</ele>
        <time>2015-09-04T15:51:07.000Z</time>
      </trkpt>
      <trkpt lat="43.08145" lon="6.20156">
        <ele>48</ele>
        <time>2015-09-04T15:51:08.000Z</time>
      </trkpt>
      <trkpt lat="43.08152" lon="6.20156">
        <ele>48</ele>
        <time>2015-09-04T15:51:09.000Z</time>
      </trkpt>
      <trkpt lat="43.0816" lon="6.20158">
        <ele>49</ele>
        <time>2015-09-04T15:51:10.000Z</time>
      </trkpt>
      <trkpt lat="43.08167" lon="6.20159">
        <ele>49</ele>
        <time>2015-09-04T15:51:11.000Z</time>
      </trkpt>
      <trkpt lat="43.08174" lon="6.20157">
        <ele>49</ele>
        <time>2015-09-04T15:51:12.000Z</time>
      </trkpt>
      <trkpt lat="43.08179" lon="6.20157">
        <ele>48</ele>
        <time>2015-09-04T15:51:13.000Z</time>
      </trkpt>
      <trkpt lat="43.08186" lon="6.20158">
        <ele>48</ele>
        <time>2015-09-04T15:51:14.000Z</time>
      </trkpt>
      <trkpt lat="43.08193" lon="6.20158">
        <ele>48</ele>
        <time>2015-09-04T15:51:15.000Z</time>
      </trkpt>
      <trkpt lat="43.08202" lon="6.20159">
        <ele>47</ele>
        <time>2015-09-04T15:51:16.000Z</time>
      </trkpt>
      <trkpt lat="43.08209" lon="6.20157">
        <ele>47</ele>
        <time>2015-09-04T15:51:17.000Z</time>
      </trkpt>
      <trkpt lat="43.08217" lon="6.20156">
        <ele>46</ele>
        <time>2015-09-04T15:51:18.000Z</time>
      </trkpt>
      <trkpt lat="43.08225" lon="6.20156">
        <ele>46</ele>
        <time>2015-09-04T15:51:19.000Z</time>
      </trkpt>
      <trkpt lat="43.08233" lon="6.20154">
        <ele>45</ele>
        <time>2015-09-04T15:51:20.000Z</time>
      </trkpt>
      <trkpt lat="43.08242" lon="6.20154">
        <ele>45</ele>
        <time>2015-09-04T15:51:21.000Z</time>
      </trkpt>
      <trkpt lat="43.08249" lon="6.20154">
        <ele>46</ele>
        <time>2015-09-04T15:51:22.000Z</time>
      </trkpt>
      <trkpt lat="43.08257" lon="6.20155">
        <ele>46</ele>
        <time>2015-09-04T15:51:23.000Z</time>
      </trkpt>
      <trkpt lat="43.08264" lon="6.20152">
        <ele>45</ele>
        <time>2015-09-04T15:51:24.000Z</time>
      </trkpt>
      <trkpt lat="43.08273" lon="6.20151">
        <ele>45</ele>
        <time>2015-09-04T15:51:25.000Z</time>
      </trkpt>
      <trkpt lat="43.0828" lon="6.20149">
        <ele>46</ele>
        <time>2015-09-04T15:51:26.000Z</time>
      </trkpt>
      <trkpt lat="43.08287" lon="6.20147">
        <ele>46</ele>
        <time>2015-09-04T15:51:27.000Z</time>
      </trkpt>
      <trkpt lat="43.08294" lon="6.20146">
        <ele>46</ele>
        <time>2015-09-04T15:51:28.000Z</time>
      </trkpt>
      <trkpt lat="43.08302" lon="6.20145">
        <ele>47</ele>
        <time>2015-09-04T15:51:29.000Z</time>
      </trkpt>
      <trkpt lat="43.08309" lon="6.20144">
        <ele>46</ele>
        <time>2015-09-04T15:51:30.000Z</time>
      </trkpt>
      <trkpt lat="43.08316" lon="6.20144">
        <ele>47</ele>
        <time>2015-09-04T15:51:31.000Z</time>
      </trkpt>
      <trkpt lat="43.08324" lon="6.20143">
        <ele>48</ele>
        <time>2015-09-04T15:51:32.000Z</time>
      </trkpt>
      <trkpt lat="43.08332" lon="6.20143">
        <ele>47</ele>
        <time>2015-09-04T15:51:33.000Z</time>
      </trkpt>
      <trkpt lat="43.08341" lon="6.20143">
        <ele>48</ele>
        <time>2015-09-04T15:51:34.000Z</time>
      </trkpt>
      <trkpt lat="43.08348" lon="6.20144">
        <ele>48</ele>
        <time>2015-09-04T15:51:35.000Z</time>
      </trkpt>
      <trkpt lat="43.08356" lon="6.20143">
        <ele>46</ele>
        <time>2015-09-04T15:51:36.000Z</time>
      </trkpt>
      <trkpt lat="43.08363" lon="6.20142">
        <ele>45</ele>
        <time>2015-09-04T15:51:37.000Z</time>
      </trkpt>
      <trkpt lat="43.0837" lon="6.2014">
        <ele>47</ele>
        <time>2015-09-04T15:51:38.000Z</time>
      </trkpt>
      <trkpt lat="43.08376" lon="6.20139">
        <ele>46</ele>
        <time>2015-09-04T15:51:39.000Z</time>
      </trkpt>
      <trkpt lat="43.08383" lon="6.20139">
        <ele>47</ele>
        <time>2015-09-04T15:51:40.000Z</time>
      </trkpt>
      <trkpt lat="43.0839" lon="6.2014">
        <ele>47</ele>
        <time>2015-09-04T15:51:41.000Z</time>
      </trkpt>
      <trkpt lat="43.08396" lon="6.20139">
        <ele>46</ele>
        <time>2015-09-04T15:51:42.000Z</time>
      </trkpt>
      <trkpt lat="43.08403" lon="6.20138">
        <ele>46</ele>
        <time>2015-09-04T15:51:43.000Z</time>
      </trkpt>
      <trkpt lat="43.0841" lon="6.20138">
        <ele>46</ele>
        <time>2015-09-04T15:51:44.000Z</time>
      </trkpt>
      <trkpt lat="43.08416" lon="6.20137">
        <ele>45</ele>
        <time>2015-09-04T15:51:45.000Z</time>
      </trkpt>
      <trkpt lat="43.08423" lon="6.2014">
        <ele>45</ele>
        <time>2015-09-04T15:51:46.000Z</time>
      </trkpt>
      <trkpt lat="43.0843" lon="6.20141">
        <ele>45</ele>
        <time>2015-09-04T15:51:47.000Z</time>
      </trkpt>
      <trkpt lat="43.08437" lon="6.2014">
        <ele>45</ele>
        <time>2015-09-04T15:51:48.000Z</time>
      </trkpt>
      <trkpt lat="43.08444" lon="6.20143">
        <ele>44</ele>
        <time>2015-09-04T15:51:49.000Z</time>
      </trkpt>
      <trkpt lat="43.08451" lon="6.20144">
        <ele>45</ele>
        <time>2015-09-04T15:51:50.000Z</time>
      </trkpt>
      <trkpt lat="43.08458" lon="6.20142">
        <ele>45</ele>
        <time>2015-09-04T15:51:51.000Z</time>
      </trkpt>
      <trkpt lat="43.08464" lon="6.20143">
        <ele>45</ele>
        <time>2015-09-04T15:51:52.000Z</time>
      </trkpt>
      <trkpt lat="43.08471" lon="6.20142">
        <ele>46</ele>
        <time>2015-09-04T15:51:53.000Z</time>
      </trkpt>
      <trkpt lat="43.08479" lon="6.20144">
        <ele>45</ele>
        <time>2015-09-04T15:51:54.000Z</time>
      </trkpt>
      <trkpt lat="43.08488" lon="6.20143">
        <ele>44</ele>
        <time>2015-09-04T15:51:55.000Z</time>
      </trkpt>
      <trkpt lat="43.08496" lon="6.20144">
        <ele>43</ele>
        <time>2015-09-04T15:51:56.000Z</time>
      </trkpt>
      <trkpt lat="43.08502" lon="6.20142">
        <ele>43</ele>
        <time>2015-09-04T15:51:57.000Z</time>
      </trkpt>
      <trkpt lat="43.08506" lon="6.20141">
        <ele>43</ele>
        <time>2015-09-04T15:51:58.000Z</time>
      </trkpt>
      <trkpt lat="43.08511" lon="6.20141">
        <ele>42</ele>
        <time>2015-09-04T15:51:59.000Z</time>
      </trkpt>
      <trkpt lat="43.08517" lon="6.20144">
        <ele>42</ele>
        <time>2015-09-04T15:52:00.000Z</time>
      </trkpt>
      <trkpt lat="43.08523" lon="6.20146">
        <ele>41</ele>
        <time>2015-09-04T15:52:01.000Z</time>
      </trkpt>
      <trkpt lat="43.08529" lon="6.20146">
        <ele>41</ele>
        <time>2015-09-04T15:52:02.000Z</time>
      </trkpt>
      <trkpt lat="43.08534" lon="6.20144">
        <ele>41</ele>
        <time>2015-09-04T15:52:03.000Z</time>
      </trkpt>
      <trkpt lat="43.08537" lon="6.20142">
        <ele>42</ele>
        <time>2015-09-04T15:52:04.000Z</time>
      </trkpt>
      <trkpt lat="43.08566" lon="6.20129">
        <ele>40</ele>
        <time>2015-09-04T15:52:15.000Z</time>
      </trkpt>
      <trkpt lat="43.08562" lon="6.2016">
        <ele>37</ele>
        <time>2015-09-04T15:52:16.000Z</time>
      </trkpt>
      <trkpt lat="43.08562" lon="6.20154">
        <ele>38</ele>
        <time>2015-09-04T15:52:17.000Z</time>
      </trkpt>
      <trkpt lat="43.08562" lon="6.20152">
        <ele>35</ele>
        <time>2015-09-04T15:52:18.000Z</time>
      </trkpt>
      <trkpt lat="43.08561" lon="6.20151">
        <ele>33</ele>
        <time>2015-09-04T15:52:19.000Z</time>
      </trkpt>
      <trkpt lat="43.08562" lon="6.20151">
        <ele>36</ele>
        <time>2015-09-04T15:52:20.000Z</time>
      </trkpt>
      <trkpt lat="43.08562" lon="6.20152">
        <ele>36</ele>
        <time>2015-09-04T15:52:21.000Z</time>
      </trkpt>
      <trkpt lat="43.08562" lon="6.20153">
        <ele>36</ele>
        <time>2015-09-04T15:52:22.000Z</time>
      </trkpt>
      <trkpt lat="43.08563" lon="6.20154">
        <ele>36</ele>
        <time>2015-09-04T15:52:23.000Z</time>
      </trkpt>
      <trkpt lat="43.08563" lon="6.20154">
        <ele>35</ele>
        <time>2015-09-04T15:52:24.000Z</time>
      </trkpt>
      <trkpt lat="43.08564" lon="6.20156">
        <ele>35</ele>
        <time>2015-09-04T15:52:25.000Z</time>
      </trkpt>
      <trkpt lat="43.08564" lon="6.20158">
        <ele>36</ele>
        <time>2015-09-04T15:52:26.000Z</time>
      </trkpt>
      <trkpt lat="43.08565" lon="6.20161">
        <ele>36</ele>
        <time>2015-09-04T15:52:27.000Z</time>
      </trkpt>
      <trkpt lat="43.08566" lon="6.20164">
        <ele>37</ele>
        <time>2015-09-04T15:52:28.000Z</time>
      </trkpt>
      <trkpt lat="43.08568" lon="6.20166">
        <ele>39</ele>
        <time>2015-09-04T15:52:29.000Z</time>
      </trkpt>
      <trkpt lat="43.08569" lon="6.20168">
        <ele>39</ele>
        <time>2015-09-04T15:52:30.000Z</time>
      </trkpt>
      <trkpt lat="43.08571" lon="6.2017">
        <ele>41</ele>
        <time>2015-09-04T15:52:31.000Z</time>
      </trkpt>
      <trkpt lat="43.08573" lon="6.20171">
        <ele>43</ele>
        <time>2015-09-04T15:52:32.000Z</time>
      </trkpt>
      <trkpt lat="43.08574" lon="6.20173">
        <ele>43</ele>
        <time>2015-09-04T15:52:33.000Z</time>
      </trkpt>
      <trkpt lat="43.08653" lon="6.20161">
        <ele>38</ele>
        <time>2015-09-04T15:53:52.000Z</time>
      </trkpt>
      <trkpt lat="43.08639" lon="6.2019">
        <ele>51</ele>
        <time>2015-09-04T15:53:53.000Z</time>
      </trkpt>
      <trkpt lat="43.08641" lon="6.20185">
        <ele>48</ele>
        <time>2015-09-04T15:53:54.000Z</time>
      </trkpt>
      <trkpt lat="43.08642" lon="6.20189">
        <ele>45</ele>
        <time>2015-09-04T15:53:55.000Z</time>
      </trkpt>
      <trkpt lat="43.08642" lon="6.20196">
        <ele>56</ele>
        <time>2015-09-04T15:53:56.000Z</time>
      </trkpt>
      <trkpt lat="43.08641" lon="6.20224">
        <ele>69</ele>
        <time>2015-09-04T15:53:57.000Z</time>
      </trkpt>
      <trkpt lat="43.08643" lon="6.2023">
        <ele>76</ele>
        <time>2015-09-04T15:53:58.000Z</time>
      </trkpt>
      <trkpt lat="43.08644" lon="6.2023">
        <ele>67</ele>
        <time>2015-09-04T15:53:59.000Z</time>
      </trkpt>
      <trkpt lat="43.08645" lon="6.20231">
        <ele>69</ele>
        <time>2015-09-04T15:54:00.000Z</time>
      </trkpt>
      <trkpt lat="43.08646" lon="6.2023">
        <ele>58</ele>
        <time>2015-09-04T15:54:01.000Z</time>
      </trkpt>
      <trkpt lat="43.08646" lon="6.20227">
        <ele>53</ele>
        <time>2015-09-04T15:54:02.000Z</time>
      </trkpt>
      <trkpt lat="43.08647" lon="6.20225">
        <ele>53</ele>
        <time>2015-09-04T15:54:03.000Z</time>
      </trkpt>
      <trkpt lat="43.08648" lon="6.20224">
        <ele>53</ele>
        <time>2015-09-04T15:54:04.000Z</time>
      </trkpt>
      <trkpt lat="43.08648" lon="6.20223">
        <ele>52</ele>
        <time>2015-09-04T15:54:05.000Z</time>
      </trkpt>
      <trkpt lat="43.08649" lon="6.20223">
        <ele>54</ele>
        <time>2015-09-04T15:54:06.000Z</time>
      </trkpt>
      <trkpt lat="43.08649" lon="6.20223">
        <ele>56</ele>
        <time>2015-09-04T15:54:07.000Z</time>
      </trkpt>
      <trkpt lat="43.08649" lon="6.20222">
        <ele>55</ele>
        <time>2015-09-04T15:54:08.000Z</time>
      </trkpt>
      <trkpt lat="43.08649" lon="6.20221">
        <ele>53</ele>
        <time>2015-09-04T15:54:09.000Z</time>
      </trkpt>
      <trkpt lat="43.08649" lon="6.2022">
        <ele>53</ele>
        <time>2015-09-04T15:54:10.000Z</time>
      </trkpt>
      <trkpt lat="43.08649" lon="6.20219">
        <ele>53</ele>
        <time>2015-09-04T15:54:11.000Z</time>
      </trkpt>
      <trkpt lat="43.08649" lon="6.20219">
        <ele>52</ele>
        <time>2015-09-04T15:54:12.000Z</time>
      </trkpt>
      <trkpt lat="43.08649" lon="6.20221">
        <ele>57</ele>
        <time>2015-09-04T15:54:13.000Z</time>
      </trkpt>
      <trkpt lat="43.0865" lon="6.20223">
        <ele>58</ele>
        <time>2015-09-04T15:54:14.000Z</time>
      </trkpt>
      <trkpt lat="43.08652" lon="6.20225">
        <ele>58</ele>
        <time>2015-09-04T15:54:15.000Z</time>
      </trkpt>
      <trkpt lat="43.08654" lon="6.20225">
        <ele>57</ele>
        <time>2015-09-04T15:54:16.000Z</time>
      </trkpt>
      <trkpt lat="43.08655" lon="6.20225">
        <ele>58</ele>
        <time>2015-09-04T15:54:17.000Z</time>
      </trkpt>
      <trkpt lat="43.08656" lon="6.20225">
        <ele>58</ele>
        <time>2015-09-04T15:54:18.000Z</time>
      </trkpt>
      <trkpt lat="43.08669" lon="6.20206">
        <ele>30</ele>
        <time>2015-09-04T15:55:26.000Z</time>
      </trkpt>
      <trkpt lat="43.08669" lon="6.20208">
        <ele>26</ele>
        <time>2015-09-04T15:55:27.000Z</time>
      </trkpt>
      <trkpt lat="43.08665" lon="6.20209">
        <ele>21</ele>
        <time>2015-09-04T15:55:28.000Z</time>
      </trkpt>
      <trkpt lat="43.08664" lon="6.2021">
        <ele>21</ele>
        <time>2015-09-04T15:55:29.000Z</time>
      </trkpt>
      <trkpt lat="43.08662" lon="6.20211">
        <ele>21</ele>
        <time>2015-09-04T15:55:30.000Z</time>
      </trkpt>
      <trkpt lat="43.08669" lon="6.20323">
        <ele>44</ele>
        <time>2015-09-04T15:58:11.000Z</time>
      </trkpt>
      <trkpt lat="43.08659" lon="6.20334">
        <ele>44</ele>
        <time>2015-09-04T15:58:12.000Z</time>
      </trkpt>
      <trkpt lat="43.0867" lon="6.20301">
        <ele>44</ele>
        <time>2015-09-04T15:58:13.000Z</time>
      </trkpt>
      <trkpt lat="43.08669" lon="6.20318">
        <ele>44</ele>
        <time>2015-09-04T15:58:14.000Z</time>
      </trkpt>
      <trkpt lat="43.08667" lon="6.20317">
        <ele>44</ele>
        <time>2015-09-04T15:58:15.000Z</time>
      </trkpt>
      <trkpt lat="43.08666" lon="6.20317">
        <ele>44</ele>
        <time>2015-09-04T15:58:16.000Z</time>
      </trkpt>
      <trkpt lat="43.08664" lon="6.20318">
        <ele>44</ele>
        <time>2015-09-04T15:58:17.000Z</time>
      </trkpt>
      <trkpt lat="43.08665" lon="6.20319">
        <ele>45</ele>
        <time>2015-09-04T15:58:18.000Z</time>
      </trkpt>
      <trkpt lat="43.08662" lon="6.20323">
        <ele>45</ele>
        <time>2015-09-04T15:58:19.000Z</time>
      </trkpt>
      <trkpt lat="43.08671" lon="6.20318">
        <ele>45</ele>
        <time>2015-09-04T15:58:20.000Z</time>
      </trkpt>
      <trkpt lat="43.08677" lon="6.20314">
        <ele>46</ele>
        <time>2015-09-04T15:58:21.000Z</time>
      </trkpt>
      <trkpt lat="43.08678" lon="6.20315">
        <ele>45</ele>
        <time>2015-09-04T15:58:22.000Z</time>
      </trkpt>
      <trkpt lat="43.08679" lon="6.20315">
        <ele>45</ele>
        <time>2015-09-04T15:58:23.000Z</time>
      </trkpt>
      <trkpt lat="43.08678" lon="6.20316">
        <ele>45</ele>
        <time>2015-09-04T15:58:24.000Z</time>
      </trkpt>
      <trkpt lat="43.08678" lon="6.20316">
        <ele>45</ele>
        <time>2015-09-04T15:58:25.000Z</time>
      </trkpt>
      <trkpt lat="43.08678" lon="6.20316">
        <ele>45</ele>
        <time>2015-09-04T15:58:26.000Z</time>
      </trkpt>
      <trkpt lat="43.08678" lon="6.20316">
        <ele>45</ele>
        <time>2015-09-04T15:58:27.000Z</time>
      </trkpt>
      <trkpt lat="43.08678" lon="6.20316">
        <ele>46</ele>
        <time>2015-09-04T15:58:28.000Z</time>
      </trkpt>
      <trkpt lat="43.08678" lon="6.20316">
        <ele>46</ele>
        <time>2015-09-04T15:58:29.000Z</time>
      </trkpt>
      <trkpt lat="43.08678" lon="6.20316">
        <ele>46</ele>
        <time>2015-09-04T15:58:30.000Z</time>
      </trkpt>
      <trkpt lat="43.08678" lon="6.20316">
        <ele>46</ele>
        <time>2015-09-04T15:58:31.000Z</time>
      </trkpt>
      <trkpt lat="43.08678" lon="6.20316">
        <ele>45</ele>
        <time>2015-09-04T15:58:32.000Z</time>
      </trkpt>
      <trkpt lat="43.08678" lon="6.20315">
        <ele>45</ele>
        <time>2015-09-04T15:58:33.000Z</time>
      </trkpt>
      <trkpt lat="43.08678" lon="6.20315">
        <ele>45</ele>
        <time>2015-09-04T15:58:34.000Z</time>
      </trkpt>
      <trkpt lat="43.08679" lon="6.20315">
        <ele>45</ele>
        <time>2015-09-04T15:58:35.000Z</time>
      </trkpt>
      <trkpt lat="43.08678" lon="6.20315">
        <ele>45</ele>
        <time>2015-09-04T15:58:36.000Z</time>
      </trkpt>
      <trkpt lat="43.08679" lon="6.20315">
        <ele>45</ele>
        <time>2015-09-04T15:58:37.000Z</time>
      </trkpt>
      <trkpt lat="43.08679" lon="6.20315">
        <ele>46</ele>
        <time>2015-09-04T15:58:38.000Z</time>
      </trkpt>
      <trkpt lat="43.08678" lon="6.20315">
        <ele>46</ele>
        <time>2015-09-04T15:58:39.000Z</time>
      </trkpt>
      <trkpt lat="43.08678" lon="6.20315">
        <ele>46</ele>
        <time>2015-09-04T15:58:40.000Z</time>
      </trkpt>
      <trkpt lat="43.08679" lon="6.20315">
        <ele>46</ele>
        <time>2015-09-04T15:58:41.000Z</time>
      </trkpt>
      <trkpt lat="43.08679" lon="6.20315">
        <ele>46</ele>
        <time>2015-09-04T15:58:42.000Z</time>
      </trkpt>
      <trkpt lat="43.08679" lon="6.20315">
        <ele>46</ele>
        <time>2015-09-04T15:58:43.000Z</time>
      </trkpt>
      <trkpt lat="43.08679" lon="6.20315">
        <ele>46</ele>
        <time>2015-09-04T15:58:44.000Z</time>
      </trkpt>
      <trkpt lat="43.08679" lon="6.20315">
        <ele>45</ele>
        <time>2015-09-04T15:58:45.000Z</time>
      </trkpt>
      <trkpt lat="43.08679" lon="6.20315">
        <ele>45</ele>
        <time>2015-09-04T15:58:46.000Z</time>
      </trkpt>
      <trkpt lat="43.08679" lon="6.20315">
        <ele>45</ele>
        <time>2015-09-04T15:58:47.000Z</time>
      </trkpt>
      <trkpt lat="43.08679" lon="6.20314">
        <ele>45</ele>
        <time>2015-09-04T15:58:48.000Z</time>
      </trkpt>
      <trkpt lat="43.08682" lon="6.20309">
        <ele>45</ele>
        <time>2015-09-04T15:58:49.000Z</time>
      </trkpt>
      <trkpt lat="43.08682" lon="6.20307">
        <ele>45</ele>
        <time>2015-09-04T15:58:50.000Z</time>
      </trkpt>
      <trkpt lat="43.08682" lon="6.20307">
        <ele>45</ele>
        <time>2015-09-04T15:58:51.000Z</time>
      </trkpt>
      <trkpt lat="43.08682" lon="6.20307">
        <ele>45</ele>
        <time>2015-09-04T15:58:52.000Z</time>
      </trkpt>
      <trkpt lat="43.08682" lon="6.20307">
        <ele>48</ele>
        <time>2015-09-04T15:58:53.000Z</time>
      </trkpt>
      <trkpt lat="43.08682" lon="6.20308">
        <ele>48</ele>
        <time>2015-09-04T15:58:54.000Z</time>
      </trkpt>
      <trkpt lat="43.08681" lon="6.20311">
        <ele>47</ele>
        <time>2015-09-04T15:58:55.000Z</time>
      </trkpt>
      <trkpt lat="43.0868" lon="6.20311">
        <ele>46</ele>
        <time>2015-09-04T15:58:56.000Z</time>
      </trkpt>
      <trkpt lat="43.0868" lon="6.20311">
        <ele>46</ele>
        <time>2015-09-04T15:58:57.000Z</time>
      </trkpt>
      <trkpt lat="43.0868" lon="6.20311">
        <ele>46</ele>
        <time>2015-09-04T15:58:58.000Z</time>
      </trkpt>
      <trkpt lat="43.0868" lon="6.20311">
        <ele>46</ele>
        <time>2015-09-04T15:58:59.000Z</time>
      </trkpt>
      <trkpt lat="43.0868" lon="6.20311">
        <ele>46</ele>
        <time>2015-09-04T15:59:00.000Z</time>
      </trkpt>
      <trkpt lat="43.08681" lon="6.20314">
        <ele>46</ele>
        <time>2015-09-04T15:59:01.000Z</time>
      </trkpt>
      <trkpt lat="43.08683" lon="6.20317">
        <ele>46</ele>
        <time>2015-09-04T15:59:02.000Z</time>
      </trkpt>
      <trkpt lat="43.08686" lon="6.20321">
        <ele>44</ele>
        <time>2015-09-04T15:59:03.000Z</time>
      </trkpt>
      <trkpt lat="43.08687" lon="6.20322">
        <ele>44</ele>
        <time>2015-09-04T15:59:04.000Z</time>
      </trkpt>
      <trkpt lat="43.08688" lon="6.20323">
        <ele>46</ele>
        <time>2015-09-04T15:59:05.000Z</time>
      </trkpt>
      <trkpt lat="43.0869" lon="6.20328">
        <ele>44</ele>
        <time>2015-09-04T15:59:06.000Z</time>
      </trkpt>
      <trkpt lat="43.0869" lon="6.20327">
        <ele>43</ele>
        <time>2015-09-04T15:59:07.000Z</time>
      </trkpt>
      <trkpt lat="43.08689" lon="6.20327">
        <ele>43</ele>
        <time>2015-09-04T15:59:08.000Z</time>
      </trkpt>
      <trkpt lat="43.08688" lon="6.20327">
        <ele>44</ele>
        <time>2015-09-04T15:59:09.000Z</time>
      </trkpt>
      <trkpt lat="43.0869" lon="6.20327">
        <ele>43</ele>
        <time>2015-09-04T15:59:10.000Z</time>
      </trkpt>
      <trkpt lat="43.0869" lon="6.20328">
        <ele>43</ele>
        <time>2015-09-04T15:59:11.000Z</time>
      </trkpt>
      <trkpt lat="43.0869" lon="6.2033">
        <ele>43</ele>
        <time>2015-09-04T15:59:12.000Z</time>
      </trkpt>
      <trkpt lat="43.0869" lon="6.2033">
        <ele>43</ele>
        <time>2015-09-04T15:59:13.000Z</time>
      </trkpt>
      <trkpt lat="43.0869" lon="6.20331">
        <ele>43</ele>
        <time>2015-09-04T15:59:14.000Z</time>
      </trkpt>
      <trkpt lat="43.0869" lon="6.20332">
        <ele>43</ele>
        <time>2015-09-04T15:59:15.000Z</time>
      </trkpt>
      <trkpt lat="43.0869" lon="6.20333">
        <ele>42</ele>
        <time>2015-09-04T15:59:16.000Z</time>
      </trkpt>
      <trkpt lat="43.0869" lon="6.20334">
        <ele>43</ele>
        <time>2015-09-04T15:59:17.000Z</time>
      </trkpt>
      <trkpt lat="43.08689" lon="6.20336">
        <ele>43</ele>
        <time>2015-09-04T15:59:18.000Z</time>
      </trkpt>
      <trkpt lat="43.08688" lon="6.20337">
        <ele>43</ele>
        <time>2015-09-04T15:59:19.000Z</time>
      </trkpt>
      <trkpt lat="43.08688" lon="6.20338">
        <ele>43</ele>
        <time>2015-09-04T15:59:20.000Z</time>
      </trkpt>
      <trkpt lat="43.08687" lon="6.2034">
        <ele>45</ele>
        <time>2015-09-04T15:59:21.000Z</time>
      </trkpt>
      <trkpt lat="43.08687" lon="6.20344">
        <ele>45</ele>
        <time>2015-09-04T15:59:22.000Z</time>
      </trkpt>
      <trkpt lat="43.08686" lon="6.20348">
        <ele>46</ele>
        <time>2015-09-04T15:59:23.000Z</time>
      </trkpt>
      <trkpt lat="43.08686" lon="6.20352">
        <ele>47</ele>
        <time>2015-09-04T15:59:24.000Z</time>
      </trkpt>
      <trkpt lat="43.08687" lon="6.20356">
        <ele>49</ele>
        <time>2015-09-04T15:59:25.000Z</time>
      </trkpt>
      <trkpt lat="43.08689" lon="6.20361">
        <ele>49</ele>
        <time>2015-09-04T15:59:26.000Z</time>
      </trkpt>
      <trkpt lat="43.08691" lon="6.20365">
        <ele>50</ele>
        <time>2015-09-04T15:59:27.000Z</time>
      </trkpt>
      <trkpt lat="43.08693" lon="6.20368">
        <ele>50</ele>
        <time>2015-09-04T15:59:28.000Z</time>
      </trkpt>
      <trkpt lat="43.08695" lon="6.20371">
        <ele>49</ele>
        <time>2015-09-04T15:59:29.000Z</time>
      </trkpt>
      <trkpt lat="43.08697" lon="6.20374">
        <ele>50</ele>
        <time>2015-09-04T15:59:30.000Z</time>
      </trkpt>
      <trkpt lat="43.08699" lon="6.20378">
        <ele>50</ele>
        <time>2015-09-04T15:59:31.000Z</time>
      </trkpt>
      <trkpt lat="43.08702" lon="6.20381">
        <ele>51</ele>
        <time>2015-09-04T15:59:32.000Z</time>
      </trkpt>
      <trkpt lat="43.0871" lon="6.20386">
        <ele>51</ele>
        <time>2015-09-04T15:59:33.000Z</time>
      </trkpt>
      <trkpt lat="43.08715" lon="6.20395">
        <ele>48</ele>
        <time>2015-09-04T15:59:34.000Z</time>
      </trkpt>
      <trkpt lat="43.08722" lon="6.204">
        <ele>49</ele>
        <time>2015-09-04T15:59:35.000Z</time>
      </trkpt>
      <trkpt lat="43.08727" lon="6.20407">
        <ele>51</ele>
        <time>2015-09-04T15:59:36.000Z</time>
      </trkpt>
      <trkpt lat="43.08733" lon="6.20412">
        <ele>52</ele>
        <time>2015-09-04T15:59:37.000Z</time>
      </trkpt>
      <trkpt lat="43.0874" lon="6.20417">
        <ele>52</ele>
        <time>2015-09-04T15:59:38.000Z</time>
      </trkpt>
      <trkpt lat="43.08748" lon="6.20424">
        <ele>52</ele>
        <time>2015-09-04T15:59:39.000Z</time>
      </trkpt>
      <trkpt lat="43.08753" lon="6.20431">
        <ele>51</ele>
        <time>2015-09-04T15:59:40.000Z</time>
      </trkpt>
      <trkpt lat="43.08759" lon="6.20434">
        <ele>49</ele>
        <time>2015-09-04T15:59:41.000Z</time>
      </trkpt>
      <trkpt lat="43.08766" lon="6.20442">
        <ele>47</ele>
        <time>2015-09-04T15:59:42.000Z</time>
      </trkpt>
      <trkpt lat="43.08772" lon="6.20447">
        <ele>45</ele>
        <time>2015-09-04T15:59:43.000Z</time>
      </trkpt>
      <trkpt lat="43.08778" lon="6.20453">
        <ele>46</ele>
        <time>2015-09-04T15:59:44.000Z</time>
      </trkpt>
      <trkpt lat="43.08783" lon="6.2046">
        <ele>45</ele>
        <time>2015-09-04T15:59:45.000Z</time>
      </trkpt>
      <trkpt lat="43.08789" lon="6.20465">
        <ele>45</ele>
        <time>2015-09-04T15:59:46.000Z</time>
      </trkpt>
      <trkpt lat="43.08798" lon="6.20474">
        <ele>45</ele>
        <time>2015-09-04T15:59:47.000Z</time>
      </trkpt>
      <trkpt lat="43.08805" lon="6.20479">
        <ele>44</ele>
        <time>2015-09-04T15:59:48.000Z</time>
      </trkpt>
      <trkpt lat="43.08813" lon="6.20487">
        <ele>43</ele>
        <time>2015-09-04T15:59:49.000Z</time>
      </trkpt>
      <trkpt lat="43.08818" lon="6.20495">
        <ele>44</ele>
        <time>2015-09-04T15:59:50.000Z</time>
      </trkpt>
      <trkpt lat="43.08824" lon="6.20504">
        <ele>47</ele>
        <time>2015-09-04T15:59:51.000Z</time>
      </trkpt>
      <trkpt lat="43.08832" lon="6.20511">
        <ele>47</ele>
        <time>2015-09-04T15:59:52.000Z</time>
      </trkpt>
      <trkpt lat="43.08839" lon="6.20517">
        <ele>46</ele>
        <time>2015-09-04T15:59:53.000Z</time>
      </trkpt>
      <trkpt lat="43.08849" lon="6.20524">
        <ele>47</ele>
        <time>2015-09-04T15:59:54.000Z</time>
      </trkpt>
      <trkpt lat="43.08854" lon="6.2053">
        <ele>47</ele>
        <time>2015-09-04T15:59:55.000Z</time>
      </trkpt>
      <trkpt lat="43.08861" lon="6.20537">
        <ele>47</ele>
        <time>2015-09-04T15:59:56.000Z</time>
      </trkpt>
      <trkpt lat="43.08868" lon="6.20543">
        <ele>47</ele>
        <time>2015-09-04T15:59:57.000Z</time>
      </trkpt>
      <trkpt lat="43.0887" lon="6.2055">
        <ele>45</ele>
        <time>2015-09-04T15:59:58.000Z</time>
      </trkpt>
      <trkpt lat="43.08877" lon="6.20556">
        <ele>44</ele>
        <time>2015-09-04T15:59:59.000Z</time>
      </trkpt>
      <trkpt lat="43.08885" lon="6.20563">
        <ele>44</ele>
        <time>2015-09-04T16:00:00.000Z</time>
      </trkpt>
      <trkpt lat="43.08891" lon="6.20571">
        <ele>48</ele>
        <time>2015-09-04T16:00:01.000Z</time>
      </trkpt>
      <trkpt lat="43.08898" lon="6.20578">
        <ele>47</ele>
        <time>2015-09-04T16:00:02.000Z</time>
      </trkpt>
      <trkpt lat="43.08904" lon="6.20584">
        <ele>47</ele>
        <time>2015-09-04T16:00:03.000Z</time>
      </trkpt>
      <trkpt lat="43.08911" lon="6.2059">
        <ele>47</ele>
        <time>2015-09-04T16:00:04.000Z</time>
      </trkpt>
      <trkpt lat="43.08916" lon="6.20596">
        <ele>46</ele>
        <time>2015-09-04T16:00:05.000Z</time>
      </trkpt>
      <trkpt lat="43.08924" lon="6.20605">
        <ele>46</ele>
        <time>2015-09-04T16:00:06.000Z</time>
      </trkpt>
      <trkpt lat="43.08932" lon="6.20614">
        <ele>46</ele>
        <time>2015-09-04T16:00:07.000Z</time>
      </trkpt>
      <trkpt lat="43.08937" lon="6.20619">
        <ele>46</ele>
        <time>2015-09-04T16:00:08.000Z</time>
      </trkpt>
      <trkpt lat="43.08946" lon="6.20629">
        <ele>47</ele>
        <time>2015-09-04T16:00:09.000Z</time>
      </trkpt>
      <trkpt lat="43.08952" lon="6.20635">
        <ele>48</ele>
        <time>2015-09-04T16:00:10.000Z</time>
      </trkpt>
      <trkpt lat="43.08959" lon="6.20643">
        <ele>49</ele>
        <time>2015-09-04T16:00:11.000Z</time>
      </trkpt>
      <trkpt lat="43.08965" lon="6.20651">
        <ele>48</ele>
        <time>2015-09-04T16:00:12.000Z</time>
      </trkpt>
      <trkpt lat="43.08972" lon="6.2066">
        <ele>47</ele>
        <time>2015-09-04T16:00:13.000Z</time>
      </trkpt>
      <trkpt lat="43.0898" lon="6.20667">
        <ele>47</ele>
        <time>2015-09-04T16:00:14.000Z</time>
      </trkpt>
      <trkpt lat="43.08987" lon="6.20675">
        <ele>47</ele>
        <time>2015-09-04T16:00:15.000Z</time>
      </trkpt>
      <trkpt lat="43.08992" lon="6.20681">
        <ele>48</ele>
        <time>2015-09-04T16:00:16.000Z</time>
      </trkpt>
      <trkpt lat="43.08999" lon="6.2069">
        <ele>48</ele>
        <time>2015-09-04T16:00:17.000Z</time>
      </trkpt>
      <trkpt lat="43.09005" lon="6.20697">
        <ele>48</ele>
        <time>2015-09-04T16:00:18.000Z</time>
      </trkpt>
      <trkpt lat="43.09013" lon="6.20705">
        <ele>47</ele>
        <time>2015-09-04T16:00:19.000Z</time>
      </trkpt>
      <trkpt lat="43.09017" lon="6.2071">
        <ele>47</ele>
        <time>2015-09-04T16:00:20.000Z</time>
      </trkpt>
      <trkpt lat="43.09025" lon="6.20718">
        <ele>48</ele>
        <time>2015-09-04T16:00:21.000Z</time>
      </trkpt>
      <trkpt lat="43.09033" lon="6.20725">
        <ele>49</ele>
        <time>2015-09-04T16:00:22.000Z</time>
      </trkpt>
      <trkpt lat="43.09039" lon="6.20732">
        <ele>49</ele>
        <time>2015-09-04T16:00:23.000Z</time>
      </trkpt>
      <trkpt lat="43.09045" lon="6.2074">
        <ele>49</ele>
        <time>2015-09-04T16:00:24.000Z</time>
      </trkpt>
      <trkpt lat="43.09049" lon="6.20744">
        <ele>49</ele>
        <time>2015-09-04T16:00:25.000Z</time>
      </trkpt>
      <trkpt lat="43.09054" lon="6.20751">
        <ele>49</ele>
        <time>2015-09-04T16:00:26.000Z</time>
      </trkpt>
      <trkpt lat="43.09064" lon="6.20757">
        <ele>50</ele>
        <time>2015-09-04T16:00:27.000Z</time>
      </trkpt>
      <trkpt lat="43.09073" lon="6.20764">
        <ele>50</ele>
        <time>2015-09-04T16:00:28.000Z</time>
      </trkpt>
      <trkpt lat="43.09081" lon="6.2077">
        <ele>50</ele>
        <time>2015-09-04T16:00:29.000Z</time>
      </trkpt>
      <trkpt lat="43.09088" lon="6.20777">
        <ele>50</ele>
        <time>2015-09-04T16:00:30.000Z</time>
      </trkpt>
      <trkpt lat="43.09096" lon="6.20781">
        <ele>50</ele>
        <time>2015-09-04T16:00:31.000Z</time>
      </trkpt>
      <trkpt lat="43.09103" lon="6.20792">
        <ele>50</ele>
        <time>2015-09-04T16:00:32.000Z</time>
      </trkpt>
      <trkpt lat="43.09106" lon="6.20799">
        <ele>49</ele>
        <time>2015-09-04T16:00:33.000Z</time>
      </trkpt>
      <trkpt lat="43.09112" lon="6.20806">
        <ele>50</ele>
        <time>2015-09-04T16:00:34.000Z</time>
      </trkpt>
      <trkpt lat="43.09118" lon="6.20815">
        <ele>50</ele>
        <time>2015-09-04T16:00:35.000Z</time>
      </trkpt>
      <trkpt lat="43.09126" lon="6.20823">
        <ele>53</ele>
        <time>2015-09-04T16:00:36.000Z</time>
      </trkpt>
      <trkpt lat="43.09132" lon="6.20831">
        <ele>51</ele>
        <time>2015-09-04T16:00:37.000Z</time>
      </trkpt>
      <trkpt lat="43.09137" lon="6.20838">
        <ele>51</ele>
        <time>2015-09-04T16:00:38.000Z</time>
      </trkpt>
      <trkpt lat="43.09143" lon="6.20846">
        <ele>51</ele>
        <time>2015-09-04T16:00:39.000Z</time>
      </trkpt>
      <trkpt lat="43.0915" lon="6.20855">
        <ele>51</ele>
        <time>2015-09-04T16:00:40.000Z</time>
      </trkpt>
      <trkpt lat="43.09157" lon="6.20861">
        <ele>52</ele>
        <time>2015-09-04T16:00:41.000Z</time>
      </trkpt>
      <trkpt lat="43.09163" lon="6.2087">
        <ele>52</ele>
        <time>2015-09-04T16:00:42.000Z</time>
      </trkpt>
      <trkpt lat="43.0917" lon="6.20877">
        <ele>49</ele>
        <time>2015-09-04T16:00:43.000Z</time>
      </trkpt>
      <trkpt lat="43.09175" lon="6.20886">
        <ele>48</ele>
        <time>2015-09-04T16:00:44.000Z</time>
      </trkpt>
      <trkpt lat="43.09182" lon="6.20896">
        <ele>49</ele>
        <time>2015-09-04T16:00:45.000Z</time>
      </trkpt>
      <trkpt lat="43.09188" lon="6.20904">
        <ele>49</ele>
        <time>2015-09-04T16:00:46.000Z</time>
      </trkpt>
      <trkpt lat="43.09194" lon="6.20911">
        <ele>48</ele>
        <time>2015-09-04T16:00:47.000Z</time>
      </trkpt>
      <trkpt lat="43.092" lon="6.20919">
        <ele>49</ele>
        <time>2015-09-04T16:00:48.000Z</time>
      </trkpt>
      <trkpt lat="43.09207" lon="6.20928">
        <ele>50</ele>
        <time>2015-09-04T16:00:49.000Z</time>
      </trkpt>
      <trkpt lat="43.09213" lon="6.20937">
        <ele>51</ele>
        <time>2015-09-04T16:00:50.000Z</time>
      </trkpt>
      <trkpt lat="43.09218" lon="6.20944">
        <ele>49</ele>
        <time>2015-09-04T16:00:51.000Z</time>
      </trkpt>
      <trkpt lat="43.09225" lon="6.20952">
        <ele>49</ele>
        <time>2015-09-04T16:00:52.000Z</time>
      </trkpt>
      <trkpt lat="43.09232" lon="6.20961">
        <ele>50</ele>
        <time>2015-09-04T16:00:53.000Z</time>
      </trkpt>
      <trkpt lat="43.09239" lon="6.2097">
        <ele>50</ele>
        <time>2015-09-04T16:00:54.000Z</time>
      </trkpt>
      <trkpt lat="43.09245" lon="6.20978">
        <ele>50</ele>
        <time>2015-09-04T16:00:55.000Z</time>
      </trkpt>
      <trkpt lat="43.09252" lon="6.20986">
        <ele>50</ele>
        <time>2015-09-04T16:00:56.000Z</time>
      </trkpt>
      <trkpt lat="43.09258" lon="6.20995">
        <ele>48</ele>
        <time>2015-09-04T16:00:57.000Z</time>
      </trkpt>
      <trkpt lat="43.09266" lon="6.21004">
        <ele>50</ele>
        <time>2015-09-04T16:00:58.000Z</time>
      </trkpt>
      <trkpt lat="43.09273" lon="6.21012">
        <ele>50</ele>
        <time>2015-09-04T16:00:59.000Z</time>
      </trkpt>
      <trkpt lat="43.09281" lon="6.2102">
        <ele>51</ele>
        <time>2015-09-04T16:01:00.000Z</time>
      </trkpt>
      <trkpt lat="43.09287" lon="6.21027">
        <ele>50</ele>
        <time>2015-09-04T16:01:01.000Z</time>
      </trkpt>
      <trkpt lat="43.09294" lon="6.21036">
        <ele>51</ele>
        <time>2015-09-04T16:01:02.000Z</time>
      </trkpt>
      <trkpt lat="43.09301" lon="6.21043">
        <ele>50</ele>
        <time>2015-09-04T16:01:03.000Z</time>
      </trkpt>
      <trkpt lat="43.09306" lon="6.21051">
        <ele>50</ele>
        <time>2015-09-04T16:01:04.000Z</time>
      </trkpt>
      <trkpt lat="43.09312" lon="6.21058">
        <ele>50</ele>
        <time>2015-09-04T16:01:05.000Z</time>
      </trkpt>
      <trkpt lat="43.09318" lon="6.21067">
        <ele>49</ele>
        <time>2015-09-04T16:01:06.000Z</time>
      </trkpt>
      <trkpt lat="43.09324" lon="6.21074">
        <ele>50</ele>
        <time>2015-09-04T16:01:07.000Z</time>
      </trkpt>
      <trkpt lat="43.09332" lon="6.21082">
        <ele>49</ele>
        <time>2015-09-04T16:01:08.000Z</time>
      </trkpt>
      <trkpt lat="43.09339" lon="6.21091">
        <ele>51</ele>
        <time>2015-09-04T16:01:09.000Z</time>
      </trkpt>
      <trkpt lat="43.09345" lon="6.21098">
        <ele>51</ele>
        <time>2015-09-04T16:01:10.000Z</time>
      </trkpt>
      <trkpt lat="43.09351" lon="6.21106">
        <ele>49</ele>
        <time>2015-09-04T16:01:11.000Z</time>
      </trkpt>
      <trkpt lat="43.09358" lon="6.21112">
        <ele>50</ele>
        <time>2015-09-04T16:01:12.000Z</time>
      </trkpt>
      <trkpt lat="43.09366" lon="6.2112">
        <ele>50</ele>
        <time>2015-09-04T16:01:13.000Z</time>
      </trkpt>
      <trkpt lat="43.09374" lon="6.21128">
        <ele>51</ele>
        <time>2015-09-04T16:01:14.000Z</time>
      </trkpt>
      <trkpt lat="43.09382" lon="6.21135">
        <ele>50</ele>
        <time>2015-09-04T16:01:15.000Z</time>
      </trkpt>
      <trkpt lat="43.09389" lon="6.21142">
        <ele>50</ele>
        <time>2015-09-04T16:01:16.000Z</time>
      </trkpt>
      <trkpt lat="43.09396" lon="6.21151">
        <ele>50</ele>
        <time>2015-09-04T16:01:17.000Z</time>
      </trkpt>
      <trkpt lat="43.09402" lon="6.21159">
        <ele>49</ele>
        <time>2015-09-04T16:01:18.000Z</time>
      </trkpt>
      <trkpt lat="43.09408" lon="6.21167">
        <ele>49</ele>
        <time>2015-09-04T16:01:19.000Z</time>
      </trkpt>
      <trkpt lat="43.09414" lon="6.21174">
        <ele>50</ele>
        <time>2015-09-04T16:01:20.000Z</time>
      </trkpt>
      <trkpt lat="43.0942" lon="6.21182">
        <ele>48</ele>
        <time>2015-09-04T16:01:21.000Z</time>
      </trkpt>
      <trkpt lat="43.09428" lon="6.21189">
        <ele>49</ele>
        <time>2015-09-04T16:01:22.000Z</time>
      </trkpt>
      <trkpt lat="43.09434" lon="6.21194">
        <ele>49</ele>
        <time>2015-09-04T16:01:23.000Z</time>
      </trkpt>
      <trkpt lat="43.09439" lon="6.212">
        <ele>48</ele>
        <time>2015-09-04T16:01:24.000Z</time>
      </trkpt>
      <trkpt lat="43.09446" lon="6.21205">
        <ele>47</ele>
        <time>2015-09-04T16:01:25.000Z</time>
      </trkpt>
      <trkpt lat="43.09454" lon="6.21211">
        <ele>48</ele>
        <time>2015-09-04T16:01:26.000Z</time>
      </trkpt>
      <trkpt lat="43.0946" lon="6.21218">
        <ele>49</ele>
        <time>2015-09-04T16:01:27.000Z</time>
      </trkpt>
      <trkpt lat="43.09466" lon="6.21225">
        <ele>48</ele>
        <time>2015-09-04T16:01:28.000Z</time>
      </trkpt>
      <trkpt lat="43.09474" lon="6.21231">
        <ele>50</ele>
        <time>2015-09-04T16:01:29.000Z</time>
      </trkpt>
      <trkpt lat="43.09481" lon="6.21239">
        <ele>51</ele>
        <time>2015-09-04T16:01:30.000Z</time>
      </trkpt>
      <trkpt lat="43.09488" lon="6.21246">
        <ele>50</ele>
        <time>2015-09-04T16:01:31.000Z</time>
      </trkpt>
      <trkpt lat="43.09494" lon="6.21253">
        <ele>50</ele>
        <time>2015-09-04T16:01:32.000Z</time>
      </trkpt>
      <trkpt lat="43.09501" lon="6.21261">
        <ele>51</ele>
        <time>2015-09-04T16:01:33.000Z</time>
      </trkpt>
      <trkpt lat="43.09508" lon="6.21268">
        <ele>51</ele>
        <time>2015-09-04T16:01:34.000Z</time>
      </trkpt>
      <trkpt lat="43.09516" lon="6.21275">
        <ele>51</ele>
        <time>2015-09-04T16:01:35.000Z</time>
      </trkpt>
      <trkpt lat="43.09523" lon="6.2128">
        <ele>51</ele>
        <time>2015-09-04T16:01:36.000Z</time>
      </trkpt>
      <trkpt lat="43.0953" lon="6.21285">
        <ele>51</ele>
        <time>2015-09-04T16:01:37.000Z</time>
      </trkpt>
      <trkpt lat="43.09537" lon="6.21291">
        <ele>51</ele>
        <time>2015-09-04T16:01:38.000Z</time>
      </trkpt>
      <trkpt lat="43.09542" lon="6.21295">
        <ele>51</ele>
        <time>2015-09-04T16:01:39.000Z</time>
      </trkpt>
      <trkpt lat="43.09542" lon="6.21298">
        <ele>52</ele>
        <time>2015-09-04T16:01:40.000Z</time>
      </trkpt>
      <trkpt lat="43.09544" lon="6.21302">
        <ele>51</ele>
        <time>2015-09-04T16:01:41.000Z</time>
      </trkpt>
      <trkpt lat="43.0955" lon="6.21304">
        <ele>52</ele>
        <time>2015-09-04T16:01:42.000Z</time>
      </trkpt>
      <trkpt lat="43.09558" lon="6.21306">
        <ele>53</ele>
        <time>2015-09-04T16:01:43.000Z</time>
      </trkpt>
      <trkpt lat="43.09559" lon="6.21309">
        <ele>53</ele>
        <time>2015-09-04T16:01:44.000Z</time>
      </trkpt>
      <trkpt lat="43.09562" lon="6.2131">
        <ele>53</ele>
        <time>2015-09-04T16:01:45.000Z</time>
      </trkpt>
      <trkpt lat="43.0956" lon="6.21312">
        <ele>53</ele>
        <time>2015-09-04T16:01:46.000Z</time>
      </trkpt>
      <trkpt lat="43.09562" lon="6.21315">
        <ele>55</ele>
        <time>2015-09-04T16:01:47.000Z</time>
      </trkpt>
      <trkpt lat="43.09564" lon="6.21318">
        <ele>54</ele>
        <time>2015-09-04T16:01:48.000Z</time>
      </trkpt>
      <trkpt lat="43.09566" lon="6.21321">
        <ele>55</ele>
        <time>2015-09-04T16:01:49.000Z</time>
      </trkpt>
      <trkpt lat="43.09566" lon="6.21321">
        <ele>56</ele>
        <time>2015-09-04T16:01:50.000Z</time>
      </trkpt>
      <trkpt lat="43.09568" lon="6.21322">
        <ele>55</ele>
        <time>2015-09-04T16:01:51.000Z</time>
      </trkpt>
      <trkpt lat="43.09568" lon="6.21325">
        <ele>55</ele>
        <time>2015-09-04T16:01:52.000Z</time>
      </trkpt>
      <trkpt lat="43.09568" lon="6.21327">
        <ele>55</ele>
        <time>2015-09-04T16:01:53.000Z</time>
      </trkpt>
      <trkpt lat="43.0957" lon="6.21328">
        <ele>54</ele>
        <time>2015-09-04T16:01:54.000Z</time>
      </trkpt>
      <trkpt lat="43.09571" lon="6.21329">
        <ele>54</ele>
        <time>2015-09-04T16:01:55.000Z</time>
      </trkpt>
      <trkpt lat="43.09573" lon="6.2133">
        <ele>55</ele>
        <time>2015-09-04T16:01:56.000Z</time>
      </trkpt>
      <trkpt lat="43.09573" lon="6.21331">
        <ele>54</ele>
        <time>2015-09-04T16:01:57.000Z</time>
      </trkpt>
      <trkpt lat="43.09574" lon="6.21333">
        <ele>52</ele>
        <time>2015-09-04T16:01:58.000Z</time>
      </trkpt>
      <trkpt lat="43.09574" lon="6.21334">
        <ele>53</ele>
        <time>2015-09-04T16:01:59.000Z</time>
      </trkpt>
      <trkpt lat="43.09575" lon="6.21334">
        <ele>52</ele>
        <time>2015-09-04T16:02:00.000Z</time>
      </trkpt>
      <trkpt lat="43.09575" lon="6.21335">
        <ele>52</ele>
        <time>2015-09-04T16:02:01.000Z</time>
      </trkpt>
      <trkpt lat="43.09575" lon="6.21335">
        <ele>52</ele>
        <time>2015-09-04T16:02:02.000Z</time>
      </trkpt>
      <trkpt lat="43.09575" lon="6.21335">
        <ele>52</ele>
        <time>2015-09-04T16:02:03.000Z</time>
      </trkpt>
      <trkpt lat="43.09575" lon="6.21335">
        <ele>52</ele>
        <time>2015-09-04T16:02:04.000Z</time>
      </trkpt>
      <trkpt lat="43.09574" lon="6.21335">
        <ele>52</ele>
        <time>2015-09-04T16:02:05.000Z</time>
      </trkpt>
      <trkpt lat="43.09574" lon="6.21334">
        <ele>52</ele>
        <time>2015-09-04T16:02:06.000Z</time>
      </trkpt>
      <trkpt lat="43.09573" lon="6.21334">
        <ele>52</ele>
        <time>2015-09-04T16:02:07.000Z</time>
      </trkpt>
      <trkpt lat="43.09573" lon="6.21334">
        <ele>52</ele>
        <time>2015-09-04T16:02:08.000Z</time>
      </trkpt>
      <trkpt lat="43.09573" lon="6.21334">
        <ele>51</ele>
        <time>2015-09-04T16:02:09.000Z</time>
      </trkpt>
      <trkpt lat="43.09573" lon="6.21334">
        <ele>52</ele>
        <time>2015-09-04T16:02:10.000Z</time>
      </trkpt>
      <trkpt lat="43.09573" lon="6.21334">
        <ele>52</ele>
        <time>2015-09-04T16:02:11.000Z</time>
      </trkpt>
      <trkpt lat="43.09574" lon="6.21335">
        <ele>52</ele>
        <time>2015-09-04T16:02:12.000Z</time>
      </trkpt>
      <trkpt lat="43.09574" lon="6.21335">
        <ele>52</ele>
        <time>2015-09-04T16:02:13.000Z</time>
      </trkpt>
      <trkpt lat="43.09574" lon="6.21335">
        <ele>52</ele>
        <time>2015-09-04T16:02:14.000Z</time>
      </trkpt>
      <trkpt lat="43.09574" lon="6.21335">
        <ele>52</ele>
        <time>2015-09-04T16:02:15.000Z</time>
      </trkpt>
      <trkpt lat="43.09575" lon="6.21335">
        <ele>52</ele>
        <time>2015-09-04T16:02:16.000Z</time>
      </trkpt>
      <trkpt lat="43.09575" lon="6.21335">
        <ele>52</ele>
        <time>2015-09-04T16:02:17.000Z</time>
      </trkpt>
      <trkpt lat="43.09575" lon="6.21335">
        <ele>52</ele>
        <time>2015-09-04T16:02:18.000Z</time>
      </trkpt>
      <trkpt lat="43.09575" lon="6.21335">
        <ele>52</ele>
        <time>2015-09-04T16:02:19.000Z</time>
      </trkpt>
      <trkpt lat="43.09575" lon="6.21335">
        <ele>52</ele>
        <time>2015-09-04T16:02:20.000Z</time>
      </trkpt>
      <trkpt lat="43.09575" lon="6.21335">
        <ele>52</ele>
        <time>2015-09-04T16:02:21.000Z</time>
      </trkpt>
      <trkpt lat="43.09575" lon="6.21335">
        <ele>52</ele>
        <time>2015-09-04T16:02:22.000Z</time>
      </trkpt>
      <trkpt lat="43.09575" lon="6.21335">
        <ele>52</ele>
        <time>2015-09-04T16:02:23.000Z</time>
      </trkpt>
      <trkpt lat="43.09575" lon="6.21335">
        <ele>52</ele>
        <time>2015-09-04T16:02:24.000Z</time>
      </trkpt>
      <trkpt lat="43.09575" lon="6.21335">
        <ele>52</ele>
        <time>2015-09-04T16:02:25.000Z</time>
      </trkpt>
      <trkpt lat="43.09575" lon="6.21335">
        <ele>52</ele>
        <time>2015-09-04T16:02:26.000Z</time>
      </trkpt>
      <trkpt lat="43.09575" lon="6.21335">
        <ele>52</ele>
        <time>2015-09-04T16:02:27.000Z</time>
      </trkpt>
      <trkpt lat="43.09575" lon="6.21335">
        <ele>52</ele>
        <time>2015-09-04T16:02:28.000Z</time>
      </trkpt>
      <trkpt lat="43.09575" lon="6.21335">
        <ele>52</ele>
        <time>2015-09-04T16:02:29.000Z</time>
      </trkpt>
      <trkpt lat="43.09575" lon="6.21335">
        <ele>52</ele>
        <time>2015-09-04T16:02:30.000Z</time>
      </trkpt>
      <trkpt lat="43.09575" lon="6.21335">
        <ele>52</ele>
        <time>2015-09-04T16:02:31.000Z</time>
      </trkpt>
      <trkpt lat="43.09575" lon="6.21335">
        <ele>52</ele>
        <time>2015-09-04T16:02:32.000Z</time>
      </trkpt>
      <trkpt lat="43.09575" lon="6.21335">
        <ele>52</ele>
        <time>2015-09-04T16:02:33.000Z</time>
      </trkpt>
      <trkpt lat="43.09575" lon="6.21335">
        <ele>52</ele>
        <time>2015-09-04T16:02:34.000Z</time>
      </trkpt>
      <trkpt lat="43.09575" lon="6.21335">
        <ele>52</ele>
        <time>2015-09-04T16:02:35.000Z</time>
      </trkpt>
      <trkpt lat="43.09575" lon="6.21335">
        <ele>52</ele>
        <time>2015-09-04T16:02:36.000Z</time>
      </trkpt>
      <trkpt lat="43.09575" lon="6.21335">
        <ele>52</ele>
        <time>2015-09-04T16:02:37.000Z</time>
      </trkpt>
      <trkpt lat="43.09575" lon="6.21335">
        <ele>52</ele>
        <time>2015-09-04T16:02:38.000Z</time>
      </trkpt>
      <trkpt lat="43.09575" lon="6.21335">
        <ele>52</ele>
        <time>2015-09-04T16:02:39.000Z</time>
      </trkpt>
      <trkpt lat="43.09575" lon="6.21335">
        <ele>52</ele>
        <time>2015-09-04T16:02:40.000Z</time>
      </trkpt>
      <trkpt lat="43.09575" lon="6.21335">
        <ele>52</ele>
        <time>2015-09-04T16:02:41.000Z</time>
      </trkpt>
      <trkpt lat="43.09575" lon="6.21335">
        <ele>52</ele>
        <time>2015-09-04T16:02:42.000Z</time>
      </trkpt>
      <trkpt lat="43.09575" lon="6.21335">
        <ele>52</ele>
        <time>2015-09-04T16:02:43.000Z</time>
      </trkpt>
      <trkpt lat="43.09575" lon="6.21335">
        <ele>52</ele>
        <time>2015-09-04T16:02:44.000Z</time>
      </trkpt>
      <trkpt lat="43.09575" lon="6.21335">
        <ele>52</ele>
        <time>2015-09-04T16:02:45.000Z</time>
      </trkpt>
      <trkpt lat="43.09575" lon="6.21335">
        <ele>52</ele>
        <time>2015-09-04T16:02:46.000Z</time>
      </trkpt>
      <trkpt lat="43.09575" lon="6.21335">
        <ele>52</ele>
        <time>2015-09-04T16:02:47.000Z</time>
      </trkpt>
      <trkpt lat="43.09576" lon="6.21336">
        <ele>53</ele>
        <time>2015-09-04T16:02:48.000Z</time>
      </trkpt>
      <trkpt lat="43.09577" lon="6.21337">
        <ele>54</ele>
        <time>2015-09-04T16:02:49.000Z</time>
      </trkpt>
      <trkpt lat="43.09577" lon="6.21338">
        <ele>54</ele>
        <time>2015-09-04T16:02:50.000Z</time>
      </trkpt>
      <trkpt lat="43.09578" lon="6.21338">
        <ele>53</ele>
        <time>2015-09-04T16:02:51.000Z</time>
      </trkpt>
      <trkpt lat="43.09578" lon="6.21339">
        <ele>53</ele>
        <time>2015-09-04T16:02:52.000Z</time>
      </trkpt>
      <trkpt lat="43.09578" lon="6.2134">
        <ele>53</ele>
        <time>2015-09-04T16:02:53.000Z</time>
      </trkpt>
      <trkpt lat="43.09578" lon="6.21342">
        <ele>53</ele>
        <time>2015-09-04T16:02:54.000Z</time>
      </trkpt>
      <trkpt lat="43.09578" lon="6.21344">
        <ele>53</ele>
        <time>2015-09-04T16:02:55.000Z</time>
      </trkpt>
      <trkpt lat="43.09578" lon="6.21345">
        <ele>53</ele>
        <time>2015-09-04T16:02:56.000Z</time>
      </trkpt>
      <trkpt lat="43.09578" lon="6.21347">
        <ele>54</ele>
        <time>2015-09-04T16:02:57.000Z</time>
      </trkpt>
      <trkpt lat="43.09578" lon="6.21348">
        <ele>53</ele>
        <time>2015-09-04T16:02:58.000Z</time>
      </trkpt>
      <trkpt lat="43.09579" lon="6.21349">
        <ele>53</ele>
        <time>2015-09-04T16:02:59.000Z</time>
      </trkpt>
      <trkpt lat="43.0958" lon="6.2135">
        <ele>54</ele>
        <time>2015-09-04T16:03:00.000Z</time>
      </trkpt>
      <trkpt lat="43.09581" lon="6.21351">
        <ele>53</ele>
        <time>2015-09-04T16:03:01.000Z</time>
      </trkpt>
      <trkpt lat="43.09582" lon="6.21352">
        <ele>54</ele>
        <time>2015-09-04T16:03:02.000Z</time>
      </trkpt>
      <trkpt lat="43.09582" lon="6.21353">
        <ele>54</ele>
        <time>2015-09-04T16:03:03.000Z</time>
      </trkpt>
      <trkpt lat="43.09583" lon="6.21355">
        <ele>54</ele>
        <time>2015-09-04T16:03:04.000Z</time>
      </trkpt>
      <trkpt lat="43.09583" lon="6.21356">
        <ele>53</ele>
        <time>2015-09-04T16:03:05.000Z</time>
      </trkpt>
      <trkpt lat="43.09583" lon="6.21357">
        <ele>52</ele>
        <time>2015-09-04T16:03:06.000Z</time>
      </trkpt>
      <trkpt lat="43.09584" lon="6.21358">
        <ele>51</ele>
        <time>2015-09-04T16:03:07.000Z</time>
      </trkpt>
      <trkpt lat="43.09584" lon="6.21359">
        <ele>52</ele>
        <time>2015-09-04T16:03:08.000Z</time>
      </trkpt>
      <trkpt lat="43.09584" lon="6.21359">
        <ele>52</ele>
        <time>2015-09-04T16:03:09.000Z</time>
      </trkpt>
      <trkpt lat="43.09585" lon="6.21359">
        <ele>53</ele>
        <time>2015-09-04T16:03:10.000Z</time>
      </trkpt>
      <trkpt lat="43.09585" lon="6.21359">
        <ele>53</ele>
        <time>2015-09-04T16:03:11.000Z</time>
      </trkpt>
      <trkpt lat="43.09585" lon="6.21359">
        <ele>53</ele>
        <time>2015-09-04T16:03:12.000Z</time>
      </trkpt>
      <trkpt lat="43.09585" lon="6.21359">
        <ele>53</ele>
        <time>2015-09-04T16:03:13.000Z</time>
      </trkpt>
      <trkpt lat="43.09585" lon="6.21359">
        <ele>53</ele>
        <time>2015-09-04T16:03:14.000Z</time>
      </trkpt>
      <trkpt lat="43.09586" lon="6.2136">
        <ele>53</ele>
        <time>2015-09-04T16:03:15.000Z</time>
      </trkpt>
      <trkpt lat="43.09586" lon="6.2136">
        <ele>52</ele>
        <time>2015-09-04T16:03:16.000Z</time>
      </trkpt>
      <trkpt lat="43.09586" lon="6.21361">
        <ele>53</ele>
        <time>2015-09-04T16:03:17.000Z</time>
      </trkpt>
      <trkpt lat="43.09585" lon="6.21361">
        <ele>53</ele>
        <time>2015-09-04T16:03:18.000Z</time>
      </trkpt>
      <trkpt lat="43.09585" lon="6.21361">
        <ele>53</ele>
        <time>2015-09-04T16:03:19.000Z</time>
      </trkpt>
      <trkpt lat="43.09585" lon="6.21361">
        <ele>52</ele>
        <time>2015-09-04T16:03:20.000Z</time>
      </trkpt>
      <trkpt lat="43.09585" lon="6.21361">
        <ele>52</ele>
        <time>2015-09-04T16:03:21.000Z</time>
      </trkpt>
      <trkpt lat="43.09585" lon="6.21361">
        <ele>52</ele>
        <time>2015-09-04T16:03:22.000Z</time>
      </trkpt>
      <trkpt lat="43.09585" lon="6.21361">
        <ele>52</ele>
        <time>2015-09-04T16:03:23.000Z</time>
      </trkpt>
      <trkpt lat="43.09585" lon="6.21361">
        <ele>52</ele>
        <time>2015-09-04T16:03:24.000Z</time>
      </trkpt>
      <trkpt lat="43.09585" lon="6.21361">
        <ele>52</ele>
        <time>2015-09-04T16:03:25.000Z</time>
      </trkpt>
      <trkpt lat="43.09585" lon="6.21361">
        <ele>52</ele>
        <time>2015-09-04T16:03:26.000Z</time>
      </trkpt>
      <trkpt lat="43.09585" lon="6.21361">
        <ele>52</ele>
        <time>2015-09-04T16:03:27.000Z</time>
      </trkpt>
      <trkpt lat="43.09585" lon="6.21361">
        <ele>52</ele>
        <time>2015-09-04T16:03:28.000Z</time>
      </trkpt>
      <trkpt lat="43.09585" lon="6.21361">
        <ele>52</ele>
        <time>2015-09-04T16:03:29.000Z</time>
      </trkpt>
      <trkpt lat="43.09585" lon="6.21361">
        <ele>52</ele>
        <time>2015-09-04T16:03:30.000Z</time>
      </trkpt>
      <trkpt lat="43.09585" lon="6.21361">
        <ele>52</ele>
        <time>2015-09-04T16:03:31.000Z</time>
      </trkpt>
      <trkpt lat="43.09585" lon="6.21361">
        <ele>52</ele>
        <time>2015-09-04T16:03:32.000Z</time>
      </trkpt>
      <trkpt lat="43.09585" lon="6.21361">
        <ele>52</ele>
        <time>2015-09-04T16:03:33.000Z</time>
      </trkpt>
      <trkpt lat="43.09585" lon="6.21361">
        <ele>52</ele>
        <time>2015-09-04T16:03:34.000Z</time>
      </trkpt>
      <trkpt lat="43.09585" lon="6.21361">
        <ele>52</ele>
        <time>2015-09-04T16:03:35.000Z</time>
      </trkpt>
      <trkpt lat="43.09585" lon="6.21361">
        <ele>52</ele>
        <time>2015-09-04T16:03:36.000Z</time>
      </trkpt>
      <trkpt lat="43.09585" lon="6.21361">
        <ele>52</ele>
        <time>2015-09-04T16:03:37.000Z</time>
      </trkpt>
      <trkpt lat="43.09585" lon="6.21361">
        <ele>52</ele>
        <time>2015-09-04T16:03:38.000Z</time>
      </trkpt>
      <trkpt lat="43.09585" lon="6.21361">
        <ele>52</ele>
        <time>2015-09-04T16:03:39.000Z</time>
      </trkpt>
      <trkpt lat="43.09585" lon="6.21361">
        <ele>52</ele>
        <time>2015-09-04T16:03:40.000Z</time>
      </trkpt>
      <trkpt lat="43.09585" lon="6.21361">
        <ele>52</ele>
        <time>2015-09-04T16:03:41.000Z</time>
      </trkpt>
      <trkpt lat="43.09585" lon="6.21361">
        <ele>52</ele>
        <time>2015-09-04T16:03:42.000Z</time>
      </trkpt>
      <trkpt lat="43.09585" lon="6.21361">
        <ele>52</ele>
        <time>2015-09-04T16:03:43.000Z</time>
      </trkpt>
      <trkpt lat="43.09585" lon="6.21361">
        <ele>52</ele>
        <time>2015-09-04T16:03:44.000Z</time>
      </trkpt>
      <trkpt lat="43.09585" lon="6.21362">
        <ele>52</ele>
        <time>2015-09-04T16:03:45.000Z</time>
      </trkpt>
      <trkpt lat="43.09584" lon="6.21362">
        <ele>51</ele>
        <time>2015-09-04T16:03:46.000Z</time>
      </trkpt>
      <trkpt lat="43.09584" lon="6.21363">
        <ele>50</ele>
        <time>2015-09-04T16:03:47.000Z</time>
      </trkpt>
      <trkpt lat="43.09584" lon="6.21363">
        <ele>50</ele>
        <time>2015-09-04T16:03:48.000Z</time>
      </trkpt>
      <trkpt lat="43.09584" lon="6.21364">
        <ele>50</ele>
        <time>2015-09-04T16:03:49.000Z</time>
      </trkpt>
      <trkpt lat="43.09584" lon="6.21364">
        <ele>50</ele>
        <time>2015-09-04T16:03:50.000Z</time>
      </trkpt>
      <trkpt lat="43.09584" lon="6.21364">
        <ele>50</ele>
        <time>2015-09-04T16:03:51.000Z</time>
      </trkpt>
      <trkpt lat="43.09584" lon="6.21364">
        <ele>50</ele>
        <time>2015-09-04T16:03:52.000Z</time>
      </trkpt>
      <trkpt lat="43.09584" lon="6.21365">
        <ele>49</ele>
        <time>2015-09-04T16:03:53.000Z</time>
      </trkpt>
      <trkpt lat="43.09584" lon="6.21365">
        <ele>50</ele>
        <time>2015-09-04T16:03:54.000Z</time>
      </trkpt>
      <trkpt lat="43.09584" lon="6.21366">
        <ele>52</ele>
        <time>2015-09-04T16:03:55.000Z</time>
      </trkpt>
      <trkpt lat="43.09584" lon="6.21367">
        <ele>51</ele>
        <time>2015-09-04T16:03:56.000Z</time>
      </trkpt>
      <trkpt lat="43.09584" lon="6.21368">
        <ele>52</ele>
        <time>2015-09-04T16:03:57.000Z</time>
      </trkpt>
      <trkpt lat="43.09584" lon="6.2137">
        <ele>52</ele>
        <time>2015-09-04T16:03:58.000Z</time>
      </trkpt>
      <trkpt lat="43.09585" lon="6.2137">
        <ele>50</ele>
        <time>2015-09-04T16:03:59.000Z</time>
      </trkpt>
      <trkpt lat="43.09586" lon="6.2137">
        <ele>51</ele>
        <time>2015-09-04T16:04:00.000Z</time>
      </trkpt>
      <trkpt lat="43.09586" lon="6.21369">
        <ele>51</ele>
        <time>2015-09-04T16:04:01.000Z</time>
      </trkpt>
      <trkpt lat="43.09586" lon="6.21369">
        <ele>51</ele>
        <time>2015-09-04T16:04:02.000Z</time>
      </trkpt>
      <trkpt lat="43.09586" lon="6.21369">
        <ele>50</ele>
        <time>2015-09-04T16:04:03.000Z</time>
      </trkpt>
      <trkpt lat="43.09586" lon="6.21369">
        <ele>50</ele>
        <time>2015-09-04T16:04:04.000Z</time>
      </trkpt>
      <trkpt lat="43.09586" lon="6.21369">
        <ele>50</ele>
        <time>2015-09-04T16:04:05.000Z</time>
      </trkpt>
      <trkpt lat="43.09586" lon="6.2137">
        <ele>50</ele>
        <time>2015-09-04T16:04:06.000Z</time>
      </trkpt>
      <trkpt lat="43.09586" lon="6.2137">
        <ele>50</ele>
        <time>2015-09-04T16:04:07.000Z</time>
      </trkpt>
      <trkpt lat="43.09586" lon="6.2137">
        <ele>50</ele>
        <time>2015-09-04T16:04:08.000Z</time>
      </trkpt>
      <trkpt lat="43.09587" lon="6.2137">
        <ele>49</ele>
        <time>2015-09-04T16:04:09.000Z</time>
      </trkpt>
      <trkpt lat="43.09587" lon="6.2137">
        <ele>50</ele>
        <time>2015-09-04T16:04:10.000Z</time>
      </trkpt>
      <trkpt lat="43.09587" lon="6.2137">
        <ele>50</ele>
        <time>2015-09-04T16:04:11.000Z</time>
      </trkpt>
      <trkpt lat="43.09587" lon="6.21371">
        <ele>50</ele>
        <time>2015-09-04T16:04:12.000Z</time>
      </trkpt>
      <trkpt lat="43.09587" lon="6.21371">
        <ele>50</ele>
        <time>2015-09-04T16:04:13.000Z</time>
      </trkpt>
      <trkpt lat="43.09587" lon="6.21371">
        <ele>50</ele>
        <time>2015-09-04T16:04:14.000Z</time>
      </trkpt>
      <trkpt lat="43.09587" lon="6.21372">
        <ele>50</ele>
        <time>2015-09-04T16:04:15.000Z</time>
      </trkpt>
      <trkpt lat="43.09587" lon="6.21372">
        <ele>50</ele>
        <time>2015-09-04T16:04:16.000Z</time>
      </trkpt>
      <trkpt lat="43.09587" lon="6.21372">
        <ele>50</ele>
        <time>2015-09-04T16:04:17.000Z</time>
      </trkpt>
      <trkpt lat="43.09587" lon="6.21372">
        <ele>50</ele>
        <time>2015-09-04T16:04:18.000Z</time>
      </trkpt>
      <trkpt lat="43.09587" lon="6.21372">
        <ele>50</ele>
        <time>2015-09-04T16:04:19.000Z</time>
      </trkpt>
      <trkpt lat="43.09587" lon="6.21372">
        <ele>50</ele>
        <time>2015-09-04T16:04:20.000Z</time>
      </trkpt>
      <trkpt lat="43.09587" lon="6.21372">
        <ele>50</ele>
        <time>2015-09-04T16:04:21.000Z</time>
      </trkpt>
      <trkpt lat="43.09587" lon="6.21372">
        <ele>50</ele>
        <time>2015-09-04T16:04:22.000Z</time>
      </trkpt>
      <trkpt lat="43.09587" lon="6.21372">
        <ele>50</ele>
        <time>2015-09-04T16:04:23.000Z</time>
      </trkpt>
      <trkpt lat="43.09587" lon="6.21372">
        <ele>50</ele>
        <time>2015-09-04T16:04:24.000Z</time>
      </trkpt>
      <trkpt lat="43.09587" lon="6.21372">
        <ele>50</ele>
        <time>2015-09-04T16:04:25.000Z</time>
      </trkpt>
      <trkpt lat="43.09587" lon="6.21372">
        <ele>50</ele>
        <time>2015-09-04T16:04:26.000Z</time>
      </trkpt>
      <trkpt lat="43.09587" lon="6.21372">
        <ele>50</ele>
        <time>2015-09-04T16:04:27.000Z</time>
      </trkpt>
      <trkpt lat="43.09587" lon="6.21372">
        <ele>50</ele>
        <time>2015-09-04T16:04:28.000Z</time>
      </trkpt>
      <trkpt lat="43.09587" lon="6.21372">
        <ele>50</ele>
        <time>2015-09-04T16:04:29.000Z</time>
      </trkpt>
      <trkpt lat="43.09587" lon="6.21372">
        <ele>50</ele>
        <time>2015-09-04T16:04:30.000Z</time>
      </trkpt>
      <trkpt lat="43.09587" lon="6.21372">
        <ele>50</ele>
        <time>2015-09-04T16:04:31.000Z</time>
      </trkpt>
      <trkpt lat="43.09587" lon="6.21372">
        <ele>50</ele>
        <time>2015-09-04T16:04:32.000Z</time>
      </trkpt>
      <trkpt lat="43.09587" lon="6.21372">
        <ele>50</ele>
        <time>2015-09-04T16:04:33.000Z</time>
      </trkpt>
      <trkpt lat="43.09587" lon="6.21372">
        <ele>50</ele>
        <time>2015-09-04T16:04:34.000Z</time>
      </trkpt>
      <trkpt lat="43.09587" lon="6.21372">
        <ele>50</ele>
        <time>2015-09-04T16:04:35.000Z</time>
      </trkpt>
      <trkpt lat="43.09587" lon="6.21373">
        <ele>51</ele>
        <time>2015-09-04T16:04:36.000Z</time>
      </trkpt>
      <trkpt lat="43.09587" lon="6.21375">
        <ele>51</ele>
        <time>2015-09-04T16:04:37.000Z</time>
      </trkpt>
      <trkpt lat="43.09588" lon="6.21376">
        <ele>51</ele>
        <time>2015-09-04T16:04:38.000Z</time>
      </trkpt>
      <trkpt lat="43.09587" lon="6.2138">
        <ele>52</ele>
        <time>2015-09-04T16:04:39.000Z</time>
      </trkpt>
      <trkpt lat="43.09588" lon="6.21382">
        <ele>51</ele>
        <time>2015-09-04T16:04:40.000Z</time>
      </trkpt>
      <trkpt lat="43.09588" lon="6.21382">
        <ele>51</ele>
        <time>2015-09-04T16:04:41.000Z</time>
      </trkpt>
      <trkpt lat="43.09589" lon="6.21383">
        <ele>51</ele>
        <time>2015-09-04T16:04:42.000Z</time>
      </trkpt>
      <trkpt lat="43.0959" lon="6.21383">
        <ele>51</ele>
        <time>2015-09-04T16:04:43.000Z</time>
      </trkpt>
      <trkpt lat="43.09592" lon="6.21385">
        <ele>52</ele>
        <time>2015-09-04T16:04:44.000Z</time>
      </trkpt>
      <trkpt lat="43.09595" lon="6.21386">
        <ele>52</ele>
        <time>2015-09-04T16:04:45.000Z</time>
      </trkpt>
      <trkpt lat="43.09598" lon="6.21387">
        <ele>51</ele>
        <time>2015-09-04T16:04:46.000Z</time>
      </trkpt>
      <trkpt lat="43.09603" lon="6.21388">
        <ele>51</ele>
        <time>2015-09-04T16:04:47.000Z</time>
      </trkpt>
      <trkpt lat="43.09608" lon="6.2139">
        <ele>50</ele>
        <time>2015-09-04T16:04:48.000Z</time>
      </trkpt>
      <trkpt lat="43.09613" lon="6.21392">
        <ele>49</ele>
        <time>2015-09-04T16:04:49.000Z</time>
      </trkpt>
      <trkpt lat="43.09618" lon="6.21393">
        <ele>49</ele>
        <time>2015-09-04T16:04:50.000Z</time>
      </trkpt>
      <trkpt lat="43.09622" lon="6.21396">
        <ele>50</ele>
        <time>2015-09-04T16:04:51.000Z</time>
      </trkpt>
      <trkpt lat="43.0963" lon="6.21398">
        <ele>49</ele>
        <time>2015-09-04T16:04:52.000Z</time>
      </trkpt>
      <trkpt lat="43.09636" lon="6.214">
        <ele>49</ele>
        <time>2015-09-04T16:04:53.000Z</time>
      </trkpt>
      <trkpt lat="43.09641" lon="6.21401">
        <ele>49</ele>
        <time>2015-09-04T16:04:54.000Z</time>
      </trkpt>
      <trkpt lat="43.09644" lon="6.21405">
        <ele>49</ele>
        <time>2015-09-04T16:04:55.000Z</time>
      </trkpt>
      <trkpt lat="43.09649" lon="6.21405">
        <ele>48</ele>
        <time>2015-09-04T16:04:56.000Z</time>
      </trkpt>
      <trkpt lat="43.09654" lon="6.21408">
        <ele>48</ele>
        <time>2015-09-04T16:04:57.000Z</time>
      </trkpt>
      <trkpt lat="43.0966" lon="6.2141">
        <ele>48</ele>
        <time>2015-09-04T16:04:58.000Z</time>
      </trkpt>
      <trkpt lat="43.09666" lon="6.21412">
        <ele>48</ele>
        <time>2015-09-04T16:04:59.000Z</time>
      </trkpt>
      <trkpt lat="43.09674" lon="6.21414">
        <ele>50</ele>
        <time>2015-09-04T16:05:00.000Z</time>
      </trkpt>
      <trkpt lat="43.0968" lon="6.21417">
        <ele>49</ele>
        <time>2015-09-04T16:05:01.000Z</time>
      </trkpt>
      <trkpt lat="43.09688" lon="6.21418">
        <ele>49</ele>
        <time>2015-09-04T16:05:02.000Z</time>
      </trkpt>
      <trkpt lat="43.09694" lon="6.21421">
        <ele>50</ele>
        <time>2015-09-04T16:05:03.000Z</time>
      </trkpt>
      <trkpt lat="43.09701" lon="6.21424">
        <ele>49</ele>
        <time>2015-09-04T16:05:04.000Z</time>
      </trkpt>
      <trkpt lat="43.09709" lon="6.21423">
        <ele>49</ele>
        <time>2015-09-04T16:05:05.000Z</time>
      </trkpt>
      <trkpt lat="43.09716" lon="6.21427">
        <ele>49</ele>
        <time>2015-09-04T16:05:06.000Z</time>
      </trkpt>
      <trkpt lat="43.09723" lon="6.21431">
        <ele>49</ele>
        <time>2015-09-04T16:05:07.000Z</time>
      </trkpt>
      <trkpt lat="43.09731" lon="6.21435">
        <ele>49</ele>
        <time>2015-09-04T16:05:08.000Z</time>
      </trkpt>
      <trkpt lat="43.09738" lon="6.2144">
        <ele>49</ele>
        <time>2015-09-04T16:05:09.000Z</time>
      </trkpt>
      <trkpt lat="43.09746" lon="6.21445">
        <ele>49</ele>
        <time>2015-09-04T16:05:10.000Z</time>
      </trkpt>
      <trkpt lat="43.09753" lon="6.21448">
        <ele>49</ele>
        <time>2015-09-04T16:05:11.000Z</time>
      </trkpt>
      <trkpt lat="43.0976" lon="6.21452">
        <ele>50</ele>
        <time>2015-09-04T16:05:12.000Z</time>
      </trkpt>
      <trkpt lat="43.09767" lon="6.21454">
        <ele>50</ele>
        <time>2015-09-04T16:05:13.000Z</time>
      </trkpt>
      <trkpt lat="43.09775" lon="6.21457">
        <ele>49</ele>
        <time>2015-09-04T16:05:14.000Z</time>
      </trkpt>
      <trkpt lat="43.09783" lon="6.2146">
        <ele>48</ele>
        <time>2015-09-04T16:05:15.000Z</time>
      </trkpt>
      <trkpt lat="43.09791" lon="6.21464">
        <ele>48</ele>
        <time>2015-09-04T16:05:16.000Z</time>
      </trkpt>
      <trkpt lat="43.09799" lon="6.21467">
        <ele>48</ele>
        <time>2015-09-04T16:05:17.000Z</time>
      </trkpt>
      <trkpt lat="43.09806" lon="6.2147">
        <ele>47</ele>
        <time>2015-09-04T16:05:18.000Z</time>
      </trkpt>
      <trkpt lat="43.09814" lon="6.21474">
        <ele>47</ele>
        <time>2015-09-04T16:05:19.000Z</time>
      </trkpt>
      <trkpt lat="43.09821" lon="6.21478">
        <ele>47</ele>
        <time>2015-09-04T16:05:20.000Z</time>
      </trkpt>
      <trkpt lat="43.09829" lon="6.21482">
        <ele>47</ele>
        <time>2015-09-04T16:05:21.000Z</time>
      </trkpt>
      <trkpt lat="43.09835" lon="6.21485">
        <ele>46</ele>
        <time>2015-09-04T16:05:22.000Z</time>
      </trkpt>
      <trkpt lat="43.09844" lon="6.21487">
        <ele>46</ele>
        <time>2015-09-04T16:05:23.000Z</time>
      </trkpt>
      <trkpt lat="43.0985" lon="6.2149">
        <ele>45</ele>
        <time>2015-09-04T16:05:24.000Z</time>
      </trkpt>
      <trkpt lat="43.09858" lon="6.21494">
        <ele>45</ele>
        <time>2015-09-04T16:05:25.000Z</time>
      </trkpt>
      <trkpt lat="43.09864" lon="6.21497">
        <ele>44</ele>
        <time>2015-09-04T16:05:26.000Z</time>
      </trkpt>
      <trkpt lat="43.09872" lon="6.21502">
        <ele>44</ele>
        <time>2015-09-04T16:05:27.000Z</time>
      </trkpt>
      <trkpt lat="43.0988" lon="6.21506">
        <ele>44</ele>
        <time>2015-09-04T16:05:28.000Z</time>
      </trkpt>
      <trkpt lat="43.09887" lon="6.21511">
        <ele>45</ele>
        <time>2015-09-04T16:05:29.000Z</time>
      </trkpt>
      <trkpt lat="43.09894" lon="6.21515">
        <ele>45</ele>
        <time>2015-09-04T16:05:30.000Z</time>
      </trkpt>
      <trkpt lat="43.09901" lon="6.21519">
        <ele>45</ele>
        <time>2015-09-04T16:05:31.000Z</time>
      </trkpt>
      <trkpt lat="43.09909" lon="6.21523">
        <ele>46</ele>
        <time>2015-09-04T16:05:32.000Z</time>
      </trkpt>
      <trkpt lat="43.09917" lon="6.21526">
        <ele>46</ele>
        <time>2015-09-04T16:05:33.000Z</time>
      </trkpt>
      <trkpt lat="43.09926" lon="6.21529">
        <ele>47</ele>
        <time>2015-09-04T16:05:34.000Z</time>
      </trkpt>
      <trkpt lat="43.09935" lon="6.21533">
        <ele>48</ele>
        <time>2015-09-04T16:05:35.000Z</time>
      </trkpt>
      <trkpt lat="43.09943" lon="6.21537">
        <ele>48</ele>
        <time>2015-09-04T16:05:36.000Z</time>
      </trkpt>
      <trkpt lat="43.09952" lon="6.2154">
        <ele>48</ele>
        <time>2015-09-04T16:05:37.000Z</time>
      </trkpt>
      <trkpt lat="43.0996" lon="6.21544">
        <ele>47</ele>
        <time>2015-09-04T16:05:38.000Z</time>
      </trkpt>
      <trkpt lat="43.09968" lon="6.21548">
        <ele>48</ele>
        <time>2015-09-04T16:05:39.000Z</time>
      </trkpt>
      <trkpt lat="43.09976" lon="6.21552">
        <ele>48</ele>
        <time>2015-09-04T16:05:40.000Z</time>
      </trkpt>
      <trkpt lat="43.09984" lon="6.21556">
        <ele>49</ele>
        <time>2015-09-04T16:05:41.000Z</time>
      </trkpt>
      <trkpt lat="43.09992" lon="6.2156">
        <ele>49</ele>
        <time>2015-09-04T16:05:42.000Z</time>
      </trkpt>
      <trkpt lat="43.09999" lon="6.21564">
        <ele>49</ele>
        <time>2015-09-04T16:05:43.000Z</time>
      </trkpt>
      <trkpt lat="43.10006" lon="6.21568">
        <ele>49</ele>
        <time>2015-09-04T16:05:44.000Z</time>
      </trkpt>
      <trkpt lat="43.10014" lon="6.21572">
        <ele>49</ele>
        <time>2015-09-04T16:05:45.000Z</time>
      </trkpt>
      <trkpt lat="43.10021" lon="6.21575">
        <ele>49</ele>
        <time>2015-09-04T16:05:46.000Z</time>
      </trkpt>
      <trkpt lat="43.10029" lon="6.21578">
        <ele>49</ele>
        <time>2015-09-04T16:05:47.000Z</time>
      </trkpt>
      <trkpt lat="43.10037" lon="6.21581">
        <ele>48</ele>
        <time>2015-09-04T16:05:48.000Z</time>
      </trkpt>
      <trkpt lat="43.10045" lon="6.21585">
        <ele>47</ele>
        <time>2015-09-04T16:05:49.000Z</time>
      </trkpt>
      <trkpt lat="43.10052" lon="6.21589">
        <ele>48</ele>
        <time>2015-09-04T16:05:50.000Z</time>
      </trkpt>
      <trkpt lat="43.1006" lon="6.21593">
        <ele>48</ele>
        <time>2015-09-04T16:05:51.000Z</time>
      </trkpt>
      <trkpt lat="43.10068" lon="6.21596">
        <ele>48</ele>
        <time>2015-09-04T16:05:52.000Z</time>
      </trkpt>
      <trkpt lat="43.10075" lon="6.216">
        <ele>48</ele>
        <time>2015-09-04T16:05:53.000Z</time>
      </trkpt>
      <trkpt lat="43.10083" lon="6.21603">
        <ele>48</ele>
        <time>2015-09-04T16:05:54.000Z</time>
      </trkpt>
      <trkpt lat="43.1009" lon="6.21604">
        <ele>46</ele>
        <time>2015-09-04T16:05:55.000Z</time>
      </trkpt>
      <trkpt lat="43.10098" lon="6.21606">
        <ele>47</ele>
        <time>2015-09-04T16:05:56.000Z</time>
      </trkpt>
      <trkpt lat="43.10106" lon="6.21608">
        <ele>47</ele>
        <time>2015-09-04T16:05:57.000Z</time>
      </trkpt>
      <trkpt lat="43.10113" lon="6.21609">
        <ele>47</ele>
        <time>2015-09-04T16:05:58.000Z</time>
      </trkpt>
      <trkpt lat="43.10121" lon="6.2161">
        <ele>47</ele>
        <time>2015-09-04T16:05:59.000Z</time>
      </trkpt>
      <trkpt lat="43.10128" lon="6.21609">
        <ele>48</ele>
        <time>2015-09-04T16:06:00.000Z</time>
      </trkpt>
      <trkpt lat="43.10135" lon="6.21606">
        <ele>47</ele>
        <time>2015-09-04T16:06:01.000Z</time>
      </trkpt>
      <trkpt lat="43.10144" lon="6.21603">
        <ele>46</ele>
        <time>2015-09-04T16:06:02.000Z</time>
      </trkpt>
      <trkpt lat="43.10151" lon="6.21599">
        <ele>46</ele>
        <time>2015-09-04T16:06:03.000Z</time>
      </trkpt>
      <trkpt lat="43.10158" lon="6.21595">
        <ele>48</ele>
        <time>2015-09-04T16:06:04.000Z</time>
      </trkpt>
      <trkpt lat="43.10164" lon="6.21591">
        <ele>49</ele>
        <time>2015-09-04T16:06:05.000Z</time>
      </trkpt>
      <trkpt lat="43.10171" lon="6.21587">
        <ele>50</ele>
        <time>2015-09-04T16:06:06.000Z</time>
      </trkpt>
      <trkpt lat="43.10178" lon="6.21582">
        <ele>50</ele>
        <time>2015-09-04T16:06:07.000Z</time>
      </trkpt>
      <trkpt lat="43.10185" lon="6.21577">
        <ele>50</ele>
        <time>2015-09-04T16:06:08.000Z</time>
      </trkpt>
      <trkpt lat="43.10193" lon="6.21572">
        <ele>51</ele>
        <time>2015-09-04T16:06:09.000Z</time>
      </trkpt>
      <trkpt lat="43.10201" lon="6.21566">
        <ele>51</ele>
        <time>2015-09-04T16:06:10.000Z</time>
      </trkpt>
      <trkpt lat="43.10207" lon="6.2156">
        <ele>49</ele>
        <time>2015-09-04T16:06:11.000Z</time>
      </trkpt>
      <trkpt lat="43.10212" lon="6.21553">
        <ele>49</ele>
        <time>2015-09-04T16:06:12.000Z</time>
      </trkpt>
      <trkpt lat="43.10219" lon="6.21547">
        <ele>50</ele>
        <time>2015-09-04T16:06:13.000Z</time>
      </trkpt>
      <trkpt lat="43.10225" lon="6.2154">
        <ele>49</ele>
        <time>2015-09-04T16:06:14.000Z</time>
      </trkpt>
      <trkpt lat="43.10231" lon="6.21532">
        <ele>49</ele>
        <time>2015-09-04T16:06:15.000Z</time>
      </trkpt>
      <trkpt lat="43.10236" lon="6.21525">
        <ele>48</ele>
        <time>2015-09-04T16:06:16.000Z</time>
      </trkpt>
      <trkpt lat="43.10242" lon="6.21518">
        <ele>49</ele>
        <time>2015-09-04T16:06:17.000Z</time>
      </trkpt>
      <trkpt lat="43.10248" lon="6.21511">
        <ele>50</ele>
        <time>2015-09-04T16:06:18.000Z</time>
      </trkpt>
      <trkpt lat="43.10253" lon="6.21504">
        <ele>50</ele>
        <time>2015-09-04T16:06:19.000Z</time>
      </trkpt>
      <trkpt lat="43.10258" lon="6.21497">
        <ele>50</ele>
        <time>2015-09-04T16:06:20.000Z</time>
      </trkpt>
      <trkpt lat="43.10263" lon="6.2149">
        <ele>49</ele>
        <time>2015-09-04T16:06:21.000Z</time>
      </trkpt>
      <trkpt lat="43.10268" lon="6.21483">
        <ele>49</ele>
        <time>2015-09-04T16:06:22.000Z</time>
      </trkpt>
      <trkpt lat="43.10275" lon="6.21476">
        <ele>49</ele>
        <time>2015-09-04T16:06:23.000Z</time>
      </trkpt>
      <trkpt lat="43.1028" lon="6.21469">
        <ele>49</ele>
        <time>2015-09-04T16:06:24.000Z</time>
      </trkpt>
      <trkpt lat="43.10284" lon="6.21463">
        <ele>47</ele>
        <time>2015-09-04T16:06:25.000Z</time>
      </trkpt>
      <trkpt lat="43.10289" lon="6.21456">
        <ele>48</ele>
        <time>2015-09-04T16:06:26.000Z</time>
      </trkpt>
      <trkpt lat="43.10294" lon="6.21448">
        <ele>46</ele>
        <time>2015-09-04T16:06:27.000Z</time>
      </trkpt>
      <trkpt lat="43.103" lon="6.21441">
        <ele>46</ele>
        <time>2015-09-04T16:06:28.000Z</time>
      </trkpt>
      <trkpt lat="43.10305" lon="6.21433">
        <ele>46</ele>
        <time>2015-09-04T16:06:29.000Z</time>
      </trkpt>
      <trkpt lat="43.10311" lon="6.21426">
        <ele>46</ele>
        <time>2015-09-04T16:06:30.000Z</time>
      </trkpt>
      <trkpt lat="43.10318" lon="6.21419">
        <ele>46</ele>
        <time>2015-09-04T16:06:31.000Z</time>
      </trkpt>
      <trkpt lat="43.10322" lon="6.21411">
        <ele>46</ele>
        <time>2015-09-04T16:06:32.000Z</time>
      </trkpt>
      <trkpt lat="43.10329" lon="6.21404">
        <ele>46</ele>
        <time>2015-09-04T16:06:33.000Z</time>
      </trkpt>
      <trkpt lat="43.10335" lon="6.21397">
        <ele>45</ele>
        <time>2015-09-04T16:06:34.000Z</time>
      </trkpt>
      <trkpt lat="43.1034" lon="6.21389">
        <ele>45</ele>
        <time>2015-09-04T16:06:35.000Z</time>
      </trkpt>
      <trkpt lat="43.10345" lon="6.21381">
        <ele>45</ele>
        <time>2015-09-04T16:06:36.000Z</time>
      </trkpt>
      <trkpt lat="43.10352" lon="6.21374">
        <ele>44</ele>
        <time>2015-09-04T16:06:37.000Z</time>
      </trkpt>
      <trkpt lat="43.10359" lon="6.21366">
        <ele>44</ele>
        <time>2015-09-04T16:06:38.000Z</time>
      </trkpt>
      <trkpt lat="43.10364" lon="6.21359">
        <ele>44</ele>
        <time>2015-09-04T16:06:39.000Z</time>
      </trkpt>
      <trkpt lat="43.1037" lon="6.21352">
        <ele>44</ele>
        <time>2015-09-04T16:06:40.000Z</time>
      </trkpt>
      <trkpt lat="43.10377" lon="6.21346">
        <ele>43</ele>
        <time>2015-09-04T16:06:41.000Z</time>
      </trkpt>
      <trkpt lat="43.10384" lon="6.21339">
        <ele>44</ele>
        <time>2015-09-04T16:06:42.000Z</time>
      </trkpt>
      <trkpt lat="43.10391" lon="6.21332">
        <ele>44</ele>
        <time>2015-09-04T16:06:43.000Z</time>
      </trkpt>
      <trkpt lat="43.104" lon="6.21326">
        <ele>45</ele>
        <time>2015-09-04T16:06:44.000Z</time>
      </trkpt>
      <trkpt lat="43.10406" lon="6.21319">
        <ele>45</ele>
        <time>2015-09-04T16:06:45.000Z</time>
      </trkpt>
      <trkpt lat="43.1041" lon="6.21312">
        <ele>44</ele>
        <time>2015-09-04T16:06:46.000Z</time>
      </trkpt>
      <trkpt lat="43.10416" lon="6.21304">
        <ele>44</ele>
        <time>2015-09-04T16:06:47.000Z</time>
      </trkpt>
      <trkpt lat="43.10425" lon="6.21297">
        <ele>44</ele>
        <time>2015-09-04T16:06:48.000Z</time>
      </trkpt>
      <trkpt lat="43.10432" lon="6.21291">
        <ele>44</ele>
        <time>2015-09-04T16:06:49.000Z</time>
      </trkpt>
      <trkpt lat="43.10439" lon="6.21284">
        <ele>44</ele>
        <time>2015-09-04T16:06:50.000Z</time>
      </trkpt>
      <trkpt lat="43.10446" lon="6.21278">
        <ele>44</ele>
        <time>2015-09-04T16:06:51.000Z</time>
      </trkpt>
      <trkpt lat="43.10451" lon="6.2127">
        <ele>45</ele>
        <time>2015-09-04T16:06:52.000Z</time>
      </trkpt>
      <trkpt lat="43.10456" lon="6.21263">
        <ele>45</ele>
        <time>2015-09-04T16:06:53.000Z</time>
      </trkpt>
      <trkpt lat="43.10463" lon="6.21256">
        <ele>45</ele>
        <time>2015-09-04T16:06:54.000Z</time>
      </trkpt>
      <trkpt lat="43.10468" lon="6.21249">
        <ele>44</ele>
        <time>2015-09-04T16:06:55.000Z</time>
      </trkpt>
      <trkpt lat="43.10476" lon="6.21242">
        <ele>45</ele>
        <time>2015-09-04T16:06:56.000Z</time>
      </trkpt>
      <trkpt lat="43.10483" lon="6.21236">
        <ele>45</ele>
        <time>2015-09-04T16:06:57.000Z</time>
      </trkpt>
      <trkpt lat="43.1049" lon="6.21231">
        <ele>45</ele>
        <time>2015-09-04T16:06:58.000Z</time>
      </trkpt>
      <trkpt lat="43.10497" lon="6.21225">
        <ele>46</ele>
        <time>2015-09-04T16:06:59.000Z</time>
      </trkpt>
      <trkpt lat="43.10504" lon="6.2122">
        <ele>47</ele>
        <time>2015-09-04T16:07:00.000Z</time>
      </trkpt>
      <trkpt lat="43.10511" lon="6.21213">
        <ele>46</ele>
        <time>2015-09-04T16:07:01.000Z</time>
      </trkpt>
      <trkpt lat="43.10518" lon="6.21208">
        <ele>46</ele>
        <time>2015-09-04T16:07:02.000Z</time>
      </trkpt>
      <trkpt lat="43.10526" lon="6.21203">
        <ele>46</ele>
        <time>2015-09-04T16:07:03.000Z</time>
      </trkpt>
      <trkpt lat="43.10533" lon="6.21196">
        <ele>47</ele>
        <time>2015-09-04T16:07:04.000Z</time>
      </trkpt>
      <trkpt lat="43.10539" lon="6.21189">
        <ele>47</ele>
        <time>2015-09-04T16:07:05.000Z</time>
      </trkpt>
      <trkpt lat="43.10546" lon="6.21182">
        <ele>47</ele>
        <time>2015-09-04T16:07:06.000Z</time>
      </trkpt>
      <trkpt lat="43.10553" lon="6.21176">
        <ele>47</ele>
        <time>2015-09-04T16:07:07.000Z</time>
      </trkpt>
      <trkpt lat="43.1056" lon="6.2117">
        <ele>47</ele>
        <time>2015-09-04T16:07:08.000Z</time>
      </trkpt>
      <trkpt lat="43.10569" lon="6.21165">
        <ele>47</ele>
        <time>2015-09-04T16:07:09.000Z</time>
      </trkpt>
      <trkpt lat="43.1057" lon="6.21161">
        <ele>47</ele>
        <time>2015-09-04T16:07:10.000Z</time>
      </trkpt>
      <trkpt lat="43.10576" lon="6.21157">
        <ele>48</ele>
        <time>2015-09-04T16:07:11.000Z</time>
      </trkpt>
      <trkpt lat="43.10583" lon="6.21151">
        <ele>49</ele>
        <time>2015-09-04T16:07:12.000Z</time>
      </trkpt>
      <trkpt lat="43.10588" lon="6.21146">
        <ele>49</ele>
        <time>2015-09-04T16:07:13.000Z</time>
      </trkpt>
      <trkpt lat="43.10596" lon="6.21142">
        <ele>49</ele>
        <time>2015-09-04T16:07:14.000Z</time>
      </trkpt>
      <trkpt lat="43.10602" lon="6.21139">
        <ele>49</ele>
        <time>2015-09-04T16:07:15.000Z</time>
      </trkpt>
      <trkpt lat="43.10609" lon="6.21135">
        <ele>49</ele>
        <time>2015-09-04T16:07:16.000Z</time>
      </trkpt>
      <trkpt lat="43.10615" lon="6.2113">
        <ele>49</ele>
        <time>2015-09-04T16:07:17.000Z</time>
      </trkpt>
      <trkpt lat="43.10622" lon="6.21125">
        <ele>50</ele>
        <time>2015-09-04T16:07:18.000Z</time>
      </trkpt>
      <trkpt lat="43.10629" lon="6.21119">
        <ele>49</ele>
        <time>2015-09-04T16:07:19.000Z</time>
      </trkpt>
      <trkpt lat="43.10636" lon="6.21114">
        <ele>49</ele>
        <time>2015-09-04T16:07:20.000Z</time>
      </trkpt>
      <trkpt lat="43.10642" lon="6.21111">
        <ele>50</ele>
        <time>2015-09-04T16:07:21.000Z</time>
      </trkpt>
      <trkpt lat="43.10649" lon="6.21106">
        <ele>50</ele>
        <time>2015-09-04T16:07:22.000Z</time>
      </trkpt>
      <trkpt lat="43.10655" lon="6.211">
        <ele>49</ele>
        <time>2015-09-04T16:07:23.000Z</time>
      </trkpt>
      <trkpt lat="43.1066" lon="6.21096">
        <ele>48</ele>
        <time>2015-09-04T16:07:24.000Z</time>
      </trkpt>
      <trkpt lat="43.10668" lon="6.2109">
        <ele>49</ele>
        <time>2015-09-04T16:07:25.000Z</time>
      </trkpt>
      <trkpt lat="43.10675" lon="6.21086">
        <ele>49</ele>
        <time>2015-09-04T16:07:26.000Z</time>
      </trkpt>
      <trkpt lat="43.10682" lon="6.21081">
        <ele>48</ele>
        <time>2015-09-04T16:07:27.000Z</time>
      </trkpt>
      <trkpt lat="43.10689" lon="6.21076">
        <ele>49</ele>
        <time>2015-09-04T16:07:28.000Z</time>
      </trkpt>
      <trkpt lat="43.10695" lon="6.2107">
        <ele>48</ele>
        <time>2015-09-04T16:07:29.000Z</time>
      </trkpt>
      <trkpt lat="43.10701" lon="6.21066">
        <ele>48</ele>
        <time>2015-09-04T16:07:30.000Z</time>
      </trkpt>
      <trkpt lat="43.10708" lon="6.2106">
        <ele>48</ele>
        <time>2015-09-04T16:07:31.000Z</time>
      </trkpt>
      <trkpt lat="43.10715" lon="6.21055">
        <ele>49</ele>
        <time>2015-09-04T16:07:32.000Z</time>
      </trkpt>
      <trkpt lat="43.10722" lon="6.2105">
        <ele>49</ele>
        <time>2015-09-04T16:07:33.000Z</time>
      </trkpt>
      <trkpt lat="43.10729" lon="6.21046">
        <ele>49</ele>
        <time>2015-09-04T16:07:34.000Z</time>
      </trkpt>
      <trkpt lat="43.10735" lon="6.21041">
        <ele>49</ele>
        <time>2015-09-04T16:07:35.000Z</time>
      </trkpt>
      <trkpt lat="43.10742" lon="6.21035">
        <ele>47</ele>
        <time>2015-09-04T16:07:36.000Z</time>
      </trkpt>
      <trkpt lat="43.10744" lon="6.2103">
        <ele>46</ele>
        <time>2015-09-04T16:07:37.000Z</time>
      </trkpt>
      <trkpt lat="43.1075" lon="6.21026">
        <ele>47</ele>
        <time>2015-09-04T16:07:38.000Z</time>
      </trkpt>
      <trkpt lat="43.10757" lon="6.2102">
        <ele>47</ele>
        <time>2015-09-04T16:07:39.000Z</time>
      </trkpt>
      <trkpt lat="43.10763" lon="6.21015">
        <ele>48</ele>
        <time>2015-09-04T16:07:40.000Z</time>
      </trkpt>
      <trkpt lat="43.10768" lon="6.21009">
        <ele>47</ele>
        <time>2015-09-04T16:07:41.000Z</time>
      </trkpt>
      <trkpt lat="43.10775" lon="6.21004">
        <ele>46</ele>
        <time>2015-09-04T16:07:42.000Z</time>
      </trkpt>
      <trkpt lat="43.10782" lon="6.20999">
        <ele>46</ele>
        <time>2015-09-04T16:07:43.000Z</time>
      </trkpt>
      <trkpt lat="43.10789" lon="6.20993">
        <ele>46</ele>
        <time>2015-09-04T16:07:44.000Z</time>
      </trkpt>
      <trkpt lat="43.10796" lon="6.20987">
        <ele>46</ele>
        <time>2015-09-04T16:07:45.000Z</time>
      </trkpt>
      <trkpt lat="43.10801" lon="6.20982">
        <ele>46</ele>
        <time>2015-09-04T16:07:46.000Z</time>
      </trkpt>
      <trkpt lat="43.10805" lon="6.20975">
        <ele>45</ele>
        <time>2015-09-04T16:07:47.000Z</time>
      </trkpt>
      <trkpt lat="43.10812" lon="6.2097">
        <ele>45</ele>
        <time>2015-09-04T16:07:48.000Z</time>
      </trkpt>
      <trkpt lat="43.10819" lon="6.20964">
        <ele>45</ele>
        <time>2015-09-04T16:07:49.000Z</time>
      </trkpt>
      <trkpt lat="43.10826" lon="6.20959">
        <ele>45</ele>
        <time>2015-09-04T16:07:50.000Z</time>
      </trkpt>
      <trkpt lat="43.10833" lon="6.20954">
        <ele>46</ele>
        <time>2015-09-04T16:07:51.000Z</time>
      </trkpt>
      <trkpt lat="43.10839" lon="6.20949">
        <ele>46</ele>
        <time>2015-09-04T16:07:52.000Z</time>
      </trkpt>
      <trkpt lat="43.10846" lon="6.20944">
        <ele>47</ele>
        <time>2015-09-04T16:07:53.000Z</time>
      </trkpt>
      <trkpt lat="43.10854" lon="6.20939">
        <ele>47</ele>
        <time>2015-09-04T16:07:54.000Z</time>
      </trkpt>
      <trkpt lat="43.10861" lon="6.20934">
        <ele>47</ele>
        <time>2015-09-04T16:07:55.000Z</time>
      </trkpt>
      <trkpt lat="43.10868" lon="6.20928">
        <ele>47</ele>
        <time>2015-09-04T16:07:56.000Z</time>
      </trkpt>
      <trkpt lat="43.10875" lon="6.20924">
        <ele>46</ele>
        <time>2015-09-04T16:07:57.000Z</time>
      </trkpt>
      <trkpt lat="43.1088" lon="6.20918">
        <ele>45</ele>
        <time>2015-09-04T16:07:58.000Z</time>
      </trkpt>
      <trkpt lat="43.10886" lon="6.20914">
        <ele>45</ele>
        <time>2015-09-04T16:07:59.000Z</time>
      </trkpt>
      <trkpt lat="43.10891" lon="6.20908">
        <ele>45</ele>
        <time>2015-09-04T16:08:00.000Z</time>
      </trkpt>
      <trkpt lat="43.10898" lon="6.20904">
        <ele>44</ele>
        <time>2015-09-04T16:08:01.000Z</time>
      </trkpt>
      <trkpt lat="43.10905" lon="6.20899">
        <ele>44</ele>
        <time>2015-09-04T16:08:02.000Z</time>
      </trkpt>
      <trkpt lat="43.10911" lon="6.20894">
        <ele>44</ele>
        <time>2015-09-04T16:08:03.000Z</time>
      </trkpt>
      <trkpt lat="43.10917" lon="6.2089">
        <ele>45</ele>
        <time>2015-09-04T16:08:04.000Z</time>
      </trkpt>
      <trkpt lat="43.10924" lon="6.20884">
        <ele>46</ele>
        <time>2015-09-04T16:08:05.000Z</time>
      </trkpt>
      <trkpt lat="43.1093" lon="6.20879">
        <ele>46</ele>
        <time>2015-09-04T16:08:06.000Z</time>
      </trkpt>
      <trkpt lat="43.10938" lon="6.20874">
        <ele>45</ele>
        <time>2015-09-04T16:08:07.000Z</time>
      </trkpt>
      <trkpt lat="43.10945" lon="6.20868">
        <ele>45</ele>
        <time>2015-09-04T16:08:08.000Z</time>
      </trkpt>
      <trkpt lat="43.1095" lon="6.20863">
        <ele>45</ele>
        <time>2015-09-04T16:08:09.000Z</time>
      </trkpt>
      <trkpt lat="43.10957" lon="6.20858">
        <ele>46</ele>
        <time>2015-09-04T16:08:10.000Z</time>
      </trkpt>
      <trkpt lat="43.10964" lon="6.20854">
        <ele>46</ele>
        <time>2015-09-04T16:08:11.000Z</time>
      </trkpt>
      <trkpt lat="43.1097" lon="6.2085">
        <ele>45</ele>
        <time>2015-09-04T16:08:12.000Z</time>
      </trkpt>
      <trkpt lat="43.10976" lon="6.20846">
        <ele>46</ele>
        <time>2015-09-04T16:08:13.000Z</time>
      </trkpt>
      <trkpt lat="43.10983" lon="6.20842">
        <ele>44</ele>
        <time>2015-09-04T16:08:14.000Z</time>
      </trkpt>
      <trkpt lat="43.10989" lon="6.20837">
        <ele>44</ele>
        <time>2015-09-04T16:08:15.000Z</time>
      </trkpt>
      <trkpt lat="43.10996" lon="6.20833">
        <ele>44</ele>
        <time>2015-09-04T16:08:16.000Z</time>
      </trkpt>
      <trkpt lat="43.11001" lon="6.2083">
        <ele>44</ele>
        <time>2015-09-04T16:08:17.000Z</time>
      </trkpt>
      <trkpt lat="43.11008" lon="6.20825">
        <ele>44</ele>
        <time>2015-09-04T16:08:18.000Z</time>
      </trkpt>
      <trkpt lat="43.11015" lon="6.20821">
        <ele>43</ele>
        <time>2015-09-04T16:08:19.000Z</time>
      </trkpt>
      <trkpt lat="43.11022" lon="6.20817">
        <ele>43</ele>
        <time>2015-09-04T16:08:20.000Z</time>
      </trkpt>
      <trkpt lat="43.11029" lon="6.20813">
        <ele>43</ele>
        <time>2015-09-04T16:08:21.000Z</time>
      </trkpt>
      <trkpt lat="43.11036" lon="6.20809">
        <ele>45</ele>
        <time>2015-09-04T16:08:22.000Z</time>
      </trkpt>
      <trkpt lat="43.11043" lon="6.20804">
        <ele>45</ele>
        <time>2015-09-04T16:08:23.000Z</time>
      </trkpt>
      <trkpt lat="43.11049" lon="6.208">
        <ele>45</ele>
        <time>2015-09-04T16:08:24.000Z</time>
      </trkpt>
      <trkpt lat="43.11056" lon="6.20795">
        <ele>45</ele>
        <time>2015-09-04T16:08:25.000Z</time>
      </trkpt>
      <trkpt lat="43.11061" lon="6.20789">
        <ele>45</ele>
        <time>2015-09-04T16:08:26.000Z</time>
      </trkpt>
      <trkpt lat="43.11067" lon="6.20783">
        <ele>45</ele>
        <time>2015-09-04T16:08:27.000Z</time>
      </trkpt>
      <trkpt lat="43.11073" lon="6.20779">
        <ele>44</ele>
        <time>2015-09-04T16:08:28.000Z</time>
      </trkpt>
      <trkpt lat="43.11078" lon="6.20776">
        <ele>44</ele>
        <time>2015-09-04T16:08:29.000Z</time>
      </trkpt>
      <trkpt lat="43.11085" lon="6.20774">
        <ele>43</ele>
        <time>2015-09-04T16:08:30.000Z</time>
      </trkpt>
      <trkpt lat="43.11091" lon="6.20776">
        <ele>44</ele>
        <time>2015-09-04T16:08:31.000Z</time>
      </trkpt>
      <trkpt lat="43.11097" lon="6.2078">
        <ele>44</ele>
        <time>2015-09-04T16:08:32.000Z</time>
      </trkpt>
      <trkpt lat="43.11104" lon="6.20784">
        <ele>44</ele>
        <time>2015-09-04T16:08:33.000Z</time>
      </trkpt>
      <trkpt lat="43.11109" lon="6.20791">
        <ele>44</ele>
        <time>2015-09-04T16:08:34.000Z</time>
      </trkpt>
      <trkpt lat="43.11115" lon="6.20798">
        <ele>44</ele>
        <time>2015-09-04T16:08:35.000Z</time>
      </trkpt>
      <trkpt lat="43.1112" lon="6.20808">
        <ele>45</ele>
        <time>2015-09-04T16:08:36.000Z</time>
      </trkpt>
      <trkpt lat="43.11125" lon="6.20819">
        <ele>45</ele>
        <time>2015-09-04T16:08:37.000Z</time>
      </trkpt>
      <trkpt lat="43.11128" lon="6.20829">
        <ele>45</ele>
        <time>2015-09-04T16:08:38.000Z</time>
      </trkpt>
      <trkpt lat="43.11132" lon="6.2084">
        <ele>45</ele>
        <time>2015-09-04T16:08:39.000Z</time>
      </trkpt>
      <trkpt lat="43.11135" lon="6.20851">
        <ele>46</ele>
        <time>2015-09-04T16:08:40.000Z</time>
      </trkpt>
      <trkpt lat="43.11138" lon="6.20863">
        <ele>47</ele>
        <time>2015-09-04T16:08:41.000Z</time>
      </trkpt>
      <trkpt lat="43.11142" lon="6.20874">
        <ele>47</ele>
        <time>2015-09-04T16:08:42.000Z</time>
      </trkpt>
      <trkpt lat="43.11145" lon="6.20887">
        <ele>47</ele>
        <time>2015-09-04T16:08:43.000Z</time>
      </trkpt>
      <trkpt lat="43.11149" lon="6.20898">
        <ele>47</ele>
        <time>2015-09-04T16:08:44.000Z</time>
      </trkpt>
      <trkpt lat="43.11153" lon="6.20909">
        <ele>47</ele>
        <time>2015-09-04T16:08:45.000Z</time>
      </trkpt>
      <trkpt lat="43.11157" lon="6.20919">
        <ele>46</ele>
        <time>2015-09-04T16:08:46.000Z</time>
      </trkpt>
      <trkpt lat="43.1116" lon="6.20929">
        <ele>46</ele>
        <time>2015-09-04T16:08:47.000Z</time>
      </trkpt>
      <trkpt lat="43.11164" lon="6.20939">
        <ele>46</ele>
        <time>2015-09-04T16:08:48.000Z</time>
      </trkpt>
      <trkpt lat="43.11168" lon="6.20949">
        <ele>46</ele>
        <time>2015-09-04T16:08:49.000Z</time>
      </trkpt>
      <trkpt lat="43.11173" lon="6.2096">
        <ele>46</ele>
        <time>2015-09-04T16:08:50.000Z</time>
      </trkpt>
      <trkpt lat="43.11177" lon="6.20969">
        <ele>45</ele>
        <time>2015-09-04T16:08:51.000Z</time>
      </trkpt>
      <trkpt lat="43.11182" lon="6.20979">
        <ele>46</ele>
        <time>2015-09-04T16:08:52.000Z</time>
      </trkpt>
      <trkpt lat="43.11187" lon="6.20988">
        <ele>46</ele>
        <time>2015-09-04T16:08:53.000Z</time>
      </trkpt>
      <trkpt lat="43.11192" lon="6.20997">
        <ele>46</ele>
        <time>2015-09-04T16:08:54.000Z</time>
      </trkpt>
      <trkpt lat="43.11198" lon="6.21005">
        <ele>47</ele>
        <time>2015-09-04T16:08:55.000Z</time>
      </trkpt>
      <trkpt lat="43.11204" lon="6.21012">
        <ele>47</ele>
        <time>2015-09-04T16:08:56.000Z</time>
      </trkpt>
      <trkpt lat="43.11211" lon="6.2102">
        <ele>48</ele>
        <time>2015-09-04T16:08:57.000Z</time>
      </trkpt>
      <trkpt lat="43.11216" lon="6.21027">
        <ele>48</ele>
        <time>2015-09-04T16:08:58.000Z</time>
      </trkpt>
      <trkpt lat="43.11223" lon="6.21033">
        <ele>48</ele>
        <time>2015-09-04T16:08:59.000Z</time>
      </trkpt>
      <trkpt lat="43.1123" lon="6.21039">
        <ele>48</ele>
        <time>2015-09-04T16:09:00.000Z</time>
      </trkpt>
      <trkpt lat="43.11237" lon="6.21045">
        <ele>48</ele>
        <time>2015-09-04T16:09:01.000Z</time>
      </trkpt>
      <trkpt lat="43.11243" lon="6.21051">
        <ele>47</ele>
        <time>2015-09-04T16:09:02.000Z</time>
      </trkpt>
      <trkpt lat="43.1125" lon="6.21056">
        <ele>48</ele>
        <time>2015-09-04T16:09:03.000Z</time>
      </trkpt>
      <trkpt lat="43.11257" lon="6.21062">
        <ele>49</ele>
        <time>2015-09-04T16:09:04.000Z</time>
      </trkpt>
      <trkpt lat="43.11264" lon="6.21067">
        <ele>49</ele>
        <time>2015-09-04T16:09:05.000Z</time>
      </trkpt>
      <trkpt lat="43.11271" lon="6.21072">
        <ele>49</ele>
        <time>2015-09-04T16:09:06.000Z</time>
      </trkpt>
      <trkpt lat="43.11277" lon="6.21076">
        <ele>50</ele>
        <time>2015-09-04T16:09:07.000Z</time>
      </trkpt>
      <trkpt lat="43.11284" lon="6.21081">
        <ele>50</ele>
        <time>2015-09-04T16:09:08.000Z</time>
      </trkpt>
      <trkpt lat="43.11291" lon="6.21086">
        <ele>50</ele>
        <time>2015-09-04T16:09:09.000Z</time>
      </trkpt>
      <trkpt lat="43.11298" lon="6.21089">
        <ele>49</ele>
        <time>2015-09-04T16:09:10.000Z</time>
      </trkpt>
      <trkpt lat="43.11305" lon="6.21093">
        <ele>48</ele>
        <time>2015-09-04T16:09:11.000Z</time>
      </trkpt>
      <trkpt lat="43.11311" lon="6.21097">
        <ele>49</ele>
        <time>2015-09-04T16:09:12.000Z</time>
      </trkpt>
      <trkpt lat="43.11316" lon="6.21101">
        <ele>49</ele>
        <time>2015-09-04T16:09:13.000Z</time>
      </trkpt>
      <trkpt lat="43.11322" lon="6.21105">
        <ele>49</ele>
        <time>2015-09-04T16:09:14.000Z</time>
      </trkpt>
      <trkpt lat="43.11327" lon="6.21109">
        <ele>50</ele>
        <time>2015-09-04T16:09:15.000Z</time>
      </trkpt>
      <trkpt lat="43.11332" lon="6.21112">
        <ele>50</ele>
        <time>2015-09-04T16:09:16.000Z</time>
      </trkpt>
      <trkpt lat="43.11337" lon="6.21115">
        <ele>49</ele>
        <time>2015-09-04T16:09:17.000Z</time>
      </trkpt>
      <trkpt lat="43.11341" lon="6.21119">
        <ele>49</ele>
        <time>2015-09-04T16:09:18.000Z</time>
      </trkpt>
      <trkpt lat="43.11345" lon="6.21122">
        <ele>49</ele>
        <time>2015-09-04T16:09:19.000Z</time>
      </trkpt>
      <trkpt lat="43.11349" lon="6.21125">
        <ele>48</ele>
        <time>2015-09-04T16:09:20.000Z</time>
      </trkpt>
      <trkpt lat="43.11354" lon="6.21128">
        <ele>48</ele>
        <time>2015-09-04T16:09:21.000Z</time>
      </trkpt>
      <trkpt lat="43.11359" lon="6.21131">
        <ele>48</ele>
        <time>2015-09-04T16:09:22.000Z</time>
      </trkpt>
      <trkpt lat="43.11363" lon="6.21134">
        <ele>48</ele>
        <time>2015-09-04T16:09:23.000Z</time>
      </trkpt>
      <trkpt lat="43.11368" lon="6.21136">
        <ele>49</ele>
        <time>2015-09-04T16:09:24.000Z</time>
      </trkpt>
      <trkpt lat="43.11372" lon="6.21139">
        <ele>48</ele>
        <time>2015-09-04T16:09:25.000Z</time>
      </trkpt>
      <trkpt lat="43.11377" lon="6.21141">
        <ele>48</ele>
        <time>2015-09-04T16:09:26.000Z</time>
      </trkpt>
      <trkpt lat="43.1138" lon="6.21144">
        <ele>48</ele>
        <time>2015-09-04T16:09:27.000Z</time>
      </trkpt>
      <trkpt lat="43.11385" lon="6.21147">
        <ele>49</ele>
        <time>2015-09-04T16:09:28.000Z</time>
      </trkpt>
      <trkpt lat="43.11389" lon="6.21149">
        <ele>50</ele>
        <time>2015-09-04T16:09:29.000Z</time>
      </trkpt>
      <trkpt lat="43.11392" lon="6.21151">
        <ele>50</ele>
        <time>2015-09-04T16:09:30.000Z</time>
      </trkpt>
      <trkpt lat="43.11395" lon="6.21155">
        <ele>50</ele>
        <time>2015-09-04T16:09:31.000Z</time>
      </trkpt>
      <trkpt lat="43.11399" lon="6.21157">
        <ele>49</ele>
        <time>2015-09-04T16:09:32.000Z</time>
      </trkpt>
      <trkpt lat="43.11402" lon="6.2116">
        <ele>49</ele>
        <time>2015-09-04T16:09:33.000Z</time>
      </trkpt>
      <trkpt lat="43.11405" lon="6.21162">
        <ele>49</ele>
        <time>2015-09-04T16:09:34.000Z</time>
      </trkpt>
      <trkpt lat="43.1141" lon="6.21165">
        <ele>49</ele>
        <time>2015-09-04T16:09:35.000Z</time>
      </trkpt>
      <trkpt lat="43.11414" lon="6.21169">
        <ele>49</ele>
        <time>2015-09-04T16:09:36.000Z</time>
      </trkpt>
      <trkpt lat="43.11417" lon="6.2117">
        <ele>49</ele>
        <time>2015-09-04T16:09:37.000Z</time>
      </trkpt>
      <trkpt lat="43.1142" lon="6.21174">
        <ele>48</ele>
        <time>2015-09-04T16:09:38.000Z</time>
      </trkpt>
      <trkpt lat="43.11424" lon="6.21176">
        <ele>49</ele>
        <time>2015-09-04T16:09:39.000Z</time>
      </trkpt>
      <trkpt lat="43.11428" lon="6.21178">
        <ele>49</ele>
        <time>2015-09-04T16:09:40.000Z</time>
      </trkpt>
      <trkpt lat="43.11431" lon="6.2118">
        <ele>48</ele>
        <time>2015-09-04T16:09:41.000Z</time>
      </trkpt>
      <trkpt lat="43.11434" lon="6.21182">
        <ele>48</ele>
        <time>2015-09-04T16:09:42.000Z</time>
      </trkpt>
      <trkpt lat="43.11438" lon="6.21183">
        <ele>48</ele>
        <time>2015-09-04T16:09:43.000Z</time>
      </trkpt>
      <trkpt lat="43.11442" lon="6.21185">
        <ele>47</ele>
        <time>2015-09-04T16:09:44.000Z</time>
      </trkpt>
      <trkpt lat="43.11445" lon="6.21187">
        <ele>47</ele>
        <time>2015-09-04T16:09:45.000Z</time>
      </trkpt>
      <trkpt lat="43.11448" lon="6.21188">
        <ele>46</ele>
        <time>2015-09-04T16:09:46.000Z</time>
      </trkpt>
      <trkpt lat="43.11451" lon="6.21189">
        <ele>45</ele>
        <time>2015-09-04T16:09:47.000Z</time>
      </trkpt>
      <trkpt lat="43.11454" lon="6.2119">
        <ele>45</ele>
        <time>2015-09-04T16:09:48.000Z</time>
      </trkpt>
      <trkpt lat="43.11457" lon="6.21191">
        <ele>46</ele>
        <time>2015-09-04T16:09:49.000Z</time>
      </trkpt>
      <trkpt lat="43.11459" lon="6.21192">
        <ele>46</ele>
        <time>2015-09-04T16:09:50.000Z</time>
      </trkpt>
      <trkpt lat="43.11462" lon="6.21193">
        <ele>46</ele>
        <time>2015-09-04T16:09:51.000Z</time>
      </trkpt>
      <trkpt lat="43.11465" lon="6.21194">
        <ele>46</ele>
        <time>2015-09-04T16:09:52.000Z</time>
      </trkpt>
      <trkpt lat="43.11468" lon="6.21195">
        <ele>46</ele>
        <time>2015-09-04T16:09:53.000Z</time>
      </trkpt>
      <trkpt lat="43.1147" lon="6.21196">
        <ele>47</ele>
        <time>2015-09-04T16:09:54.000Z</time>
      </trkpt>
      <trkpt lat="43.11473" lon="6.21198">
        <ele>46</ele>
        <time>2015-09-04T16:09:55.000Z</time>
      </trkpt>
      <trkpt lat="43.11476" lon="6.212">
        <ele>46</ele>
        <time>2015-09-04T16:09:56.000Z</time>
      </trkpt>
      <trkpt lat="43.11479" lon="6.21201">
        <ele>46</ele>
        <time>2015-09-04T16:09:57.000Z</time>
      </trkpt>
      <trkpt lat="43.11482" lon="6.21203">
        <ele>46</ele>
        <time>2015-09-04T16:09:58.000Z</time>
      </trkpt>
      <trkpt lat="43.11484" lon="6.21204">
        <ele>46</ele>
        <time>2015-09-04T16:09:59.000Z</time>
      </trkpt>
      <trkpt lat="43.11487" lon="6.21205">
        <ele>46</ele>
        <time>2015-09-04T16:10:00.000Z</time>
      </trkpt>
      <trkpt lat="43.1149" lon="6.21206">
        <ele>46</ele>
        <time>2015-09-04T16:10:01.000Z</time>
      </trkpt>
      <trkpt lat="43.11492" lon="6.21207">
        <ele>46</ele>
        <time>2015-09-04T16:10:02.000Z</time>
      </trkpt>
      <trkpt lat="43.11495" lon="6.21209">
        <ele>47</ele>
        <time>2015-09-04T16:10:03.000Z</time>
      </trkpt>
      <trkpt lat="43.11497" lon="6.21211">
        <ele>47</ele>
        <time>2015-09-04T16:10:04.000Z</time>
      </trkpt>
      <trkpt lat="43.115" lon="6.21212">
        <ele>47</ele>
        <time>2015-09-04T16:10:05.000Z</time>
      </trkpt>
      <trkpt lat="43.11502" lon="6.21214">
        <ele>47</ele>
        <time>2015-09-04T16:10:06.000Z</time>
      </trkpt>
      <trkpt lat="43.11504" lon="6.21215">
        <ele>47</ele>
        <time>2015-09-04T16:10:07.000Z</time>
      </trkpt>
      <trkpt lat="43.11505" lon="6.21215">
        <ele>46</ele>
        <time>2015-09-04T16:10:08.000Z</time>
      </trkpt>
      <trkpt lat="43.11506" lon="6.21216">
        <ele>46</ele>
        <time>2015-09-04T16:10:09.000Z</time>
      </trkpt>
      <trkpt lat="43.11507" lon="6.21216">
        <ele>46</ele>
        <time>2015-09-04T16:10:10.000Z</time>
      </trkpt>
      <trkpt lat="43.11509" lon="6.21217">
        <ele>46</ele>
        <time>2015-09-04T16:10:11.000Z</time>
      </trkpt>
      <trkpt lat="43.1151" lon="6.21218">
        <ele>46</ele>
        <time>2015-09-04T16:10:12.000Z</time>
      </trkpt>
      <trkpt lat="43.11511" lon="6.21219">
        <ele>46</ele>
        <time>2015-09-04T16:10:13.000Z</time>
      </trkpt>
      <trkpt lat="43.11513" lon="6.21219">
        <ele>46</ele>
        <time>2015-09-04T16:10:14.000Z</time>
      </trkpt>
      <trkpt lat="43.11515" lon="6.2122">
        <ele>46</ele>
        <time>2015-09-04T16:10:15.000Z</time>
      </trkpt>
      <trkpt lat="43.11516" lon="6.21222">
        <ele>46</ele>
        <time>2015-09-04T16:10:16.000Z</time>
      </trkpt>
      <trkpt lat="43.11518" lon="6.21223">
        <ele>46</ele>
        <time>2015-09-04T16:10:17.000Z</time>
      </trkpt>
      <trkpt lat="43.1152" lon="6.21224">
        <ele>46</ele>
        <time>2015-09-04T16:10:18.000Z</time>
      </trkpt>
      <trkpt lat="43.11522" lon="6.21226">
        <ele>47</ele>
        <time>2015-09-04T16:10:19.000Z</time>
      </trkpt>
      <trkpt lat="43.11524" lon="6.21227">
        <ele>47</ele>
        <time>2015-09-04T16:10:20.000Z</time>
      </trkpt>
      <trkpt lat="43.11526" lon="6.21228">
        <ele>47</ele>
        <time>2015-09-04T16:10:21.000Z</time>
      </trkpt>
      <trkpt lat="43.11528" lon="6.2123">
        <ele>47</ele>
        <time>2015-09-04T16:10:22.000Z</time>
      </trkpt>
      <trkpt lat="43.1153" lon="6.21231">
        <ele>47</ele>
        <time>2015-09-04T16:10:23.000Z</time>
      </trkpt>
      <trkpt lat="43.11533" lon="6.21233">
        <ele>47</ele>
        <time>2015-09-04T16:10:24.000Z</time>
      </trkpt>
      <trkpt lat="43.11535" lon="6.21235">
        <ele>47</ele>
        <time>2015-09-04T16:10:25.000Z</time>
      </trkpt>
      <trkpt lat="43.11538" lon="6.21236">
        <ele>47</ele>
        <time>2015-09-04T16:10:26.000Z</time>
      </trkpt>
      <trkpt lat="43.1154" lon="6.21238">
        <ele>47</ele>
        <time>2015-09-04T16:10:27.000Z</time>
      </trkpt>
      <trkpt lat="43.11543" lon="6.21239">
        <ele>47</ele>
        <time>2015-09-04T16:10:28.000Z</time>
      </trkpt>
      <trkpt lat="43.11545" lon="6.21241">
        <ele>47</ele>
        <time>2015-09-04T16:10:29.000Z</time>
      </trkpt>
      <trkpt lat="43.11546" lon="6.21242">
        <ele>47</ele>
        <time>2015-09-04T16:10:30.000Z</time>
      </trkpt>
      <trkpt lat="43.11548" lon="6.21243">
        <ele>48</ele>
        <time>2015-09-04T16:10:31.000Z</time>
      </trkpt>
      <trkpt lat="43.1155" lon="6.21244">
        <ele>48</ele>
        <time>2015-09-04T16:10:32.000Z</time>
      </trkpt>
      <trkpt lat="43.11551" lon="6.21245">
        <ele>47</ele>
        <time>2015-09-04T16:10:33.000Z</time>
      </trkpt>
      <trkpt lat="43.11553" lon="6.21246">
        <ele>47</ele>
        <time>2015-09-04T16:10:34.000Z</time>
      </trkpt>
      <trkpt lat="43.11554" lon="6.21247">
        <ele>47</ele>
        <time>2015-09-04T16:10:35.000Z</time>
      </trkpt>
      <trkpt lat="43.11556" lon="6.21248">
        <ele>47</ele>
        <time>2015-09-04T16:10:36.000Z</time>
      </trkpt>
      <trkpt lat="43.11558" lon="6.21249">
        <ele>47</ele>
        <time>2015-09-04T16:10:37.000Z</time>
      </trkpt>
      <trkpt lat="43.11559" lon="6.2125">
        <ele>48</ele>
        <time>2015-09-04T16:10:38.000Z</time>
      </trkpt>
      <trkpt lat="43.11561" lon="6.21251">
        <ele>48</ele>
        <time>2015-09-04T16:10:39.000Z</time>
      </trkpt>
      <trkpt lat="43.11563" lon="6.21252">
        <ele>48</ele>
        <time>2015-09-04T16:10:40.000Z</time>
      </trkpt>
      <trkpt lat="43.11564" lon="6.21253">
        <ele>47</ele>
        <time>2015-09-04T16:10:41.000Z</time>
      </trkpt>
      <trkpt lat="43.11566" lon="6.21254">
        <ele>47</ele>
        <time>2015-09-04T16:10:42.000Z</time>
      </trkpt>
      <trkpt lat="43.11567" lon="6.21255">
        <ele>47</ele>
        <time>2015-09-04T16:10:43.000Z</time>
      </trkpt>
      <trkpt lat="43.11568" lon="6.21255">
        <ele>47</ele>
        <time>2015-09-04T16:10:44.000Z</time>
      </trkpt>
      <trkpt lat="43.1157" lon="6.21256">
        <ele>47</ele>
        <time>2015-09-04T16:10:45.000Z</time>
      </trkpt>
      <trkpt lat="43.11571" lon="6.21256">
        <ele>47</ele>
        <time>2015-09-04T16:10:46.000Z</time>
      </trkpt>
      <trkpt lat="43.11573" lon="6.21257">
        <ele>46</ele>
        <time>2015-09-04T16:10:47.000Z</time>
      </trkpt>
      <trkpt lat="43.11574" lon="6.21257">
        <ele>46</ele>
        <time>2015-09-04T16:10:48.000Z</time>
      </trkpt>
      <trkpt lat="43.11575" lon="6.21258">
        <ele>47</ele>
        <time>2015-09-04T16:10:49.000Z</time>
      </trkpt>
      <trkpt lat="43.11576" lon="6.21258">
        <ele>47</ele>
        <time>2015-09-04T16:10:50.000Z</time>
      </trkpt>
      <trkpt lat="43.11577" lon="6.21259">
        <ele>47</ele>
        <time>2015-09-04T16:10:51.000Z</time>
      </trkpt>
      <trkpt lat="43.11579" lon="6.2126">
        <ele>47</ele>
        <time>2015-09-04T16:10:52.000Z</time>
      </trkpt>
      <trkpt lat="43.1158" lon="6.2126">
        <ele>47</ele>
        <time>2015-09-04T16:10:53.000Z</time>
      </trkpt>
      <trkpt lat="43.11581" lon="6.21261">
        <ele>48</ele>
        <time>2015-09-04T16:10:54.000Z</time>
      </trkpt>
      <trkpt lat="43.11582" lon="6.21261">
        <ele>48</ele>
        <time>2015-09-04T16:10:55.000Z</time>
      </trkpt>
      <trkpt lat="43.11583" lon="6.21262">
        <ele>48</ele>
        <time>2015-09-04T16:10:56.000Z</time>
      </trkpt>
      <trkpt lat="43.11584" lon="6.21262">
        <ele>48</ele>
        <time>2015-09-04T16:10:57.000Z</time>
      </trkpt>
      <trkpt lat="43.11586" lon="6.21263">
        <ele>48</ele>
        <time>2015-09-04T16:10:58.000Z</time>
      </trkpt>
      <trkpt lat="43.11587" lon="6.21263">
        <ele>47</ele>
        <time>2015-09-04T16:10:59.000Z</time>
      </trkpt>
      <trkpt lat="43.11588" lon="6.21264">
        <ele>47</ele>
        <time>2015-09-04T16:11:00.000Z</time>
      </trkpt>
      <trkpt lat="43.11589" lon="6.21264">
        <ele>47</ele>
        <time>2015-09-04T16:11:01.000Z</time>
      </trkpt>
      <trkpt lat="43.1159" lon="6.21264">
        <ele>48</ele>
        <time>2015-09-04T16:11:02.000Z</time>
      </trkpt>
      <trkpt lat="43.1159" lon="6.21265">
        <ele>47</ele>
        <time>2015-09-04T16:11:03.000Z</time>
      </trkpt>
      <trkpt lat="43.1159" lon="6.21266">
        <ele>47</ele>
        <time>2015-09-04T16:11:04.000Z</time>
      </trkpt>
      <trkpt lat="43.11592" lon="6.21266">
        <ele>48</ele>
        <time>2015-09-04T16:11:05.000Z</time>
      </trkpt>
      <trkpt lat="43.11593" lon="6.21266">
        <ele>48</ele>
        <time>2015-09-04T16:11:06.000Z</time>
      </trkpt>
      <trkpt lat="43.11594" lon="6.21266">
        <ele>47</ele>
        <time>2015-09-04T16:11:07.000Z</time>
      </trkpt>
      <trkpt lat="43.11595" lon="6.21267">
        <ele>47</ele>
        <time>2015-09-04T16:11:08.000Z</time>
      </trkpt>
      <trkpt lat="43.11595" lon="6.21267">
        <ele>46</ele>
        <time>2015-09-04T16:11:09.000Z</time>
      </trkpt>
      <trkpt lat="43.11593" lon="6.21267">
        <ele>45</ele>
        <time>2015-09-04T16:11:10.000Z</time>
      </trkpt>
      <trkpt lat="43.11593" lon="6.21267">
        <ele>46</ele>
        <time>2015-09-04T16:11:11.000Z</time>
      </trkpt>
      <trkpt lat="43.11593" lon="6.21267">
        <ele>45</ele>
        <time>2015-09-04T16:11:12.000Z</time>
      </trkpt>
      <trkpt lat="43.11594" lon="6.21267">
        <ele>45</ele>
        <time>2015-09-04T16:11:13.000Z</time>
      </trkpt>
      <trkpt lat="43.11594" lon="6.21268">
        <ele>45</ele>
        <time>2015-09-04T16:11:14.000Z</time>
      </trkpt>
      <trkpt lat="43.11595" lon="6.21268">
        <ele>45</ele>
        <time>2015-09-04T16:11:15.000Z</time>
      </trkpt>
      <trkpt lat="43.11596" lon="6.21269">
        <ele>45</ele>
        <time>2015-09-04T16:11:16.000Z</time>
      </trkpt>
      <trkpt lat="43.11597" lon="6.21269">
        <ele>45</ele>
        <time>2015-09-04T16:11:17.000Z</time>
      </trkpt>
      <trkpt lat="43.11597" lon="6.2127">
        <ele>45</ele>
        <time>2015-09-04T16:11:18.000Z</time>
      </trkpt>
      <trkpt lat="43.11598" lon="6.2127">
        <ele>45</ele>
        <time>2015-09-04T16:11:19.000Z</time>
      </trkpt>
      <trkpt lat="43.11599" lon="6.21271">
        <ele>46</ele>
        <time>2015-09-04T16:11:20.000Z</time>
      </trkpt>
      <trkpt lat="43.116" lon="6.21271">
        <ele>46</ele>
        <time>2015-09-04T16:11:21.000Z</time>
      </trkpt>
      <trkpt lat="43.116" lon="6.21272">
        <ele>47</ele>
        <time>2015-09-04T16:11:22.000Z</time>
      </trkpt>
      <trkpt lat="43.11601" lon="6.21273">
        <ele>47</ele>
        <time>2015-09-04T16:11:23.000Z</time>
      </trkpt>
      <trkpt lat="43.11601" lon="6.21273">
        <ele>47</ele>
        <time>2015-09-04T16:11:24.000Z</time>
      </trkpt>
      <trkpt lat="43.11602" lon="6.21274">
        <ele>47</ele>
        <time>2015-09-04T16:11:25.000Z</time>
      </trkpt>
      <trkpt lat="43.11602" lon="6.21274">
        <ele>47</ele>
        <time>2015-09-04T16:11:26.000Z</time>
      </trkpt>
      <trkpt lat="43.11602" lon="6.21275">
        <ele>47</ele>
        <time>2015-09-04T16:11:27.000Z</time>
      </trkpt>
      <trkpt lat="43.11602" lon="6.21275">
        <ele>47</ele>
        <time>2015-09-04T16:11:28.000Z</time>
      </trkpt>
      <trkpt lat="43.11603" lon="6.21276">
        <ele>47</ele>
        <time>2015-09-04T16:11:29.000Z</time>
      </trkpt>
      <trkpt lat="43.11603" lon="6.21276">
        <ele>47</ele>
        <time>2015-09-04T16:11:30.000Z</time>
      </trkpt>
      <trkpt lat="43.11602" lon="6.21276">
        <ele>47</ele>
        <time>2015-09-04T16:11:31.000Z</time>
      </trkpt>
      <trkpt lat="43.11602" lon="6.21276">
        <ele>46</ele>
        <time>2015-09-04T16:11:32.000Z</time>
      </trkpt>
      <trkpt lat="43.11602" lon="6.21277">
        <ele>47</ele>
        <time>2015-09-04T16:11:33.000Z</time>
      </trkpt>
      <trkpt lat="43.11602" lon="6.21277">
        <ele>47</ele>
        <time>2015-09-04T16:11:34.000Z</time>
      </trkpt>
      <trkpt lat="43.11603" lon="6.21277">
        <ele>47</ele>
        <time>2015-09-04T16:11:35.000Z</time>
      </trkpt>
      <trkpt lat="43.11603" lon="6.21277">
        <ele>47</ele>
        <time>2015-09-04T16:11:36.000Z</time>
      </trkpt>
      <trkpt lat="43.11604" lon="6.21277">
        <ele>47</ele>
        <time>2015-09-04T16:11:37.000Z</time>
      </trkpt>
      <trkpt lat="43.11604" lon="6.21277">
        <ele>46</ele>
        <time>2015-09-04T16:11:38.000Z</time>
      </trkpt>
      <trkpt lat="43.11604" lon="6.21277">
        <ele>47</ele>
        <time>2015-09-04T16:11:39.000Z</time>
      </trkpt>
      <trkpt lat="43.11604" lon="6.21277">
        <ele>47</ele>
        <time>2015-09-04T16:11:40.000Z</time>
      </trkpt>
      <trkpt lat="43.11605" lon="6.21278">
        <ele>47</ele>
        <time>2015-09-04T16:11:41.000Z</time>
      </trkpt>
      <trkpt lat="43.11604" lon="6.21278">
        <ele>46</ele>
        <time>2015-09-04T16:11:42.000Z</time>
      </trkpt>
      <trkpt lat="43.11604" lon="6.21278">
        <ele>46</ele>
        <time>2015-09-04T16:11:43.000Z</time>
      </trkpt>
      <trkpt lat="43.11604" lon="6.21278">
        <ele>47</ele>
        <time>2015-09-04T16:11:44.000Z</time>
      </trkpt>
      <trkpt lat="43.11604" lon="6.21278">
        <ele>47</ele>
        <time>2015-09-04T16:11:45.000Z</time>
      </trkpt>
      <trkpt lat="43.11604" lon="6.21278">
        <ele>47</ele>
        <time>2015-09-04T16:11:46.000Z</time>
      </trkpt>
      <trkpt lat="43.11603" lon="6.21279">
        <ele>47</ele>
        <time>2015-09-04T16:11:47.000Z</time>
      </trkpt>
      <trkpt lat="43.11604" lon="6.21278">
        <ele>47</ele>
        <time>2015-09-04T16:11:48.000Z</time>
      </trkpt>
      <trkpt lat="43.11604" lon="6.21279">
        <ele>47</ele>
        <time>2015-09-04T16:11:49.000Z</time>
      </trkpt>
      <trkpt lat="43.11604" lon="6.21279">
        <ele>47</ele>
        <time>2015-09-04T16:11:50.000Z</time>
      </trkpt>
      <trkpt lat="43.11604" lon="6.21279">
        <ele>46</ele>
        <time>2015-09-04T16:11:51.000Z</time>
      </trkpt>
      <trkpt lat="43.11604" lon="6.21279">
        <ele>46</ele>
        <time>2015-09-04T16:11:52.000Z</time>
      </trkpt>
      <trkpt lat="43.11604" lon="6.21279">
        <ele>47</ele>
        <time>2015-09-04T16:11:53.000Z</time>
      </trkpt>
      <trkpt lat="43.11604" lon="6.21279">
        <ele>47</ele>
        <time>2015-09-04T16:11:54.000Z</time>
      </trkpt>
      <trkpt lat="43.11604" lon="6.21279">
        <ele>47</ele>
        <time>2015-09-04T16:11:55.000Z</time>
      </trkpt>
      <trkpt lat="43.11604" lon="6.21279">
        <ele>47</ele>
        <time>2015-09-04T16:11:56.000Z</time>
      </trkpt>
      <trkpt lat="43.11604" lon="6.21279">
        <ele>46</ele>
        <time>2015-09-04T16:11:57.000Z</time>
      </trkpt>
      <trkpt lat="43.11604" lon="6.21279">
        <ele>47</ele>
        <time>2015-09-04T16:11:58.000Z</time>
      </trkpt>
      <trkpt lat="43.11604" lon="6.21279">
        <ele>47</ele>
        <time>2015-09-04T16:11:59.000Z</time>
      </trkpt>
      <trkpt lat="43.11604" lon="6.21279">
        <ele>47</ele>
        <time>2015-09-04T16:12:00.000Z</time>
      </trkpt>
      <trkpt lat="43.11604" lon="6.21279">
        <ele>47</ele>
        <time>2015-09-04T16:12:01.000Z</time>
      </trkpt>
      <trkpt lat="43.11604" lon="6.2128">
        <ele>47</ele>
        <time>2015-09-04T16:12:02.000Z</time>
      </trkpt>
      <trkpt lat="43.11604" lon="6.2128">
        <ele>47</ele>
        <time>2015-09-04T16:12:03.000Z</time>
      </trkpt>
      <trkpt lat="43.11604" lon="6.2128">
        <ele>47</ele>
        <time>2015-09-04T16:12:04.000Z</time>
      </trkpt>
      <trkpt lat="43.11603" lon="6.21281">
        <ele>47</ele>
        <time>2015-09-04T16:12:05.000Z</time>
      </trkpt>
      <trkpt lat="43.11603" lon="6.21281">
        <ele>47</ele>
        <time>2015-09-04T16:12:06.000Z</time>
      </trkpt>
      <trkpt lat="43.11603" lon="6.21281">
        <ele>48</ele>
        <time>2015-09-04T16:12:07.000Z</time>
      </trkpt>
      <trkpt lat="43.11603" lon="6.21281">
        <ele>48</ele>
        <time>2015-09-04T16:12:08.000Z</time>
      </trkpt>
      <trkpt lat="43.11603" lon="6.21282">
        <ele>48</ele>
        <time>2015-09-04T16:12:09.000Z</time>
      </trkpt>
      <trkpt lat="43.11603" lon="6.21282">
        <ele>48</ele>
        <time>2015-09-04T16:12:10.000Z</time>
      </trkpt>
      <trkpt lat="43.11603" lon="6.21283">
        <ele>49</ele>
        <time>2015-09-04T16:12:11.000Z</time>
      </trkpt>
      <trkpt lat="43.11603" lon="6.21283">
        <ele>49</ele>
        <time>2015-09-04T16:12:12.000Z</time>
      </trkpt>
      <trkpt lat="43.11603" lon="6.21283">
        <ele>49</ele>
        <time>2015-09-04T16:12:13.000Z</time>
      </trkpt>
      <trkpt lat="43.11603" lon="6.21284">
        <ele>48</ele>
        <time>2015-09-04T16:12:14.000Z</time>
      </trkpt>
      <trkpt lat="43.11604" lon="6.21284">
        <ele>49</ele>
        <time>2015-09-04T16:12:15.000Z</time>
      </trkpt>
      <trkpt lat="43.11604" lon="6.21284">
        <ele>48</ele>
        <time>2015-09-04T16:12:16.000Z</time>
      </trkpt>
      <trkpt lat="43.11605" lon="6.21284">
        <ele>48</ele>
        <time>2015-09-04T16:12:17.000Z</time>
      </trkpt>
      <trkpt lat="43.11606" lon="6.21285">
        <ele>48</ele>
        <time>2015-09-04T16:12:18.000Z</time>
      </trkpt>
      <trkpt lat="43.11606" lon="6.21285">
        <ele>48</ele>
        <time>2015-09-04T16:12:19.000Z</time>
      </trkpt>
      <trkpt lat="43.11606" lon="6.21285">
        <ele>49</ele>
        <time>2015-09-04T16:12:20.000Z</time>
      </trkpt>
      <trkpt lat="43.11606" lon="6.21285">
        <ele>48</ele>
        <time>2015-09-04T16:12:21.000Z</time>
      </trkpt>
      <trkpt lat="43.11606" lon="6.21285">
        <ele>47</ele>
        <time>2015-09-04T16:12:22.000Z</time>
      </trkpt>
      <trkpt lat="43.11607" lon="6.21284">
        <ele>47</ele>
        <time>2015-09-04T16:12:23.000Z</time>
      </trkpt>
      <trkpt lat="43.11607" lon="6.21284">
        <ele>48</ele>
        <time>2015-09-04T16:12:24.000Z</time>
      </trkpt>
      <trkpt lat="43.11608" lon="6.21284">
        <ele>47</ele>
        <time>2015-09-04T16:12:25.000Z</time>
      </trkpt>
      <trkpt lat="43.11608" lon="6.21284">
        <ele>48</ele>
        <time>2015-09-04T16:12:26.000Z</time>
      </trkpt>
      <trkpt lat="43.11608" lon="6.21283">
        <ele>47</ele>
        <time>2015-09-04T16:12:27.000Z</time>
      </trkpt>
      <trkpt lat="43.11607" lon="6.21284">
        <ele>47</ele>
        <time>2015-09-04T16:12:28.000Z</time>
      </trkpt>
      <trkpt lat="43.11607" lon="6.21285">
        <ele>47</ele>
        <time>2015-09-04T16:12:29.000Z</time>
      </trkpt>
      <trkpt lat="43.11607" lon="6.21285">
        <ele>46</ele>
        <time>2015-09-04T16:12:30.000Z</time>
      </trkpt>
      <trkpt lat="43.11606" lon="6.21284">
        <ele>47</ele>
        <time>2015-09-04T16:12:31.000Z</time>
      </trkpt>
      <trkpt lat="43.11606" lon="6.21285">
        <ele>44</ele>
        <time>2015-09-04T16:12:32.000Z</time>
      </trkpt>
      <trkpt lat="43.11606" lon="6.21284">
        <ele>44</ele>
        <time>2015-09-04T16:12:33.000Z</time>
      </trkpt>
      <trkpt lat="43.11606" lon="6.21284">
        <ele>44</ele>
        <time>2015-09-04T16:12:34.000Z</time>
      </trkpt>
      <trkpt lat="43.11605" lon="6.21283">
        <ele>44</ele>
        <time>2015-09-04T16:12:35.000Z</time>
      </trkpt>
      <trkpt lat="43.11604" lon="6.21282">
        <ele>44</ele>
        <time>2015-09-04T16:12:36.000Z</time>
      </trkpt>
      <trkpt lat="43.11604" lon="6.21281">
        <ele>44</ele>
        <time>2015-09-04T16:12:37.000Z</time>
      </trkpt>
      <trkpt lat="43.11603" lon="6.2128">
        <ele>44</ele>
        <time>2015-09-04T16:12:38.000Z</time>
      </trkpt>
      <trkpt lat="43.11603" lon="6.21279">
        <ele>44</ele>
        <time>2015-09-04T16:12:39.000Z</time>
      </trkpt>
      <trkpt lat="43.11602" lon="6.21278">
        <ele>45</ele>
        <time>2015-09-04T16:12:40.000Z</time>
      </trkpt>
      <trkpt lat="43.11601" lon="6.21277">
        <ele>46</ele>
        <time>2015-09-04T16:12:41.000Z</time>
      </trkpt>
      <trkpt lat="43.116" lon="6.21276">
        <ele>46</ele>
        <time>2015-09-04T16:12:42.000Z</time>
      </trkpt>
      <trkpt lat="43.11599" lon="6.21275">
        <ele>46</ele>
        <time>2015-09-04T16:12:43.000Z</time>
      </trkpt>
      <trkpt lat="43.11598" lon="6.21274">
        <ele>46</ele>
        <time>2015-09-04T16:12:44.000Z</time>
      </trkpt>
      <trkpt lat="43.11598" lon="6.21273">
        <ele>46</ele>
        <time>2015-09-04T16:12:45.000Z</time>
      </trkpt>
      <trkpt lat="43.11597" lon="6.21272">
        <ele>47</ele>
        <time>2015-09-04T16:12:46.000Z</time>
      </trkpt>
      <trkpt lat="43.11596" lon="6.21272">
        <ele>47</ele>
        <time>2015-09-04T16:12:47.000Z</time>
      </trkpt>
      <trkpt lat="43.11595" lon="6.21272">
        <ele>47</ele>
        <time>2015-09-04T16:12:48.000Z</time>
      </trkpt>
      <trkpt lat="43.11595" lon="6.21271">
        <ele>47</ele>
        <time>2015-09-04T16:12:49.000Z</time>
      </trkpt>
      <trkpt lat="43.11594" lon="6.21271">
        <ele>46</ele>
        <time>2015-09-04T16:12:50.000Z</time>
      </trkpt>
      <trkpt lat="43.11593" lon="6.21271">
        <ele>47</ele>
        <time>2015-09-04T16:12:51.000Z</time>
      </trkpt>
      <trkpt lat="43.11593" lon="6.21272">
        <ele>47</ele>
        <time>2015-09-04T16:12:52.000Z</time>
      </trkpt>
      <trkpt lat="43.11593" lon="6.21272">
        <ele>47</ele>
        <time>2015-09-04T16:12:53.000Z</time>
      </trkpt>
      <trkpt lat="43.11593" lon="6.21272">
        <ele>47</ele>
        <time>2015-09-04T16:12:54.000Z</time>
      </trkpt>
      <trkpt lat="43.11593" lon="6.21272">
        <ele>47</ele>
        <time>2015-09-04T16:12:55.000Z</time>
      </trkpt>
      <trkpt lat="43.11593" lon="6.21272">
        <ele>47</ele>
        <time>2015-09-04T16:12:56.000Z</time>
      </trkpt>
      <trkpt lat="43.11593" lon="6.21272">
        <ele>47</ele>
        <time>2015-09-04T16:12:57.000Z</time>
      </trkpt>
      <trkpt lat="43.11593" lon="6.21272">
        <ele>47</ele>
        <time>2015-09-04T16:12:58.000Z</time>
      </trkpt>
      <trkpt lat="43.11593" lon="6.21272">
        <ele>47</ele>
        <time>2015-09-04T16:12:59.000Z</time>
      </trkpt>
      <trkpt lat="43.11593" lon="6.21272">
        <ele>47</ele>
        <time>2015-09-04T16:13:00.000Z</time>
      </trkpt>
      <trkpt lat="43.11593" lon="6.21272">
        <ele>47</ele>
        <time>2015-09-04T16:13:01.000Z</time>
      </trkpt>
      <trkpt lat="43.11593" lon="6.21272">
        <ele>47</ele>
        <time>2015-09-04T16:13:02.000Z</time>
      </trkpt>
      <trkpt lat="43.11594" lon="6.21271">
        <ele>47</ele>
        <time>2015-09-04T16:13:03.000Z</time>
      </trkpt>
      <trkpt lat="43.11594" lon="6.21271">
        <ele>47</ele>
        <time>2015-09-04T16:13:04.000Z</time>
      </trkpt>
      <trkpt lat="43.11594" lon="6.21271">
        <ele>46</ele>
        <time>2015-09-04T16:13:05.000Z</time>
      </trkpt>
      <trkpt lat="43.11595" lon="6.21271">
        <ele>46</ele>
        <time>2015-09-04T16:13:06.000Z</time>
      </trkpt>
      <trkpt lat="43.11595" lon="6.21271">
        <ele>47</ele>
        <time>2015-09-04T16:13:07.000Z</time>
      </trkpt>
      <trkpt lat="43.11595" lon="6.2127">
        <ele>46</ele>
        <time>2015-09-04T16:13:08.000Z</time>
      </trkpt>
      <trkpt lat="43.11595" lon="6.2127">
        <ele>46</ele>
        <time>2015-09-04T16:13:09.000Z</time>
      </trkpt>
      <trkpt lat="43.11595" lon="6.21269">
        <ele>46</ele>
        <time>2015-09-04T16:13:10.000Z</time>
      </trkpt>
      <trkpt lat="43.11595" lon="6.21269">
        <ele>46</ele>
        <time>2015-09-04T16:13:11.000Z</time>
      </trkpt>
      <trkpt lat="43.11595" lon="6.21269">
        <ele>46</ele>
        <time>2015-09-04T16:13:12.000Z</time>
      </trkpt>
      <trkpt lat="43.11595" lon="6.21269">
        <ele>46</ele>
        <time>2015-09-04T16:13:13.000Z</time>
      </trkpt>
      <trkpt lat="43.11595" lon="6.21269">
        <ele>46</ele>
        <time>2015-09-04T16:13:14.000Z</time>
      </trkpt>
      <trkpt lat="43.11595" lon="6.21269">
        <ele>46</ele>
        <time>2015-09-04T16:13:15.000Z</time>
      </trkpt>
      <trkpt lat="43.11595" lon="6.21268">
        <ele>46</ele>
        <time>2015-09-04T16:13:16.000Z</time>
      </trkpt>
      <trkpt lat="43.11595" lon="6.21268">
        <ele>46</ele>
        <time>2015-09-04T16:13:17.000Z</time>
      </trkpt>
      <trkpt lat="43.11595" lon="6.21268">
        <ele>47</ele>
        <time>2015-09-04T16:13:18.000Z</time>
      </trkpt>
      <trkpt lat="43.11595" lon="6.21268">
        <ele>47</ele>
        <time>2015-09-04T16:13:19.000Z</time>
      </trkpt>
      <trkpt lat="43.11595" lon="6.21268">
        <ele>47</ele>
        <time>2015-09-04T16:13:20.000Z</time>
      </trkpt>
      <trkpt lat="43.11596" lon="6.21268">
        <ele>46</ele>
        <time>2015-09-04T16:13:21.000Z</time>
      </trkpt>
      <trkpt lat="43.11596" lon="6.21268">
        <ele>47</ele>
        <time>2015-09-04T16:13:22.000Z</time>
      </trkpt>
      <trkpt lat="43.11597" lon="6.21268">
        <ele>47</ele>
        <time>2015-09-04T16:13:23.000Z</time>
      </trkpt>
      <trkpt lat="43.11597" lon="6.21268">
        <ele>47</ele>
        <time>2015-09-04T16:13:24.000Z</time>
      </trkpt>
      <trkpt lat="43.11598" lon="6.21269">
        <ele>47</ele>
        <time>2015-09-04T16:13:25.000Z</time>
      </trkpt>
      <trkpt lat="43.11599" lon="6.21269">
        <ele>47</ele>
        <time>2015-09-04T16:13:26.000Z</time>
      </trkpt>
      <trkpt lat="43.116" lon="6.2127">
        <ele>47</ele>
        <time>2015-09-04T16:13:27.000Z</time>
      </trkpt>
      <trkpt lat="43.116" lon="6.2127">
        <ele>47</ele>
        <time>2015-09-04T16:13:28.000Z</time>
      </trkpt>
      <trkpt lat="43.116" lon="6.2127">
        <ele>47</ele>
        <time>2015-09-04T16:13:29.000Z</time>
      </trkpt>
      <trkpt lat="43.11601" lon="6.2127">
        <ele>47</ele>
        <time>2015-09-04T16:13:30.000Z</time>
      </trkpt>
      <trkpt lat="43.11601" lon="6.21271">
        <ele>46</ele>
        <time>2015-09-04T16:13:31.000Z</time>
      </trkpt>
      <trkpt lat="43.11601" lon="6.21271">
        <ele>46</ele>
        <time>2015-09-04T16:13:32.000Z</time>
      </trkpt>
      <trkpt lat="43.11602" lon="6.21271">
        <ele>45</ele>
        <time>2015-09-04T16:13:33.000Z</time>
      </trkpt>
      <trkpt lat="43.11603" lon="6.21271">
        <ele>44</ele>
        <time>2015-09-04T16:13:34.000Z</time>
      </trkpt>
      <trkpt lat="43.11604" lon="6.21271">
        <ele>44</ele>
        <time>2015-09-04T16:13:35.000Z</time>
      </trkpt>
      <trkpt lat="43.11605" lon="6.2127">
        <ele>44</ele>
        <time>2015-09-04T16:13:36.000Z</time>
      </trkpt>
      <trkpt lat="43.11606" lon="6.2127">
        <ele>44</ele>
        <time>2015-09-04T16:13:37.000Z</time>
      </trkpt>
      <trkpt lat="43.11607" lon="6.2127">
        <ele>44</ele>
        <time>2015-09-04T16:13:38.000Z</time>
      </trkpt>
      <trkpt lat="43.11607" lon="6.2127">
        <ele>44</ele>
        <time>2015-09-04T16:13:39.000Z</time>
      </trkpt>
      <trkpt lat="43.11607" lon="6.2127">
        <ele>44</ele>
        <time>2015-09-04T16:13:40.000Z</time>
      </trkpt>
      <trkpt lat="43.11608" lon="6.2127">
        <ele>44</ele>
        <time>2015-09-04T16:13:41.000Z</time>
      </trkpt>
      <trkpt lat="43.11608" lon="6.2127">
        <ele>44</ele>
        <time>2015-09-04T16:13:42.000Z</time>
      </trkpt>
      <trkpt lat="43.11608" lon="6.2127">
        <ele>44</ele>
        <time>2015-09-04T16:13:43.000Z</time>
      </trkpt>
      <trkpt lat="43.11608" lon="6.2127">
        <ele>45</ele>
        <time>2015-09-04T16:13:44.000Z</time>
      </trkpt>
      <trkpt lat="43.11608" lon="6.2127">
        <ele>44</ele>
        <time>2015-09-04T16:13:45.000Z</time>
      </trkpt>
      <trkpt lat="43.11609" lon="6.2127">
        <ele>44</ele>
        <time>2015-09-04T16:13:46.000Z</time>
      </trkpt>
      <trkpt lat="43.11609" lon="6.2127">
        <ele>44</ele>
        <time>2015-09-04T16:13:47.000Z</time>
      </trkpt>
      <trkpt lat="43.11609" lon="6.2127">
        <ele>44</ele>
        <time>2015-09-04T16:13:48.000Z</time>
      </trkpt>
      <trkpt lat="43.11609" lon="6.2127">
        <ele>45</ele>
        <time>2015-09-04T16:13:49.000Z</time>
      </trkpt>
      <trkpt lat="43.11609" lon="6.2127">
        <ele>44</ele>
        <time>2015-09-04T16:13:50.000Z</time>
      </trkpt>
      <trkpt lat="43.1161" lon="6.2127">
        <ele>44</ele>
        <time>2015-09-04T16:13:51.000Z</time>
      </trkpt>
      <trkpt lat="43.11611" lon="6.21269">
        <ele>43</ele>
        <time>2015-09-04T16:13:52.000Z</time>
      </trkpt>
      <trkpt lat="43.11611" lon="6.21269">
        <ele>42</ele>
        <time>2015-09-04T16:13:53.000Z</time>
      </trkpt>
      <trkpt lat="43.11611" lon="6.2127">
        <ele>42</ele>
        <time>2015-09-04T16:13:54.000Z</time>
      </trkpt>
      <trkpt lat="43.11612" lon="6.2127">
        <ele>43</ele>
        <time>2015-09-04T16:13:55.000Z</time>
      </trkpt>
      <trkpt lat="43.11612" lon="6.2127">
        <ele>43</ele>
        <time>2015-09-04T16:13:56.000Z</time>
      </trkpt>
      <trkpt lat="43.11612" lon="6.2127">
        <ele>43</ele>
        <time>2015-09-04T16:13:57.000Z</time>
      </trkpt>
      <trkpt lat="43.11612" lon="6.2127">
        <ele>43</ele>
        <time>2015-09-04T16:13:58.000Z</time>
      </trkpt>
      <trkpt lat="43.11612" lon="6.2127">
        <ele>43</ele>
        <time>2015-09-04T16:13:59.000Z</time>
      </trkpt>
      <trkpt lat="43.11612" lon="6.2127">
        <ele>43</ele>
        <time>2015-09-04T16:14:00.000Z</time>
      </trkpt>
      <trkpt lat="43.11612" lon="6.2127">
        <ele>43</ele>
        <time>2015-09-04T16:14:01.000Z</time>
      </trkpt>
      <trkpt lat="43.11612" lon="6.2127">
        <ele>43</ele>
        <time>2015-09-04T16:14:02.000Z</time>
      </trkpt>
      <trkpt lat="43.11612" lon="6.2127">
        <ele>43</ele>
        <time>2015-09-04T16:14:03.000Z</time>
      </trkpt>
      <trkpt lat="43.11612" lon="6.2127">
        <ele>43</ele>
        <time>2015-09-04T16:14:04.000Z</time>
      </trkpt>
      <trkpt lat="43.11612" lon="6.2127">
        <ele>43</ele>
        <time>2015-09-04T16:14:05.000Z</time>
      </trkpt>
      <trkpt lat="43.11612" lon="6.2127">
        <ele>43</ele>
        <time>2015-09-04T16:14:06.000Z</time>
      </trkpt>
      <trkpt lat="43.11612" lon="6.2127">
        <ele>43</ele>
        <time>2015-09-04T16:14:07.000Z</time>
      </trkpt>
      <trkpt lat="43.11612" lon="6.2127">
        <ele>43</ele>
        <time>2015-09-04T16:14:08.000Z</time>
      </trkpt>
      <trkpt lat="43.11612" lon="6.2127">
        <ele>43</ele>
        <time>2015-09-04T16:14:09.000Z</time>
      </trkpt>
      <trkpt lat="43.11612" lon="6.2127">
        <ele>43</ele>
        <time>2015-09-04T16:14:10.000Z</time>
      </trkpt>
      <trkpt lat="43.11612" lon="6.21269">
        <ele>43</ele>
        <time>2015-09-04T16:14:11.000Z</time>
      </trkpt>
      <trkpt lat="43.11612" lon="6.21269">
        <ele>44</ele>
        <time>2015-09-04T16:14:12.000Z</time>
      </trkpt>
      <trkpt lat="43.11612" lon="6.21269">
        <ele>43</ele>
        <time>2015-09-04T16:14:13.000Z</time>
      </trkpt>
      <trkpt lat="43.11612" lon="6.21269">
        <ele>43</ele>
        <time>2015-09-04T16:14:14.000Z</time>
      </trkpt>
      <trkpt lat="43.11612" lon="6.21269">
        <ele>43</ele>
        <time>2015-09-04T16:14:15.000Z</time>
      </trkpt>
      <trkpt lat="43.11612" lon="6.21269">
        <ele>44</ele>
        <time>2015-09-04T16:14:16.000Z</time>
      </trkpt>
      <trkpt lat="43.11612" lon="6.21269">
        <ele>43</ele>
        <time>2015-09-04T16:14:17.000Z</time>
      </trkpt>
      <trkpt lat="43.11612" lon="6.21269">
        <ele>43</ele>
        <time>2015-09-04T16:14:18.000Z</time>
      </trkpt>
      <trkpt lat="43.11612" lon="6.21269">
        <ele>43</ele>
        <time>2015-09-04T16:14:19.000Z</time>
      </trkpt>
      <trkpt lat="43.11612" lon="6.21269">
        <ele>44</ele>
        <time>2015-09-04T16:14:20.000Z</time>
      </trkpt>
      <trkpt lat="43.11612" lon="6.21269">
        <ele>44</ele>
        <time>2015-09-04T16:14:21.000Z</time>
      </trkpt>
      <trkpt lat="43.11612" lon="6.21269">
        <ele>44</ele>
        <time>2015-09-04T16:14:22.000Z</time>
      </trkpt>
      <trkpt lat="43.11612" lon="6.21269">
        <ele>44</ele>
        <time>2015-09-04T16:14:23.000Z</time>
      </trkpt>
      <trkpt lat="43.11612" lon="6.21269">
        <ele>44</ele>
        <time>2015-09-04T16:14:24.000Z</time>
      </trkpt>
      <trkpt lat="43.11612" lon="6.2127">
        <ele>44</ele>
        <time>2015-09-04T16:14:25.000Z</time>
      </trkpt>
      <trkpt lat="43.11612" lon="6.21269">
        <ele>44</ele>
        <time>2015-09-04T16:14:26.000Z</time>
      </trkpt>
      <trkpt lat="43.11612" lon="6.21269">
        <ele>44</ele>
        <time>2015-09-04T16:14:27.000Z</time>
      </trkpt>
      <trkpt lat="43.11612" lon="6.21269">
        <ele>44</ele>
        <time>2015-09-04T16:14:28.000Z</time>
      </trkpt>
      <trkpt lat="43.11612" lon="6.21269">
        <ele>44</ele>
        <time>2015-09-04T16:14:29.000Z</time>
      </trkpt>
      <trkpt lat="43.11612" lon="6.21269">
        <ele>44</ele>
        <time>2015-09-04T16:14:30.000Z</time>
      </trkpt>
      <trkpt lat="43.11612" lon="6.21269">
        <ele>44</ele>
        <time>2015-09-04T16:14:31.000Z</time>
      </trkpt>
      <trkpt lat="43.11612" lon="6.21269">
        <ele>44</ele>
        <time>2015-09-04T16:14:32.000Z</time>
      </trkpt>
      <trkpt lat="43.11612" lon="6.21269">
        <ele>44</ele>
        <time>2015-09-04T16:14:33.000Z</time>
      </trkpt>
      <trkpt lat="43.11612" lon="6.21269">
        <ele>44</ele>
        <time>2015-09-04T16:14:34.000Z</time>
      </trkpt>
      <trkpt lat="43.11612" lon="6.21269">
        <ele>44</ele>
        <time>2015-09-04T16:14:35.000Z</time>
      </trkpt>
      <trkpt lat="43.11612" lon="6.21269">
        <ele>44</ele>
        <time>2015-09-04T16:14:36.000Z</time>
      </trkpt>
      <trkpt lat="43.11612" lon="6.21269">
        <ele>44</ele>
        <time>2015-09-04T16:14:37.000Z</time>
      </trkpt>
      <trkpt lat="43.11612" lon="6.21269">
        <ele>44</ele>
        <time>2015-09-04T16:14:38.000Z</time>
      </trkpt>
      <trkpt lat="43.11612" lon="6.21269">
        <ele>44</ele>
        <time>2015-09-04T16:14:39.000Z</time>
      </trkpt>
      <trkpt lat="43.11612" lon="6.21269">
        <ele>44</ele>
        <time>2015-09-04T16:14:40.000Z</time>
      </trkpt>
      <trkpt lat="43.11612" lon="6.21269">
        <ele>44</ele>
        <time>2015-09-04T16:14:41.000Z</time>
      </trkpt>
      <trkpt lat="43.11612" lon="6.21269">
        <ele>44</ele>
        <time>2015-09-04T16:14:42.000Z</time>
      </trkpt>
      <trkpt lat="43.11612" lon="6.21269">
        <ele>43</ele>
        <time>2015-09-04T16:14:43.000Z</time>
      </trkpt>
      <trkpt lat="43.11612" lon="6.21269">
        <ele>44</ele>
        <time>2015-09-04T16:14:44.000Z</time>
      </trkpt>
      <trkpt lat="43.11612" lon="6.21269">
        <ele>44</ele>
        <time>2015-09-04T16:14:45.000Z</time>
      </trkpt>
      <trkpt lat="43.11612" lon="6.21269">
        <ele>44</ele>
        <time>2015-09-04T16:14:46.000Z</time>
      </trkpt>
      <trkpt lat="43.11612" lon="6.21269">
        <ele>44</ele>
        <time>2015-09-04T16:14:47.000Z</time>
      </trkpt>
      <trkpt lat="43.11612" lon="6.21269">
        <ele>44</ele>
        <time>2015-09-04T16:14:48.000Z</time>
      </trkpt>
      <trkpt lat="43.11612" lon="6.21269">
        <ele>44</ele>
        <time>2015-09-04T16:14:49.000Z</time>
      </trkpt>
      <trkpt lat="43.11611" lon="6.21269">
        <ele>44</ele>
        <time>2015-09-04T16:14:50.000Z</time>
      </trkpt>
      <trkpt lat="43.11611" lon="6.21269">
        <ele>44</ele>
        <time>2015-09-04T16:14:51.000Z</time>
      </trkpt>
      <trkpt lat="43.11611" lon="6.21269">
        <ele>45</ele>
        <time>2015-09-04T16:14:52.000Z</time>
      </trkpt>
      <trkpt lat="43.11611" lon="6.21269">
        <ele>45</ele>
        <time>2015-09-04T16:14:53.000Z</time>
      </trkpt>
      <trkpt lat="43.11611" lon="6.21269">
        <ele>45</ele>
        <time>2015-09-04T16:14:54.000Z</time>
      </trkpt>
      <trkpt lat="43.11611" lon="6.21269">
        <ele>45</ele>
        <time>2015-09-04T16:14:55.000Z</time>
      </trkpt>
      <trkpt lat="43.11611" lon="6.21269">
        <ele>45</ele>
        <time>2015-09-04T16:14:56.000Z</time>
      </trkpt>
      <trkpt lat="43.11611" lon="6.21269">
        <ele>45</ele>
        <time>2015-09-04T16:14:57.000Z</time>
      </trkpt>
      <trkpt lat="43.11611" lon="6.21269">
        <ele>45</ele>
        <time>2015-09-04T16:14:58.000Z</time>
      </trkpt>
      <trkpt lat="43.11611" lon="6.21269">
        <ele>45</ele>
        <time>2015-09-04T16:14:59.000Z</time>
      </trkpt>
      <trkpt lat="43.11611" lon="6.21269">
        <ele>45</ele>
        <time>2015-09-04T16:15:00.000Z</time>
      </trkpt>
      <trkpt lat="43.11611" lon="6.21269">
        <ele>45</ele>
        <time>2015-09-04T16:15:01.000Z</time>
      </trkpt>
      <trkpt lat="43.11611" lon="6.21269">
        <ele>45</ele>
        <time>2015-09-04T16:15:02.000Z</time>
      </trkpt>
      <trkpt lat="43.11611" lon="6.21269">
        <ele>45</ele>
        <time>2015-09-04T16:15:03.000Z</time>
      </trkpt>
      <trkpt lat="43.11611" lon="6.21269">
        <ele>45</ele>
        <time>2015-09-04T16:15:04.000Z</time>
      </trkpt>
      <trkpt lat="43.11611" lon="6.21269">
        <ele>45</ele>
        <time>2015-09-04T16:15:05.000Z</time>
      </trkpt>
      <trkpt lat="43.11611" lon="6.21269">
        <ele>45</ele>
        <time>2015-09-04T16:15:06.000Z</time>
      </trkpt>
      <trkpt lat="43.11611" lon="6.21269">
        <ele>45</ele>
        <time>2015-09-04T16:15:07.000Z</time>
      </trkpt>
      <trkpt lat="43.11611" lon="6.21269">
        <ele>45</ele>
        <time>2015-09-04T16:15:08.000Z</time>
      </trkpt>
      <trkpt lat="43.11611" lon="6.21269">
        <ele>45</ele>
        <time>2015-09-04T16:15:09.000Z</time>
      </trkpt>
      <trkpt lat="43.11611" lon="6.21269">
        <ele>45</ele>
        <time>2015-09-04T16:15:10.000Z</time>
      </trkpt>
      <trkpt lat="43.11611" lon="6.21269">
        <ele>45</ele>
        <time>2015-09-04T16:15:11.000Z</time>
      </trkpt>
      <trkpt lat="43.11611" lon="6.21269">
        <ele>45</ele>
        <time>2015-09-04T16:15:12.000Z</time>
      </trkpt>
      <trkpt lat="43.11611" lon="6.21269">
        <ele>45</ele>
        <time>2015-09-04T16:15:13.000Z</time>
      </trkpt>
      <trkpt lat="43.11611" lon="6.21269">
        <ele>45</ele>
        <time>2015-09-04T16:15:14.000Z</time>
      </trkpt>
      <trkpt lat="43.11611" lon="6.21269">
        <ele>45</ele>
        <time>2015-09-04T16:15:15.000Z</time>
      </trkpt>
      <trkpt lat="43.11611" lon="6.21269">
        <ele>45</ele>
        <time>2015-09-04T16:15:16.000Z</time>
      </trkpt>
      <trkpt lat="43.11611" lon="6.21269">
        <ele>45</ele>
        <time>2015-09-04T16:15:17.000Z</time>
      </trkpt>
      <trkpt lat="43.11611" lon="6.21269">
        <ele>45</ele>
        <time>2015-09-04T16:15:18.000Z</time>
      </trkpt>
      <trkpt lat="43.11611" lon="6.21269">
        <ele>45</ele>
        <time>2015-09-04T16:15:19.000Z</time>
      </trkpt>
      <trkpt lat="43.11611" lon="6.21269">
        <ele>45</ele>
        <time>2015-09-04T16:15:20.000Z</time>
      </trkpt>
      <trkpt lat="43.11611" lon="6.21269">
        <ele>45</ele>
        <time>2015-09-04T16:15:21.000Z</time>
      </trkpt>
      <trkpt lat="43.11611" lon="6.21269">
        <ele>45</ele>
        <time>2015-09-04T16:15:22.000Z</time>
      </trkpt>
      <trkpt lat="43.11611" lon="6.21268">
        <ele>45</ele>
        <time>2015-09-04T16:15:23.000Z</time>
      </trkpt>
      <trkpt lat="43.11611" lon="6.21268">
        <ele>45</ele>
        <time>2015-09-04T16:15:24.000Z</time>
      </trkpt>
      <trkpt lat="43.11611" lon="6.21268">
        <ele>45</ele>
        <time>2015-09-04T16:15:25.000Z</time>
      </trkpt>
      <trkpt lat="43.11611" lon="6.21268">
        <ele>45</ele>
        <time>2015-09-04T16:15:26.000Z</time>
      </trkpt>
      <trkpt lat="43.11611" lon="6.21268">
        <ele>45</ele>
        <time>2015-09-04T16:15:27.000Z</time>
      </trkpt>
      <trkpt lat="43.11611" lon="6.21268">
        <ele>45</ele>
        <time>2015-09-04T16:15:28.000Z</time>
      </trkpt>
      <trkpt lat="43.11611" lon="6.21268">
        <ele>45</ele>
        <time>2015-09-04T16:15:29.000Z</time>
      </trkpt>
      <trkpt lat="43.11611" lon="6.21268">
        <ele>45</ele>
        <time>2015-09-04T16:15:30.000Z</time>
      </trkpt>
      <trkpt lat="43.11611" lon="6.21268">
        <ele>45</ele>
        <time>2015-09-04T16:15:31.000Z</time>
      </trkpt>
      <trkpt lat="43.11611" lon="6.21268">
        <ele>45</ele>
        <time>2015-09-04T16:15:32.000Z</time>
      </trkpt>
      <trkpt lat="43.11611" lon="6.21268">
        <ele>45</ele>
        <time>2015-09-04T16:15:33.000Z</time>
      </trkpt>
      <trkpt lat="43.11611" lon="6.21268">
        <ele>45</ele>
        <time>2015-09-04T16:15:34.000Z</time>
      </trkpt>
      <trkpt lat="43.11611" lon="6.21268">
        <ele>45</ele>
        <time>2015-09-04T16:15:35.000Z</time>
      </trkpt>
      <trkpt lat="43.11611" lon="6.21268">
        <ele>45</ele>
        <time>2015-09-04T16:15:36.000Z</time>
      </trkpt>
      <trkpt lat="43.11611" lon="6.21268">
        <ele>45</ele>
        <time>2015-09-04T16:15:37.000Z</time>
      </trkpt>
      <trkpt lat="43.11611" lon="6.21268">
        <ele>45</ele>
        <time>2015-09-04T16:15:38.000Z</time>
      </trkpt>
      <trkpt lat="43.11611" lon="6.21268">
        <ele>45</ele>
        <time>2015-09-04T16:15:39.000Z</time>
      </trkpt>
      <trkpt lat="43.11611" lon="6.21268">
        <ele>45</ele>
        <time>2015-09-04T16:15:40.000Z</time>
      </trkpt>
      <trkpt lat="43.11611" lon="6.21268">
        <ele>45</ele>
        <time>2015-09-04T16:15:41.000Z</time>
      </trkpt>
      <trkpt lat="43.11611" lon="6.21269">
        <ele>45</ele>
        <time>2015-09-04T16:15:42.000Z</time>
      </trkpt>
      <trkpt lat="43.11611" lon="6.21269">
        <ele>45</ele>
        <time>2015-09-04T16:15:43.000Z</time>
      </trkpt>
      <trkpt lat="43.11611" lon="6.21269">
        <ele>45</ele>
        <time>2015-09-04T16:15:44.000Z</time>
      </trkpt>
      <trkpt lat="43.1161" lon="6.2127">
        <ele>45</ele>
        <time>2015-09-04T16:15:45.000Z</time>
      </trkpt>
      <trkpt lat="43.1161" lon="6.2127">
        <ele>45</ele>
        <time>2015-09-04T16:15:46.000Z</time>
      </trkpt>
      <trkpt lat="43.1161" lon="6.2127">
        <ele>44</ele>
        <time>2015-09-04T16:15:47.000Z</time>
      </trkpt>
      <trkpt lat="43.1161" lon="6.2127">
        <ele>45</ele>
        <time>2015-09-04T16:15:48.000Z</time>
      </trkpt>
      <trkpt lat="43.1161" lon="6.2127">
        <ele>45</ele>
        <time>2015-09-04T16:15:49.000Z</time>
      </trkpt>
      <trkpt lat="43.1161" lon="6.2127">
        <ele>45</ele>
        <time>2015-09-04T16:15:50.000Z</time>
      </trkpt>
      <trkpt lat="43.1161" lon="6.21269">
        <ele>45</ele>
        <time>2015-09-04T16:15:51.000Z</time>
      </trkpt>
      <trkpt lat="43.1161" lon="6.21269">
        <ele>45</ele>
        <time>2015-09-04T16:15:52.000Z</time>
      </trkpt>
      <trkpt lat="43.1161" lon="6.21269">
        <ele>45</ele>
        <time>2015-09-04T16:15:53.000Z</time>
      </trkpt>
      <trkpt lat="43.1161" lon="6.21269">
        <ele>45</ele>
        <time>2015-09-04T16:15:54.000Z</time>
      </trkpt>
      <trkpt lat="43.1161" lon="6.21269">
        <ele>45</ele>
        <time>2015-09-04T16:15:55.000Z</time>
      </trkpt>
      <trkpt lat="43.1161" lon="6.21269">
        <ele>45</ele>
        <time>2015-09-04T16:15:56.000Z</time>
      </trkpt>
      <trkpt lat="43.1161" lon="6.21269">
        <ele>45</ele>
        <time>2015-09-04T16:15:57.000Z</time>
      </trkpt>
      <trkpt lat="43.1161" lon="6.21269">
        <ele>45</ele>
        <time>2015-09-04T16:15:58.000Z</time>
      </trkpt>
      <trkpt lat="43.1161" lon="6.21269">
        <ele>45</ele>
        <time>2015-09-04T16:15:59.000Z</time>
      </trkpt>
      <trkpt lat="43.1161" lon="6.21269">
        <ele>45</ele>
        <time>2015-09-04T16:16:00.000Z</time>
      </trkpt>
      <trkpt lat="43.1161" lon="6.21269">
        <ele>45</ele>
        <time>2015-09-04T16:16:01.000Z</time>
      </trkpt>
      <trkpt lat="43.1161" lon="6.21269">
        <ele>45</ele>
        <time>2015-09-04T16:16:02.000Z</time>
      </trkpt>
      <trkpt lat="43.1161" lon="6.21269">
        <ele>45</ele>
        <time>2015-09-04T16:16:03.000Z</time>
      </trkpt>
      <trkpt lat="43.1161" lon="6.21269">
        <ele>45</ele>
        <time>2015-09-04T16:16:04.000Z</time>
      </trkpt>
      <trkpt lat="43.1161" lon="6.21269">
        <ele>45</ele>
        <time>2015-09-04T16:16:05.000Z</time>
      </trkpt>
      <trkpt lat="43.1161" lon="6.21269">
        <ele>45</ele>
        <time>2015-09-04T16:16:06.000Z</time>
      </trkpt>
      <trkpt lat="43.1161" lon="6.21269">
        <ele>45</ele>
        <time>2015-09-04T16:16:07.000Z</time>
      </trkpt>
      <trkpt lat="43.1161" lon="6.21269">
        <ele>45</ele>
        <time>2015-09-04T16:16:08.000Z</time>
      </trkpt>
      <trkpt lat="43.1161" lon="6.21269">
        <ele>45</ele>
        <time>2015-09-04T16:16:09.000Z</time>
      </trkpt>
      <trkpt lat="43.1161" lon="6.21269">
        <ele>45</ele>
        <time>2015-09-04T16:16:10.000Z</time>
      </trkpt>
      <trkpt lat="43.11609" lon="6.21269">
        <ele>45</ele>
        <time>2015-09-04T16:16:11.000Z</time>
      </trkpt>
      <trkpt lat="43.11609" lon="6.21269">
        <ele>45</ele>
        <time>2015-09-04T16:16:12.000Z</time>
      </trkpt>
      <trkpt lat="43.1161" lon="6.21269">
        <ele>41</ele>
        <time>2015-09-04T16:16:13.000Z</time>
      </trkpt>
      <trkpt lat="43.11611" lon="6.21271">
        <ele>38</ele>
        <time>2015-09-04T16:16:14.000Z</time>
      </trkpt>
      <trkpt lat="43.11612" lon="6.21272">
        <ele>39</ele>
        <time>2015-09-04T16:16:15.000Z</time>
      </trkpt>
      <trkpt lat="43.11612" lon="6.21272">
        <ele>39</ele>
        <time>2015-09-04T16:16:16.000Z</time>
      </trkpt>
      <trkpt lat="43.11612" lon="6.21273">
        <ele>39</ele>
        <time>2015-09-04T16:16:17.000Z</time>
      </trkpt>
      <trkpt lat="43.11612" lon="6.21272">
        <ele>40</ele>
        <time>2015-09-04T16:16:18.000Z</time>
      </trkpt>
      <trkpt lat="43.11612" lon="6.21272">
        <ele>41</ele>
        <time>2015-09-04T16:16:19.000Z</time>
      </trkpt>
      <trkpt lat="43.11612" lon="6.21271">
        <ele>41</ele>
        <time>2015-09-04T16:16:20.000Z</time>
      </trkpt>
      <trkpt lat="43.11612" lon="6.2127">
        <ele>41</ele>
        <time>2015-09-04T16:16:21.000Z</time>
      </trkpt>
      <trkpt lat="43.11611" lon="6.2127">
        <ele>41</ele>
        <time>2015-09-04T16:16:22.000Z</time>
      </trkpt>
      <trkpt lat="43.11611" lon="6.2127">
        <ele>41</ele>
        <time>2015-09-04T16:16:23.000Z</time>
      </trkpt>
      <trkpt lat="43.11611" lon="6.21269">
        <ele>41</ele>
        <time>2015-09-04T16:16:24.000Z</time>
      </trkpt>
      <trkpt lat="43.11611" lon="6.21269">
        <ele>41</ele>
        <time>2015-09-04T16:16:25.000Z</time>
      </trkpt>
      <trkpt lat="43.11611" lon="6.21269">
        <ele>41</ele>
        <time>2015-09-04T16:16:26.000Z</time>
      </trkpt>
      <trkpt lat="43.11611" lon="6.21269">
        <ele>41</ele>
        <time>2015-09-04T16:16:27.000Z</time>
      </trkpt>
      <trkpt lat="43.11611" lon="6.21269">
        <ele>41</ele>
        <time>2015-09-04T16:16:28.000Z</time>
      </trkpt>
      <trkpt lat="43.11611" lon="6.21269">
        <ele>42</ele>
        <time>2015-09-04T16:16:29.000Z</time>
      </trkpt>
      <trkpt lat="43.11611" lon="6.21268">
        <ele>42</ele>
        <time>2015-09-04T16:16:30.000Z</time>
      </trkpt>
      <trkpt lat="43.11611" lon="6.21268">
        <ele>42</ele>
        <time>2015-09-04T16:16:31.000Z</time>
      </trkpt>
      <trkpt lat="43.11611" lon="6.21268">
        <ele>43</ele>
        <time>2015-09-04T16:16:32.000Z</time>
      </trkpt>
      <trkpt lat="43.11611" lon="6.21268">
        <ele>43</ele>
        <time>2015-09-04T16:16:33.000Z</time>
      </trkpt>
      <trkpt lat="43.11611" lon="6.21268">
        <ele>43</ele>
        <time>2015-09-04T16:16:34.000Z</time>
      </trkpt>
      <trkpt lat="43.11611" lon="6.21268">
        <ele>44</ele>
        <time>2015-09-04T16:16:35.000Z</time>
      </trkpt>
      <trkpt lat="43.11611" lon="6.21268">
        <ele>44</ele>
        <time>2015-09-04T16:16:36.000Z</time>
      </trkpt>
      <trkpt lat="43.11611" lon="6.21268">
        <ele>43</ele>
        <time>2015-09-04T16:16:37.000Z</time>
      </trkpt>
      <trkpt lat="43.11611" lon="6.21268">
        <ele>43</ele>
        <time>2015-09-04T16:16:38.000Z</time>
      </trkpt>
      <trkpt lat="43.11611" lon="6.21268">
        <ele>44</ele>
        <time>2015-09-04T16:16:39.000Z</time>
      </trkpt>
      <trkpt lat="43.11611" lon="6.21268">
        <ele>44</ele>
        <time>2015-09-04T16:16:40.000Z</time>
      </trkpt>
      <trkpt lat="43.11611" lon="6.21268">
        <ele>44</ele>
        <time>2015-09-04T16:16:41.000Z</time>
      </trkpt>
      <trkpt lat="43.11611" lon="6.21268">
        <ele>44</ele>
        <time>2015-09-04T16:16:42.000Z</time>
      </trkpt>
      <trkpt lat="43.11611" lon="6.21268">
        <ele>44</ele>
        <time>2015-09-04T16:16:43.000Z</time>
      </trkpt>
      <trkpt lat="43.11611" lon="6.21268">
        <ele>44</ele>
        <time>2015-09-04T16:16:44.000Z</time>
      </trkpt>
      <trkpt lat="43.11611" lon="6.21268">
        <ele>44</ele>
        <time>2015-09-04T16:16:45.000Z</time>
      </trkpt>
      <trkpt lat="43.11611" lon="6.21268">
        <ele>44</ele>
        <time>2015-09-04T16:16:46.000Z</time>
      </trkpt>
      <trkpt lat="43.11611" lon="6.21268">
        <ele>44</ele>
        <time>2015-09-04T16:16:47.000Z</time>
      </trkpt>
      <trkpt lat="43.1161" lon="6.21268">
        <ele>44</ele>
        <time>2015-09-04T16:16:48.000Z</time>
      </trkpt>
      <trkpt lat="43.1161" lon="6.21268">
        <ele>44</ele>
        <time>2015-09-04T16:16:49.000Z</time>
      </trkpt>
      <trkpt lat="43.1161" lon="6.21268">
        <ele>44</ele>
        <time>2015-09-04T16:16:50.000Z</time>
      </trkpt>
      <trkpt lat="43.1161" lon="6.21268">
        <ele>44</ele>
        <time>2015-09-04T16:16:51.000Z</time>
      </trkpt>
      <trkpt lat="43.1161" lon="6.21268">
        <ele>45</ele>
        <time>2015-09-04T16:16:52.000Z</time>
      </trkpt>
      <trkpt lat="43.1161" lon="6.21268">
        <ele>45</ele>
        <time>2015-09-04T16:16:53.000Z</time>
      </trkpt>
      <trkpt lat="43.1161" lon="6.21268">
        <ele>45</ele>
        <time>2015-09-04T16:16:54.000Z</time>
      </trkpt>
      <trkpt lat="43.1161" lon="6.21268">
        <ele>45</ele>
        <time>2015-09-04T16:16:55.000Z</time>
      </trkpt>
      <trkpt lat="43.1161" lon="6.21268">
        <ele>45</ele>
        <time>2015-09-04T16:16:56.000Z</time>
      </trkpt>
      <trkpt lat="43.1161" lon="6.21268">
        <ele>45</ele>
        <time>2015-09-04T16:16:57.000Z</time>
      </trkpt>
      <trkpt lat="43.1161" lon="6.21268">
        <ele>45</ele>
        <time>2015-09-04T16:16:58.000Z</time>
      </trkpt>
      <trkpt lat="43.11609" lon="6.21268">
        <ele>45</ele>
        <time>2015-09-04T16:16:59.000Z</time>
      </trkpt>
      <trkpt lat="43.11609" lon="6.21268">
        <ele>45</ele>
        <time>2015-09-04T16:17:00.000Z</time>
      </trkpt>
      <trkpt lat="43.11609" lon="6.21268">
        <ele>45</ele>
        <time>2015-09-04T16:17:01.000Z</time>
      </trkpt>
      <trkpt lat="43.11609" lon="6.21268">
        <ele>45</ele>
        <time>2015-09-04T16:17:02.000Z</time>
      </trkpt>
      <trkpt lat="43.11609" lon="6.21268">
        <ele>45</ele>
        <time>2015-09-04T16:17:03.000Z</time>
      </trkpt>
      <trkpt lat="43.11609" lon="6.21268">
        <ele>45</ele>
        <time>2015-09-04T16:17:04.000Z</time>
      </trkpt>
      <trkpt lat="43.11609" lon="6.21268">
        <ele>45</ele>
        <time>2015-09-04T16:17:05.000Z</time>
      </trkpt>
      <trkpt lat="43.11609" lon="6.21268">
        <ele>45</ele>
        <time>2015-09-04T16:17:06.000Z</time>
      </trkpt>
      <trkpt lat="43.11609" lon="6.21268">
        <ele>45</ele>
        <time>2015-09-04T16:17:07.000Z</time>
      </trkpt>
      <trkpt lat="43.11609" lon="6.21268">
        <ele>45</ele>
        <time>2015-09-04T16:17:08.000Z</time>
      </trkpt>
      <trkpt lat="43.11609" lon="6.21268">
        <ele>45</ele>
        <time>2015-09-04T16:17:09.000Z</time>
      </trkpt>
      <trkpt lat="43.11609" lon="6.21268">
        <ele>45</ele>
        <time>2015-09-04T16:17:10.000Z</time>
      </trkpt>
      <trkpt lat="43.11609" lon="6.21268">
        <ele>45</ele>
        <time>2015-09-04T16:17:11.000Z</time>
      </trkpt>
      <trkpt lat="43.11609" lon="6.21268">
        <ele>45</ele>
        <time>2015-09-04T16:17:12.000Z</time>
      </trkpt>
      <trkpt lat="43.11609" lon="6.21268">
        <ele>45</ele>
        <time>2015-09-04T16:17:13.000Z</time>
      </trkpt>
      <trkpt lat="43.11609" lon="6.21268">
        <ele>45</ele>
        <time>2015-09-04T16:17:14.000Z</time>
      </trkpt>
      <trkpt lat="43.11609" lon="6.21268">
        <ele>45</ele>
        <time>2015-09-04T16:17:15.000Z</time>
      </trkpt>
      <trkpt lat="43.11609" lon="6.21268">
        <ele>45</ele>
        <time>2015-09-04T16:17:16.000Z</time>
      </trkpt>
      <trkpt lat="43.11609" lon="6.21268">
        <ele>45</ele>
        <time>2015-09-04T16:17:17.000Z</time>
      </trkpt>
      <trkpt lat="43.11609" lon="6.21268">
        <ele>46</ele>
        <time>2015-09-04T16:17:18.000Z</time>
      </trkpt>
      <trkpt lat="43.11609" lon="6.21268">
        <ele>45</ele>
        <time>2015-09-04T16:17:19.000Z</time>
      </trkpt>
      <trkpt lat="43.11609" lon="6.21268">
        <ele>45</ele>
        <time>2015-09-04T16:17:20.000Z</time>
      </trkpt>
      <trkpt lat="43.11609" lon="6.21268">
        <ele>45</ele>
        <time>2015-09-04T16:17:21.000Z</time>
      </trkpt>
      <trkpt lat="43.11609" lon="6.21268">
        <ele>45</ele>
        <time>2015-09-04T16:17:22.000Z</time>
      </trkpt>
      <trkpt lat="43.11609" lon="6.21268">
        <ele>45</ele>
        <time>2015-09-04T16:17:23.000Z</time>
      </trkpt>
      <trkpt lat="43.11609" lon="6.21268">
        <ele>45</ele>
        <time>2015-09-04T16:17:24.000Z</time>
      </trkpt>
      <trkpt lat="43.11609" lon="6.21267">
        <ele>45</ele>
        <time>2015-09-04T16:17:25.000Z</time>
      </trkpt>
      <trkpt lat="43.11609" lon="6.21267">
        <ele>45</ele>
        <time>2015-09-04T16:17:26.000Z</time>
      </trkpt>
      <trkpt lat="43.11609" lon="6.21267">
        <ele>45</ele>
        <time>2015-09-04T16:17:27.000Z</time>
      </trkpt>
      <trkpt lat="43.11609" lon="6.21267">
        <ele>45</ele>
        <time>2015-09-04T16:17:28.000Z</time>
      </trkpt>
      <trkpt lat="43.11609" lon="6.21267">
        <ele>45</ele>
        <time>2015-09-04T16:17:29.000Z</time>
      </trkpt>
      <trkpt lat="43.11609" lon="6.21267">
        <ele>45</ele>
        <time>2015-09-04T16:17:30.000Z</time>
      </trkpt>
      <trkpt lat="43.11609" lon="6.21267">
        <ele>45</ele>
        <time>2015-09-04T16:17:31.000Z</time>
      </trkpt>
      <trkpt lat="43.1161" lon="6.21268">
        <ele>46</ele>
        <time>2015-09-04T16:17:32.000Z</time>
      </trkpt>
      <trkpt lat="43.1161" lon="6.21268">
        <ele>46</ele>
        <time>2015-09-04T16:17:33.000Z</time>
      </trkpt>
      <trkpt lat="43.1161" lon="6.21268">
        <ele>46</ele>
        <time>2015-09-04T16:17:34.000Z</time>
      </trkpt>
      <trkpt lat="43.1161" lon="6.21269">
        <ele>46</ele>
        <time>2015-09-04T16:17:35.000Z</time>
      </trkpt>
      <trkpt lat="43.1161" lon="6.21269">
        <ele>46</ele>
        <time>2015-09-04T16:17:36.000Z</time>
      </trkpt>
      <trkpt lat="43.1161" lon="6.21269">
        <ele>46</ele>
        <time>2015-09-04T16:17:37.000Z</time>
      </trkpt>
      <trkpt lat="43.1161" lon="6.21269">
        <ele>46</ele>
        <time>2015-09-04T16:17:38.000Z</time>
      </trkpt>
      <trkpt lat="43.1161" lon="6.21269">
        <ele>46</ele>
        <time>2015-09-04T16:17:39.000Z</time>
      </trkpt>
      <trkpt lat="43.1161" lon="6.21269">
        <ele>46</ele>
        <time>2015-09-04T16:17:40.000Z</time>
      </trkpt>
      <trkpt lat="43.1161" lon="6.21269">
        <ele>46</ele>
        <time>2015-09-04T16:17:41.000Z</time>
      </trkpt>
      <trkpt lat="43.1161" lon="6.21269">
        <ele>46</ele>
        <time>2015-09-04T16:17:42.000Z</time>
      </trkpt>
      <trkpt lat="43.1161" lon="6.21269">
        <ele>46</ele>
        <time>2015-09-04T16:17:43.000Z</time>
      </trkpt>
      <trkpt lat="43.1161" lon="6.21269">
        <ele>46</ele>
        <time>2015-09-04T16:17:44.000Z</time>
      </trkpt>
      <trkpt lat="43.1161" lon="6.21269">
        <ele>46</ele>
        <time>2015-09-04T16:17:45.000Z</time>
      </trkpt>
      <trkpt lat="43.1161" lon="6.21269">
        <ele>46</ele>
        <time>2015-09-04T16:17:46.000Z</time>
      </trkpt>
      <trkpt lat="43.1161" lon="6.21269">
        <ele>46</ele>
        <time>2015-09-04T16:17:47.000Z</time>
      </trkpt>
      <trkpt lat="43.1161" lon="6.21269">
        <ele>46</ele>
        <time>2015-09-04T16:17:48.000Z</time>
      </trkpt>
      <trkpt lat="43.11609" lon="6.21269">
        <ele>47</ele>
        <time>2015-09-04T16:17:49.000Z</time>
      </trkpt>
      <trkpt lat="43.11608" lon="6.2127">
        <ele>48</ele>
        <time>2015-09-04T16:17:50.000Z</time>
      </trkpt>
      <trkpt lat="43.11607" lon="6.2127">
        <ele>47</ele>
        <time>2015-09-04T16:17:51.000Z</time>
      </trkpt>
      <trkpt lat="43.11606" lon="6.2127">
        <ele>46</ele>
        <time>2015-09-04T16:17:52.000Z</time>
      </trkpt>
      <trkpt lat="43.11605" lon="6.2127">
        <ele>46</ele>
        <time>2015-09-04T16:17:53.000Z</time>
      </trkpt>
      <trkpt lat="43.11604" lon="6.21271">
        <ele>47</ele>
        <time>2015-09-04T16:17:54.000Z</time>
      </trkpt>
      <trkpt lat="43.11603" lon="6.21271">
        <ele>47</ele>
        <time>2015-09-04T16:17:55.000Z</time>
      </trkpt>
      <trkpt lat="43.11602" lon="6.21271">
        <ele>46</ele>
        <time>2015-09-04T16:17:56.000Z</time>
      </trkpt>
      <trkpt lat="43.11601" lon="6.21272">
        <ele>48</ele>
        <time>2015-09-04T16:17:57.000Z</time>
      </trkpt>
      <trkpt lat="43.116" lon="6.21272">
        <ele>49</ele>
        <time>2015-09-04T16:17:58.000Z</time>
      </trkpt>
      <trkpt lat="43.11599" lon="6.21273">
        <ele>48</ele>
        <time>2015-09-04T16:17:59.000Z</time>
      </trkpt>
      <trkpt lat="43.11598" lon="6.21273">
        <ele>49</ele>
        <time>2015-09-04T16:18:00.000Z</time>
      </trkpt>
      <trkpt lat="43.11597" lon="6.21273">
        <ele>50</ele>
        <time>2015-09-04T16:18:01.000Z</time>
      </trkpt>
      <trkpt lat="43.11596" lon="6.21273">
        <ele>50</ele>
        <time>2015-09-04T16:18:02.000Z</time>
      </trkpt>
      <trkpt lat="43.11595" lon="6.21274">
        <ele>49</ele>
        <time>2015-09-04T16:18:03.000Z</time>
      </trkpt>
      <trkpt lat="43.11594" lon="6.21274">
        <ele>49</ele>
        <time>2015-09-04T16:18:04.000Z</time>
      </trkpt>
      <trkpt lat="43.11593" lon="6.21275">
        <ele>50</ele>
        <time>2015-09-04T16:18:05.000Z</time>
      </trkpt>
      <trkpt lat="43.11592" lon="6.21275">
        <ele>50</ele>
        <time>2015-09-04T16:18:06.000Z</time>
      </trkpt>
      <trkpt lat="43.11592" lon="6.21276">
        <ele>51</ele>
        <time>2015-09-04T16:18:07.000Z</time>
      </trkpt>
      <trkpt lat="43.11591" lon="6.21277">
        <ele>51</ele>
        <time>2015-09-04T16:18:08.000Z</time>
      </trkpt>
      <trkpt lat="43.11591" lon="6.21277">
        <ele>51</ele>
        <time>2015-09-04T16:18:09.000Z</time>
      </trkpt>
      <trkpt lat="43.11591" lon="6.21277">
        <ele>50</ele>
        <time>2015-09-04T16:18:10.000Z</time>
      </trkpt>
      <trkpt lat="43.11591" lon="6.21278">
        <ele>50</ele>
        <time>2015-09-04T16:18:11.000Z</time>
      </trkpt>
      <trkpt lat="43.11591" lon="6.21278">
        <ele>50</ele>
        <time>2015-09-04T16:18:12.000Z</time>
      </trkpt>
      <trkpt lat="43.11591" lon="6.21278">
        <ele>50</ele>
        <time>2015-09-04T16:18:13.000Z</time>
      </trkpt>
      <trkpt lat="43.11591" lon="6.21278">
        <ele>49</ele>
        <time>2015-09-04T16:18:14.000Z</time>
      </trkpt>
      <trkpt lat="43.1159" lon="6.21278">
        <ele>49</ele>
        <time>2015-09-04T16:18:15.000Z</time>
      </trkpt>
      <trkpt lat="43.11589" lon="6.21277">
        <ele>49</ele>
        <time>2015-09-04T16:18:16.000Z</time>
      </trkpt>
      <trkpt lat="43.11588" lon="6.21277">
        <ele>49</ele>
        <time>2015-09-04T16:18:17.000Z</time>
      </trkpt>
      <trkpt lat="43.11587" lon="6.21277">
        <ele>49</ele>
        <time>2015-09-04T16:18:18.000Z</time>
      </trkpt>
      <trkpt lat="43.11586" lon="6.21277">
        <ele>49</ele>
        <time>2015-09-04T16:18:19.000Z</time>
      </trkpt>
      <trkpt lat="43.11585" lon="6.21278">
        <ele>48</ele>
        <time>2015-09-04T16:18:20.000Z</time>
      </trkpt>
      <trkpt lat="43.11584" lon="6.21278">
        <ele>48</ele>
        <time>2015-09-04T16:18:21.000Z</time>
      </trkpt>
      <trkpt lat="43.11583" lon="6.21278">
        <ele>48</ele>
        <time>2015-09-04T16:18:22.000Z</time>
      </trkpt>
      <trkpt lat="43.11582" lon="6.21278">
        <ele>48</ele>
        <time>2015-09-04T16:18:23.000Z</time>
      </trkpt>
      <trkpt lat="43.11581" lon="6.21278">
        <ele>48</ele>
        <time>2015-09-04T16:18:24.000Z</time>
      </trkpt>
      <trkpt lat="43.1158" lon="6.21278">
        <ele>48</ele>
        <time>2015-09-04T16:18:25.000Z</time>
      </trkpt>
      <trkpt lat="43.11579" lon="6.21278">
        <ele>48</ele>
        <time>2015-09-04T16:18:26.000Z</time>
      </trkpt>
      <trkpt lat="43.11578" lon="6.21278">
        <ele>48</ele>
        <time>2015-09-04T16:18:27.000Z</time>
      </trkpt>
      <trkpt lat="43.11577" lon="6.21278">
        <ele>49</ele>
        <time>2015-09-04T16:18:28.000Z</time>
      </trkpt>
      <trkpt lat="43.11576" lon="6.21277">
        <ele>49</ele>
        <time>2015-09-04T16:18:29.000Z</time>
      </trkpt>
      <trkpt lat="43.11576" lon="6.21277">
        <ele>48</ele>
        <time>2015-09-04T16:18:30.000Z</time>
      </trkpt>
      <trkpt lat="43.11575" lon="6.21276">
        <ele>48</ele>
        <time>2015-09-04T16:18:31.000Z</time>
      </trkpt>
      <trkpt lat="43.11574" lon="6.21276">
        <ele>47</ele>
        <time>2015-09-04T16:18:32.000Z</time>
      </trkpt>
      <trkpt lat="43.11573" lon="6.21275">
        <ele>47</ele>
        <time>2015-09-04T16:18:33.000Z</time>
      </trkpt>
      <trkpt lat="43.11573" lon="6.21275">
        <ele>48</ele>
        <time>2015-09-04T16:18:34.000Z</time>
      </trkpt>
      <trkpt lat="43.11572" lon="6.21275">
        <ele>47</ele>
        <time>2015-09-04T16:18:35.000Z</time>
      </trkpt>
      <trkpt lat="43.11571" lon="6.21274">
        <ele>47</ele>
        <time>2015-09-04T16:18:36.000Z</time>
      </trkpt>
      <trkpt lat="43.11571" lon="6.21274">
        <ele>47</ele>
        <time>2015-09-04T16:18:37.000Z</time>
      </trkpt>
      <trkpt lat="43.1157" lon="6.21274">
        <ele>47</ele>
        <time>2015-09-04T16:18:38.000Z</time>
      </trkpt>
      <trkpt lat="43.1157" lon="6.21275">
        <ele>48</ele>
        <time>2015-09-04T16:18:39.000Z</time>
      </trkpt>
      <trkpt lat="43.11569" lon="6.21274">
        <ele>48</ele>
        <time>2015-09-04T16:18:40.000Z</time>
      </trkpt>
      <trkpt lat="43.11568" lon="6.21274">
        <ele>47</ele>
        <time>2015-09-04T16:18:41.000Z</time>
      </trkpt>
      <trkpt lat="43.11568" lon="6.21274">
        <ele>47</ele>
        <time>2015-09-04T16:18:42.000Z</time>
      </trkpt>
      <trkpt lat="43.11567" lon="6.21274">
        <ele>45</ele>
        <time>2015-09-04T16:18:43.000Z</time>
      </trkpt>
      <trkpt lat="43.11567" lon="6.21274">
        <ele>46</ele>
        <time>2015-09-04T16:18:44.000Z</time>
      </trkpt>
      <trkpt lat="43.11566" lon="6.21273">
        <ele>45</ele>
        <time>2015-09-04T16:18:45.000Z</time>
      </trkpt>
      <trkpt lat="43.11566" lon="6.21273">
        <ele>45</ele>
        <time>2015-09-04T16:18:46.000Z</time>
      </trkpt>
      <trkpt lat="43.11565" lon="6.21274">
        <ele>45</ele>
        <time>2015-09-04T16:18:47.000Z</time>
      </trkpt>
      <trkpt lat="43.11565" lon="6.21274">
        <ele>44</ele>
        <time>2015-09-04T16:18:48.000Z</time>
      </trkpt>
      <trkpt lat="43.11564" lon="6.21274">
        <ele>45</ele>
        <time>2015-09-04T16:18:49.000Z</time>
      </trkpt>
      <trkpt lat="43.11564" lon="6.21274">
        <ele>45</ele>
        <time>2015-09-04T16:18:50.000Z</time>
      </trkpt>
      <trkpt lat="43.11563" lon="6.21274">
        <ele>43</ele>
        <time>2015-09-04T16:18:51.000Z</time>
      </trkpt>
      <trkpt lat="43.11563" lon="6.21275">
        <ele>44</ele>
        <time>2015-09-04T16:18:52.000Z</time>
      </trkpt>
      <trkpt lat="43.11562" lon="6.21275">
        <ele>45</ele>
        <time>2015-09-04T16:18:53.000Z</time>
      </trkpt>
      <trkpt lat="43.11562" lon="6.21275">
        <ele>45</ele>
        <time>2015-09-04T16:18:54.000Z</time>
      </trkpt>
      <trkpt lat="43.11561" lon="6.21275">
        <ele>45</ele>
        <time>2015-09-04T16:18:55.000Z</time>
      </trkpt>
      <trkpt lat="43.11561" lon="6.21275">
        <ele>43</ele>
        <time>2015-09-04T16:18:56.000Z</time>
      </trkpt>
      <trkpt lat="43.1156" lon="6.21275">
        <ele>42</ele>
        <time>2015-09-04T16:18:57.000Z</time>
      </trkpt>
      <trkpt lat="43.1156" lon="6.21275">
        <ele>42</ele>
        <time>2015-09-04T16:18:58.000Z</time>
      </trkpt>
      <trkpt lat="43.11559" lon="6.21275">
        <ele>42</ele>
        <time>2015-09-04T16:18:59.000Z</time>
      </trkpt>
      <trkpt lat="43.11559" lon="6.21275">
        <ele>42</ele>
        <time>2015-09-04T16:19:00.000Z</time>
      </trkpt>
      <trkpt lat="43.11558" lon="6.21275">
        <ele>42</ele>
        <time>2015-09-04T16:19:01.000Z</time>
      </trkpt>
      <trkpt lat="43.11557" lon="6.21275">
        <ele>42</ele>
        <time>2015-09-04T16:19:02.000Z</time>
      </trkpt>
      <trkpt lat="43.11556" lon="6.21275">
        <ele>42</ele>
        <time>2015-09-04T16:19:03.000Z</time>
      </trkpt>
      <trkpt lat="43.11554" lon="6.21274">
        <ele>41</ele>
        <time>2015-09-04T16:19:04.000Z</time>
      </trkpt>
      <trkpt lat="43.11553" lon="6.21274">
        <ele>42</ele>
        <time>2015-09-04T16:19:05.000Z</time>
      </trkpt>
      <trkpt lat="43.11551" lon="6.21274">
        <ele>42</ele>
        <time>2015-09-04T16:19:06.000Z</time>
      </trkpt>
      <trkpt lat="43.1155" lon="6.21274">
        <ele>41</ele>
        <time>2015-09-04T16:19:07.000Z</time>
      </trkpt>
      <trkpt lat="43.11549" lon="6.21274">
        <ele>41</ele>
        <time>2015-09-04T16:19:08.000Z</time>
      </trkpt>
      <trkpt lat="43.11547" lon="6.21274">
        <ele>41</ele>
        <time>2015-09-04T16:19:09.000Z</time>
      </trkpt>
      <trkpt lat="43.11546" lon="6.21274">
        <ele>42</ele>
        <time>2015-09-04T16:19:10.000Z</time>
      </trkpt>
      <trkpt lat="43.11545" lon="6.21273">
        <ele>42</ele>
        <time>2015-09-04T16:19:11.000Z</time>
      </trkpt>
      <trkpt lat="43.11543" lon="6.21273">
        <ele>42</ele>
        <time>2015-09-04T16:19:12.000Z</time>
      </trkpt>
      <trkpt lat="43.11541" lon="6.21273">
        <ele>43</ele>
        <time>2015-09-04T16:19:13.000Z</time>
      </trkpt>
      <trkpt lat="43.1154" lon="6.21274">
        <ele>43</ele>
        <time>2015-09-04T16:19:14.000Z</time>
      </trkpt>
      <trkpt lat="43.11538" lon="6.21275">
        <ele>44</ele>
        <time>2015-09-04T16:19:15.000Z</time>
      </trkpt>
      <trkpt lat="43.11536" lon="6.21276">
        <ele>44</ele>
        <time>2015-09-04T16:19:16.000Z</time>
      </trkpt>
      <trkpt lat="43.11534" lon="6.21276">
        <ele>45</ele>
        <time>2015-09-04T16:19:17.000Z</time>
      </trkpt>
      <trkpt lat="43.11533" lon="6.21277">
        <ele>45</ele>
        <time>2015-09-04T16:19:18.000Z</time>
      </trkpt>
      <trkpt lat="43.11531" lon="6.21277">
        <ele>45</ele>
        <time>2015-09-04T16:19:19.000Z</time>
      </trkpt>
      <trkpt lat="43.11529" lon="6.21278">
        <ele>46</ele>
        <time>2015-09-04T16:19:20.000Z</time>
      </trkpt>
      <trkpt lat="43.11527" lon="6.21278">
        <ele>48</ele>
        <time>2015-09-04T16:19:21.000Z</time>
      </trkpt>
      <trkpt lat="43.11525" lon="6.21278">
        <ele>48</ele>
        <time>2015-09-04T16:19:22.000Z</time>
      </trkpt>
      <trkpt lat="43.11523" lon="6.21278">
        <ele>47</ele>
        <time>2015-09-04T16:19:23.000Z</time>
      </trkpt>
      <trkpt lat="43.11521" lon="6.21278">
        <ele>48</ele>
        <time>2015-09-04T16:19:24.000Z</time>
      </trkpt>
      <trkpt lat="43.1152" lon="6.21277">
        <ele>49</ele>
        <time>2015-09-04T16:19:25.000Z</time>
      </trkpt>
      <trkpt lat="43.11518" lon="6.21277">
        <ele>49</ele>
        <time>2015-09-04T16:19:26.000Z</time>
      </trkpt>
      <trkpt lat="43.11516" lon="6.21276">
        <ele>49</ele>
        <time>2015-09-04T16:19:27.000Z</time>
      </trkpt>
      <trkpt lat="43.11515" lon="6.21276">
        <ele>49</ele>
        <time>2015-09-04T16:19:28.000Z</time>
      </trkpt>
      <trkpt lat="43.11513" lon="6.21276">
        <ele>48</ele>
        <time>2015-09-04T16:19:29.000Z</time>
      </trkpt>
      <trkpt lat="43.11512" lon="6.21275">
        <ele>49</ele>
        <time>2015-09-04T16:19:30.000Z</time>
      </trkpt>
      <trkpt lat="43.1151" lon="6.21275">
        <ele>49</ele>
        <time>2015-09-04T16:19:31.000Z</time>
      </trkpt>
      <trkpt lat="43.11508" lon="6.21274">
        <ele>49</ele>
        <time>2015-09-04T16:19:32.000Z</time>
      </trkpt>
      <trkpt lat="43.11506" lon="6.21273">
        <ele>50</ele>
        <time>2015-09-04T16:19:33.000Z</time>
      </trkpt>
      <trkpt lat="43.11504" lon="6.21272">
        <ele>49</ele>
        <time>2015-09-04T16:19:34.000Z</time>
      </trkpt>
      <trkpt lat="43.11502" lon="6.21271">
        <ele>49</ele>
        <time>2015-09-04T16:19:35.000Z</time>
      </trkpt>
      <trkpt lat="43.115" lon="6.2127">
        <ele>49</ele>
        <time>2015-09-04T16:19:36.000Z</time>
      </trkpt>
      <trkpt lat="43.11498" lon="6.21269">
        <ele>48</ele>
        <time>2015-09-04T16:19:37.000Z</time>
      </trkpt>
      <trkpt lat="43.11496" lon="6.21267">
        <ele>49</ele>
        <time>2015-09-04T16:19:38.000Z</time>
      </trkpt>
      <trkpt lat="43.11494" lon="6.21266">
        <ele>49</ele>
        <time>2015-09-04T16:19:39.000Z</time>
      </trkpt>
      <trkpt lat="43.11493" lon="6.21264">
        <ele>49</ele>
        <time>2015-09-04T16:19:40.000Z</time>
      </trkpt>
      <trkpt lat="43.11491" lon="6.21263">
        <ele>49</ele>
        <time>2015-09-04T16:19:41.000Z</time>
      </trkpt>
      <trkpt lat="43.11489" lon="6.21261">
        <ele>49</ele>
        <time>2015-09-04T16:19:42.000Z</time>
      </trkpt>
      <trkpt lat="43.11487" lon="6.2126">
        <ele>49</ele>
        <time>2015-09-04T16:19:43.000Z</time>
      </trkpt>
      <trkpt lat="43.11485" lon="6.21258">
        <ele>49</ele>
        <time>2015-09-04T16:19:44.000Z</time>
      </trkpt>
      <trkpt lat="43.11483" lon="6.21256">
        <ele>49</ele>
        <time>2015-09-04T16:19:45.000Z</time>
      </trkpt>
      <trkpt lat="43.11481" lon="6.21255">
        <ele>49</ele>
        <time>2015-09-04T16:19:46.000Z</time>
      </trkpt>
      <trkpt lat="43.1148" lon="6.21253">
        <ele>49</ele>
        <time>2015-09-04T16:19:47.000Z</time>
      </trkpt>
      <trkpt lat="43.11478" lon="6.21251">
        <ele>49</ele>
        <time>2015-09-04T16:19:48.000Z</time>
      </trkpt>
      <trkpt lat="43.11476" lon="6.21249">
        <ele>49</ele>
        <time>2015-09-04T16:19:49.000Z</time>
      </trkpt>
      <trkpt lat="43.11474" lon="6.21246">
        <ele>48</ele>
        <time>2015-09-04T16:19:50.000Z</time>
      </trkpt>
      <trkpt lat="43.11473" lon="6.21244">
        <ele>48</ele>
        <time>2015-09-04T16:19:51.000Z</time>
      </trkpt>
      <trkpt lat="43.11471" lon="6.21242">
        <ele>48</ele>
        <time>2015-09-04T16:19:52.000Z</time>
      </trkpt>
      <trkpt lat="43.11469" lon="6.21239">
        <ele>48</ele>
        <time>2015-09-04T16:19:53.000Z</time>
      </trkpt>
      <trkpt lat="43.11467" lon="6.21236">
        <ele>49</ele>
        <time>2015-09-04T16:19:54.000Z</time>
      </trkpt>
      <trkpt lat="43.11466" lon="6.21234">
        <ele>49</ele>
        <time>2015-09-04T16:19:55.000Z</time>
      </trkpt>
      <trkpt lat="43.11464" lon="6.21231">
        <ele>49</ele>
        <time>2015-09-04T16:19:56.000Z</time>
      </trkpt>
    </trkseg>
  </trk>
</gpx>